<?xml version='1.0' encoding='UTF-8'?><gpx version="1.1" creator="JPX - https://github.com/jenetics/jpx" xmlns="http://www.topografix.com/GPX/1/1"><trk><trkseg><trkpt lat="45.05281985935816" lon="9.648097016526934"><ele>60.0</ele><time>2026-04-07T12:04:11.002Z</time></trkpt><trkpt lat="45.052927165455294" lon="9.648049970552494"><ele>60.0</ele><time>2026-04-07T12:04:19.002Z</time></trkpt><trkpt lat="45.052940378890604" lon="9.64815608553161"><ele>60.0</ele><time>2026-04-07T12:04:23.002Z</time></trkpt><trkpt lat="45.052909572095565" lon="9.648251770035724"><ele>60.0</ele><time>2026-04-07T12:04:26.002Z</time></trkpt><trkpt lat="45.052915129451925" lon="9.648360950358747"><ele>60.0</ele><time>2026-04-07T12:04:29.002Z</time></trkpt><trkpt lat="45.05291334203673" lon="9.648466058057304"><ele>60.0</ele><time>2026-04-07T12:04:31.002Z</time></trkpt><trkpt lat="45.05292109976478" lon="9.648574994595725"><ele>60.0</ele><time>2026-04-07T12:04:34.002Z</time></trkpt><trkpt lat="45.052929218139816" lon="9.64866649282793"><ele>60.0</ele><time>2026-04-07T12:04:36.002Z</time></trkpt><trkpt lat="45.052921677988714" lon="9.648793704819775"><ele>60.0</ele><time>2026-04-07T12:04:39.002Z</time></trkpt><trkpt lat="45.05290062616294" lon="9.648882420194061"><ele>60.0</ele><time>2026-04-07T12:04:41.002Z</time></trkpt><trkpt lat="45.05289033344216" lon="9.648976568950527"><ele>60.0</ele><time>2026-04-07T12:04:43.002Z</time></trkpt><trkpt lat="45.05287878863904" lon="9.6490737766297"><ele>60.0</ele><time>2026-04-07T12:04:45.002Z</time></trkpt><trkpt lat="45.05287131946943" lon="9.649163473008265"><ele>60.0</ele><time>2026-04-07T12:04:47.002Z</time></trkpt><trkpt lat="45.052851056507905" lon="9.649265815064014"><ele>60.0</ele><time>2026-04-07T12:04:49.002Z</time></trkpt><trkpt lat="45.05283939964763" lon="9.649380864034484"><ele>60.0</ele><time>2026-04-07T12:04:51.002Z</time></trkpt><trkpt lat="45.05283055361548" lon="9.649497864743331"><ele>60.0</ele><time>2026-04-07T12:04:53.002Z</time></trkpt><trkpt lat="45.05282191420415" lon="9.649599326298022"><ele>60.0</ele><time>2026-04-07T12:04:55.002Z</time></trkpt><trkpt lat="45.05280762161626" lon="9.649713820377467"><ele>60.0</ele><time>2026-04-07T12:04:57.002Z</time></trkpt><trkpt lat="45.052803975650335" lon="9.649828654537867"><ele>60.0</ele><time>2026-04-07T12:04:59.002Z</time></trkpt><trkpt lat="45.05277804154805" lon="9.649956244772675"><ele>59.833333333333336</ele><time>2026-04-07T12:05:02.002Z</time></trkpt><trkpt lat="45.05268723037318" lon="9.64996665994579"><ele>59.66666666666667</ele><time>2026-04-07T12:05:05.002Z</time></trkpt><trkpt lat="45.052621610130345" lon="9.649935317103719"><ele>59.5</ele><time>2026-04-07T12:05:07.002Z</time></trkpt><trkpt lat="45.05255493289841" lon="9.649925668588125"><ele>59.333333333333336</ele><time>2026-04-07T12:05:09.002Z</time></trkpt><trkpt lat="45.052481235422235" lon="9.649919286080776"><ele>59.16666666666667</ele><time>2026-04-07T12:05:11.002Z</time></trkpt><trkpt lat="45.05240142255942" lon="9.6499042306222"><ele>59.0</ele><time>2026-04-07T12:05:13.002Z</time></trkpt><trkpt lat="45.05233231659171" lon="9.649890516502774"><ele>59.0</ele><time>2026-04-07T12:05:15.002Z</time></trkpt><trkpt lat="45.05226803683788" lon="9.649869131308739"><ele>59.0</ele><time>2026-04-07T12:05:17.002Z</time></trkpt><trkpt lat="45.05220982787415" lon="9.649827899021131"><ele>59.0</ele><time>2026-04-07T12:05:19.002Z</time></trkpt><trkpt lat="45.0521331733036" lon="9.64979431977005"><ele>59.0</ele><time>2026-04-07T12:05:22.002Z</time></trkpt><trkpt lat="45.05206122933595" lon="9.649783407768979"><ele>59.0</ele><time>2026-04-07T12:05:25.002Z</time></trkpt><trkpt lat="45.0519831711334" lon="9.649772127245072"><ele>59.0</ele><time>2026-04-07T12:05:28.002Z</time></trkpt><trkpt lat="45.05192010826871" lon="9.649760739232864"><ele>59.0</ele><time>2026-04-07T12:05:30.002Z</time></trkpt><trkpt lat="45.051857662083854" lon="9.649742152613996"><ele>59.00000000000001</ele><time>2026-04-07T12:05:32.003Z</time></trkpt><trkpt lat="45.051777205470096" lon="9.649708573099957"><ele>59.0</ele><time>2026-04-07T12:05:35.003Z</time></trkpt><trkpt lat="45.051704014497744" lon="9.649688639646037"><ele>59.0</ele><time>2026-04-07T12:05:38.003Z</time></trkpt><trkpt lat="45.05164403569078" lon="9.64971867871758"><ele>59.0</ele><time>2026-04-07T12:05:41.003Z</time></trkpt><trkpt lat="45.05162694680398" lon="9.649827265266277"><ele>59.00000000000001</ele><time>2026-04-07T12:05:44.003Z</time></trkpt><trkpt lat="45.05162905730204" lon="9.649934792031962"><ele>59.0</ele><time>2026-04-07T12:05:46.003Z</time></trkpt><trkpt lat="45.05162914082598" lon="9.65003941722159"><ele>59.00000000000001</ele><time>2026-04-07T12:05:48.003Z</time></trkpt><trkpt lat="45.05161794151096" lon="9.650152616284373"><ele>59.0</ele><time>2026-04-07T12:05:50.003Z</time></trkpt><trkpt lat="45.05160920723675" lon="9.650266572804743"><ele>59.0</ele><time>2026-04-07T12:05:52.003Z</time></trkpt><trkpt lat="45.051604306508054" lon="9.650387538384564"><ele>59.0</ele><time>2026-04-07T12:05:54.003Z</time></trkpt><trkpt lat="45.051595746119446" lon="9.650498754871371"><ele>59.00000000000001</ele><time>2026-04-07T12:05:56.003Z</time></trkpt><trkpt lat="45.051576863767615" lon="9.65061301036547"><ele>59.0</ele><time>2026-04-07T12:05:58.003Z</time></trkpt><trkpt lat="45.05154020147335" lon="9.650726457000347"><ele>59.0</ele><time>2026-04-07T12:06:00.003Z</time></trkpt><trkpt lat="45.05152115974949" lon="9.650848048823757"><ele>59.00000000000001</ele><time>2026-04-07T12:06:02.003Z</time></trkpt><trkpt lat="45.051503960138966" lon="9.65097596585113"><ele>59.00000000000001</ele><time>2026-04-07T12:06:04.003Z</time></trkpt><trkpt lat="45.05149554335203" lon="9.651114620786318"><ele>59.0</ele><time>2026-04-07T12:06:06.003Z</time></trkpt><trkpt lat="45.05148433045251" lon="9.65125409126331"><ele>59.0</ele><time>2026-04-07T12:06:08.003Z</time></trkpt><trkpt lat="45.05146732710629" lon="9.651397798435585"><ele>59.0</ele><time>2026-04-07T12:06:10.003Z</time></trkpt><trkpt lat="45.05145293478871" lon="9.65152834576455"><ele>59.00000000000001</ele><time>2026-04-07T12:06:12.003Z</time></trkpt><trkpt lat="45.05144081826433" lon="9.651672280604513"><ele>59.00000000000001</ele><time>2026-04-07T12:06:14.003Z</time></trkpt><trkpt lat="45.051436708754665" lon="9.651810105973587"><ele>59.0</ele><time>2026-04-07T12:06:16.003Z</time></trkpt><trkpt lat="45.05143271757877" lon="9.651952516871106"><ele>59.0</ele><time>2026-04-07T12:06:18.003Z</time></trkpt><trkpt lat="45.051420250686306" lon="9.652088638487111"><ele>59.0</ele><time>2026-04-07T12:06:20.003Z</time></trkpt><trkpt lat="45.05140639622695" lon="9.652231236350119"><ele>59.00000000000001</ele><time>2026-04-07T12:06:22.003Z</time></trkpt><trkpt lat="45.05139116497604" lon="9.652368935647422"><ele>59.00000000000001</ele><time>2026-04-07T12:06:24.003Z</time></trkpt><trkpt lat="45.05138413069015" lon="9.652501100212604"><ele>59.0</ele><time>2026-04-07T12:06:26.003Z</time></trkpt><trkpt lat="45.05137588596253" lon="9.652633330390984"><ele>59.0</ele><time>2026-04-07T12:06:28.003Z</time></trkpt><trkpt lat="45.05136456758159" lon="9.652769456972159"><ele>58.800000000000004</ele><time>2026-04-07T12:06:30.003Z</time></trkpt><trkpt lat="45.05134771737121" lon="9.652901293615018"><ele>58.60000000000001</ele><time>2026-04-07T12:06:32.003Z</time></trkpt><trkpt lat="45.05134080696233" lon="9.653037633897325"><ele>58.4</ele><time>2026-04-07T12:06:34.003Z</time></trkpt><trkpt lat="45.05133935580167" lon="9.653171253107303"><ele>58.2</ele><time>2026-04-07T12:06:36.003Z</time></trkpt><trkpt lat="45.05133895656414" lon="9.653303666699347"><ele>58.0</ele><time>2026-04-07T12:06:38.003Z</time></trkpt><trkpt lat="45.05134482091007" lon="9.653432268674324"><ele>57.99999999999999</ele><time>2026-04-07T12:06:40.003Z</time></trkpt><trkpt lat="45.05137763117926" lon="9.653552822172921"><ele>58.0</ele><time>2026-04-07T12:06:42.003Z</time></trkpt><trkpt lat="45.05140988101567" lon="9.653665059682625"><ele>58.0</ele><time>2026-04-07T12:06:44.003Z</time></trkpt><trkpt lat="45.051436554368344" lon="9.653776341354568"><ele>58.0</ele><time>2026-04-07T12:06:46.003Z</time></trkpt><trkpt lat="45.05143495049075" lon="9.653899106495487"><ele>57.99999999999999</ele><time>2026-04-07T12:06:48.003Z</time></trkpt><trkpt lat="45.051395340028805" lon="9.654013350356387"><ele>58.0</ele><time>2026-04-07T12:06:50.003Z</time></trkpt><trkpt lat="45.051332805262675" lon="9.654100123501083"><ele>57.83333333333333</ele><time>2026-04-07T12:06:52.003Z</time></trkpt><trkpt lat="45.05127549599461" lon="9.654154678898303"><ele>57.666666666666664</ele><time>2026-04-07T12:06:54.003Z</time></trkpt><trkpt lat="45.05120122252492" lon="9.654186792399928"><ele>57.5</ele><time>2026-04-07T12:06:58.003Z</time></trkpt><trkpt lat="45.05111554308368" lon="9.654166146584696"><ele>57.33333333333333</ele><time>2026-04-07T12:07:01.003Z</time></trkpt><trkpt lat="45.05104571274401" lon="9.65417031556457"><ele>57.166666666666664</ele><time>2026-04-07T12:07:03.003Z</time></trkpt><trkpt lat="45.05096607464647" lon="9.654135456876897"><ele>57.0</ele><time>2026-04-07T12:07:05.003Z</time></trkpt><trkpt lat="45.05089058299143" lon="9.654083960938816"><ele>57.0</ele><time>2026-04-07T12:07:07.003Z</time></trkpt><trkpt lat="45.050807515858786" lon="9.654073307032618"><ele>57.0</ele><time>2026-04-07T12:07:09.003Z</time></trkpt><trkpt lat="45.0507218761184" lon="9.654114481901132"><ele>57.0</ele><time>2026-04-07T12:07:11.003Z</time></trkpt><trkpt lat="45.05063729358849" lon="9.654144387032158"><ele>57.0</ele><time>2026-04-07T12:07:13.003Z</time></trkpt><trkpt lat="45.050549864545296" lon="9.6541760811627"><ele>57.0</ele><time>2026-04-07T12:07:15.003Z</time></trkpt><trkpt lat="45.050462342115175" lon="9.654209543250587"><ele>57.0</ele><time>2026-04-07T12:07:17.004Z</time></trkpt><trkpt lat="45.050375082580146" lon="9.654235402926993"><ele>57.400000000000006</ele><time>2026-04-07T12:07:19.004Z</time></trkpt><trkpt lat="45.0502876500985" lon="9.654267612210369"><ele>57.800000000000004</ele><time>2026-04-07T12:07:21.004Z</time></trkpt><trkpt lat="45.05019875369089" lon="9.65430088997302"><ele>58.2</ele><time>2026-04-07T12:07:23.004Z</time></trkpt><trkpt lat="45.05010816489469" lon="9.65432893040948"><ele>58.6</ele><time>2026-04-07T12:07:25.004Z</time></trkpt><trkpt lat="45.050016965477354" lon="9.654361353511113"><ele>59.0</ele><time>2026-04-07T12:07:27.004Z</time></trkpt><trkpt lat="45.04992992800014" lon="9.654390841658056"><ele>59.2</ele><time>2026-04-07T12:07:29.004Z</time></trkpt><trkpt lat="45.04984032602955" lon="9.65442100029173"><ele>59.400000000000006</ele><time>2026-04-07T12:07:31.004Z</time></trkpt><trkpt lat="45.04975254419029" lon="9.654463933893572"><ele>59.6</ele><time>2026-04-07T12:07:33.004Z</time></trkpt><trkpt lat="45.04966551079851" lon="9.654499939275604"><ele>59.8</ele><time>2026-04-07T12:07:35.004Z</time></trkpt><trkpt lat="45.049579832274524" lon="9.654532264920903"><ele>60.0</ele><time>2026-04-07T12:07:37.004Z</time></trkpt><trkpt lat="45.04949732612774" lon="9.654574032119712"><ele>60.0</ele><time>2026-04-07T12:07:39.004Z</time></trkpt><trkpt lat="45.04941131571889" lon="9.654611221943526"><ele>60.0</ele><time>2026-04-07T12:07:41.004Z</time></trkpt><trkpt lat="45.04932203848087" lon="9.654644447554872"><ele>60.0</ele><time>2026-04-07T12:07:43.004Z</time></trkpt><trkpt lat="45.04923040002556" lon="9.654682804038316"><ele>60.0</ele><time>2026-04-07T12:07:45.004Z</time></trkpt><trkpt lat="45.04914129279733" lon="9.654721726844882"><ele>60.0</ele><time>2026-04-07T12:07:47.004Z</time></trkpt><trkpt lat="45.04905023368972" lon="9.654757509399667"><ele>60.0</ele><time>2026-04-07T12:07:49.004Z</time></trkpt><trkpt lat="45.04896553221852" lon="9.654791195293017"><ele>60.0</ele><time>2026-04-07T12:07:51.004Z</time></trkpt><trkpt lat="45.048876640802625" lon="9.654825736036937"><ele>60.0</ele><time>2026-04-07T12:07:53.004Z</time></trkpt><trkpt lat="45.04879234964713" lon="9.654865344028845"><ele>60.0</ele><time>2026-04-07T12:07:55.004Z</time></trkpt><trkpt lat="45.04870205929163" lon="9.654893446968764"><ele>60.0</ele><time>2026-04-07T12:07:57.004Z</time></trkpt><trkpt lat="45.0486124804687" lon="9.654938888859148"><ele>60.0</ele><time>2026-04-07T12:07:59.004Z</time></trkpt><trkpt lat="45.04852268481839" lon="9.65497382646808"><ele>60.0</ele><time>2026-04-07T12:08:01.004Z</time></trkpt><trkpt lat="45.04843720899103" lon="9.655015888236644"><ele>60.0</ele><time>2026-04-07T12:08:03.004Z</time></trkpt><trkpt lat="45.048345271214686" lon="9.655045726873755"><ele>60.0</ele><time>2026-04-07T12:08:05.004Z</time></trkpt><trkpt lat="45.048259571597775" lon="9.65508271444294"><ele>60.0</ele><time>2026-04-07T12:08:07.004Z</time></trkpt><trkpt lat="45.048182050228846" lon="9.655110549585237"><ele>60.0</ele><time>2026-04-07T12:08:09.004Z</time></trkpt><trkpt lat="45.0480922715765" lon="9.655153655204412"><ele>60.0</ele><time>2026-04-07T12:08:11.004Z</time></trkpt><trkpt lat="45.04800412761604" lon="9.655189046686706"><ele>60.0</ele><time>2026-04-07T12:08:13.004Z</time></trkpt><trkpt lat="45.04792251230546" lon="9.655224764062451"><ele>60.0</ele><time>2026-04-07T12:08:15.004Z</time></trkpt><trkpt lat="45.04783405575158" lon="9.655249140612408"><ele>60.0</ele><time>2026-04-07T12:08:17.004Z</time></trkpt><trkpt lat="45.047752539275145" lon="9.655281913148913"><ele>60.0</ele><time>2026-04-07T12:08:19.004Z</time></trkpt><trkpt lat="45.047664198022" lon="9.655316624819239"><ele>60.0</ele><time>2026-04-07T12:08:21.004Z</time></trkpt><trkpt lat="45.04757572421219" lon="9.65535277427952"><ele>60.0</ele><time>2026-04-07T12:08:23.004Z</time></trkpt><trkpt lat="45.04749826196522" lon="9.655386018702814"><ele>60.0</ele><time>2026-04-07T12:08:25.004Z</time></trkpt><trkpt lat="45.04741264822013" lon="9.65542628675224"><ele>60.0</ele><time>2026-04-07T12:08:27.004Z</time></trkpt><trkpt lat="45.04732533350337" lon="9.655466861231002"><ele>60.0</ele><time>2026-04-07T12:08:29.004Z</time></trkpt><trkpt lat="45.047241406806116" lon="9.655521186294555"><ele>60.0</ele><time>2026-04-07T12:08:31.004Z</time></trkpt><trkpt lat="45.04716346341603" lon="9.655574973082057"><ele>60.0</ele><time>2026-04-07T12:08:33.004Z</time></trkpt><trkpt lat="45.04708945969774" lon="9.65564458127888"><ele>60.0</ele><time>2026-04-07T12:08:35.004Z</time></trkpt><trkpt lat="45.047024896868" lon="9.655719597672066"><ele>60.0</ele><time>2026-04-07T12:08:37.004Z</time></trkpt><trkpt lat="45.04696318572897" lon="9.655816990804984"><ele>60.0</ele><time>2026-04-07T12:08:39.004Z</time></trkpt><trkpt lat="45.04690206898016" lon="9.65590965179216"><ele>60.0</ele><time>2026-04-07T12:08:41.004Z</time></trkpt><trkpt lat="45.04684418011468" lon="9.65599943153026"><ele>60.0</ele><time>2026-04-07T12:08:43.004Z</time></trkpt><trkpt lat="45.04678571494983" lon="9.656083442238883"><ele>60.0</ele><time>2026-04-07T12:08:45.004Z</time></trkpt><trkpt lat="45.04673197654858" lon="9.656168856787025"><ele>59.85714285714286</ele><time>2026-04-07T12:08:47.004Z</time></trkpt><trkpt lat="45.04667350457995" lon="9.656252045035142"><ele>59.71428571428571</ele><time>2026-04-07T12:08:49.004Z</time></trkpt><trkpt lat="45.04662177075671" lon="9.656330866456967"><ele>59.57142857142857</ele><time>2026-04-07T12:08:51.004Z</time></trkpt><trkpt lat="45.046584499686325" lon="9.656413812207802"><ele>59.42857142857143</ele><time>2026-04-07T12:08:53.004Z</time></trkpt><trkpt lat="45.046548296365565" lon="9.656500135241844"><ele>59.28571428571429</ele><time>2026-04-07T12:08:55.004Z</time></trkpt><trkpt lat="45.046523056084034" lon="9.656587191296177"><ele>59.14285714285714</ele><time>2026-04-07T12:08:57.004Z</time></trkpt><trkpt lat="45.046509775344376" lon="9.656688585570466"><ele>59.0</ele><time>2026-04-07T12:08:59.004Z</time></trkpt><trkpt lat="45.04650826362878" lon="9.656786891410862"><ele>59.14285714285714</ele><time>2026-04-07T12:09:01.004Z</time></trkpt><trkpt lat="45.04651648885154" lon="9.656877627634241"><ele>59.28571428571429</ele><time>2026-04-07T12:09:03.005Z</time></trkpt><trkpt lat="45.04652050485084" lon="9.656969298062648"><ele>59.42857142857143</ele><time>2026-04-07T12:09:05.005Z</time></trkpt><trkpt lat="45.04652549708079" lon="9.657063367540754"><ele>59.57142857142857</ele><time>2026-04-07T12:09:07.005Z</time></trkpt><trkpt lat="45.04650720833788" lon="9.65714986981562"><ele>59.71428571428571</ele><time>2026-04-07T12:09:09.005Z</time></trkpt><trkpt lat="45.04644826721668" lon="9.65718947010705"><ele>59.85714285714286</ele><time>2026-04-07T12:09:12.005Z</time></trkpt><trkpt lat="45.04640805560751" lon="9.657275149430522"><ele>60.0</ele><time>2026-04-07T12:09:15.005Z</time></trkpt><trkpt lat="45.04641402112533" lon="9.657402930460867"><ele>60.0</ele><time>2026-04-07T12:09:18.005Z</time></trkpt><trkpt lat="45.04643823158972" lon="9.6574975400314"><ele>60.0</ele><time>2026-04-07T12:09:20.005Z</time></trkpt><trkpt lat="45.04645880157343" lon="9.657599844772873"><ele>60.0</ele><time>2026-04-07T12:09:22.005Z</time></trkpt><trkpt lat="45.046490520555245" lon="9.657710497798142"><ele>60.0</ele><time>2026-04-07T12:09:24.005Z</time></trkpt><trkpt lat="45.04651206376591" lon="9.65782986437116"><ele>60.0</ele><time>2026-04-07T12:09:26.005Z</time></trkpt><trkpt lat="45.04653929559843" lon="9.65794099676221"><ele>60.0</ele><time>2026-04-07T12:09:28.005Z</time></trkpt><trkpt lat="45.04657205990573" lon="9.65805050410729"><ele>60.166666666666664</ele><time>2026-04-07T12:09:30.005Z</time></trkpt><trkpt lat="45.046607535566174" lon="9.658160860804125"><ele>60.33333333333333</ele><time>2026-04-07T12:09:32.005Z</time></trkpt><trkpt lat="45.046624029268415" lon="9.658273591584955"><ele>60.5</ele><time>2026-04-07T12:09:34.005Z</time></trkpt><trkpt lat="45.046642697656914" lon="9.658381882990861"><ele>60.666666666666664</ele><time>2026-04-07T12:09:36.005Z</time></trkpt><trkpt lat="45.046669370672085" lon="9.658481320989324"><ele>60.83333333333333</ele><time>2026-04-07T12:09:38.005Z</time></trkpt><trkpt lat="45.046702841994644" lon="9.65858376965825"><ele>61.0</ele><time>2026-04-07T12:09:40.005Z</time></trkpt><trkpt lat="45.04672653908237" lon="9.658696065649158"><ele>60.99999999999999</ele><time>2026-04-07T12:09:42.005Z</time></trkpt><trkpt lat="45.046755185319256" lon="9.658798455804531"><ele>61.0</ele><time>2026-04-07T12:09:44.005Z</time></trkpt><trkpt lat="45.04678181520059" lon="9.658902582812154"><ele>61.0</ele><time>2026-04-07T12:09:46.005Z</time></trkpt><trkpt lat="45.046799263077524" lon="9.65900598538921"><ele>61.0</ele><time>2026-04-07T12:09:48.005Z</time></trkpt><trkpt lat="45.04683055564007" lon="9.659102054065587"><ele>60.99999999999999</ele><time>2026-04-07T12:09:50.005Z</time></trkpt><trkpt lat="45.046850107606375" lon="9.659196694822102"><ele>61.0</ele><time>2026-04-07T12:09:52.005Z</time></trkpt><trkpt lat="45.0468696874459" lon="9.659306725855265"><ele>60.99999999999999</ele><time>2026-04-07T12:09:54.005Z</time></trkpt><trkpt lat="45.04689051462939" lon="9.659415941288003"><ele>61.0</ele><time>2026-04-07T12:09:56.005Z</time></trkpt><trkpt lat="45.04691124077821" lon="9.659521880998575"><ele>60.99999999999999</ele><time>2026-04-07T12:09:58.005Z</time></trkpt><trkpt lat="45.04692982274246" lon="9.659622642726978"><ele>60.99999999999999</ele><time>2026-04-07T12:10:00.005Z</time></trkpt><trkpt lat="45.046937252497635" lon="9.659726807902423"><ele>61.0</ele><time>2026-04-07T12:10:02.005Z</time></trkpt><trkpt lat="45.04692014325807" lon="9.659815532477362"><ele>60.99999999999999</ele><time>2026-04-07T12:10:04.005Z</time></trkpt><trkpt lat="45.04685105989327" lon="9.659855333287721"><ele>60.99999999999999</ele><time>2026-04-07T12:10:06.005Z</time></trkpt><trkpt lat="45.04677542720767" lon="9.659871806079863"><ele>60.83333333333333</ele><time>2026-04-07T12:10:08.005Z</time></trkpt><trkpt lat="45.0467077851478" lon="9.659887501683398"><ele>60.666666666666664</ele><time>2026-04-07T12:10:10.005Z</time></trkpt><trkpt lat="45.046632025400655" lon="9.659914311391502"><ele>60.5</ele><time>2026-04-07T12:10:12.005Z</time></trkpt><trkpt lat="45.046559161289885" lon="9.659943179484328"><ele>60.33333333333333</ele><time>2026-04-07T12:10:14.005Z</time></trkpt><trkpt lat="45.04648243689763" lon="9.659969288542479"><ele>60.166666666666664</ele><time>2026-04-07T12:10:16.005Z</time></trkpt><trkpt lat="45.046404521795765" lon="9.660000028772375"><ele>60.0</ele><time>2026-04-07T12:10:18.005Z</time></trkpt><trkpt lat="45.046314596131324" lon="9.660034529285548"><ele>59.833333333333336</ele><time>2026-04-07T12:10:20.005Z</time></trkpt><trkpt lat="45.046230206789396" lon="9.660070213875827"><ele>59.66666666666667</ele><time>2026-04-07T12:10:22.005Z</time></trkpt><trkpt lat="45.04614032462787" lon="9.660079492998273"><ele>59.5</ele><time>2026-04-07T12:10:24.005Z</time></trkpt><trkpt lat="45.04605601586516" lon="9.66010274303311"><ele>59.333333333333336</ele><time>2026-04-07T12:10:26.005Z</time></trkpt><trkpt lat="45.04596988498143" lon="9.660126833348533"><ele>59.16666666666667</ele><time>2026-04-07T12:10:28.005Z</time></trkpt><trkpt lat="45.045881282829335" lon="9.660152035231443"><ele>59.0</ele><time>2026-04-07T12:10:30.005Z</time></trkpt><trkpt lat="45.04580072873217" lon="9.660176810250423"><ele>59.00000000000001</ele><time>2026-04-07T12:10:32.005Z</time></trkpt><trkpt lat="45.04571898172331" lon="9.660199558308435"><ele>59.0</ele><time>2026-04-07T12:10:34.005Z</time></trkpt><trkpt lat="45.04564004052681" lon="9.660223159747375"><ele>59.0</ele><time>2026-04-07T12:10:36.005Z</time></trkpt><trkpt lat="45.04556918849782" lon="9.660254274569468"><ele>59.0</ele><time>2026-04-07T12:10:38.005Z</time></trkpt><trkpt lat="45.04548993910627" lon="9.660261089063019"><ele>59.00000000000001</ele><time>2026-04-07T12:10:40.005Z</time></trkpt><trkpt lat="45.04541649793662" lon="9.660216679155946"><ele>59.0</ele><time>2026-04-07T12:10:42.005Z</time></trkpt><trkpt lat="45.045339324712565" lon="9.660186168926167"><ele>59.00000000000001</ele><time>2026-04-07T12:10:44.005Z</time></trkpt><trkpt lat="45.045260127181535" lon="9.660190880991726"><ele>59.0</ele><time>2026-04-07T12:10:46.005Z</time></trkpt><trkpt lat="45.045187104975355" lon="9.660245176415431"><ele>59.0</ele><time>2026-04-07T12:10:48.006Z</time></trkpt><trkpt lat="45.04512454058189" lon="9.660334828234484"><ele>59.0</ele><time>2026-04-07T12:10:50.006Z</time></trkpt><trkpt lat="45.0450655678789" lon="9.660417504401282"><ele>59.00000000000001</ele><time>2026-04-07T12:10:52.006Z</time></trkpt><trkpt lat="45.04499291270873" lon="9.660481157864904"><ele>59.0</ele><time>2026-04-07T12:10:54.006Z</time></trkpt><trkpt lat="45.04491357943282" lon="9.660502960533169"><ele>58.833333333333336</ele><time>2026-04-07T12:10:56.006Z</time></trkpt><trkpt lat="45.044837294435595" lon="9.660529853511289"><ele>58.66666666666667</ele><time>2026-04-07T12:10:58.006Z</time></trkpt><trkpt lat="45.0447597027223" lon="9.660553096191244"><ele>58.5</ele><time>2026-04-07T12:11:00.006Z</time></trkpt><trkpt lat="45.04466361484236" lon="9.660568449573745"><ele>58.33333333333333</ele><time>2026-04-07T12:11:02.006Z</time></trkpt><trkpt lat="45.044593970742824" lon="9.660598520283662"><ele>58.166666666666664</ele><time>2026-04-07T12:11:04.006Z</time></trkpt><trkpt lat="45.0445238448984" lon="9.660636968050275"><ele>58.0</ele><time>2026-04-07T12:11:06.006Z</time></trkpt><trkpt lat="45.04445557274379" lon="9.660647088571904"><ele>58.00000000000001</ele><time>2026-04-07T12:11:08.006Z</time></trkpt><trkpt lat="45.04439185931239" lon="9.660652165604493"><ele>58.0</ele><time>2026-04-07T12:11:10.006Z</time></trkpt><trkpt lat="45.044358435834795" lon="9.660571167964356"><ele>58.00000000000001</ele><time>2026-04-07T12:11:13.006Z</time></trkpt><trkpt lat="45.04431881962039" lon="9.66047356988791"><ele>58.00000000000001</ele><time>2026-04-07T12:11:16.006Z</time></trkpt><trkpt lat="45.04427467369098" lon="9.660401589852729"><ele>58.0</ele><time>2026-04-07T12:11:18.006Z</time></trkpt><trkpt lat="45.04422762067578" lon="9.660338681285452"><ele>58.00000000000001</ele><time>2026-04-07T12:11:20.006Z</time></trkpt><trkpt lat="45.04417933832774" lon="9.660263423070289"><ele>58.00000000000001</ele><time>2026-04-07T12:11:22.006Z</time></trkpt><trkpt lat="45.04412616665789" lon="9.660211316579453"><ele>58.28571428571429</ele><time>2026-04-07T12:11:24.006Z</time></trkpt><trkpt lat="45.044060460856755" lon="9.660215438667295"><ele>58.57142857142857</ele><time>2026-04-07T12:11:27.006Z</time></trkpt><trkpt lat="45.04398754444473" lon="9.660221363223092"><ele>58.85714285714286</ele><time>2026-04-07T12:11:30.006Z</time></trkpt><trkpt lat="45.04392462841031" lon="9.660230152041258"><ele>59.142857142857146</ele><time>2026-04-07T12:11:32.006Z</time></trkpt><trkpt lat="45.04384934247479" lon="9.660248566182322"><ele>59.42857142857143</ele><time>2026-04-07T12:11:34.006Z</time></trkpt><trkpt lat="45.04378858535674" lon="9.660311652405905"><ele>59.714285714285715</ele><time>2026-04-07T12:11:36.006Z</time></trkpt><trkpt lat="45.0437486282782" lon="9.660401525450174"><ele>60.0</ele><time>2026-04-07T12:11:38.006Z</time></trkpt><trkpt lat="45.04369943885646" lon="9.660470169494841"><ele>60.0</ele><time>2026-04-07T12:11:40.006Z</time></trkpt><trkpt lat="45.04362925962427" lon="9.660503093997779"><ele>60.0</ele><time>2026-04-07T12:11:42.006Z</time></trkpt><trkpt lat="45.04355301300321" lon="9.660503242838786"><ele>60.0</ele><time>2026-04-07T12:11:44.006Z</time></trkpt><trkpt lat="45.04348482350008" lon="9.660493889263135"><ele>60.0</ele><time>2026-04-07T12:11:46.006Z</time></trkpt><trkpt lat="45.04345250476388" lon="9.660380132684967"><ele>60.0</ele><time>2026-04-07T12:11:49.006Z</time></trkpt><trkpt lat="45.04346115208032" lon="9.660278935059614"><ele>60.0</ele><time>2026-04-07T12:11:51.006Z</time></trkpt><trkpt lat="45.043468872129324" lon="9.660157183594725"><ele>60.0</ele><time>2026-04-07T12:11:53.006Z</time></trkpt><trkpt lat="45.0434783817479" lon="9.66004494545984"><ele>60.0</ele><time>2026-04-07T12:11:55.006Z</time></trkpt><trkpt lat="45.04347928552513" lon="9.659930808497009"><ele>60.0</ele><time>2026-04-07T12:11:57.006Z</time></trkpt><trkpt lat="45.043465034970865" lon="9.659817799131515"><ele>60.0</ele><time>2026-04-07T12:11:59.006Z</time></trkpt><trkpt lat="45.04342992622955" lon="9.659719642713391"><ele>60.0</ele><time>2026-04-07T12:12:01.006Z</time></trkpt><trkpt lat="45.043391074275014" lon="9.659609992418545"><ele>60.0</ele><time>2026-04-07T12:12:03.006Z</time></trkpt><trkpt lat="45.04334987115168" lon="9.659502392657059"><ele>60.166666666666664</ele><time>2026-04-07T12:12:05.006Z</time></trkpt><trkpt lat="45.043309963021755" lon="9.659396166541503"><ele>60.33333333333333</ele><time>2026-04-07T12:12:07.006Z</time></trkpt><trkpt lat="45.043277235860636" lon="9.659292648110988"><ele>60.5</ele><time>2026-04-07T12:12:09.006Z</time></trkpt><trkpt lat="45.04323405673738" lon="9.659185705349035"><ele>60.666666666666664</ele><time>2026-04-07T12:12:11.006Z</time></trkpt><trkpt lat="45.04319918743358" lon="9.6590726920486"><ele>60.83333333333333</ele><time>2026-04-07T12:12:13.006Z</time></trkpt><trkpt lat="45.04315667284024" lon="9.658966229726744"><ele>61.0</ele><time>2026-04-07T12:12:15.006Z</time></trkpt><trkpt lat="45.043113885228614" lon="9.658855744877027"><ele>60.99999999999999</ele><time>2026-04-07T12:12:17.006Z</time></trkpt><trkpt lat="45.04307395089492" lon="9.658742473668108"><ele>61.0</ele><time>2026-04-07T12:12:19.006Z</time></trkpt><trkpt lat="45.04302903732906" lon="9.658626379305181"><ele>61.0</ele><time>2026-04-07T12:12:21.006Z</time></trkpt><trkpt lat="45.04298844933847" lon="9.658517472383727"><ele>61.0</ele><time>2026-04-07T12:12:23.006Z</time></trkpt><trkpt lat="45.04295345218361" lon="9.658407282113826"><ele>60.99999999999999</ele><time>2026-04-07T12:12:25.006Z</time></trkpt><trkpt lat="45.042916121202026" lon="9.658309494115814"><ele>61.0</ele><time>2026-04-07T12:12:27.006Z</time></trkpt><trkpt lat="45.04288119530336" lon="9.658201104746528"><ele>61.0</ele><time>2026-04-07T12:12:29.006Z</time></trkpt><trkpt lat="45.042844460000985" lon="9.658089838750277"><ele>60.99999999999999</ele><time>2026-04-07T12:12:31.006Z</time></trkpt><trkpt lat="45.04280613889484" lon="9.657967814961243"><ele>60.99999999999999</ele><time>2026-04-07T12:12:33.006Z</time></trkpt><trkpt lat="45.04276706239764" lon="9.657853903284908"><ele>61.0</ele><time>2026-04-07T12:12:35.007Z</time></trkpt><trkpt lat="45.042723531052424" lon="9.657735633715285"><ele>61.0</ele><time>2026-04-07T12:12:37.007Z</time></trkpt><trkpt lat="45.04268493287085" lon="9.657619573272113"><ele>61.0</ele><time>2026-04-07T12:12:39.007Z</time></trkpt><trkpt lat="45.04265018286284" lon="9.657501931193691"><ele>60.99999999999999</ele><time>2026-04-07T12:12:41.007Z</time></trkpt><trkpt lat="45.0426058021971" lon="9.657395153069363"><ele>60.99999999999999</ele><time>2026-04-07T12:12:43.007Z</time></trkpt><trkpt lat="45.042561444600025" lon="9.657278727805055"><ele>61.0</ele><time>2026-04-07T12:12:45.007Z</time></trkpt><trkpt lat="45.04252177682302" lon="9.657161531300849"><ele>61.0</ele><time>2026-04-07T12:12:47.007Z</time></trkpt><trkpt lat="45.042480215877845" lon="9.657045531292997"><ele>61.599999999999994</ele><time>2026-04-07T12:12:49.007Z</time></trkpt><trkpt lat="45.04244452551212" lon="9.65692312989909"><ele>62.199999999999996</ele><time>2026-04-07T12:12:51.007Z</time></trkpt><trkpt lat="45.04240387271072" lon="9.656803324598858"><ele>62.800000000000004</ele><time>2026-04-07T12:12:53.007Z</time></trkpt><trkpt lat="45.04236241494769" lon="9.656687700209522"><ele>63.400000000000006</ele><time>2026-04-07T12:12:55.007Z</time></trkpt><trkpt lat="45.04231944476076" lon="9.656571949993884"><ele>64.0</ele><time>2026-04-07T12:12:57.007Z</time></trkpt><trkpt lat="45.042283219643366" lon="9.656454951016107"><ele>64.0</ele><time>2026-04-07T12:12:59.007Z</time></trkpt><trkpt lat="45.04223590925492" lon="9.65634426427882"><ele>64.0</ele><time>2026-04-07T12:13:01.007Z</time></trkpt><trkpt lat="45.04219583051664" lon="9.656226200147348"><ele>64.0</ele><time>2026-04-07T12:13:03.007Z</time></trkpt><trkpt lat="45.04215358657549" lon="9.656113566064082"><ele>64.0</ele><time>2026-04-07T12:13:05.007Z</time></trkpt><trkpt lat="45.042113278338185" lon="9.656002649727407"><ele>64.0</ele><time>2026-04-07T12:13:07.007Z</time></trkpt><trkpt lat="45.042071752293396" lon="9.65588228212554"><ele>63.800000000000004</ele><time>2026-04-07T12:13:09.007Z</time></trkpt><trkpt lat="45.04203522798616" lon="9.65576320073164"><ele>63.60000000000001</ele><time>2026-04-07T12:13:11.007Z</time></trkpt><trkpt lat="45.04199134532428" lon="9.655644748031767"><ele>63.4</ele><time>2026-04-07T12:13:13.007Z</time></trkpt><trkpt lat="45.04195080734041" lon="9.65552675981529"><ele>63.2</ele><time>2026-04-07T12:13:15.007Z</time></trkpt><trkpt lat="45.041907487187586" lon="9.655410874605261"><ele>63.0</ele><time>2026-04-07T12:13:17.007Z</time></trkpt><trkpt lat="45.04186370853249" lon="9.655296017778007"><ele>63.166666666666664</ele><time>2026-04-07T12:13:19.007Z</time></trkpt><trkpt lat="45.041830289830315" lon="9.655178135845572"><ele>63.33333333333333</ele><time>2026-04-07T12:13:21.007Z</time></trkpt><trkpt lat="45.04179137285344" lon="9.65507049980802"><ele>63.5</ele><time>2026-04-07T12:13:23.007Z</time></trkpt><trkpt lat="45.041753391868376" lon="9.654955693786196"><ele>63.666666666666664</ele><time>2026-04-07T12:13:25.007Z</time></trkpt><trkpt lat="45.04171559187504" lon="9.654839880558999"><ele>63.83333333333333</ele><time>2026-04-07T12:13:27.007Z</time></trkpt><trkpt lat="45.04167425262885" lon="9.654727864364821"><ele>64.0</ele><time>2026-04-07T12:13:29.007Z</time></trkpt><trkpt lat="45.041633184443725" lon="9.654619688109818"><ele>63.33333333333333</ele><time>2026-04-07T12:13:31.007Z</time></trkpt><trkpt lat="45.04159877071309" lon="9.654511326707278"><ele>62.666666666666664</ele><time>2026-04-07T12:13:33.007Z</time></trkpt><trkpt lat="45.04155818241581" lon="9.65440063588169"><ele>62.0</ele><time>2026-04-07T12:13:35.007Z</time></trkpt><trkpt lat="45.041515690504276" lon="9.654289507487162"><ele>61.33333333333333</ele><time>2026-04-07T12:13:37.007Z</time></trkpt><trkpt lat="45.04147347140801" lon="9.654179308841393"><ele>60.666666666666664</ele><time>2026-04-07T12:13:39.007Z</time></trkpt><trkpt lat="45.04143547277593" lon="9.654060320617072"><ele>60.0</ele><time>2026-04-07T12:13:41.007Z</time></trkpt><trkpt lat="45.04139599771487" lon="9.653954562538935"><ele>60.0</ele><time>2026-04-07T12:13:43.007Z</time></trkpt><trkpt lat="45.041351466517625" lon="9.65384007829418"><ele>60.0</ele><time>2026-04-07T12:13:45.007Z</time></trkpt><trkpt lat="45.04130768964218" lon="9.653726943909032"><ele>60.0</ele><time>2026-04-07T12:13:47.007Z</time></trkpt><trkpt lat="45.041270460502645" lon="9.653612952934782"><ele>60.0</ele><time>2026-04-07T12:13:49.007Z</time></trkpt><trkpt lat="45.04122698034001" lon="9.653483863572799"><ele>60.0</ele><time>2026-04-07T12:13:51.007Z</time></trkpt><trkpt lat="45.04118304846039" lon="9.6533805826126"><ele>60.0</ele><time>2026-04-07T12:13:53.007Z</time></trkpt><trkpt lat="45.04114265605204" lon="9.653268173486548"><ele>60.0</ele><time>2026-04-07T12:13:55.007Z</time></trkpt><trkpt lat="45.04109889786316" lon="9.653150509929858"><ele>60.0</ele><time>2026-04-07T12:13:57.007Z</time></trkpt><trkpt lat="45.041057123263165" lon="9.653036758479953"><ele>60.0</ele><time>2026-04-07T12:13:59.007Z</time></trkpt><trkpt lat="45.041015716113996" lon="9.65292607545994"><ele>60.0</ele><time>2026-04-07T12:14:01.007Z</time></trkpt><trkpt lat="45.040974936233134" lon="9.652813676404374"><ele>60.0</ele><time>2026-04-07T12:14:03.007Z</time></trkpt><trkpt lat="45.040940515812565" lon="9.652693388222621"><ele>60.0</ele><time>2026-04-07T12:14:05.007Z</time></trkpt><trkpt lat="45.04089908317811" lon="9.652581868432957"><ele>60.0</ele><time>2026-04-07T12:14:07.007Z</time></trkpt><trkpt lat="45.04086123687527" lon="9.652474168078552"><ele>60.0</ele><time>2026-04-07T12:14:09.007Z</time></trkpt><trkpt lat="45.040822812104494" lon="9.652357961229619"><ele>60.0</ele><time>2026-04-07T12:14:11.007Z</time></trkpt><trkpt lat="45.04077720597059" lon="9.652250093689558"><ele>60.0</ele><time>2026-04-07T12:14:13.007Z</time></trkpt><trkpt lat="45.0407348591397" lon="9.652150565723751"><ele>60.0</ele><time>2026-04-07T12:14:15.007Z</time></trkpt><trkpt lat="45.04069635474481" lon="9.652045030229877"><ele>60.0</ele><time>2026-04-07T12:14:17.007Z</time></trkpt><trkpt lat="45.04066065339318" lon="9.651953462857193"><ele>60.0</ele><time>2026-04-07T12:14:19.008Z</time></trkpt><trkpt lat="45.04062427889352" lon="9.651849921585374"><ele>60.0</ele><time>2026-04-07T12:14:21.008Z</time></trkpt><trkpt lat="45.04058426556239" lon="9.651741464284655"><ele>60.0</ele><time>2026-04-07T12:14:23.008Z</time></trkpt><trkpt lat="45.0405484008278" lon="9.651630850076502"><ele>60.0</ele><time>2026-04-07T12:14:25.008Z</time></trkpt><trkpt lat="45.04050928370796" lon="9.651521872752905"><ele>60.0</ele><time>2026-04-07T12:14:27.008Z</time></trkpt><trkpt lat="45.040467660209885" lon="9.651412405385777"><ele>60.0</ele><time>2026-04-07T12:14:29.008Z</time></trkpt><trkpt lat="45.04042579915392" lon="9.651298208062078"><ele>60.0</ele><time>2026-04-07T12:14:31.008Z</time></trkpt><trkpt lat="45.040383585938095" lon="9.651182270197328"><ele>60.0</ele><time>2026-04-07T12:14:33.008Z</time></trkpt><trkpt lat="45.04034385252163" lon="9.651072265707683"><ele>60.0</ele><time>2026-04-07T12:14:35.008Z</time></trkpt><trkpt lat="45.040303697928636" lon="9.650962863095302"><ele>60.0</ele><time>2026-04-07T12:14:37.008Z</time></trkpt><trkpt lat="45.040257117043986" lon="9.65085616592997"><ele>60.166666666666664</ele><time>2026-04-07T12:14:39.008Z</time></trkpt><trkpt lat="45.040224755950284" lon="9.650753775286196"><ele>60.33333333333333</ele><time>2026-04-07T12:14:41.008Z</time></trkpt><trkpt lat="45.04018542803567" lon="9.650645254695776"><ele>60.5</ele><time>2026-04-07T12:14:43.008Z</time></trkpt><trkpt lat="45.04014123615287" lon="9.650550110792993"><ele>60.666666666666664</ele><time>2026-04-07T12:14:45.008Z</time></trkpt><trkpt lat="45.04011281525299" lon="9.650444071461662"><ele>60.83333333333333</ele><time>2026-04-07T12:14:47.008Z</time></trkpt><trkpt lat="45.04007370842825" lon="9.650342597538557"><ele>61.0</ele><time>2026-04-07T12:14:49.008Z</time></trkpt><trkpt lat="45.04003772689467" lon="9.65023266695354"><ele>61.166666666666664</ele><time>2026-04-07T12:14:51.008Z</time></trkpt><trkpt lat="45.04000006266983" lon="9.650129019417342"><ele>61.33333333333333</ele><time>2026-04-07T12:14:53.008Z</time></trkpt><trkpt lat="45.039961723236054" lon="9.650021843282902"><ele>61.5</ele><time>2026-04-07T12:14:55.008Z</time></trkpt><trkpt lat="45.03992643729686" lon="9.649919551263476"><ele>61.66666666666667</ele><time>2026-04-07T12:14:57.008Z</time></trkpt><trkpt lat="45.039893182820144" lon="9.649814627838236"><ele>61.833333333333336</ele><time>2026-04-07T12:14:59.008Z</time></trkpt><trkpt lat="45.03985730595183" lon="9.649710059006875"><ele>62.0</ele><time>2026-04-07T12:15:01.008Z</time></trkpt><trkpt lat="45.03982033585723" lon="9.649600253464982"><ele>62.00000000000001</ele><time>2026-04-07T12:15:03.008Z</time></trkpt><trkpt lat="45.03978229537581" lon="9.649490439041246"><ele>62.0</ele><time>2026-04-07T12:15:05.008Z</time></trkpt><trkpt lat="45.03974551790838" lon="9.649387453533974"><ele>62.0</ele><time>2026-04-07T12:15:07.008Z</time></trkpt><trkpt lat="45.03970586712783" lon="9.649288074634688"><ele>62.0</ele><time>2026-04-07T12:15:09.008Z</time></trkpt><trkpt lat="45.03967911636171" lon="9.649195200480412"><ele>62.00000000000001</ele><time>2026-04-07T12:15:11.008Z</time></trkpt><trkpt lat="45.03961950521944" lon="9.649097204722777"><ele>62.0</ele><time>2026-04-07T12:15:14.008Z</time></trkpt><trkpt lat="45.03957970305176" lon="9.64900638046296"><ele>61.833333333333336</ele><time>2026-04-07T12:15:16.008Z</time></trkpt><trkpt lat="45.039548668191934" lon="9.648892843163171"><ele>61.66666666666667</ele><time>2026-04-07T12:15:18.008Z</time></trkpt><trkpt lat="45.03950638217432" lon="9.648786173638685"><ele>61.5</ele><time>2026-04-07T12:15:20.008Z</time></trkpt><trkpt lat="45.03946315540657" lon="9.648665712798078"><ele>61.33333333333333</ele><time>2026-04-07T12:15:22.008Z</time></trkpt><trkpt lat="45.03942962309031" lon="9.648553675033583"><ele>61.166666666666664</ele><time>2026-04-07T12:15:24.008Z</time></trkpt><trkpt lat="45.03939066007919" lon="9.64844132331597"><ele>61.0</ele><time>2026-04-07T12:15:26.008Z</time></trkpt><trkpt lat="45.039355722983345" lon="9.648322755642631"><ele>60.99999999999999</ele><time>2026-04-07T12:15:28.008Z</time></trkpt><trkpt lat="45.0393214333365" lon="9.64821051489358"><ele>61.0</ele><time>2026-04-07T12:15:30.008Z</time></trkpt><trkpt lat="45.03928635340123" lon="9.648105881372727"><ele>61.0</ele><time>2026-04-07T12:15:32.008Z</time></trkpt><trkpt lat="45.03924770573822" lon="9.64799986730614"><ele>61.0</ele><time>2026-04-07T12:15:34.008Z</time></trkpt><trkpt lat="45.03920478554376" lon="9.647893522192746"><ele>60.99999999999999</ele><time>2026-04-07T12:15:36.008Z</time></trkpt><trkpt lat="45.03916798243744" lon="9.64778154831009"><ele>61.0</ele><time>2026-04-07T12:15:38.008Z</time></trkpt><trkpt lat="45.03912783513006" lon="9.64767039844838"><ele>61.83333333333333</ele><time>2026-04-07T12:15:40.008Z</time></trkpt><trkpt lat="45.039090383112566" lon="9.64757012292132"><ele>62.666666666666664</ele><time>2026-04-07T12:15:42.008Z</time></trkpt><trkpt lat="45.03905204838353" lon="9.647467800137251"><ele>63.5</ele><time>2026-04-07T12:15:44.008Z</time></trkpt><trkpt lat="45.03899973786003" lon="9.647379032325285"><ele>64.33333333333333</ele><time>2026-04-07T12:15:46.008Z</time></trkpt><trkpt lat="45.03897027387564" lon="9.647271237262586"><ele>65.16666666666667</ele><time>2026-04-07T12:15:48.008Z</time></trkpt><trkpt lat="45.03893015857478" lon="9.647156331517824"><ele>66.0</ele><time>2026-04-07T12:15:50.008Z</time></trkpt><trkpt lat="45.038891119071" lon="9.647039205759643"><ele>65.66666666666667</ele><time>2026-04-07T12:15:52.008Z</time></trkpt><trkpt lat="45.03884634606913" lon="9.646919151284342"><ele>65.33333333333333</ele><time>2026-04-07T12:15:54.008Z</time></trkpt><trkpt lat="45.03880533908427" lon="9.646805613223284"><ele>65.0</ele><time>2026-04-07T12:15:56.008Z</time></trkpt><trkpt lat="45.038767352929256" lon="9.646695248373355"><ele>64.66666666666666</ele><time>2026-04-07T12:15:58.008Z</time></trkpt><trkpt lat="45.03872963317169" lon="9.646582403696444"><ele>64.33333333333333</ele><time>2026-04-07T12:16:00.008Z</time></trkpt><trkpt lat="45.03869054356902" lon="9.646471480790085"><ele>64.0</ele><time>2026-04-07T12:16:02.008Z</time></trkpt><trkpt lat="45.03865078644437" lon="9.646362596485323"><ele>63.99999999999999</ele><time>2026-04-07T12:16:04.008Z</time></trkpt><trkpt lat="45.03861321597905" lon="9.646256712486919"><ele>64.0</ele><time>2026-04-07T12:16:06.009Z</time></trkpt><trkpt lat="45.03857392046888" lon="9.646134987574344"><ele>64.0</ele><time>2026-04-07T12:16:08.009Z</time></trkpt><trkpt lat="45.03853904198809" lon="9.646031117896982"><ele>64.0</ele><time>2026-04-07T12:16:10.009Z</time></trkpt><trkpt lat="45.03850300895595" lon="9.645913355018024"><ele>63.99999999999999</ele><time>2026-04-07T12:16:12.009Z</time></trkpt><trkpt lat="45.0384687046786" lon="9.645795283292985"><ele>64.0</ele><time>2026-04-07T12:16:14.009Z</time></trkpt><trkpt lat="45.03843186394708" lon="9.645685781405625"><ele>64.16666666666666</ele><time>2026-04-07T12:16:16.009Z</time></trkpt><trkpt lat="45.038386810574664" lon="9.645577990117246"><ele>64.33333333333333</ele><time>2026-04-07T12:16:18.009Z</time></trkpt><trkpt lat="45.038347668401464" lon="9.64547342787575"><ele>64.5</ele><time>2026-04-07T12:16:20.009Z</time></trkpt><trkpt lat="45.03831678302839" lon="9.645364583280173"><ele>64.66666666666667</ele><time>2026-04-07T12:16:22.009Z</time></trkpt><trkpt lat="45.038279024930446" lon="9.645261949248193"><ele>64.83333333333334</ele><time>2026-04-07T12:16:24.009Z</time></trkpt><trkpt lat="45.03823579205188" lon="9.645153468448953"><ele>65.0</ele><time>2026-04-07T12:16:26.009Z</time></trkpt><trkpt lat="45.03819803015018" lon="9.645046551758202"><ele>65.0</ele><time>2026-04-07T12:16:28.009Z</time></trkpt><trkpt lat="45.03815732470065" lon="9.644938074057213"><ele>65.0</ele><time>2026-04-07T12:16:30.009Z</time></trkpt><trkpt lat="45.03811822742934" lon="9.644823232657625"><ele>65.0</ele><time>2026-04-07T12:16:32.009Z</time></trkpt><trkpt lat="45.03808204398728" lon="9.644711247308539"><ele>65.0</ele><time>2026-04-07T12:16:34.009Z</time></trkpt><trkpt lat="45.038044816434" lon="9.644607463370903"><ele>65.0</ele><time>2026-04-07T12:16:36.009Z</time></trkpt><trkpt lat="45.038001903889054" lon="9.644491698444858"><ele>65.0</ele><time>2026-04-07T12:16:38.009Z</time></trkpt><trkpt lat="45.03797540453616" lon="9.644379660380942"><ele>65.0</ele><time>2026-04-07T12:16:40.009Z</time></trkpt><trkpt lat="45.037938294102084" lon="9.644276910008214"><ele>65.0</ele><time>2026-04-07T12:16:42.009Z</time></trkpt><trkpt lat="45.03790010268778" lon="9.644171845937386"><ele>65.0</ele><time>2026-04-07T12:16:44.009Z</time></trkpt><trkpt lat="45.0378586335639" lon="9.644059783537555"><ele>65.0</ele><time>2026-04-07T12:16:46.009Z</time></trkpt><trkpt lat="45.03782296411702" lon="9.643949466385303"><ele>65.0</ele><time>2026-04-07T12:16:48.009Z</time></trkpt><trkpt lat="45.03778098507309" lon="9.643847822657476"><ele>65.0</ele><time>2026-04-07T12:16:50.009Z</time></trkpt><trkpt lat="45.03774485937491" lon="9.643735339304886"><ele>65.0</ele><time>2026-04-07T12:16:52.009Z</time></trkpt><trkpt lat="45.03770791835461" lon="9.643631460136934"><ele>65.0</ele><time>2026-04-07T12:16:54.009Z</time></trkpt><trkpt lat="45.03767059945639" lon="9.643526051622638"><ele>65.0</ele><time>2026-04-07T12:16:56.009Z</time></trkpt><trkpt lat="45.03763289856635" lon="9.643436031393401"><ele>65.0</ele><time>2026-04-07T12:16:58.009Z</time></trkpt><trkpt lat="45.03759297868396" lon="9.643331766415898"><ele>65.0</ele><time>2026-04-07T12:17:00.009Z</time></trkpt><trkpt lat="45.037552855046364" lon="9.643228757163024"><ele>65.0</ele><time>2026-04-07T12:17:02.009Z</time></trkpt><trkpt lat="45.03752352220364" lon="9.643118610501174"><ele>65.0</ele><time>2026-04-07T12:17:04.009Z</time></trkpt><trkpt lat="45.03748817989714" lon="9.643014623506195"><ele>65.0</ele><time>2026-04-07T12:17:06.009Z</time></trkpt><trkpt lat="45.03745566432227" lon="9.642921851571879"><ele>65.0</ele><time>2026-04-07T12:17:08.009Z</time></trkpt><trkpt lat="45.03741925405434" lon="9.642827903257755"><ele>65.0</ele><time>2026-04-07T12:17:10.009Z</time></trkpt><trkpt lat="45.03738076852227" lon="9.642733364613767"><ele>65.0</ele><time>2026-04-07T12:17:12.009Z</time></trkpt><trkpt lat="45.037340228954584" lon="9.642624887173552"><ele>65.0</ele><time>2026-04-07T12:17:14.009Z</time></trkpt><trkpt lat="45.03730549711549" lon="9.642524558186992"><ele>65.16666666666667</ele><time>2026-04-07T12:17:16.009Z</time></trkpt><trkpt lat="45.03727118118029" lon="9.642427641342032"><ele>65.33333333333334</ele><time>2026-04-07T12:17:18.009Z</time></trkpt><trkpt lat="45.03723912841951" lon="9.642323705125559"><ele>65.5</ele><time>2026-04-07T12:17:20.009Z</time></trkpt><trkpt lat="45.03720517071285" lon="9.642212691249734"><ele>65.66666666666667</ele><time>2026-04-07T12:17:22.009Z</time></trkpt><trkpt lat="45.03716809326081" lon="9.642103838113282"><ele>65.83333333333333</ele><time>2026-04-07T12:17:24.009Z</time></trkpt><trkpt lat="45.037127617346314" lon="9.641998767420736"><ele>66.0</ele><time>2026-04-07T12:17:26.009Z</time></trkpt><trkpt lat="45.0370912895934" lon="9.641886465345719"><ele>66.33333333333333</ele><time>2026-04-07T12:17:28.009Z</time></trkpt><trkpt lat="45.03705704557935" lon="9.641777018588376"><ele>66.66666666666667</ele><time>2026-04-07T12:17:30.009Z</time></trkpt><trkpt lat="45.03702015960962" lon="9.64166943650956"><ele>67.0</ele><time>2026-04-07T12:17:32.009Z</time></trkpt><trkpt lat="45.03698975505978" lon="9.64155987595536"><ele>67.33333333333334</ele><time>2026-04-07T12:17:34.009Z</time></trkpt><trkpt lat="45.03695002560025" lon="9.641457532453018"><ele>67.66666666666667</ele><time>2026-04-07T12:17:36.009Z</time></trkpt><trkpt lat="45.036915939258236" lon="9.641364821042835"><ele>68.0</ele><time>2026-04-07T12:17:38.009Z</time></trkpt><trkpt lat="45.03687503453916" lon="9.641266147960696"><ele>68.0</ele><time>2026-04-07T12:17:40.009Z</time></trkpt><trkpt lat="45.036842529864195" lon="9.641150593939686"><ele>68.0</ele><time>2026-04-07T12:17:42.009Z</time></trkpt><trkpt lat="45.036806194927934" lon="9.641043168196584"><ele>68.0</ele><time>2026-04-07T12:17:44.009Z</time></trkpt><trkpt lat="45.03676984807707" lon="9.640940671585282"><ele>68.0</ele><time>2026-04-07T12:17:46.009Z</time></trkpt><trkpt lat="45.03673890364279" lon="9.640832180786349"><ele>68.0</ele><time>2026-04-07T12:17:48.009Z</time></trkpt><trkpt lat="45.036705879328146" lon="9.640746085047892"><ele>68.0</ele><time>2026-04-07T12:17:50.01Z</time></trkpt><trkpt lat="45.03666848091895" lon="9.640645764372012"><ele>67.66666666666667</ele><time>2026-04-07T12:17:52.01Z</time></trkpt><trkpt lat="45.036628516089074" lon="9.64055138529273"><ele>67.33333333333334</ele><time>2026-04-07T12:17:54.01Z</time></trkpt><trkpt lat="45.036593736862514" lon="9.64044681501625"><ele>67.0</ele><time>2026-04-07T12:17:56.01Z</time></trkpt><trkpt lat="45.036559430799166" lon="9.640351556689556"><ele>66.66666666666667</ele><time>2026-04-07T12:17:58.01Z</time></trkpt><trkpt lat="45.036512006609904" lon="9.640228627876443"><ele>66.33333333333333</ele><time>2026-04-07T12:18:00.01Z</time></trkpt><trkpt lat="45.036466787213314" lon="9.640106536245355"><ele>66.0</ele><time>2026-04-07T12:18:02.01Z</time></trkpt><trkpt lat="45.0364228396341" lon="9.639996665623284"><ele>66.0</ele><time>2026-04-07T12:18:04.01Z</time></trkpt><trkpt lat="45.036394093696934" lon="9.639887938232743"><ele>66.0</ele><time>2026-04-07T12:18:06.01Z</time></trkpt><trkpt lat="45.03635553820173" lon="9.639780540198297"><ele>66.0</ele><time>2026-04-07T12:18:08.01Z</time></trkpt><trkpt lat="45.03632117898542" lon="9.639682019841256"><ele>66.0</ele><time>2026-04-07T12:18:10.01Z</time></trkpt><trkpt lat="45.036286883599885" lon="9.6395807349115"><ele>66.0</ele><time>2026-04-07T12:18:12.01Z</time></trkpt><trkpt lat="45.03625984128261" lon="9.639478602283974"><ele>66.0</ele><time>2026-04-07T12:18:14.01Z</time></trkpt><trkpt lat="45.036228996870605" lon="9.63937718787334"><ele>66.0</ele><time>2026-04-07T12:18:16.01Z</time></trkpt><trkpt lat="45.036189419231725" lon="9.63928432707232"><ele>66.0</ele><time>2026-04-07T12:18:18.01Z</time></trkpt><trkpt lat="45.036145466136695" lon="9.639182422287632"><ele>66.0</ele><time>2026-04-07T12:18:20.01Z</time></trkpt><trkpt lat="45.036091581462145" lon="9.63906664181751"><ele>66.0</ele><time>2026-04-07T12:18:22.01Z</time></trkpt><trkpt lat="45.03604953059085" lon="9.63894183751563"><ele>66.0</ele><time>2026-04-07T12:18:24.01Z</time></trkpt><trkpt lat="45.0360114878358" lon="9.6388192642502"><ele>66.0</ele><time>2026-04-07T12:18:26.01Z</time></trkpt><trkpt lat="45.03597484427478" lon="9.638701325056328"><ele>66.0</ele><time>2026-04-07T12:18:28.01Z</time></trkpt><trkpt lat="45.0359391854759" lon="9.638585450829996"><ele>66.0</ele><time>2026-04-07T12:18:30.01Z</time></trkpt><trkpt lat="45.03589590541174" lon="9.63846827994321"><ele>66.0</ele><time>2026-04-07T12:18:32.01Z</time></trkpt><trkpt lat="45.035853656907065" lon="9.6383493238257"><ele>66.0</ele><time>2026-04-07T12:18:34.01Z</time></trkpt><trkpt lat="45.03580745966613" lon="9.638237512911335"><ele>66.2</ele><time>2026-04-07T12:18:36.01Z</time></trkpt><trkpt lat="45.03576258243083" lon="9.63811619203122"><ele>66.39999999999999</ele><time>2026-04-07T12:18:38.01Z</time></trkpt><trkpt lat="45.03571699996534" lon="9.637992102097678"><ele>66.6</ele><time>2026-04-07T12:18:40.01Z</time></trkpt><trkpt lat="45.035682554257384" lon="9.63788080418898"><ele>66.8</ele><time>2026-04-07T12:18:42.01Z</time></trkpt><trkpt lat="45.03564068293786" lon="9.637764112449034"><ele>67.0</ele><time>2026-04-07T12:18:44.01Z</time></trkpt><trkpt lat="45.03559920504293" lon="9.637646484177118"><ele>67.0</ele><time>2026-04-07T12:18:46.01Z</time></trkpt><trkpt lat="45.03555331674744" lon="9.637532140963005"><ele>67.0</ele><time>2026-04-07T12:18:48.01Z</time></trkpt><trkpt lat="45.03550992917018" lon="9.63741478569269"><ele>67.0</ele><time>2026-04-07T12:18:50.01Z</time></trkpt><trkpt lat="45.035464758576296" lon="9.637301041576125"><ele>67.0</ele><time>2026-04-07T12:18:52.01Z</time></trkpt><trkpt lat="45.03542375831321" lon="9.637179063664407"><ele>67.0</ele><time>2026-04-07T12:18:54.01Z</time></trkpt><trkpt lat="45.03538150891669" lon="9.637071566471931"><ele>67.0</ele><time>2026-04-07T12:18:56.01Z</time></trkpt><trkpt lat="45.03533775563374" lon="9.636958182254075"><ele>67.0</ele><time>2026-04-07T12:18:58.01Z</time></trkpt><trkpt lat="45.03529522220299" lon="9.6368470441618"><ele>67.0</ele><time>2026-04-07T12:19:00.01Z</time></trkpt><trkpt lat="45.03525700934088" lon="9.636725344669314"><ele>67.0</ele><time>2026-04-07T12:19:02.01Z</time></trkpt><trkpt lat="45.03521206463462" lon="9.636614711488884"><ele>67.0</ele><time>2026-04-07T12:19:04.01Z</time></trkpt><trkpt lat="45.03517468544634" lon="9.636502250766886"><ele>67.0</ele><time>2026-04-07T12:19:06.01Z</time></trkpt><trkpt lat="45.03513506205096" lon="9.63638913162438"><ele>67.0</ele><time>2026-04-07T12:19:08.01Z</time></trkpt><trkpt lat="45.03509277190149" lon="9.636276644104754"><ele>67.0</ele><time>2026-04-07T12:19:10.01Z</time></trkpt><trkpt lat="45.035056509918505" lon="9.636168113169704"><ele>67.0</ele><time>2026-04-07T12:19:12.01Z</time></trkpt><trkpt lat="45.03502185227581" lon="9.636065188842728"><ele>67.0</ele><time>2026-04-07T12:19:14.01Z</time></trkpt><trkpt lat="45.03498507884576" lon="9.635956638389425"><ele>67.0</ele><time>2026-04-07T12:19:16.01Z</time></trkpt><trkpt lat="45.03494092588321" lon="9.635848701716926"><ele>67.0</ele><time>2026-04-07T12:19:18.01Z</time></trkpt><trkpt lat="45.03489937871439" lon="9.635741789454615"><ele>67.0</ele><time>2026-04-07T12:19:20.01Z</time></trkpt><trkpt lat="45.034863022687816" lon="9.635630630821169"><ele>67.0</ele><time>2026-04-07T12:19:22.01Z</time></trkpt><trkpt lat="45.034819895102764" lon="9.635518548357718"><ele>67.0</ele><time>2026-04-07T12:19:24.01Z</time></trkpt><trkpt lat="45.03477760820141" lon="9.63540436012317"><ele>67.0</ele><time>2026-04-07T12:19:26.01Z</time></trkpt><trkpt lat="45.03472872227936" lon="9.6352962981754"><ele>67.0</ele><time>2026-04-07T12:19:28.01Z</time></trkpt><trkpt lat="45.034689525792544" lon="9.635184531811637"><ele>67.0</ele><time>2026-04-07T12:19:30.01Z</time></trkpt><trkpt lat="45.034654028165804" lon="9.635068921501416"><ele>67.0</ele><time>2026-04-07T12:19:32.01Z</time></trkpt><trkpt lat="45.03461101124333" lon="9.63495597652175"><ele>67.0</ele><time>2026-04-07T12:19:34.01Z</time></trkpt><trkpt lat="45.034573620628876" lon="9.634843642701018"><ele>67.0</ele><time>2026-04-07T12:19:36.011Z</time></trkpt><trkpt lat="45.03453533412762" lon="9.634737809817057"><ele>67.0</ele><time>2026-04-07T12:19:38.011Z</time></trkpt><trkpt lat="45.03449725150187" lon="9.634631903018054"><ele>67.0</ele><time>2026-04-07T12:19:40.011Z</time></trkpt><trkpt lat="45.03445263992987" lon="9.634521559559365"><ele>66.83333333333333</ele><time>2026-04-07T12:19:42.011Z</time></trkpt><trkpt lat="45.03441554488413" lon="9.634413346028197"><ele>66.66666666666666</ele><time>2026-04-07T12:19:44.011Z</time></trkpt><trkpt lat="45.034375268027546" lon="9.63430608679618"><ele>66.5</ele><time>2026-04-07T12:19:46.011Z</time></trkpt><trkpt lat="45.034336803616355" lon="9.634192124010141"><ele>66.33333333333333</ele><time>2026-04-07T12:19:48.011Z</time></trkpt><trkpt lat="45.034293297342735" lon="9.634072063373948"><ele>66.16666666666667</ele><time>2026-04-07T12:19:50.011Z</time></trkpt><trkpt lat="45.034249531455664" lon="9.633954961780418"><ele>66.0</ele><time>2026-04-07T12:19:52.011Z</time></trkpt><trkpt lat="45.03420787284207" lon="9.633840418400425"><ele>66.0</ele><time>2026-04-07T12:19:54.011Z</time></trkpt><trkpt lat="45.034162380994964" lon="9.633722968522571"><ele>66.0</ele><time>2026-04-07T12:19:56.011Z</time></trkpt><trkpt lat="45.034119677668734" lon="9.633605490990822"><ele>66.0</ele><time>2026-04-07T12:19:58.011Z</time></trkpt><trkpt lat="45.03407602384198" lon="9.633487203780765"><ele>66.0</ele><time>2026-04-07T12:20:00.011Z</time></trkpt><trkpt lat="45.03403311721372" lon="9.633366040907479"><ele>66.0</ele><time>2026-04-07T12:20:02.011Z</time></trkpt><trkpt lat="45.033992909526546" lon="9.633249620346236"><ele>66.0</ele><time>2026-04-07T12:20:04.011Z</time></trkpt><trkpt lat="45.033953188507795" lon="9.633128723875581"><ele>66.0</ele><time>2026-04-07T12:20:06.011Z</time></trkpt><trkpt lat="45.03391118436332" lon="9.633007637001981"><ele>66.0</ele><time>2026-04-07T12:20:08.011Z</time></trkpt><trkpt lat="45.03386835490875" lon="9.632887588421589"><ele>66.0</ele><time>2026-04-07T12:20:10.011Z</time></trkpt><trkpt lat="45.033825397750135" lon="9.632765940804205"><ele>66.0</ele><time>2026-04-07T12:20:12.011Z</time></trkpt><trkpt lat="45.03378207585514" lon="9.632645457560605"><ele>66.0</ele><time>2026-04-07T12:20:14.011Z</time></trkpt><trkpt lat="45.03373640912463" lon="9.632523853683299"><ele>66.0</ele><time>2026-04-07T12:20:16.011Z</time></trkpt><trkpt lat="45.033692676418035" lon="9.632404345291517"><ele>66.0</ele><time>2026-04-07T12:20:18.011Z</time></trkpt><trkpt lat="45.03364892947443" lon="9.63228604353061"><ele>66.0</ele><time>2026-04-07T12:20:20.011Z</time></trkpt><trkpt lat="45.03360948632252" lon="9.63216869497555"><ele>66.0</ele><time>2026-04-07T12:20:22.011Z</time></trkpt><trkpt lat="45.03356741709986" lon="9.632050118487374"><ele>66.0</ele><time>2026-04-07T12:20:24.011Z</time></trkpt><trkpt lat="45.03352326106491" lon="9.631929742133574"><ele>66.0</ele><time>2026-04-07T12:20:26.011Z</time></trkpt><trkpt lat="45.03347617870149" lon="9.63181333464975"><ele>66.0</ele><time>2026-04-07T12:20:28.011Z</time></trkpt><trkpt lat="45.03344348098173" lon="9.631691258604652"><ele>66.0</ele><time>2026-04-07T12:20:30.011Z</time></trkpt><trkpt lat="45.033404968288856" lon="9.631578257172997"><ele>66.0</ele><time>2026-04-07T12:20:32.011Z</time></trkpt><trkpt lat="45.033367577927464" lon="9.631476380670952"><ele>66.0</ele><time>2026-04-07T12:20:34.011Z</time></trkpt><trkpt lat="45.03333520779737" lon="9.63137509342331"><ele>66.0</ele><time>2026-04-07T12:20:36.011Z</time></trkpt><trkpt lat="45.03329793228183" lon="9.631277680878945"><ele>66.0</ele><time>2026-04-07T12:20:38.011Z</time></trkpt><trkpt lat="45.03326775939939" lon="9.631189812250556"><ele>66.0</ele><time>2026-04-07T12:20:40.011Z</time></trkpt><trkpt lat="45.03324765972246" lon="9.63110275111634"><ele>66.0</ele><time>2026-04-07T12:20:42.011Z</time></trkpt><trkpt lat="45.03321309510095" lon="9.631005519727756"><ele>66.0</ele><time>2026-04-07T12:20:58.011Z</time></trkpt><trkpt lat="45.03318253614732" lon="9.630913030440109"><ele>66.0</ele><time>2026-04-07T12:21:02.011Z</time></trkpt><trkpt lat="45.033144070558265" lon="9.63082790510681"><ele>66.0</ele><time>2026-04-07T12:21:05.011Z</time></trkpt><trkpt lat="45.03311486166971" lon="9.630713983678765"><ele>66.0</ele><time>2026-04-07T12:21:08.011Z</time></trkpt><trkpt lat="45.033079961098466" lon="9.630594712119281"><ele>66.0</ele><time>2026-04-07T12:21:11.011Z</time></trkpt><trkpt lat="45.033039293980885" lon="9.630476911258771"><ele>66.0</ele><time>2026-04-07T12:21:14.011Z</time></trkpt><trkpt lat="45.033016276519234" lon="9.630388409775488"><ele>66.0</ele><time>2026-04-07T12:21:16.011Z</time></trkpt><trkpt lat="45.03297634502247" lon="9.630268875174538"><ele>66.0</ele><time>2026-04-07T12:21:19.004Z</time></trkpt><trkpt lat="45.0329391861837" lon="9.63019017393233"><ele>66.14285714285714</ele><time>2026-04-07T12:21:21.004Z</time></trkpt><trkpt lat="45.03290659710423" lon="9.630108429300217"><ele>66.28571428571429</ele><time>2026-04-07T12:21:23.005Z</time></trkpt><trkpt lat="45.03286524879148" lon="9.630030986064982"><ele>66.42857142857143</ele><time>2026-04-07T12:21:25.005Z</time></trkpt><trkpt lat="45.032841447216555" lon="9.62993358264008"><ele>66.57142857142857</ele><time>2026-04-07T12:21:27.005Z</time></trkpt><trkpt lat="45.03281236899511" lon="9.629841463203482"><ele>66.71428571428571</ele><time>2026-04-07T12:21:29.005Z</time></trkpt><trkpt lat="45.03278119523247" lon="9.629748323601145"><ele>66.85714285714286</ele><time>2026-04-07T12:21:31.005Z</time></trkpt><trkpt lat="45.03274693466" lon="9.629662580083737"><ele>67.0</ele><time>2026-04-07T12:21:33.005Z</time></trkpt><trkpt lat="45.03271453559091" lon="9.62957905230725"><ele>67.0</ele><time>2026-04-07T12:21:35.005Z</time></trkpt><trkpt lat="45.03268412869749" lon="9.629485644182193"><ele>67.0</ele><time>2026-04-07T12:21:37.005Z</time></trkpt><trkpt lat="45.032646955247316" lon="9.629398602663036"><ele>67.0</ele><time>2026-04-07T12:21:39.005Z</time></trkpt><trkpt lat="45.03261350977188" lon="9.629314808821483"><ele>67.0</ele><time>2026-04-07T12:21:41.005Z</time></trkpt><trkpt lat="45.032580899675196" lon="9.629231788093723"><ele>67.0</ele><time>2026-04-07T12:21:43.005Z</time></trkpt><trkpt lat="45.03255910388789" lon="9.629147129004316"><ele>67.0</ele><time>2026-04-07T12:21:45.005Z</time></trkpt><trkpt lat="45.03252178850465" lon="9.62904099329453"><ele>67.0</ele><time>2026-04-07T12:24:23.005Z</time></trkpt><trkpt lat="45.03248484860277" lon="9.6289263826907"><ele>67.0</ele><time>2026-04-07T12:24:26.005Z</time></trkpt><trkpt lat="45.032447244149154" lon="9.628836991345695"><ele>67.0</ele><time>2026-04-07T12:24:28.005Z</time></trkpt><trkpt lat="45.03240889943289" lon="9.628741950430607"><ele>67.0</ele><time>2026-04-07T12:24:30.005Z</time></trkpt><trkpt lat="45.03237151586908" lon="9.628642865161115"><ele>67.0</ele><time>2026-04-07T12:24:32.005Z</time></trkpt><trkpt lat="45.03233946931131" lon="9.62853445706549"><ele>67.0</ele><time>2026-04-07T12:24:34.005Z</time></trkpt><trkpt lat="45.03229356192052" lon="9.628443430276414"><ele>67.0</ele><time>2026-04-07T12:24:36.005Z</time></trkpt><trkpt lat="45.03225884366431" lon="9.628349662227233"><ele>67.0</ele><time>2026-04-07T12:24:38.005Z</time></trkpt><trkpt lat="45.03222665305259" lon="9.628268377081973"><ele>67.0</ele><time>2026-04-07T12:24:41.005Z</time></trkpt><trkpt lat="45.0322011336019" lon="9.628185682185368"><ele>67.0</ele><time>2026-04-07T12:24:45.005Z</time></trkpt><trkpt lat="45.03216051274535" lon="9.628079712298192"><ele>67.0</ele><time>2026-04-07T12:24:49.005Z</time></trkpt><trkpt lat="45.03212638551492" lon="9.627981061413953"><ele>67.0</ele><time>2026-04-07T12:24:52.005Z</time></trkpt><trkpt lat="45.03209896279985" lon="9.627889620473056"><ele>67.0</ele><time>2026-04-07T12:24:54.005Z</time></trkpt><trkpt lat="45.032071004345255" lon="9.627805745097257"><ele>67.0</ele><time>2026-04-07T12:24:56.005Z</time></trkpt><trkpt lat="45.03204300888621" lon="9.627716009936695"><ele>67.0</ele><time>2026-04-07T12:24:58.005Z</time></trkpt><trkpt lat="45.032015678472675" lon="9.627622174376064"><ele>67.0</ele><time>2026-04-07T12:25:00.005Z</time></trkpt><trkpt lat="45.031991301544466" lon="9.627525380747125"><ele>67.0</ele><time>2026-04-07T12:25:02.005Z</time></trkpt><trkpt lat="45.03197207392055" lon="9.627425528777732"><ele>67.0</ele><time>2026-04-07T12:25:04.005Z</time></trkpt><trkpt lat="45.03196266956355" lon="9.627326872948343"><ele>67.0</ele><time>2026-04-07T12:25:06.005Z</time></trkpt><trkpt lat="45.03196114587149" lon="9.627231828054585"><ele>67.0</ele><time>2026-04-07T12:25:08.005Z</time></trkpt><trkpt lat="45.031972864621615" lon="9.627138451398983"><ele>67.0</ele><time>2026-04-07T12:25:10.005Z</time></trkpt><trkpt lat="45.031994731647806" lon="9.627037430978758"><ele>66.83333333333333</ele><time>2026-04-07T12:25:12.005Z</time></trkpt><trkpt lat="45.03200522844994" lon="9.626926996337204"><ele>66.66666666666666</ele><time>2026-04-07T12:25:14.005Z</time></trkpt><trkpt lat="45.0320049108813" lon="9.62681379381231"><ele>66.5</ele><time>2026-04-07T12:25:16.005Z</time></trkpt><trkpt lat="45.031997501208416" lon="9.626699909521632"><ele>66.33333333333333</ele><time>2026-04-07T12:25:18.005Z</time></trkpt><trkpt lat="45.031992716858035" lon="9.62658424414391"><ele>66.16666666666667</ele><time>2026-04-07T12:25:20.005Z</time></trkpt><trkpt lat="45.031986637934935" lon="9.626479638366897"><ele>66.0</ele><time>2026-04-07T12:25:22.005Z</time></trkpt><trkpt lat="45.031975577616585" lon="9.626365651260585"><ele>66.0</ele><time>2026-04-07T12:25:24.006Z</time></trkpt><trkpt lat="45.03195634018164" lon="9.626252680349888"><ele>66.0</ele><time>2026-04-07T12:25:26.006Z</time></trkpt><trkpt lat="45.03192358031478" lon="9.626138220397587"><ele>66.0</ele><time>2026-04-07T12:25:28.006Z</time></trkpt><trkpt lat="45.03188251602249" lon="9.62603359376163"><ele>66.0</ele><time>2026-04-07T12:25:30.006Z</time></trkpt><trkpt lat="45.031835014004464" lon="9.625926824307564"><ele>66.0</ele><time>2026-04-07T12:25:32.006Z</time></trkpt><trkpt lat="45.03178323022629" lon="9.62582066439521"><ele>66.0</ele><time>2026-04-07T12:25:34.006Z</time></trkpt><trkpt lat="45.03173578078559" lon="9.62571458049994"><ele>65.83333333333333</ele><time>2026-04-07T12:25:36.006Z</time></trkpt><trkpt lat="45.031709333366464" lon="9.62559827583699"><ele>65.66666666666667</ele><time>2026-04-07T12:25:38.006Z</time></trkpt><trkpt lat="45.03169169168544" lon="9.625479134524307"><ele>65.5</ele><time>2026-04-07T12:25:40.006Z</time></trkpt><trkpt lat="45.03167833145326" lon="9.62535709986105"><ele>65.33333333333334</ele><time>2026-04-07T12:25:42.006Z</time></trkpt><trkpt lat="45.03166553603664" lon="9.625227261937173"><ele>65.16666666666667</ele><time>2026-04-07T12:25:44.006Z</time></trkpt><trkpt lat="45.031656650758" lon="9.625105990580385"><ele>65.0</ele><time>2026-04-07T12:25:46.006Z</time></trkpt><trkpt lat="45.03164443378818" lon="9.624979546721992"><ele>65.6</ele><time>2026-04-07T12:25:48.006Z</time></trkpt><trkpt lat="45.031632991699546" lon="9.624857043848518"><ele>66.2</ele><time>2026-04-07T12:25:50.006Z</time></trkpt><trkpt lat="45.03162826480539" lon="9.624731189698453"><ele>66.8</ele><time>2026-04-07T12:25:52.006Z</time></trkpt><trkpt lat="45.031616946655205" lon="9.62460410196578"><ele>67.4</ele><time>2026-04-07T12:25:54.006Z</time></trkpt><trkpt lat="45.03160752362784" lon="9.624476097728111"><ele>68.0</ele><time>2026-04-07T12:25:56.006Z</time></trkpt><trkpt lat="45.031597334272305" lon="9.624342089271586"><ele>68.0</ele><time>2026-04-07T12:25:58.006Z</time></trkpt><trkpt lat="45.031592596618" lon="9.624210795690585"><ele>68.0</ele><time>2026-04-07T12:26:00.006Z</time></trkpt><trkpt lat="45.03158520303698" lon="9.624082182964425"><ele>68.0</ele><time>2026-04-07T12:26:02.006Z</time></trkpt><trkpt lat="45.03157496844086" lon="9.62394799611576"><ele>68.0</ele><time>2026-04-07T12:26:04.006Z</time></trkpt><trkpt lat="45.03157295179031" lon="9.623811215655882"><ele>68.0</ele><time>2026-04-07T12:26:06.006Z</time></trkpt><trkpt lat="45.03156604759925" lon="9.623687655519632"><ele>68.2</ele><time>2026-04-07T12:26:08.006Z</time></trkpt><trkpt lat="45.03156164391745" lon="9.62356545481243"><ele>68.4</ele><time>2026-04-07T12:26:10.006Z</time></trkpt><trkpt lat="45.03155647644232" lon="9.62344147797752"><ele>68.60000000000001</ele><time>2026-04-07T12:26:12.006Z</time></trkpt><trkpt lat="45.031561420159015" lon="9.62330581580246"><ele>68.8</ele><time>2026-04-07T12:26:14.006Z</time></trkpt><trkpt lat="45.031554536997795" lon="9.623173049241778"><ele>69.0</ele><time>2026-04-07T12:26:16.005Z</time></trkpt><trkpt lat="45.031548945149666" lon="9.62304484261892"><ele>69.0</ele><time>2026-04-07T12:26:18.005Z</time></trkpt><trkpt lat="45.0315513452187" lon="9.62291490873729"><ele>69.0</ele><time>2026-04-07T12:26:20.004Z</time></trkpt><trkpt lat="45.031547440030685" lon="9.622788935282173"><ele>69.0</ele><time>2026-04-07T12:26:22.005Z</time></trkpt><trkpt lat="45.03154614159185" lon="9.622651948095482"><ele>69.0</ele><time>2026-04-07T12:26:24.004Z</time></trkpt><trkpt lat="45.03154410443141" lon="9.622532320582668"><ele>69.0</ele><time>2026-04-07T12:26:26.004Z</time></trkpt><trkpt lat="45.03154360131254" lon="9.622405287902104"><ele>69.0</ele><time>2026-04-07T12:26:28.005Z</time></trkpt><trkpt lat="45.03154391259904" lon="9.622271667276324"><ele>69.0</ele><time>2026-04-07T12:26:30.004Z</time></trkpt><trkpt lat="45.03154535856555" lon="9.622144069335778"><ele>69.0</ele><time>2026-04-07T12:26:32.004Z</time></trkpt><trkpt lat="45.03154489173773" lon="9.6220136127486"><ele>69.0</ele><time>2026-04-07T12:26:34.004Z</time></trkpt><trkpt lat="45.03154390451912" lon="9.62188018073616"><ele>69.0</ele><time>2026-04-07T12:26:36.004Z</time></trkpt><trkpt lat="45.03154500974777" lon="9.621752790434199"><ele>69.0</ele><time>2026-04-07T12:26:38.004Z</time></trkpt><trkpt lat="45.03154515024869" lon="9.621628229180091"><ele>69.0</ele><time>2026-04-07T12:26:40.004Z</time></trkpt><trkpt lat="45.03154589076875" lon="9.621501340960615"><ele>69.0</ele><time>2026-04-07T12:26:42.004Z</time></trkpt><trkpt lat="45.03154354175399" lon="9.621376462802456"><ele>69.0</ele><time>2026-04-07T12:26:44.004Z</time></trkpt><trkpt lat="45.031545089521906" lon="9.62124665832101"><ele>69.0</ele><time>2026-04-07T12:26:46.004Z</time></trkpt><trkpt lat="45.031546013035026" lon="9.621114846807952"><ele>69.0</ele><time>2026-04-07T12:26:48.004Z</time></trkpt><trkpt lat="45.031548842427625" lon="9.620978905617173"><ele>69.0</ele><time>2026-04-07T12:26:50.004Z</time></trkpt><trkpt lat="45.03155385555358" lon="9.62084592541662"><ele>69.0</ele><time>2026-04-07T12:26:52.004Z</time></trkpt><trkpt lat="45.0315487299887" lon="9.62070928036967"><ele>69.0</ele><time>2026-04-07T12:26:54.004Z</time></trkpt><trkpt lat="45.03155023306224" lon="9.620575843382735"><ele>69.0</ele><time>2026-04-07T12:26:56.004Z</time></trkpt><trkpt lat="45.03154892342595" lon="9.62043473754101"><ele>68.4</ele><time>2026-04-07T12:26:58.004Z</time></trkpt><trkpt lat="45.03155374640757" lon="9.620290562150121"><ele>67.80000000000001</ele><time>2026-04-07T12:27:00.005Z</time></trkpt><trkpt lat="45.031548594528104" lon="9.620146269043024"><ele>67.19999999999999</ele><time>2026-04-07T12:27:02.005Z</time></trkpt><trkpt lat="45.0315557189604" lon="9.620001032988274"><ele>66.6</ele><time>2026-04-07T12:27:04.005Z</time></trkpt><trkpt lat="45.031554411000855" lon="9.619854278916494"><ele>66.0</ele><time>2026-04-07T12:27:06.005Z</time></trkpt><trkpt lat="45.03155397958085" lon="9.619707413274115"><ele>66.0</ele><time>2026-04-07T12:27:08.005Z</time></trkpt><trkpt lat="45.031550890384025" lon="9.619558405122511"><ele>66.0</ele><time>2026-04-07T12:27:10.005Z</time></trkpt><trkpt lat="45.03155207590733" lon="9.619411593389268"><ele>66.0</ele><time>2026-04-07T12:27:12.005Z</time></trkpt><trkpt lat="45.03155110172456" lon="9.619261595487144"><ele>66.0</ele><time>2026-04-07T12:27:14.005Z</time></trkpt><trkpt lat="45.03155448809766" lon="9.619112663809487"><ele>66.0</ele><time>2026-04-07T12:27:16.005Z</time></trkpt><trkpt lat="45.0315557502649" lon="9.618959852084645"><ele>66.0</ele><time>2026-04-07T12:27:18.005Z</time></trkpt><trkpt lat="45.03155643518016" lon="9.618813100854865"><ele>66.0</ele><time>2026-04-07T12:27:20.005Z</time></trkpt><trkpt lat="45.031553359100954" lon="9.618666133927293"><ele>66.0</ele><time>2026-04-07T12:27:22.005Z</time></trkpt><trkpt lat="45.03155218449966" lon="9.618522983496758"><ele>66.0</ele><time>2026-04-07T12:27:24.005Z</time></trkpt><trkpt lat="45.03155854130746" lon="9.618375755680985"><ele>66.0</ele><time>2026-04-07T12:27:26.005Z</time></trkpt><trkpt lat="45.03155892426037" lon="9.618234408495608"><ele>66.0</ele><time>2026-04-07T12:27:28.005Z</time></trkpt><trkpt lat="45.03156011937834" lon="9.618096513818648"><ele>66.0</ele><time>2026-04-07T12:27:30.005Z</time></trkpt><trkpt lat="45.031557017758544" lon="9.617957639310804"><ele>66.0</ele><time>2026-04-07T12:27:32.005Z</time></trkpt><trkpt lat="45.031553760356694" lon="9.617817607010208"><ele>66.0</ele><time>2026-04-07T12:27:34.005Z</time></trkpt><trkpt lat="45.031553428778544" lon="9.617680385040746"><ele>66.0</ele><time>2026-04-07T12:27:36.005Z</time></trkpt><trkpt lat="45.03155477709187" lon="9.617542909019704"><ele>66.0</ele><time>2026-04-07T12:27:38.005Z</time></trkpt><trkpt lat="45.031552632255355" lon="9.61740127246577"><ele>66.0</ele><time>2026-04-07T12:27:40.005Z</time></trkpt><trkpt lat="45.03154967742299" lon="9.617262450788942"><ele>66.0</ele><time>2026-04-07T12:27:42.005Z</time></trkpt><trkpt lat="45.03155214072888" lon="9.61712708924619"><ele>66.0</ele><time>2026-04-07T12:27:44.005Z</time></trkpt><trkpt lat="45.03155290303776" lon="9.616992608304177"><ele>66.0</ele><time>2026-04-07T12:27:46.005Z</time></trkpt><trkpt lat="45.0315519774321" lon="9.616854525582422"><ele>65.8</ele><time>2026-04-07T12:27:48.005Z</time></trkpt><trkpt lat="45.03154941619521" lon="9.616720182178243"><ele>65.6</ele><time>2026-04-07T12:27:50.005Z</time></trkpt><trkpt lat="45.03155150659589" lon="9.616577577345497"><ele>65.4</ele><time>2026-04-07T12:27:52.005Z</time></trkpt><trkpt lat="45.03154721883414" lon="9.61644054668666"><ele>65.2</ele><time>2026-04-07T12:27:54.005Z</time></trkpt><trkpt lat="45.03154891701005" lon="9.616301099598997"><ele>65.0</ele><time>2026-04-07T12:27:56.005Z</time></trkpt><trkpt lat="45.031550713056596" lon="9.616165339453602"><ele>65.2</ele><time>2026-04-07T12:27:58.005Z</time></trkpt><trkpt lat="45.03155153926555" lon="9.616025408220892"><ele>65.4</ele><time>2026-04-07T12:28:00.005Z</time></trkpt><trkpt lat="45.03155000650218" lon="9.615891598660872"><ele>65.6</ele><time>2026-04-07T12:28:02.005Z</time></trkpt><trkpt lat="45.03154928738598" lon="9.615752961217744"><ele>65.8</ele><time>2026-04-07T12:28:04.005Z</time></trkpt><trkpt lat="45.031545267171616" lon="9.615617701561659"><ele>66.0</ele><time>2026-04-07T12:28:06.005Z</time></trkpt><trkpt lat="45.03154729215284" lon="9.615482107311863"><ele>66.0</ele><time>2026-04-07T12:28:08.005Z</time></trkpt><trkpt lat="45.03154505378096" lon="9.615338779171475"><ele>66.0</ele><time>2026-04-07T12:28:10.005Z</time></trkpt><trkpt lat="45.031543415516694" lon="9.615200059100085"><ele>66.0</ele><time>2026-04-07T12:28:12.005Z</time></trkpt><trkpt lat="45.03153870107242" lon="9.61506599487766"><ele>66.0</ele><time>2026-04-07T12:28:14.005Z</time></trkpt><trkpt lat="45.031539243888425" lon="9.61494086789898"><ele>66.0</ele><time>2026-04-07T12:28:16.005Z</time></trkpt><trkpt lat="45.03153447509345" lon="9.614807170521622"><ele>66.0</ele><time>2026-04-07T12:28:18.005Z</time></trkpt><trkpt lat="45.03153318933571" lon="9.6146675616467"><ele>66.0</ele><time>2026-04-07T12:28:20.005Z</time></trkpt><trkpt lat="45.03153553624509" lon="9.614525452614666"><ele>66.0</ele><time>2026-04-07T12:28:22.004Z</time></trkpt><trkpt lat="45.03153763169494" lon="9.614397610070412"><ele>66.0</ele><time>2026-04-07T12:28:24.004Z</time></trkpt><trkpt lat="45.03153863760635" lon="9.614263489542394"><ele>66.0</ele><time>2026-04-07T12:28:26.004Z</time></trkpt><trkpt lat="45.031539231281144" lon="9.614126587762216"><ele>66.2</ele><time>2026-04-07T12:28:28.004Z</time></trkpt><trkpt lat="45.031543041094594" lon="9.614000894371676"><ele>66.39999999999999</ele><time>2026-04-07T12:28:30.004Z</time></trkpt><trkpt lat="45.03154179177594" lon="9.613863037033363"><ele>66.6</ele><time>2026-04-07T12:28:32.004Z</time></trkpt><trkpt lat="45.03154117750547" lon="9.61372743995385"><ele>66.8</ele><time>2026-04-07T12:28:34.005Z</time></trkpt><trkpt lat="45.03154041771552" lon="9.6135932551162"><ele>67.0</ele><time>2026-04-07T12:28:36.004Z</time></trkpt><trkpt lat="45.031539352795704" lon="9.613457322231916"><ele>67.0</ele><time>2026-04-07T12:28:38.004Z</time></trkpt><trkpt lat="45.03153956252741" lon="9.613321740249624"><ele>67.0</ele><time>2026-04-07T12:28:40.004Z</time></trkpt><trkpt lat="45.031536053575444" lon="9.613181503973642"><ele>67.0</ele><time>2026-04-07T12:28:42.004Z</time></trkpt><trkpt lat="45.03153608421969" lon="9.613047628262649"><ele>67.0</ele><time>2026-04-07T12:28:44.004Z</time></trkpt><trkpt lat="45.03153511195189" lon="9.612916833147708"><ele>67.0</ele><time>2026-04-07T12:28:46.004Z</time></trkpt><trkpt lat="45.031531620561225" lon="9.612787589379858"><ele>67.0</ele><time>2026-04-07T12:28:48.004Z</time></trkpt><trkpt lat="45.03153039973874" lon="9.612650390020647"><ele>67.0</ele><time>2026-04-07T12:28:50.004Z</time></trkpt><trkpt lat="45.03153295766834" lon="9.612516406432691"><ele>67.0</ele><time>2026-04-07T12:28:52.004Z</time></trkpt><trkpt lat="45.03153287546544" lon="9.612379296416648"><ele>67.0</ele><time>2026-04-07T12:28:54.004Z</time></trkpt><trkpt lat="45.03153349111248" lon="9.612248340317223"><ele>67.0</ele><time>2026-04-07T12:28:56.004Z</time></trkpt><trkpt lat="45.03153541917393" lon="9.612111099598076"><ele>66.8</ele><time>2026-04-07T12:28:58.004Z</time></trkpt><trkpt lat="45.03153729514717" lon="9.611974576021922"><ele>66.6</ele><time>2026-04-07T12:29:00.004Z</time></trkpt><trkpt lat="45.03153656182409" lon="9.611837886002775"><ele>66.39999999999999</ele><time>2026-04-07T12:29:02.004Z</time></trkpt><trkpt lat="45.03153998273953" lon="9.611698887107718"><ele>66.2</ele><time>2026-04-07T12:29:04.004Z</time></trkpt><trkpt lat="45.031538859414766" lon="9.611564525286328"><ele>66.0</ele><time>2026-04-07T12:29:06.004Z</time></trkpt><trkpt lat="45.031540509935205" lon="9.611430907764616"><ele>66.0</ele><time>2026-04-07T12:29:08.004Z</time></trkpt><trkpt lat="45.03153991970929" lon="9.611293841344176"><ele>66.0</ele><time>2026-04-07T12:29:10.004Z</time></trkpt><trkpt lat="45.03153657043004" lon="9.611159840345143"><ele>66.0</ele><time>2026-04-07T12:29:12.004Z</time></trkpt><trkpt lat="45.03153907120602" lon="9.611027404117053"><ele>66.0</ele><time>2026-04-07T12:29:14.004Z</time></trkpt><trkpt lat="45.03154443111532" lon="9.610888949986387"><ele>66.0</ele><time>2026-04-07T12:29:16.004Z</time></trkpt><trkpt lat="45.03154328818962" lon="9.610744916829427"><ele>66.0</ele><time>2026-04-07T12:29:18.004Z</time></trkpt><trkpt lat="45.03154411773797" lon="9.610619981479251"><ele>66.0</ele><time>2026-04-07T12:29:20.004Z</time></trkpt><trkpt lat="45.031548568070484" lon="9.61049107963248"><ele>66.0</ele><time>2026-04-07T12:29:22.004Z</time></trkpt><trkpt lat="45.031551872995635" lon="9.610363044424373"><ele>66.0</ele><time>2026-04-07T12:29:24.004Z</time></trkpt><trkpt lat="45.03154833607727" lon="9.610230967896715"><ele>66.0</ele><time>2026-04-07T12:29:26.004Z</time></trkpt><trkpt lat="45.03154705699811" lon="9.610106796235195"><ele>66.0</ele><time>2026-04-07T12:29:28.004Z</time></trkpt><trkpt lat="45.031555486824075" lon="9.60997814989788"><ele>66.0</ele><time>2026-04-07T12:29:30.004Z</time></trkpt><trkpt lat="45.031560112026355" lon="9.609853240988418"><ele>66.0</ele><time>2026-04-07T12:29:32.004Z</time></trkpt><trkpt lat="45.03156428959475" lon="9.609724837906342"><ele>66.0</ele><time>2026-04-07T12:29:34.004Z</time></trkpt><trkpt lat="45.03156435533339" lon="9.60959960472112"><ele>66.0</ele><time>2026-04-07T12:29:36.004Z</time></trkpt><trkpt lat="45.03156378953328" lon="9.609482702919847"><ele>66.0</ele><time>2026-04-07T12:29:38.004Z</time></trkpt><trkpt lat="45.031558378792" lon="9.609360522337203"><ele>66.16666666666667</ele><time>2026-04-07T12:29:40.004Z</time></trkpt><trkpt lat="45.03154501149035" lon="9.609239192543635"><ele>66.33333333333333</ele><time>2026-04-07T12:29:42.004Z</time></trkpt><trkpt lat="45.031528913379546" lon="9.60911657199456"><ele>66.5</ele><time>2026-04-07T12:29:44.004Z</time></trkpt><trkpt lat="45.031516326173666" lon="9.608988967075593"><ele>66.66666666666666</ele><time>2026-04-07T12:29:46.004Z</time></trkpt><trkpt lat="45.03150410064907" lon="9.608863222073085"><ele>66.83333333333333</ele><time>2026-04-07T12:29:48.005Z</time></trkpt><trkpt lat="45.03150067305815" lon="9.60873665555582"><ele>67.0</ele><time>2026-04-07T12:29:50.005Z</time></trkpt><trkpt lat="45.031500171526694" lon="9.608617799424453"><ele>67.16666666666666</ele><time>2026-04-07T12:29:52.005Z</time></trkpt><trkpt lat="45.03150042776841" lon="9.60849644552255"><ele>67.33333333333333</ele><time>2026-04-07T12:29:54.005Z</time></trkpt><trkpt lat="45.0314949189727" lon="9.608371134264262"><ele>67.5</ele><time>2026-04-07T12:29:56.005Z</time></trkpt><trkpt lat="45.03149799263696" lon="9.608249301640269"><ele>67.66666666666667</ele><time>2026-04-07T12:29:58.005Z</time></trkpt><trkpt lat="45.0314981134806" lon="9.608126962284329"><ele>67.83333333333334</ele><time>2026-04-07T12:30:00.005Z</time></trkpt><trkpt lat="45.0314955447785" lon="9.608000315032486"><ele>68.0</ele><time>2026-04-07T12:30:02.005Z</time></trkpt><trkpt lat="45.031493688297395" lon="9.60787497855657"><ele>67.83333333333334</ele><time>2026-04-07T12:30:04.005Z</time></trkpt><trkpt lat="45.03149351430056" lon="9.607757092746924"><ele>67.66666666666667</ele><time>2026-04-07T12:30:06.005Z</time></trkpt><trkpt lat="45.031495323896536" lon="9.607625543481847"><ele>67.5</ele><time>2026-04-07T12:30:08.005Z</time></trkpt><trkpt lat="45.031499975329304" lon="9.607509633059863"><ele>67.33333333333333</ele><time>2026-04-07T12:30:10.005Z</time></trkpt><trkpt lat="45.03149564959295" lon="9.607388250293518"><ele>67.16666666666666</ele><time>2026-04-07T12:30:12.005Z</time></trkpt><trkpt lat="45.03150112297907" lon="9.60727167315367"><ele>67.0</ele><time>2026-04-07T12:30:14.005Z</time></trkpt><trkpt lat="45.03149668406476" lon="9.607154401087136"><ele>67.0</ele><time>2026-04-07T12:30:16.005Z</time></trkpt><trkpt lat="45.03149726755229" lon="9.60703998790043"><ele>67.0</ele><time>2026-04-07T12:30:18.005Z</time></trkpt><trkpt lat="45.03150020681588" lon="9.606918951558463"><ele>67.0</ele><time>2026-04-07T12:30:20.005Z</time></trkpt><trkpt lat="45.03149561303499" lon="9.606786742872872"><ele>67.0</ele><time>2026-04-07T12:30:22.005Z</time></trkpt><trkpt lat="45.031499091917766" lon="9.60667000379744"><ele>67.0</ele><time>2026-04-07T12:30:24.005Z</time></trkpt><trkpt lat="45.03149790531191" lon="9.60656244796302"><ele>67.0</ele><time>2026-04-07T12:30:26.005Z</time></trkpt><trkpt lat="45.031496013960066" lon="9.606461461195847"><ele>66.83333333333333</ele><time>2026-04-07T12:30:28.004Z</time></trkpt><trkpt lat="45.031493744398865" lon="9.606370620152568"><ele>66.66666666666666</ele><time>2026-04-07T12:30:30.004Z</time></trkpt><trkpt lat="45.031497505527724" lon="9.606251621135993"><ele>66.5</ele><time>2026-04-07T12:30:33.003Z</time></trkpt><trkpt lat="45.03149399176278" lon="9.606124124747087"><ele>66.33333333333333</ele><time>2026-04-07T12:30:36.004Z</time></trkpt><trkpt lat="45.03149319748311" lon="9.606024159957663"><ele>66.16666666666667</ele><time>2026-04-07T12:30:38.004Z</time></trkpt><trkpt lat="45.03149480014832" lon="9.605919092702202"><ele>66.0</ele><time>2026-04-07T12:30:40.004Z</time></trkpt><trkpt lat="45.031494581669214" lon="9.605814182824409"><ele>66.16666666666667</ele><time>2026-04-07T12:30:42.003Z</time></trkpt><trkpt lat="45.03149774447685" lon="9.605698762662033"><ele>66.33333333333333</ele><time>2026-04-07T12:30:44.003Z</time></trkpt><trkpt lat="45.031501479773915" lon="9.605587134660299"><ele>66.5</ele><time>2026-04-07T12:30:46.003Z</time></trkpt><trkpt lat="45.03149668087054" lon="9.60547912343626"><ele>66.66666666666666</ele><time>2026-04-07T12:30:48.003Z</time></trkpt><trkpt lat="45.03149339532588" lon="9.605372825479002"><ele>66.83333333333333</ele><time>2026-04-07T12:30:50.003Z</time></trkpt><trkpt lat="45.03149160786573" lon="9.605263452014883"><ele>67.0</ele><time>2026-04-07T12:30:52.003Z</time></trkpt><trkpt lat="45.03149170034775" lon="9.605161247592946"><ele>67.0</ele><time>2026-04-07T12:30:54.003Z</time></trkpt><trkpt lat="45.03148541829539" lon="9.605065774408294"><ele>67.0</ele><time>2026-04-07T12:30:56.003Z</time></trkpt><trkpt lat="45.0314789472711" lon="9.604958792306965"><ele>67.0</ele><time>2026-04-07T12:30:58.003Z</time></trkpt><trkpt lat="45.03145333227821" lon="9.604861833125671"><ele>67.0</ele><time>2026-04-07T12:31:00.003Z</time></trkpt><trkpt lat="45.03140462382476" lon="9.604776166490888"><ele>67.0</ele><time>2026-04-07T12:31:03.003Z</time></trkpt><trkpt lat="45.03138270345664" lon="9.604689728691172"><ele>67.0</ele><time>2026-04-07T12:31:06.003Z</time></trkpt><trkpt lat="45.03138922097117" lon="9.604577578924038"><ele>67.0</ele><time>2026-04-07T12:31:09.003Z</time></trkpt><trkpt lat="45.03140274472501" lon="9.604479423355809"><ele>67.0</ele><time>2026-04-07T12:31:11.003Z</time></trkpt><trkpt lat="45.031421448700655" lon="9.60437837924654"><ele>67.0</ele><time>2026-04-07T12:31:13.003Z</time></trkpt><trkpt lat="45.03142881865897" lon="9.604279580493543"><ele>67.0</ele><time>2026-04-07T12:31:15.003Z</time></trkpt><trkpt lat="45.031444773332595" lon="9.604166112540161"><ele>67.0</ele><time>2026-04-07T12:31:17.003Z</time></trkpt><trkpt lat="45.03145170454094" lon="9.604054883008713"><ele>67.0</ele><time>2026-04-07T12:31:19.003Z</time></trkpt><trkpt lat="45.0314549458623" lon="9.603941717197271"><ele>67.0</ele><time>2026-04-07T12:31:21.004Z</time></trkpt><trkpt lat="45.03146017371529" lon="9.603818377471836"><ele>67.0</ele><time>2026-04-07T12:31:23.004Z</time></trkpt><trkpt lat="45.031456282008655" lon="9.603707971469358"><ele>67.0</ele><time>2026-04-07T12:31:25.004Z</time></trkpt><trkpt lat="45.03144830261292" lon="9.603582870173788"><ele>67.0</ele><time>2026-04-07T12:31:27.004Z</time></trkpt><trkpt lat="45.03144641529329" lon="9.603450393626874"><ele>67.0</ele><time>2026-04-07T12:31:29.004Z</time></trkpt><trkpt lat="45.03144636348704" lon="9.603340187843328"><ele>67.0</ele><time>2026-04-07T12:31:31.004Z</time></trkpt><trkpt lat="45.03144591381872" lon="9.603228488542594"><ele>67.0</ele><time>2026-04-07T12:31:33.004Z</time></trkpt><trkpt lat="45.031446017697796" lon="9.603113781535415"><ele>66.8</ele><time>2026-04-07T12:31:35.004Z</time></trkpt><trkpt lat="45.03143508500909" lon="9.602986737019354"><ele>66.6</ele><time>2026-04-07T12:31:37.004Z</time></trkpt><trkpt lat="45.03143638327432" lon="9.6028582638619"><ele>66.39999999999999</ele><time>2026-04-07T12:31:39.004Z</time></trkpt><trkpt lat="45.03142741411841" lon="9.602720641321334"><ele>66.2</ele><time>2026-04-07T12:31:41.004Z</time></trkpt><trkpt lat="45.03142315295535" lon="9.602574143510166"><ele>66.0</ele><time>2026-04-07T12:31:43.004Z</time></trkpt><trkpt lat="45.03142195323975" lon="9.602448107558407"><ele>66.0</ele><time>2026-04-07T12:31:45.004Z</time></trkpt><trkpt lat="45.03141675333636" lon="9.602307928454627"><ele>66.0</ele><time>2026-04-07T12:31:47.004Z</time></trkpt><trkpt lat="45.03141593462072" lon="9.602137250025436"><ele>66.0</ele><time>2026-04-07T12:31:49.004Z</time></trkpt><trkpt lat="45.03141605989054" lon="9.601998765765593"><ele>66.0</ele><time>2026-04-07T12:31:51.004Z</time></trkpt><trkpt lat="45.03141380044626" lon="9.601859433528071"><ele>66.0</ele><time>2026-04-07T12:31:53.004Z</time></trkpt><trkpt lat="45.03140633785796" lon="9.601731412451874"><ele>65.83333333333333</ele><time>2026-04-07T12:31:55.004Z</time></trkpt><trkpt lat="45.03140512372603" lon="9.601608021678976"><ele>65.66666666666667</ele><time>2026-04-07T12:31:57.004Z</time></trkpt><trkpt lat="45.031399964806326" lon="9.601481975944045"><ele>65.5</ele><time>2026-04-07T12:31:59.004Z</time></trkpt><trkpt lat="45.03139945308511" lon="9.601358468492718"><ele>65.33333333333334</ele><time>2026-04-07T12:32:01.004Z</time></trkpt><trkpt lat="45.031394736968245" lon="9.60123697909501"><ele>65.16666666666667</ele><time>2026-04-07T12:32:03.004Z</time></trkpt><trkpt lat="45.031394803049274" lon="9.601109799567926"><ele>65.0</ele><time>2026-04-07T12:32:05.004Z</time></trkpt><trkpt lat="45.031394251097566" lon="9.600972354219065"><ele>65.0</ele><time>2026-04-07T12:32:07.004Z</time></trkpt><trkpt lat="45.03140324560936" lon="9.600845920677912"><ele>65.0</ele><time>2026-04-07T12:32:09.004Z</time></trkpt><trkpt lat="45.031404955758106" lon="9.600728637890311"><ele>65.0</ele><time>2026-04-07T12:32:11.004Z</time></trkpt><trkpt lat="45.03140370488801" lon="9.600615123089543"><ele>65.0</ele><time>2026-04-07T12:32:13.004Z</time></trkpt><trkpt lat="45.03141190796519" lon="9.600476257758086"><ele>65.0</ele><time>2026-04-07T12:32:15.004Z</time></trkpt><trkpt lat="45.0314071858561" lon="9.600358533354107"><ele>65.0</ele><time>2026-04-07T12:32:17.004Z</time></trkpt><trkpt lat="45.03140685337985" lon="9.600237709440531"><ele>64.83333333333334</ele><time>2026-04-07T12:32:19.004Z</time></trkpt><trkpt lat="45.03140522079248" lon="9.600100883067649"><ele>64.66666666666667</ele><time>2026-04-07T12:32:21.004Z</time></trkpt><trkpt lat="45.031404212723004" lon="9.599981093345944"><ele>64.5</ele><time>2026-04-07T12:32:23.004Z</time></trkpt><trkpt lat="45.031405283022444" lon="9.599855577391654"><ele>64.33333333333333</ele><time>2026-04-07T12:32:25.004Z</time></trkpt><trkpt lat="45.031403752365385" lon="9.59973912183146"><ele>64.16666666666666</ele><time>2026-04-07T12:32:27.004Z</time></trkpt><trkpt lat="45.03140283753097" lon="9.599626881996784"><ele>64.0</ele><time>2026-04-07T12:32:29.004Z</time></trkpt><trkpt lat="45.03140057151806" lon="9.599515589528078"><ele>63.83333333333333</ele><time>2026-04-07T12:32:31.004Z</time></trkpt><trkpt lat="45.03140189452223" lon="9.599395738633861"><ele>63.666666666666664</ele><time>2026-04-07T12:32:33.004Z</time></trkpt><trkpt lat="45.03140208301648" lon="9.599274793274791"><ele>63.5</ele><time>2026-04-07T12:32:35.004Z</time></trkpt><trkpt lat="45.031395275962204" lon="9.599162113096533"><ele>63.33333333333333</ele><time>2026-04-07T12:32:37.004Z</time></trkpt><trkpt lat="45.03139030017529" lon="9.599045638720584"><ele>63.166666666666664</ele><time>2026-04-07T12:32:39.004Z</time></trkpt><trkpt lat="45.0313928213269" lon="9.598928319986042"><ele>63.0</ele><time>2026-04-07T12:32:41.003Z</time></trkpt><trkpt lat="45.03139421027719" lon="9.598816389632699"><ele>63.0</ele><time>2026-04-07T12:32:43.003Z</time></trkpt><trkpt lat="45.03140358502812" lon="9.598696296378645"><ele>63.0</ele><time>2026-04-07T12:32:45.004Z</time></trkpt><trkpt lat="45.0314144920703" lon="9.598566174159675"><ele>63.0</ele><time>2026-04-07T12:32:47.004Z</time></trkpt><trkpt lat="45.03141831851469" lon="9.598435227925947"><ele>63.0</ele><time>2026-04-07T12:32:49.004Z</time></trkpt><trkpt lat="45.031422430639914" lon="9.598301047635761"><ele>63.0</ele><time>2026-04-07T12:32:51.004Z</time></trkpt><trkpt lat="45.03142166367912" lon="9.59818458131263"><ele>63.0</ele><time>2026-04-07T12:32:53.004Z</time></trkpt><trkpt lat="45.031417213697665" lon="9.598072176853105"><ele>62.833333333333336</ele><time>2026-04-07T12:32:55.004Z</time></trkpt><trkpt lat="45.03141533889235" lon="9.597947733552273"><ele>62.66666666666667</ele><time>2026-04-07T12:32:57.004Z</time></trkpt><trkpt lat="45.03140862723979" lon="9.59783326234533"><ele>62.5</ele><time>2026-04-07T12:32:59.004Z</time></trkpt><trkpt lat="45.031410787038396" lon="9.5977148118725"><ele>62.333333333333336</ele><time>2026-04-07T12:33:01.004Z</time></trkpt><trkpt lat="45.031413396447384" lon="9.597592444552406"><ele>62.16666666666667</ele><time>2026-04-07T12:33:03.004Z</time></trkpt><trkpt lat="45.031412190795685" lon="9.597471833751657"><ele>62.0</ele><time>2026-04-07T12:33:05.004Z</time></trkpt><trkpt lat="45.03142902493528" lon="9.597355473107593"><ele>62.0</ele><time>2026-04-07T12:33:07.004Z</time></trkpt><trkpt lat="45.03143819775486" lon="9.59723932211179"><ele>62.0</ele><time>2026-04-07T12:33:09.004Z</time></trkpt><trkpt lat="45.03146170387051" lon="9.597100759956787"><ele>62.0</ele><time>2026-04-07T12:33:11.004Z</time></trkpt><trkpt lat="45.03145646666285" lon="9.596975495851334"><ele>62.0</ele><time>2026-04-07T12:33:13.004Z</time></trkpt><trkpt lat="45.03146049749089" lon="9.596841650494857"><ele>62.0</ele><time>2026-04-07T12:33:15.004Z</time></trkpt><trkpt lat="45.03146477119738" lon="9.596722865862992"><ele>62.50000000000001</ele><time>2026-04-07T12:33:17.004Z</time></trkpt><trkpt lat="45.03146474419336" lon="9.596612838130879"><ele>63.0</ele><time>2026-04-07T12:33:19.004Z</time></trkpt><trkpt lat="45.031456165798595" lon="9.596494355571311"><ele>63.5</ele><time>2026-04-07T12:33:22.004Z</time></trkpt><trkpt lat="45.03147883409232" lon="9.596410780812946"><ele>64.0</ele><time>2026-04-07T12:33:24.004Z</time></trkpt><trkpt lat="45.03149796328007" lon="9.596300066095944"><ele>64.5</ele><time>2026-04-07T12:33:26.004Z</time></trkpt><trkpt lat="45.03148829734615" lon="9.596173482276876"><ele>65.0</ele><time>2026-04-07T12:33:28.004Z</time></trkpt><trkpt lat="45.03148486612999" lon="9.596046253623694"><ele>65.0</ele><time>2026-04-07T12:33:30.004Z</time></trkpt><trkpt lat="45.031518833346055" lon="9.595922932784715"><ele>65.0</ele><time>2026-04-07T12:33:32.004Z</time></trkpt><trkpt lat="45.031595579365266" lon="9.595998031801766"><ele>65.0</ele><time>2026-04-07T12:33:34.004Z</time></trkpt><trkpt lat="45.031614243465114" lon="9.596119338327256"><ele>65.0</ele><time>2026-04-07T12:33:36.004Z</time></trkpt><trkpt lat="45.031631625911444" lon="9.596254707393319"><ele>65.0</ele><time>2026-04-07T12:33:38.004Z</time></trkpt><trkpt lat="45.03165391847784" lon="9.596404903412688"><ele>65.25</ele><time>2026-04-07T12:33:40.004Z</time></trkpt><trkpt lat="45.03168693957468" lon="9.59658013581752"><ele>65.5</ele><time>2026-04-07T12:33:42.004Z</time></trkpt><trkpt lat="45.031720948655234" lon="9.596742733731519"><ele>65.75</ele><time>2026-04-07T12:33:44.004Z</time></trkpt><trkpt lat="45.031750818417635" lon="9.596910655023308"><ele>66.0</ele><time>2026-04-07T12:33:46.004Z</time></trkpt><trkpt lat="45.03177394123393" lon="9.597039016368608"><ele>65.83333333333333</ele><time>2026-04-07T12:33:48.004Z</time></trkpt><trkpt lat="45.03169682261611" lon="9.597074178971157"><ele>65.66666666666667</ele><time>2026-04-07T12:33:54.004Z</time></trkpt><trkpt lat="45.03163297040726" lon="9.5970624780273"><ele>65.5</ele><time>2026-04-07T12:33:56.004Z</time></trkpt><trkpt lat="45.03155702339686" lon="9.597030896769054"><ele>65.33333333333334</ele><time>2026-04-07T12:33:58.004Z</time></trkpt><trkpt lat="45.03148593323686" lon="9.596979311137718"><ele>65.16666666666667</ele><time>2026-04-07T12:34:00.004Z</time></trkpt><trkpt lat="45.03141877112305" lon="9.596923008182195"><ele>65.0</ele><time>2026-04-07T12:34:02.004Z</time></trkpt><trkpt lat="45.03136427632708" lon="9.596848062280882"><ele>65.0</ele><time>2026-04-07T12:34:04.004Z</time></trkpt><trkpt lat="45.031296719498734" lon="9.596781752099542"><ele>65.0</ele><time>2026-04-07T12:34:06.004Z</time></trkpt><trkpt lat="45.03122675044899" lon="9.596722964608588"><ele>65.0</ele><time>2026-04-07T12:34:08.004Z</time></trkpt><trkpt lat="45.03116087712124" lon="9.596649272754183"><ele>65.0</ele><time>2026-04-07T12:34:10.004Z</time></trkpt><trkpt lat="45.031084170008555" lon="9.596563200583772"><ele>65.0</ele><time>2026-04-07T12:34:12.004Z</time></trkpt><trkpt lat="45.03103824642258" lon="9.596426746681825"><ele>65.0</ele><time>2026-04-07T12:34:14.004Z</time></trkpt><trkpt lat="45.03104401958773" lon="9.596287079259765"><ele>65.0</ele><time>2026-04-07T12:34:16.005Z</time></trkpt><trkpt lat="45.03104706236618" lon="9.596157565917313"><ele>65.0</ele><time>2026-04-07T12:34:18.005Z</time></trkpt><trkpt lat="45.03105469930831" lon="9.596027645334921"><ele>65.0</ele><time>2026-04-07T12:34:20.005Z</time></trkpt><trkpt lat="45.03105341956223" lon="9.59589750675225"><ele>65.0</ele><time>2026-04-07T12:34:22.005Z</time></trkpt><trkpt lat="45.03106140412542" lon="9.595773156875351"><ele>65.5</ele><time>2026-04-07T12:34:24.005Z</time></trkpt><trkpt lat="45.03106738263585" lon="9.595639448925992"><ele>66.0</ele><time>2026-04-07T12:34:26.005Z</time></trkpt><trkpt lat="45.031070850530035" lon="9.595511704491976"><ele>66.5</ele><time>2026-04-07T12:34:28.005Z</time></trkpt><trkpt lat="45.03107530004644" lon="9.595389534653549"><ele>67.0</ele><time>2026-04-07T12:34:30.005Z</time></trkpt><trkpt lat="45.03107729538116" lon="9.595271619142508"><ele>67.5</ele><time>2026-04-07T12:34:32.005Z</time></trkpt><trkpt lat="45.031085676632024" lon="9.595155970530405"><ele>68.0</ele><time>2026-04-07T12:34:34.005Z</time></trkpt><trkpt lat="45.031091269827066" lon="9.595026514618734"><ele>68.0</ele><time>2026-04-07T12:34:36.005Z</time></trkpt><trkpt lat="45.031100492831676" lon="9.594893250979714"><ele>68.0</ele><time>2026-04-07T12:34:38.005Z</time></trkpt><trkpt lat="45.031113024983284" lon="9.594763507288684"><ele>68.0</ele><time>2026-04-07T12:34:40.004Z</time></trkpt><trkpt lat="45.03112619403727" lon="9.594639625384877"><ele>68.0</ele><time>2026-04-07T12:34:42.004Z</time></trkpt><trkpt lat="45.03113856260097" lon="9.594503685256264"><ele>68.0</ele><time>2026-04-07T12:34:44.004Z</time></trkpt><trkpt lat="45.031155452395005" lon="9.594378093940987"><ele>67.8</ele><time>2026-04-07T12:34:46.004Z</time></trkpt><trkpt lat="45.03117133387716" lon="9.59425007766562"><ele>67.6</ele><time>2026-04-07T12:34:48.005Z</time></trkpt><trkpt lat="45.03118391263303" lon="9.594122777803632"><ele>67.4</ele><time>2026-04-07T12:34:50.004Z</time></trkpt><trkpt lat="45.03120446649855" lon="9.59399474370659"><ele>67.2</ele><time>2026-04-07T12:34:52.005Z</time></trkpt><trkpt lat="45.03121802726392" lon="9.593870235243855"><ele>67.0</ele><time>2026-04-07T12:34:54.004Z</time></trkpt><trkpt lat="45.031244333305175" lon="9.593741695905992"><ele>67.0</ele><time>2026-04-07T12:34:56.004Z</time></trkpt><trkpt lat="45.03126224803388" lon="9.59361850324027"><ele>67.0</ele><time>2026-04-07T12:34:58.004Z</time></trkpt><trkpt lat="45.0312809582747" lon="9.593490251250913"><ele>67.0</ele><time>2026-04-07T12:35:00.004Z</time></trkpt><trkpt lat="45.03128357935523" lon="9.593354098664872"><ele>67.0</ele><time>2026-04-07T12:35:02.004Z</time></trkpt><trkpt lat="45.03127737892587" lon="9.593231649334166"><ele>67.0</ele><time>2026-04-07T12:35:04.004Z</time></trkpt><trkpt lat="45.031270851166454" lon="9.593118193165"><ele>67.0</ele><time>2026-04-07T12:35:06.004Z</time></trkpt><trkpt lat="45.03126359814221" lon="9.593010777037154"><ele>67.0</ele><time>2026-04-07T12:35:08.004Z</time></trkpt><trkpt lat="45.031266189112216" lon="9.592897961700443"><ele>67.0</ele><time>2026-04-07T12:35:10.004Z</time></trkpt><trkpt lat="45.03129838356305" lon="9.592809369576253"><ele>67.0</ele><time>2026-04-07T12:35:12.004Z</time></trkpt><trkpt lat="45.031364398413935" lon="9.592740169888778"><ele>67.0</ele><time>2026-04-07T12:35:14.004Z</time></trkpt><trkpt lat="45.03143916091956" lon="9.592678691935863"><ele>67.0</ele><time>2026-04-07T12:35:16.004Z</time></trkpt><trkpt lat="45.03150276686312" lon="9.592582973835974"><ele>67.0</ele><time>2026-04-07T12:35:18.004Z</time></trkpt><trkpt lat="45.03153606878285" lon="9.592470095165265"><ele>67.0</ele><time>2026-04-07T12:35:20.004Z</time></trkpt><trkpt lat="45.031572978161485" lon="9.592356138810127"><ele>67.0</ele><time>2026-04-07T12:35:22.004Z</time></trkpt><trkpt lat="45.03161348278762" lon="9.592243993907584"><ele>67.0</ele><time>2026-04-07T12:35:24.004Z</time></trkpt><trkpt lat="45.03165342523015" lon="9.592130276066625"><ele>67.0</ele><time>2026-04-07T12:35:26.004Z</time></trkpt><trkpt lat="45.0316892004259" lon="9.592010772201391"><ele>67.0</ele><time>2026-04-07T12:35:28.004Z</time></trkpt><trkpt lat="45.031726336268015" lon="9.591892622626602"><ele>66.8</ele><time>2026-04-07T12:35:30.004Z</time></trkpt><trkpt lat="45.03176960857685" lon="9.591775192335595"><ele>66.6</ele><time>2026-04-07T12:35:32.004Z</time></trkpt><trkpt lat="45.031811748652714" lon="9.591656645951135"><ele>66.39999999999999</ele><time>2026-04-07T12:35:34.004Z</time></trkpt><trkpt lat="45.031849934066024" lon="9.591531133239249"><ele>66.2</ele><time>2026-04-07T12:35:36.004Z</time></trkpt><trkpt lat="45.03189647714727" lon="9.591411841887032"><ele>66.0</ele><time>2026-04-07T12:35:38.005Z</time></trkpt><trkpt lat="45.031938844697166" lon="9.591301919498699"><ele>66.0</ele><time>2026-04-07T12:35:40.005Z</time></trkpt><trkpt lat="45.03198617730072" lon="9.591182981815162"><ele>66.0</ele><time>2026-04-07T12:35:42.005Z</time></trkpt><trkpt lat="45.03204163501133" lon="9.591062438997284"><ele>66.0</ele><time>2026-04-07T12:35:44.005Z</time></trkpt><trkpt lat="45.03209189562996" lon="9.590934258968973"><ele>66.0</ele><time>2026-04-07T12:35:46.005Z</time></trkpt><trkpt lat="45.032269060158846" lon="9.591001191404624"><ele>66.0</ele><time>2026-04-07T12:35:47.005Z</time></trkpt><trkpt lat="45.03232208401494" lon="9.59088358857122"><ele>66.0</ele><time>2026-04-07T12:35:49.005Z</time></trkpt><trkpt lat="45.03238105515579" lon="9.590760264891403"><ele>66.0</ele><time>2026-04-07T12:35:51.005Z</time></trkpt><trkpt lat="45.03243122731597" lon="9.590656182111411"><ele>66.0</ele><time>2026-04-07T12:35:53.005Z</time></trkpt><trkpt lat="45.032491209394884" lon="9.590538825524803"><ele>66.0</ele><time>2026-04-07T12:35:55.005Z</time></trkpt><trkpt lat="45.032549430100204" lon="9.590427229816463"><ele>66.39999999999999</ele><time>2026-04-07T12:35:57.005Z</time></trkpt><trkpt lat="45.03260919625669" lon="9.590317074756413"><ele>66.8</ele><time>2026-04-07T12:35:59.005Z</time></trkpt><trkpt lat="45.03266565206042" lon="9.590215775295341"><ele>67.19999999999999</ele><time>2026-04-07T12:36:01.005Z</time></trkpt><trkpt lat="45.03272111937469" lon="9.590121083108734"><ele>67.6</ele><time>2026-04-07T12:36:03.005Z</time></trkpt><trkpt lat="45.03278230812802" lon="9.590017890034447"><ele>68.0</ele><time>2026-04-07T12:36:05.005Z</time></trkpt><trkpt lat="45.0328459339388" lon="9.589913650384075"><ele>68.0</ele><time>2026-04-07T12:36:07.005Z</time></trkpt><trkpt lat="45.032908508302974" lon="9.58981618848074"><ele>68.0</ele><time>2026-04-07T12:36:09.005Z</time></trkpt><trkpt lat="45.03297562330257" lon="9.589715403859685"><ele>68.0</ele><time>2026-04-07T12:36:11.005Z</time></trkpt><trkpt lat="45.03303937413491" lon="9.58962255751917"><ele>68.0</ele><time>2026-04-07T12:36:13.005Z</time></trkpt><trkpt lat="45.032953815374" lon="9.589416040835085"><ele>67.8</ele><time>2026-04-07T12:36:14.005Z</time></trkpt><trkpt lat="45.033023721414125" lon="9.58932484939079"><ele>67.6</ele><time>2026-04-07T12:36:16.005Z</time></trkpt><trkpt lat="45.033097174994296" lon="9.589224831483675"><ele>67.4</ele><time>2026-04-07T12:36:18.005Z</time></trkpt><trkpt lat="45.03317279196999" lon="9.589128768813032"><ele>67.2</ele><time>2026-04-07T12:36:20.005Z</time></trkpt><trkpt lat="45.03324985391601" lon="9.58903615996813"><ele>67.0</ele><time>2026-04-07T12:36:22.005Z</time></trkpt><trkpt lat="45.03338990437772" lon="9.589153450376534"><ele>66.8</ele><time>2026-04-07T12:36:23.005Z</time></trkpt><trkpt lat="45.033463240882696" lon="9.589064235469925"><ele>66.6</ele><time>2026-04-07T12:36:25.005Z</time></trkpt><trkpt lat="45.03353255924244" lon="9.588981587796564"><ele>66.39999999999999</ele><time>2026-04-07T12:36:27.005Z</time></trkpt><trkpt lat="45.033606587293626" lon="9.588896382808652"><ele>66.2</ele><time>2026-04-07T12:36:29.005Z</time></trkpt><trkpt lat="45.03367591725893" lon="9.588818841416078"><ele>66.0</ele><time>2026-04-07T12:36:31.005Z</time></trkpt><trkpt lat="45.03374821501675" lon="9.5887406850107"><ele>66.2</ele><time>2026-04-07T12:36:33.005Z</time></trkpt><trkpt lat="45.03382917677243" lon="9.588655487276538"><ele>66.39999999999999</ele><time>2026-04-07T12:36:35.005Z</time></trkpt><trkpt lat="45.03390543658155" lon="9.588579152833498"><ele>66.6</ele><time>2026-04-07T12:36:37.005Z</time></trkpt><trkpt lat="45.03398627524753" lon="9.588498219896202"><ele>66.8</ele><time>2026-04-07T12:36:39.005Z</time></trkpt><trkpt lat="45.03406425199159" lon="9.588422974503676"><ele>67.0</ele><time>2026-04-07T12:36:41.005Z</time></trkpt><trkpt lat="45.034144697489886" lon="9.588346825992316"><ele>67.2</ele><time>2026-04-07T12:36:43.005Z</time></trkpt><trkpt lat="45.03422650394805" lon="9.58827222985518"><ele>67.4</ele><time>2026-04-07T12:36:45.005Z</time></trkpt><trkpt lat="45.03430557041492" lon="9.588200132208362"><ele>67.6</ele><time>2026-04-07T12:36:47.005Z</time></trkpt><trkpt lat="45.03437921045449" lon="9.588132982721074"><ele>67.8</ele><time>2026-04-07T12:36:49.005Z</time></trkpt><trkpt lat="45.034450984521996" lon="9.588067534748037"><ele>68.0</ele><time>2026-04-07T12:36:51.004Z</time></trkpt><trkpt lat="45.034287182002714" lon="9.587634152922398"><ele>68.0</ele><time>2026-04-07T12:36:52.005Z</time></trkpt><trkpt lat="45.0343102973801" lon="9.587512810342952"><ele>68.0</ele><time>2026-04-07T12:36:54.004Z</time></trkpt><trkpt lat="45.03432684731192" lon="9.587389489917156"><ele>68.0</ele><time>2026-04-07T12:36:56.004Z</time></trkpt><trkpt lat="45.03433261904329" lon="9.587261928261816"><ele>68.0</ele><time>2026-04-07T12:36:58.005Z</time></trkpt><trkpt lat="45.03432289509364" lon="9.587133188031276"><ele>68.0</ele><time>2026-04-07T12:37:00.004Z</time></trkpt><trkpt lat="45.03430914799551" lon="9.587015966772347"><ele>68.0</ele><time>2026-04-07T12:37:02.004Z</time></trkpt><trkpt lat="45.03429267699464" lon="9.586902804341271"><ele>67.83333333333334</ele><time>2026-04-07T12:37:04.004Z</time></trkpt><trkpt lat="45.03426511140955" lon="9.586790779480225"><ele>67.66666666666667</ele><time>2026-04-07T12:37:06.004Z</time></trkpt><trkpt lat="45.03423159153878" lon="9.586675888973856"><ele>67.5</ele><time>2026-04-07T12:37:08.004Z</time></trkpt><trkpt lat="45.034186391189316" lon="9.586568802703935"><ele>67.33333333333333</ele><time>2026-04-07T12:37:10.004Z</time></trkpt><trkpt lat="45.03414069395035" lon="9.586460399544777"><ele>67.16666666666666</ele><time>2026-04-07T12:37:12.004Z</time></trkpt><trkpt lat="45.03409441083125" lon="9.586354439634619"><ele>67.0</ele><time>2026-04-07T12:37:14.004Z</time></trkpt><trkpt lat="45.03404037074674" lon="9.586256720395662"><ele>67.2</ele><time>2026-04-07T12:37:16.004Z</time></trkpt><trkpt lat="45.03398820829379" lon="9.586146177920973"><ele>67.4</ele><time>2026-04-07T12:37:18.004Z</time></trkpt><trkpt lat="45.03393722896185" lon="9.586030926882225"><ele>67.6</ele><time>2026-04-07T12:37:20.004Z</time></trkpt><trkpt lat="45.03388690174003" lon="9.585921387960349"><ele>67.8</ele><time>2026-04-07T12:37:22.004Z</time></trkpt><trkpt lat="45.03383281939735" lon="9.585811793107888"><ele>68.0</ele><time>2026-04-07T12:37:24.004Z</time></trkpt><trkpt lat="45.033778507822376" lon="9.585713764268535"><ele>68.0</ele><time>2026-04-07T12:37:26.004Z</time></trkpt><trkpt lat="45.03373508774718" lon="9.585608195602628"><ele>68.0</ele><time>2026-04-07T12:37:28.004Z</time></trkpt><trkpt lat="45.033692852639355" lon="9.585500027910113"><ele>68.0</ele><time>2026-04-07T12:37:30.004Z</time></trkpt><trkpt lat="45.033646130734134" lon="9.585392806535175"><ele>68.0</ele><time>2026-04-07T12:37:32.004Z</time></trkpt><trkpt lat="45.03360549034428" lon="9.585270950814094"><ele>68.0</ele><time>2026-04-07T12:37:34.004Z</time></trkpt><trkpt lat="45.03356883771754" lon="9.585149484677942"><ele>68.2</ele><time>2026-04-07T12:37:36.004Z</time></trkpt><trkpt lat="45.033534655950746" lon="9.585033461462466"><ele>68.4</ele><time>2026-04-07T12:37:38.004Z</time></trkpt><trkpt lat="45.03350419146858" lon="9.584918788922737"><ele>68.60000000000001</ele><time>2026-04-07T12:37:40.004Z</time></trkpt><trkpt lat="45.03346769966528" lon="9.584798956658263"><ele>68.8</ele><time>2026-04-07T12:37:42.004Z</time></trkpt><trkpt lat="45.03343366159355" lon="9.584679338938557"><ele>69.0</ele><time>2026-04-07T12:37:44.004Z</time></trkpt><trkpt lat="45.03339769168189" lon="9.584553267863118"><ele>69.0</ele><time>2026-04-07T12:37:46.004Z</time></trkpt><trkpt lat="45.03336388653077" lon="9.584434451361222"><ele>69.0</ele><time>2026-04-07T12:37:48.004Z</time></trkpt><trkpt lat="45.03333172342953" lon="9.584332685915932"><ele>69.0</ele><time>2026-04-07T12:37:50.004Z</time></trkpt><trkpt lat="45.03329001602468" lon="9.584246402495776"><ele>69.0</ele><time>2026-04-07T12:37:52.004Z</time></trkpt><trkpt lat="45.0332405308474" lon="9.584174210375378"><ele>69.0</ele><time>2026-04-07T12:37:54.004Z</time></trkpt><trkpt lat="45.03319704369536" lon="9.584069843283965"><ele>69.0</ele><time>2026-04-07T12:37:57.004Z</time></trkpt><trkpt lat="45.033173215908604" lon="9.583971713586568"><ele>69.0</ele><time>2026-04-07T12:38:01.004Z</time></trkpt><trkpt lat="45.033155411066545" lon="9.583846261874385"><ele>69.0</ele><time>2026-04-07T12:38:04.004Z</time></trkpt><trkpt lat="45.03316800833681" lon="9.58375156803243"><ele>69.0</ele><time>2026-04-07T12:38:06.004Z</time></trkpt><trkpt lat="45.033224689344785" lon="9.583686506047766"><ele>69.0</ele><time>2026-04-07T12:38:08.004Z</time></trkpt><trkpt lat="45.03324110674425" lon="9.583595611558621"><ele>69.0</ele><time>2026-04-07T12:38:10.004Z</time></trkpt><trkpt lat="45.033234758538406" lon="9.583493559762829"><ele>69.0</ele><time>2026-04-07T12:38:12.004Z</time></trkpt><trkpt lat="45.033217308791805" lon="9.58338557885587"><ele>69.0</ele><time>2026-04-07T12:38:14.004Z</time></trkpt><trkpt lat="45.03318768281703" lon="9.583273940655705"><ele>69.16666666666667</ele><time>2026-04-07T12:38:16.004Z</time></trkpt><trkpt lat="45.03316569160541" lon="9.583160552330979"><ele>69.33333333333333</ele><time>2026-04-07T12:38:18.005Z</time></trkpt><trkpt lat="45.033144247921996" lon="9.583047789480084"><ele>69.5</ele><time>2026-04-07T12:38:20.005Z</time></trkpt><trkpt lat="45.03312351808456" lon="9.58292265913744"><ele>69.66666666666666</ele><time>2026-04-07T12:38:22.005Z</time></trkpt><trkpt lat="45.033104507351325" lon="9.58280267885619"><ele>69.83333333333333</ele><time>2026-04-07T12:38:24.005Z</time></trkpt><trkpt lat="45.033087684835905" lon="9.582683904169981"><ele>70.0</ele><time>2026-04-07T12:38:26.005Z</time></trkpt><trkpt lat="45.033069634546166" lon="9.582566568834743"><ele>69.66666666666666</ele><time>2026-04-07T12:38:28.005Z</time></trkpt><trkpt lat="45.03305612857397" lon="9.582436912439784"><ele>69.33333333333333</ele><time>2026-04-07T12:38:30.005Z</time></trkpt><trkpt lat="45.03302838121452" lon="9.582322659351803"><ele>69.0</ele><time>2026-04-07T12:38:32.005Z</time></trkpt><trkpt lat="45.03300409933459" lon="9.582203178285406"><ele>68.66666666666667</ele><time>2026-04-07T12:38:34.005Z</time></trkpt><trkpt lat="45.03297649893902" lon="9.58208653495904"><ele>68.33333333333334</ele><time>2026-04-07T12:38:36.005Z</time></trkpt><trkpt lat="45.03294953606064" lon="9.581969674379158"><ele>68.0</ele><time>2026-04-07T12:38:38.005Z</time></trkpt><trkpt lat="45.03292284320759" lon="9.581849809504082"><ele>68.0</ele><time>2026-04-07T12:38:40.005Z</time></trkpt><trkpt lat="45.03289507130174" lon="9.581727879853645"><ele>68.0</ele><time>2026-04-07T12:38:42.005Z</time></trkpt><trkpt lat="45.03287419005436" lon="9.58160398554596"><ele>68.0</ele><time>2026-04-07T12:38:44.005Z</time></trkpt><trkpt lat="45.03284318123082" lon="9.58147704947861"><ele>68.0</ele><time>2026-04-07T12:38:46.005Z</time></trkpt><trkpt lat="45.03281857531545" lon="9.581347515588838"><ele>68.0</ele><time>2026-04-07T12:38:48.005Z</time></trkpt><trkpt lat="45.03278682940513" lon="9.581222215089966"><ele>67.8</ele><time>2026-04-07T12:38:50.005Z</time></trkpt><trkpt lat="45.032764273314385" lon="9.581092989373241"><ele>67.6</ele><time>2026-04-07T12:38:52.005Z</time></trkpt><trkpt lat="45.03273721914252" lon="9.58096211953414"><ele>67.4</ele><time>2026-04-07T12:38:54.004Z</time></trkpt><trkpt lat="45.032711408470625" lon="9.580839377563509"><ele>67.2</ele><time>2026-04-07T12:38:56.005Z</time></trkpt><trkpt lat="45.03268333369703" lon="9.580717734119679"><ele>67.0</ele><time>2026-04-07T12:38:58.005Z</time></trkpt><trkpt lat="45.03265372651713" lon="9.580591537080425"><ele>67.0</ele><time>2026-04-07T12:39:00.004Z</time></trkpt><trkpt lat="45.03262772745194" lon="9.580464399122196"><ele>67.0</ele><time>2026-04-07T12:39:02.005Z</time></trkpt><trkpt lat="45.03260097969401" lon="9.580340654648433"><ele>67.0</ele><time>2026-04-07T12:39:04.004Z</time></trkpt><trkpt lat="45.032572591717326" lon="9.580225328759209"><ele>67.0</ele><time>2026-04-07T12:39:06.004Z</time></trkpt><trkpt lat="45.03253818551956" lon="9.580119285657346"><ele>67.0</ele><time>2026-04-07T12:39:08.004Z</time></trkpt><trkpt lat="45.03251216372783" lon="9.579999036540274"><ele>67.0</ele><time>2026-04-07T12:39:10.004Z</time></trkpt><trkpt lat="45.03247882368141" lon="9.579886380263348"><ele>67.0</ele><time>2026-04-07T12:39:12.004Z</time></trkpt><trkpt lat="45.032449704608034" lon="9.579764221648167"><ele>67.0</ele><time>2026-04-07T12:39:14.004Z</time></trkpt><trkpt lat="45.03241937893125" lon="9.579647508873142"><ele>67.0</ele><time>2026-04-07T12:39:16.004Z</time></trkpt><trkpt lat="45.032390058042004" lon="9.579520107668948"><ele>67.0</ele><time>2026-04-07T12:39:18.004Z</time></trkpt><trkpt lat="45.03236191819776" lon="9.579394504119547"><ele>67.0</ele><time>2026-04-07T12:39:20.004Z</time></trkpt><trkpt lat="45.032338562098936" lon="9.579269863925154"><ele>67.0</ele><time>2026-04-07T12:39:22.004Z</time></trkpt><trkpt lat="45.03231430031185" lon="9.579145372398207"><ele>67.0</ele><time>2026-04-07T12:39:24.004Z</time></trkpt><trkpt lat="45.032290816326466" lon="9.579028176958046"><ele>67.0</ele><time>2026-04-07T12:39:26.004Z</time></trkpt><trkpt lat="45.03226133525188" lon="9.578918270029938"><ele>67.0</ele><time>2026-04-07T12:39:28.004Z</time></trkpt><trkpt lat="45.03223317630902" lon="9.578812573760452"><ele>67.0</ele><time>2026-04-07T12:39:30.004Z</time></trkpt><trkpt lat="45.03222021364243" lon="9.578704090664303"><ele>67.0</ele><time>2026-04-07T12:39:32.004Z</time></trkpt><trkpt lat="45.03220319896064" lon="9.578604147280261"><ele>67.42857142857143</ele><time>2026-04-07T12:39:34.004Z</time></trkpt><trkpt lat="45.03219609252443" lon="9.578507334613084"><ele>67.85714285714286</ele><time>2026-04-07T12:39:36.004Z</time></trkpt><trkpt lat="45.032188056263884" lon="9.578417727302886"><ele>68.28571428571428</ele><time>2026-04-07T12:39:38.004Z</time></trkpt><trkpt lat="45.03218363350292" lon="9.578318556212787"><ele>68.71428571428572</ele><time>2026-04-07T12:39:41.004Z</time></trkpt><trkpt lat="45.032226737166035" lon="9.578252974972811"><ele>69.14285714285714</ele><time>2026-04-07T12:39:57.004Z</time></trkpt><trkpt lat="45.03225516603547" lon="9.57816410295104"><ele>69.57142857142857</ele><time>2026-04-07T12:40:00.005Z</time></trkpt><trkpt lat="45.03226258929728" lon="9.578046548827471"><ele>70.0</ele><time>2026-04-07T12:40:03.005Z</time></trkpt><trkpt lat="45.0322602250432" lon="9.577954367006749"><ele>70.0</ele><time>2026-04-07T12:40:05.005Z</time></trkpt><trkpt lat="45.03224010658193" lon="9.577861761048265"><ele>70.0</ele><time>2026-04-07T12:40:07.005Z</time></trkpt><trkpt lat="45.03222990658788" lon="9.577741664647512"><ele>70.0</ele><time>2026-04-07T12:40:09.005Z</time></trkpt><trkpt lat="45.03222761198294" lon="9.577638302830112"><ele>70.0</ele><time>2026-04-07T12:40:11.005Z</time></trkpt><trkpt lat="45.0322542976059" lon="9.577530592415622"><ele>70.0</ele><time>2026-04-07T12:40:14.005Z</time></trkpt><trkpt lat="45.032318791129406" lon="9.577503752248843"><ele>70.0</ele><time>2026-04-07T12:40:16.005Z</time></trkpt><trkpt lat="45.03240766390612" lon="9.57746602060359"><ele>70.0</ele><time>2026-04-07T12:40:19.005Z</time></trkpt><trkpt lat="45.03250020733386" lon="9.577440471117482"><ele>70.0</ele><time>2026-04-07T12:40:22.005Z</time></trkpt><trkpt lat="45.03256666546989" lon="9.57740842302068"><ele>70.0</ele><time>2026-04-07T12:40:24.005Z</time></trkpt><trkpt lat="45.03264391393658" lon="9.577382077475596"><ele>70.0</ele><time>2026-04-07T12:40:26.005Z</time></trkpt><trkpt lat="45.032722150301524" lon="9.577342494174829"><ele>70.0</ele><time>2026-04-07T12:40:28.005Z</time></trkpt><trkpt lat="45.03279407544952" lon="9.577317028452478"><ele>70.0</ele><time>2026-04-07T12:40:30.005Z</time></trkpt><trkpt lat="45.032866426841565" lon="9.577283276518227"><ele>70.0</ele><time>2026-04-07T12:40:32.005Z</time></trkpt><trkpt lat="45.03293851650617" lon="9.577245249177292"><ele>70.0</ele><time>2026-04-07T12:40:34.005Z</time></trkpt><trkpt lat="45.03300438747788" lon="9.577210554101445"><ele>70.0</ele><time>2026-04-07T12:40:36.005Z</time></trkpt><trkpt lat="45.033085300212925" lon="9.577177746136858"><ele>70.0</ele><time>2026-04-07T12:40:39.005Z</time></trkpt><trkpt lat="45.033146288656056" lon="9.577142226493947"><ele>70.0</ele><time>2026-04-07T12:40:42.005Z</time></trkpt><trkpt lat="45.03321838842898" lon="9.577107578578246"><ele>70.0</ele><time>2026-04-07T12:40:46.005Z</time></trkpt><trkpt lat="45.033291680267" lon="9.57709063947943"><ele>70.0</ele><time>2026-04-07T12:40:50.005Z</time></trkpt><trkpt lat="45.03335402857833" lon="9.577076660262101"><ele>70.0</ele><time>2026-04-07T12:40:53.005Z</time></trkpt><trkpt lat="45.03341673540162" lon="9.577033966941652"><ele>70.0</ele><time>2026-04-07T12:40:55.005Z</time></trkpt><trkpt lat="45.033503767285794" lon="9.577003422952307"><ele>70.0</ele><time>2026-04-07T12:40:57.005Z</time></trkpt><trkpt lat="45.03359013308046" lon="9.576982638043015"><ele>70.0</ele><time>2026-04-07T12:40:59.005Z</time></trkpt><trkpt lat="45.03368240722863" lon="9.576947031407132"><ele>70.0</ele><time>2026-04-07T12:41:01.004Z</time></trkpt><trkpt lat="45.033773201804124" lon="9.576915555073489"><ele>70.0</ele><time>2026-04-07T12:41:03.005Z</time></trkpt><trkpt lat="45.033856633697965" lon="9.57688650498676"><ele>70.0</ele><time>2026-04-07T12:41:05.005Z</time></trkpt><trkpt lat="45.033948935499694" lon="9.576854154464858"><ele>70.0</ele><time>2026-04-07T12:41:07.005Z</time></trkpt><trkpt lat="45.03404173221623" lon="9.576839062387997"><ele>70.0</ele><time>2026-04-07T12:41:09.005Z</time></trkpt><trkpt lat="45.03413315381133" lon="9.576812342464137"><ele>70.0</ele><time>2026-04-07T12:41:11.005Z</time></trkpt><trkpt lat="45.03421644271132" lon="9.576771858538324"><ele>70.0</ele><time>2026-04-07T12:41:13.005Z</time></trkpt><trkpt lat="45.03430660077224" lon="9.5767456683133"><ele>70.33333333333333</ele><time>2026-04-07T12:41:15.005Z</time></trkpt><trkpt lat="45.03440106671993" lon="9.576706390457854"><ele>70.66666666666666</ele><time>2026-04-07T12:41:17.005Z</time></trkpt><trkpt lat="45.03449522319555" lon="9.576669054429185"><ele>71.0</ele><time>2026-04-07T12:41:19.005Z</time></trkpt><trkpt lat="45.03455819432529" lon="9.576631109484504"><ele>71.33333333333333</ele><time>2026-04-07T12:41:20.005Z</time></trkpt><trkpt lat="45.034637444446325" lon="9.576600778709038"><ele>71.66666666666667</ele><time>2026-04-07T12:41:22.005Z</time></trkpt><trkpt lat="45.03472476942236" lon="9.576568143245256"><ele>72.0</ele><time>2026-04-07T12:41:24.005Z</time></trkpt><trkpt lat="45.034816063763216" lon="9.576535034712736"><ele>72.0</ele><time>2026-04-07T12:41:26.005Z</time></trkpt><trkpt lat="45.03489935289726" lon="9.57650211474653"><ele>72.0</ele><time>2026-04-07T12:41:28.005Z</time></trkpt><trkpt lat="45.03498725634287" lon="9.576458026809497"><ele>72.0</ele><time>2026-04-07T12:41:30.005Z</time></trkpt><trkpt lat="45.03506550753422" lon="9.576423278514431"><ele>72.0</ele><time>2026-04-07T12:41:32.005Z</time></trkpt><trkpt lat="45.03514438261299" lon="9.576390725654178"><ele>72.0</ele><time>2026-04-07T12:41:34.005Z</time></trkpt><trkpt lat="45.03521637299084" lon="9.576339200547693"><ele>72.0</ele><time>2026-04-07T12:41:36.005Z</time></trkpt><trkpt lat="45.035293412666604" lon="9.576293971203137"><ele>71.6</ele><time>2026-04-07T12:41:38.005Z</time></trkpt><trkpt lat="45.03537951539436" lon="9.576242119303714"><ele>71.2</ele><time>2026-04-07T12:41:40.005Z</time></trkpt><trkpt lat="45.03545811572987" lon="9.576198269277246"><ele>70.8</ele><time>2026-04-07T12:41:42.005Z</time></trkpt><trkpt lat="45.03554965108919" lon="9.576152569461234"><ele>70.4</ele><time>2026-04-07T12:41:44.005Z</time></trkpt><trkpt lat="45.0356321432657" lon="9.57611349008669"><ele>70.0</ele><time>2026-04-07T12:41:46.005Z</time></trkpt><trkpt lat="45.035719268601405" lon="9.576059812250534"><ele>69.83333333333333</ele><time>2026-04-07T12:41:48.005Z</time></trkpt><trkpt lat="45.035792721878266" lon="9.576003613566886"><ele>69.66666666666666</ele><time>2026-04-07T12:41:50.005Z</time></trkpt><trkpt lat="45.03587009669201" lon="9.575951757705852"><ele>69.5</ele><time>2026-04-07T12:41:52.005Z</time></trkpt><trkpt lat="45.03594346142855" lon="9.575893861249689"><ele>69.33333333333333</ele><time>2026-04-07T12:41:54.005Z</time></trkpt><trkpt lat="45.03600727891874" lon="9.575832197315545"><ele>69.16666666666667</ele><time>2026-04-07T12:41:56.005Z</time></trkpt><trkpt lat="45.03608627918718" lon="9.575755751357267"><ele>69.0</ele><time>2026-04-07T12:41:59.005Z</time></trkpt><trkpt lat="45.036156850524634" lon="9.575690563019513"><ele>69.66666666666667</ele><time>2026-04-07T12:42:01.005Z</time></trkpt><trkpt lat="45.03624521418952" lon="9.575632440507468"><ele>70.33333333333333</ele><time>2026-04-07T12:42:03.005Z</time></trkpt><trkpt lat="45.036301625915165" lon="9.575577991720458"><ele>71.0</ele><time>2026-04-07T12:42:05.005Z</time></trkpt><trkpt lat="45.03639653642836" lon="9.57557950879019"><ele>71.66666666666666</ele><time>2026-04-07T12:42:07.006Z</time></trkpt><trkpt lat="45.03645416465768" lon="9.575517580918893"><ele>72.33333333333333</ele><time>2026-04-07T12:42:09.006Z</time></trkpt><trkpt lat="45.03653344633538" lon="9.575430589228358"><ele>73.0</ele><time>2026-04-07T12:42:12.006Z</time></trkpt><trkpt lat="45.036602909360994" lon="9.57535437103528"><ele>72.2</ele><time>2026-04-07T12:42:14.006Z</time></trkpt><trkpt lat="45.03667286513802" lon="9.575277612165484"><ele>71.4</ele><time>2026-04-07T12:42:16.006Z</time></trkpt><trkpt lat="45.03674667157268" lon="9.575195510018046"><ele>70.60000000000001</ele><time>2026-04-07T12:42:18.006Z</time></trkpt><trkpt lat="45.03681643367149" lon="9.575117787133617"><ele>69.8</ele><time>2026-04-07T12:42:20.006Z</time></trkpt><trkpt lat="45.03689097771245" lon="9.575034736631524"><ele>69.0</ele><time>2026-04-07T12:42:22.006Z</time></trkpt><trkpt lat="45.03695738695362" lon="9.574940621792548"><ele>69.0</ele><time>2026-04-07T12:42:23.006Z</time></trkpt><trkpt lat="45.03703294827337" lon="9.574851869609661"><ele>69.0</ele><time>2026-04-07T12:42:25.006Z</time></trkpt><trkpt lat="45.037104505728095" lon="9.57477595688534"><ele>69.0</ele><time>2026-04-07T12:42:27.006Z</time></trkpt><trkpt lat="45.03717884853321" lon="9.57469283026951"><ele>69.0</ele><time>2026-04-07T12:42:29.006Z</time></trkpt><trkpt lat="45.037256690691635" lon="9.574613213720776"><ele>69.0</ele><time>2026-04-07T12:42:31.006Z</time></trkpt><trkpt lat="45.037329431336225" lon="9.574527559913587"><ele>68.8</ele><time>2026-04-07T12:42:33.006Z</time></trkpt><trkpt lat="45.037401358547626" lon="9.574443675365952"><ele>68.60000000000001</ele><time>2026-04-07T12:42:35.006Z</time></trkpt><trkpt lat="45.03747232228696" lon="9.57435529381329"><ele>68.4</ele><time>2026-04-07T12:42:37.006Z</time></trkpt><trkpt lat="45.03754822762031" lon="9.574270052036121"><ele>68.2</ele><time>2026-04-07T12:42:39.006Z</time></trkpt><trkpt lat="45.03762637407011" lon="9.57417777904584"><ele>68.0</ele><time>2026-04-07T12:42:41.006Z</time></trkpt><trkpt lat="45.03771357151859" lon="9.574112488916077"><ele>68.0</ele><time>2026-04-07T12:42:43.006Z</time></trkpt><trkpt lat="45.037784961140986" lon="9.574021493796218"><ele>68.0</ele><time>2026-04-07T12:42:45.006Z</time></trkpt><trkpt lat="45.03785682206369" lon="9.573930728407555"><ele>68.0</ele><time>2026-04-07T12:42:47.006Z</time></trkpt><trkpt lat="45.037933731345326" lon="9.573844970795783"><ele>68.0</ele><time>2026-04-07T12:42:49.006Z</time></trkpt><trkpt lat="45.03801581403691" lon="9.573756960454727"><ele>68.0</ele><time>2026-04-07T12:42:51.006Z</time></trkpt><trkpt lat="45.03809328884348" lon="9.57366612185978"><ele>67.8</ele><time>2026-04-07T12:42:53.006Z</time></trkpt><trkpt lat="45.03816889843444" lon="9.573578690445261"><ele>67.6</ele><time>2026-04-07T12:42:55.006Z</time></trkpt><trkpt lat="45.03824568598014" lon="9.573493184419371"><ele>67.4</ele><time>2026-04-07T12:42:57.006Z</time></trkpt><trkpt lat="45.038329668379234" lon="9.573400886410965"><ele>67.2</ele><time>2026-04-07T12:42:59.006Z</time></trkpt><trkpt lat="45.03841404017006" lon="9.573306156781289"><ele>67.0</ele><time>2026-04-07T12:43:01.006Z</time></trkpt><trkpt lat="45.038498146192076" lon="9.573213949843524"><ele>66.6</ele><time>2026-04-07T12:43:03.006Z</time></trkpt><trkpt lat="45.03857856301531" lon="9.573121045446484"><ele>66.2</ele><time>2026-04-07T12:43:05.004Z</time></trkpt><trkpt lat="45.0386633357264" lon="9.57302639231845"><ele>65.8</ele><time>2026-04-07T12:43:07.005Z</time></trkpt><trkpt lat="45.038748180269785" lon="9.572928175708496"><ele>65.4</ele><time>2026-04-07T12:43:09.005Z</time></trkpt><trkpt lat="45.03883485794248" lon="9.572842296758605"><ele>65.0</ele><time>2026-04-07T12:43:11.005Z</time></trkpt><trkpt lat="45.038913425613465" lon="9.57275222864308"><ele>65.0</ele><time>2026-04-07T12:43:13.004Z</time></trkpt><trkpt lat="45.03899461475612" lon="9.572652285339286"><ele>65.0</ele><time>2026-04-07T12:43:15.005Z</time></trkpt><trkpt lat="45.03907485866241" lon="9.572564556601867"><ele>65.0</ele><time>2026-04-07T12:43:17.005Z</time></trkpt><trkpt lat="45.039155521306974" lon="9.572478438275782"><ele>65.0</ele><time>2026-04-07T12:43:19.005Z</time></trkpt><trkpt lat="45.03922662654435" lon="9.572388647197885"><ele>65.0</ele><time>2026-04-07T12:43:21.005Z</time></trkpt><trkpt lat="45.03931067178873" lon="9.572307769971657"><ele>64.8</ele><time>2026-04-07T12:43:23.005Z</time></trkpt><trkpt lat="45.03939022522874" lon="9.572214135110645"><ele>64.6</ele><time>2026-04-07T12:43:25.005Z</time></trkpt><trkpt lat="45.039475675601324" lon="9.572113873688435"><ele>64.4</ele><time>2026-04-07T12:43:27.004Z</time></trkpt><trkpt lat="45.03955591357219" lon="9.5720317803015"><ele>64.2</ele><time>2026-04-07T12:43:29.004Z</time></trkpt><trkpt lat="45.03963152774374" lon="9.571940430892589"><ele>64.0</ele><time>2026-04-07T12:43:31.003Z</time></trkpt><trkpt lat="45.03971774516442" lon="9.57184600659984"><ele>63.800000000000004</ele><time>2026-04-07T12:43:33.003Z</time></trkpt><trkpt lat="45.039790284911966" lon="9.571757797466029"><ele>63.60000000000001</ele><time>2026-04-07T12:43:35.002Z</time></trkpt><trkpt lat="45.03987169802217" lon="9.571676288867348"><ele>63.4</ele><time>2026-04-07T12:43:37.002Z</time></trkpt><trkpt lat="45.03994879219061" lon="9.571591141480694"><ele>63.2</ele><time>2026-04-07T12:43:39.002Z</time></trkpt><trkpt lat="45.04003078993145" lon="9.571502267677978"><ele>63.0</ele><time>2026-04-07T12:43:41.001Z</time></trkpt><trkpt lat="45.040110813984214" lon="9.571412024536613"><ele>63.0</ele><time>2026-04-07T12:43:43.001Z</time></trkpt><trkpt lat="45.04019127543133" lon="9.571320878709226"><ele>63.0</ele><time>2026-04-07T12:43:45.001Z</time></trkpt><trkpt lat="45.040272790319484" lon="9.571223543852433"><ele>63.0</ele><time>2026-04-07T12:43:47.001Z</time></trkpt><trkpt lat="45.04035358819677" lon="9.571132902836744"><ele>63.0</ele><time>2026-04-07T12:43:49.001Z</time></trkpt><trkpt lat="45.04043501539749" lon="9.571039956850589"><ele>63.0</ele><time>2026-04-07T12:43:51.001Z</time></trkpt><trkpt lat="45.04052007914534" lon="9.570955188285376"><ele>63.2</ele><time>2026-04-07T12:43:53Z</time></trkpt><trkpt lat="45.04059496926253" lon="9.570860976917782"><ele>63.4</ele><time>2026-04-07T12:43:55Z</time></trkpt><trkpt lat="45.040675083572275" lon="9.570768563970102"><ele>63.60000000000001</ele><time>2026-04-07T12:43:57Z</time></trkpt><trkpt lat="45.04077108918803" lon="9.570685821327979"><ele>63.800000000000004</ele><time>2026-04-07T12:43:59Z</time></trkpt><trkpt lat="45.040852646076495" lon="9.570594493048423"><ele>64.0</ele><time>2026-04-07T12:44:01Z</time></trkpt><trkpt lat="45.040934652601656" lon="9.570502661275409"><ele>64.0</ele><time>2026-04-07T12:44:03Z</time></trkpt><trkpt lat="45.04100600957941" lon="9.570393497519872"><ele>64.0</ele><time>2026-04-07T12:44:05Z</time></trkpt><trkpt lat="45.04109498115011" lon="9.570308285549805"><ele>64.0</ele><time>2026-04-07T12:44:07Z</time></trkpt><trkpt lat="45.04117676746382" lon="9.570225201694766"><ele>64.0</ele><time>2026-04-07T12:44:09Z</time></trkpt><trkpt lat="45.0412573671055" lon="9.570132152111006"><ele>64.0</ele><time>2026-04-07T12:44:11Z</time></trkpt><trkpt lat="45.04133251523774" lon="9.570035735902374"><ele>63.800000000000004</ele><time>2026-04-07T12:44:13Z</time></trkpt><trkpt lat="45.04141468528109" lon="9.569947854580489"><ele>63.60000000000001</ele><time>2026-04-07T12:44:15Z</time></trkpt><trkpt lat="45.041499726328816" lon="9.569861120613599"><ele>63.4</ele><time>2026-04-07T12:44:17Z</time></trkpt><trkpt lat="45.041582820936014" lon="9.569785678623715"><ele>63.2</ele><time>2026-04-07T12:44:19Z</time></trkpt><trkpt lat="45.04166030327188" lon="9.56970347512488"><ele>63.0</ele><time>2026-04-07T12:44:21Z</time></trkpt><trkpt lat="45.04173796099803" lon="9.569611176951474"><ele>63.0</ele><time>2026-04-07T12:44:23Z</time></trkpt><trkpt lat="45.04181489417903" lon="9.569527742895225"><ele>63.0</ele><time>2026-04-07T12:44:25Z</time></trkpt><trkpt lat="45.0418898892079" lon="9.569454257759231"><ele>63.0</ele><time>2026-04-07T12:44:27Z</time></trkpt><trkpt lat="45.041961477914676" lon="9.569367517588793"><ele>63.0</ele><time>2026-04-07T12:44:29Z</time></trkpt><trkpt lat="45.04203557993312" lon="9.569285209999371"><ele>63.0</ele><time>2026-04-07T12:44:31Z</time></trkpt><trkpt lat="45.042103740207665" lon="9.569211254819399"><ele>63.0</ele><time>2026-04-07T12:44:33Z</time></trkpt><trkpt lat="45.04217085192744" lon="9.569138733609957"><ele>63.0</ele><time>2026-04-07T12:44:35Z</time></trkpt><trkpt lat="45.04223158751059" lon="9.56907321153324"><ele>63.0</ele><time>2026-04-07T12:44:37Z</time></trkpt><trkpt lat="45.042297926666485" lon="9.56901101618745"><ele>63.0</ele><time>2026-04-07T12:44:39Z</time></trkpt><trkpt lat="45.04236237357658" lon="9.568938075707898"><ele>63.0</ele><time>2026-04-07T12:44:41Z</time></trkpt><trkpt lat="45.04243195224545" lon="9.568866512283128"><ele>63.0</ele><time>2026-04-07T12:44:43Z</time></trkpt><trkpt lat="45.042497913061766" lon="9.56879097937628"><ele>63.0</ele><time>2026-04-07T12:44:45Z</time></trkpt><trkpt lat="45.04256732318015" lon="9.568709701441621"><ele>63.0</ele><time>2026-04-07T12:44:47Z</time></trkpt><trkpt lat="45.04263895810074" lon="9.568629953464352"><ele>63.0</ele><time>2026-04-07T12:44:49Z</time></trkpt><trkpt lat="45.042712626679226" lon="9.56856295532861"><ele>63.0</ele><time>2026-04-07T12:44:51Z</time></trkpt><trkpt lat="45.0427810615638" lon="9.568496390249795"><ele>63.0</ele><time>2026-04-07T12:44:53Z</time></trkpt><trkpt lat="45.04285008777661" lon="9.568432424610766"><ele>63.0</ele><time>2026-04-07T12:44:55Z</time></trkpt><trkpt lat="45.04292095634968" lon="9.568368227789682"><ele>63.166666666666664</ele><time>2026-04-07T12:44:57Z</time></trkpt><trkpt lat="45.04298607723519" lon="9.568292435998718"><ele>63.33333333333333</ele><time>2026-04-07T12:44:59Z</time></trkpt><trkpt lat="45.043052795549364" lon="9.568229884661326"><ele>63.5</ele><time>2026-04-07T12:45:01Z</time></trkpt><trkpt lat="45.043111242571314" lon="9.568166330191866"><ele>63.666666666666664</ele><time>2026-04-07T12:45:03Z</time></trkpt><trkpt lat="45.043161806632575" lon="9.568092030704356"><ele>63.83333333333333</ele><time>2026-04-07T12:45:05Z</time></trkpt><trkpt lat="45.0431773390085" lon="9.56798834796319"><ele>64.0</ele><time>2026-04-07T12:45:07Z</time></trkpt><trkpt lat="45.04315141994781" lon="9.567883776401585"><ele>63.99999999999999</ele><time>2026-04-07T12:45:09Z</time></trkpt><trkpt lat="45.043091314071916" lon="9.567800439196855"><ele>64.0</ele><time>2026-04-07T12:45:10.999Z</time></trkpt><trkpt lat="45.04304140086812" lon="9.567715786840873"><ele>64.0</ele><time>2026-04-07T12:45:12.999Z</time></trkpt><trkpt lat="45.04299447124324" lon="9.56762631825375"><ele>64.0</ele><time>2026-04-07T12:45:14.999Z</time></trkpt><trkpt lat="45.042940808331615" lon="9.567533194344344"><ele>63.99999999999999</ele><time>2026-04-07T12:45:16.999Z</time></trkpt><trkpt lat="45.04289466000305" lon="9.567432887059843"><ele>64.0</ele><time>2026-04-07T12:45:18.999Z</time></trkpt><trkpt lat="45.04284223872392" lon="9.567332209896184"><ele>63.99999999999999</ele><time>2026-04-07T12:45:21Z</time></trkpt><trkpt lat="45.04279321613253" lon="9.567228806599287"><ele>64.0</ele><time>2026-04-07T12:45:23Z</time></trkpt><trkpt lat="45.042742283863845" lon="9.567128065460027"><ele>64.0</ele><time>2026-04-07T12:45:25Z</time></trkpt><trkpt lat="45.042698183897755" lon="9.56702669066831"><ele>64.0</ele><time>2026-04-07T12:45:27Z</time></trkpt><trkpt lat="45.042650211682805" lon="9.566928117822878"><ele>63.99999999999999</ele><time>2026-04-07T12:45:29Z</time></trkpt><trkpt lat="45.04261085917298" lon="9.566826866386561"><ele>64.0</ele><time>2026-04-07T12:45:31Z</time></trkpt><trkpt lat="45.04257439731931" lon="9.566715534754438"><ele>64.0</ele><time>2026-04-07T12:45:33Z</time></trkpt><trkpt lat="45.042530180383515" lon="9.566613042087281"><ele>64.0</ele><time>2026-04-07T12:45:35Z</time></trkpt><trkpt lat="45.042488579085294" lon="9.566501917784652"><ele>64.0</ele><time>2026-04-07T12:45:37Z</time></trkpt><trkpt lat="45.0424393179166" lon="9.566385221371132"><ele>64.0</ele><time>2026-04-07T12:45:39Z</time></trkpt><trkpt lat="45.042396227771825" lon="9.56626509567421"><ele>64.0</ele><time>2026-04-07T12:45:41Z</time></trkpt><trkpt lat="45.042349192651855" lon="9.566144117259507"><ele>64.4</ele><time>2026-04-07T12:45:43Z</time></trkpt><trkpt lat="45.04229900300217" lon="9.566025133548214"><ele>64.80000000000001</ele><time>2026-04-07T12:45:45Z</time></trkpt><trkpt lat="45.04225048031696" lon="9.565903833490712"><ele>65.19999999999999</ele><time>2026-04-07T12:45:47Z</time></trkpt><trkpt lat="45.042196550176754" lon="9.565775673307707"><ele>65.6</ele><time>2026-04-07T12:45:49Z</time></trkpt><trkpt lat="45.04214499707909" lon="9.565644769832454"><ele>66.0</ele><time>2026-04-07T12:45:51Z</time></trkpt><trkpt lat="45.0420928354812" lon="9.56550944804562"><ele>66.0</ele><time>2026-04-07T12:45:53Z</time></trkpt><trkpt lat="45.04203874074137" lon="9.565377580616056"><ele>66.0</ele><time>2026-04-07T12:45:55Z</time></trkpt><trkpt lat="45.04199656322037" lon="9.565243829815705"><ele>66.0</ele><time>2026-04-07T12:45:57Z</time></trkpt><trkpt lat="45.041951383976134" lon="9.565128743932767"><ele>66.0</ele><time>2026-04-07T12:45:59Z</time></trkpt><trkpt lat="45.04190893234649" lon="9.565018969963699"><ele>66.0</ele><time>2026-04-07T12:46:01Z</time></trkpt><trkpt lat="45.041866916838735" lon="9.564897954592146"><ele>66.2</ele><time>2026-04-07T12:46:03Z</time></trkpt><trkpt lat="45.0418313139713" lon="9.564767401247153"><ele>66.39999999999999</ele><time>2026-04-07T12:46:05Z</time></trkpt><trkpt lat="45.04179185402687" lon="9.564641010452384"><ele>66.6</ele><time>2026-04-07T12:46:07Z</time></trkpt><trkpt lat="45.04176172170147" lon="9.564510581321437"><ele>66.8</ele><time>2026-04-07T12:46:09Z</time></trkpt><trkpt lat="45.041732397691575" lon="9.564377058538346"><ele>67.0</ele><time>2026-04-07T12:46:11Z</time></trkpt><trkpt lat="45.041709000446026" lon="9.564240507290087"><ele>66.6</ele><time>2026-04-07T12:46:13Z</time></trkpt><trkpt lat="45.041677538362826" lon="9.564111706063482"><ele>66.2</ele><time>2026-04-07T12:46:15Z</time></trkpt><trkpt lat="45.04164798028414" lon="9.563991791076262"><ele>65.8</ele><time>2026-04-07T12:46:17Z</time></trkpt><trkpt lat="45.04162334986153" lon="9.563861596939933"><ele>65.4</ele><time>2026-04-07T12:46:19Z</time></trkpt><trkpt lat="45.04159318662286" lon="9.563741741175704"><ele>65.0</ele><time>2026-04-07T12:46:21Z</time></trkpt><trkpt lat="45.04155988779584" lon="9.563612373418447"><ele>64.8</ele><time>2026-04-07T12:46:23Z</time></trkpt><trkpt lat="45.04152604191796" lon="9.56348764175901"><ele>64.6</ele><time>2026-04-07T12:46:25Z</time></trkpt><trkpt lat="45.04149682407859" lon="9.563368094831656"><ele>64.4</ele><time>2026-04-07T12:46:27Z</time></trkpt><trkpt lat="45.041475407422666" lon="9.563244378107772"><ele>64.2</ele><time>2026-04-07T12:46:29Z</time></trkpt><trkpt lat="45.04145007111141" lon="9.563120050784793"><ele>64.0</ele><time>2026-04-07T12:46:31Z</time></trkpt><trkpt lat="45.041422528286716" lon="9.56299784714159"><ele>64.0</ele><time>2026-04-07T12:46:33Z</time></trkpt><trkpt lat="45.04139563601541" lon="9.562876778801089"><ele>64.0</ele><time>2026-04-07T12:46:35Z</time></trkpt><trkpt lat="45.041368884194945" lon="9.562752380578768"><ele>64.0</ele><time>2026-04-07T12:46:37Z</time></trkpt><trkpt lat="45.04134194141691" lon="9.562621473466335"><ele>64.0</ele><time>2026-04-07T12:46:39Z</time></trkpt><trkpt lat="45.04130972394122" lon="9.562493026634419"><ele>64.0</ele><time>2026-04-07T12:46:41Z</time></trkpt><trkpt lat="45.04127874476042" lon="9.562363768744996"><ele>64.0</ele><time>2026-04-07T12:46:43Z</time></trkpt><trkpt lat="45.04125338304076" lon="9.56223086643355"><ele>64.0</ele><time>2026-04-07T12:46:45Z</time></trkpt><trkpt lat="45.041224713524464" lon="9.562099305092831"><ele>64.0</ele><time>2026-04-07T12:46:47Z</time></trkpt><trkpt lat="45.04120062970974" lon="9.561971765524458"><ele>64.0</ele><time>2026-04-07T12:46:49Z</time></trkpt><trkpt lat="45.041177495834354" lon="9.561844905460346"><ele>64.0</ele><time>2026-04-07T12:46:51Z</time></trkpt><trkpt lat="45.04114937240191" lon="9.561722468216347"><ele>64.16666666666666</ele><time>2026-04-07T12:46:53Z</time></trkpt><trkpt lat="45.041116162889715" lon="9.561605853121366"><ele>64.33333333333333</ele><time>2026-04-07T12:46:55Z</time></trkpt><trkpt lat="45.041083745819186" lon="9.561487047613833"><ele>64.5</ele><time>2026-04-07T12:46:57Z</time></trkpt><trkpt lat="45.04105220386518" lon="9.561364246560176"><ele>64.66666666666667</ele><time>2026-04-07T12:46:59Z</time></trkpt><trkpt lat="45.04102515513483" lon="9.561242202908657"><ele>64.83333333333334</ele><time>2026-04-07T12:47:01Z</time></trkpt><trkpt lat="45.04099422188057" lon="9.561129301814228"><ele>65.0</ele><time>2026-04-07T12:47:03Z</time></trkpt><trkpt lat="45.04097172909641" lon="9.561007341189184"><ele>65.0</ele><time>2026-04-07T12:47:05Z</time></trkpt><trkpt lat="45.04094826987119" lon="9.56088483068337"><ele>65.0</ele><time>2026-04-07T12:47:07Z</time></trkpt><trkpt lat="45.04091058239181" lon="9.560760601570712"><ele>65.0</ele><time>2026-04-07T12:47:09Z</time></trkpt><trkpt lat="45.04087183317963" lon="9.560632458358466"><ele>65.0</ele><time>2026-04-07T12:47:11Z</time></trkpt><trkpt lat="45.040837093292325" lon="9.56050008090592"><ele>65.0</ele><time>2026-04-07T12:47:13Z</time></trkpt><trkpt lat="45.040798029265126" lon="9.560368778195373"><ele>65.4</ele><time>2026-04-07T12:47:14.999Z</time></trkpt><trkpt lat="45.04077766410052" lon="9.560239133185508"><ele>65.8</ele><time>2026-04-07T12:47:16.999Z</time></trkpt><trkpt lat="45.0407423558355" lon="9.560103123062557"><ele>66.2</ele><time>2026-04-07T12:47:18.999Z</time></trkpt><trkpt lat="45.04070683136645" lon="9.559966766013128"><ele>66.6</ele><time>2026-04-07T12:47:20.999Z</time></trkpt><trkpt lat="45.04067045020321" lon="9.559833278588775"><ele>67.0</ele><time>2026-04-07T12:47:22.999Z</time></trkpt><trkpt lat="45.04062712422422" lon="9.559713112072348"><ele>67.0</ele><time>2026-04-07T12:47:24.999Z</time></trkpt><trkpt lat="45.040590762685575" lon="9.559596137268025"><ele>67.0</ele><time>2026-04-07T12:47:26.999Z</time></trkpt><trkpt lat="45.04056120968077" lon="9.559484072846828"><ele>67.0</ele><time>2026-04-07T12:47:28.999Z</time></trkpt><trkpt lat="45.040543150492745" lon="9.559369043785843"><ele>67.0</ele><time>2026-04-07T12:47:30.999Z</time></trkpt><trkpt lat="45.040546146600086" lon="9.559243426395808"><ele>67.0</ele><time>2026-04-07T12:47:32.999Z</time></trkpt><trkpt lat="45.040552804526264" lon="9.559116038693098"><ele>67.0</ele><time>2026-04-07T12:47:34.999Z</time></trkpt><trkpt lat="45.04056735304178" lon="9.558986611888141"><ele>67.2</ele><time>2026-04-07T12:47:36.999Z</time></trkpt><trkpt lat="45.04058509277002" lon="9.558852920865128"><ele>67.4</ele><time>2026-04-07T12:47:38.999Z</time></trkpt><trkpt lat="45.040604282973845" lon="9.558714841365669"><ele>67.6</ele><time>2026-04-07T12:47:40.999Z</time></trkpt><trkpt lat="45.040622448577224" lon="9.558584134149784"><ele>67.8</ele><time>2026-04-07T12:47:42.999Z</time></trkpt><trkpt lat="45.04062354885859" lon="9.558451772578783"><ele>68.0</ele><time>2026-04-07T12:47:45Z</time></trkpt><trkpt lat="45.040644159469956" lon="9.558319632105762"><ele>67.6</ele><time>2026-04-07T12:47:47Z</time></trkpt><trkpt lat="45.04066588783242" lon="9.558184143574625"><ele>67.19999999999999</ele><time>2026-04-07T12:47:49Z</time></trkpt><trkpt lat="45.040675258550806" lon="9.558052246651481"><ele>66.8</ele><time>2026-04-07T12:47:51Z</time></trkpt><trkpt lat="45.040695345641915" lon="9.557915997653732"><ele>66.39999999999999</ele><time>2026-04-07T12:47:53Z</time></trkpt><trkpt lat="45.04071024863864" lon="9.557783800620573"><ele>66.0</ele><time>2026-04-07T12:47:55Z</time></trkpt><trkpt lat="45.040725347888134" lon="9.55764805986492"><ele>66.0</ele><time>2026-04-07T12:47:57Z</time></trkpt><trkpt lat="45.04074057764947" lon="9.557513175332934"><ele>66.0</ele><time>2026-04-07T12:47:59Z</time></trkpt><trkpt lat="45.04075852231024" lon="9.55738000182142"><ele>66.0</ele><time>2026-04-07T12:48:01Z</time></trkpt><trkpt lat="45.04078116528605" lon="9.557239958607799"><ele>66.0</ele><time>2026-04-07T12:48:03Z</time></trkpt><trkpt lat="45.04080304207764" lon="9.557102394627508"><ele>66.0</ele><time>2026-04-07T12:48:05Z</time></trkpt><trkpt lat="45.04082292146978" lon="9.556973620921061"><ele>65.8</ele><time>2026-04-07T12:48:07Z</time></trkpt><trkpt lat="45.0408401586195" lon="9.5568424154352"><ele>65.6</ele><time>2026-04-07T12:48:09Z</time></trkpt><trkpt lat="45.04085576042078" lon="9.556714840126125"><ele>65.4</ele><time>2026-04-07T12:48:11Z</time></trkpt><trkpt lat="45.04086723377242" lon="9.55658639302608"><ele>65.2</ele><time>2026-04-07T12:48:13Z</time></trkpt><trkpt lat="45.040885117356886" lon="9.556454192915767"><ele>65.0</ele><time>2026-04-07T12:48:15Z</time></trkpt><trkpt lat="45.040896327498764" lon="9.5563213541477"><ele>65.6</ele><time>2026-04-07T12:48:17Z</time></trkpt><trkpt lat="45.04091128557372" lon="9.55618997850732"><ele>66.2</ele><time>2026-04-07T12:48:19Z</time></trkpt><trkpt lat="45.040922765941225" lon="9.556052466434954"><ele>66.8</ele><time>2026-04-07T12:48:21Z</time></trkpt><trkpt lat="45.04093183658007" lon="9.555919061464534"><ele>67.4</ele><time>2026-04-07T12:48:23Z</time></trkpt><trkpt lat="45.04094233655225" lon="9.5557722862294"><ele>68.0</ele><time>2026-04-07T12:48:25Z</time></trkpt><trkpt lat="45.04095182041436" lon="9.555633972235983"><ele>68.0</ele><time>2026-04-07T12:48:27Z</time></trkpt><trkpt lat="45.04096369729121" lon="9.555498228147423"><ele>68.0</ele><time>2026-04-07T12:48:29Z</time></trkpt><trkpt lat="45.04097824880555" lon="9.55536092663864"><ele>68.0</ele><time>2026-04-07T12:48:31Z</time></trkpt><trkpt lat="45.04098309903278" lon="9.555219132838031"><ele>68.0</ele><time>2026-04-07T12:48:33Z</time></trkpt><trkpt lat="45.04099110904914" lon="9.555087921611209"><ele>68.0</ele><time>2026-04-07T12:48:35Z</time></trkpt><trkpt lat="45.04099795997568" lon="9.554958386526943"><ele>68.2</ele><time>2026-04-07T12:48:37Z</time></trkpt><trkpt lat="45.0410062413578" lon="9.554823537533881"><ele>68.4</ele><time>2026-04-07T12:48:39Z</time></trkpt><trkpt lat="45.041000543380335" lon="9.554674434099933"><ele>68.60000000000001</ele><time>2026-04-07T12:48:41Z</time></trkpt><trkpt lat="45.04099506542959" lon="9.554522603036025"><ele>68.8</ele><time>2026-04-07T12:48:43Z</time></trkpt><trkpt lat="45.04098606035574" lon="9.554386029221105"><ele>69.0</ele><time>2026-04-07T12:48:45Z</time></trkpt><trkpt lat="45.040966945777534" lon="9.554258551643665"><ele>69.0</ele><time>2026-04-07T12:48:47Z</time></trkpt><trkpt lat="45.04093393938454" lon="9.554138312537157"><ele>69.0</ele><time>2026-04-07T12:48:49Z</time></trkpt><trkpt lat="45.040918793457095" lon="9.554005305602296"><ele>69.0</ele><time>2026-04-07T12:48:51Z</time></trkpt><trkpt lat="45.04089085945129" lon="9.553860070741319"><ele>69.0</ele><time>2026-04-07T12:48:53Z</time></trkpt><trkpt lat="45.040852956875774" lon="9.553729937020405"><ele>69.0</ele><time>2026-04-07T12:48:55Z</time></trkpt><trkpt lat="45.04082685845117" lon="9.553618393571202"><ele>69.0</ele><time>2026-04-07T12:48:57Z</time></trkpt><trkpt lat="45.040817329854974" lon="9.55350832840832"><ele>69.0</ele><time>2026-04-07T12:48:59Z</time></trkpt><trkpt lat="45.040771235943595" lon="9.553409386982135"><ele>69.0</ele><time>2026-04-07T12:49:01Z</time></trkpt><trkpt lat="45.04074948749892" lon="9.553297470121427"><ele>69.0</ele><time>2026-04-07T12:49:03Z</time></trkpt><trkpt lat="45.04073023621412" lon="9.553185922362868"><ele>69.0</ele><time>2026-04-07T12:49:05Z</time></trkpt><trkpt lat="45.040710400743656" lon="9.553085776302721"><ele>69.0</ele><time>2026-04-07T12:49:07Z</time></trkpt><trkpt lat="45.040685029366465" lon="9.552983533749694"><ele>69.0</ele><time>2026-04-07T12:49:09Z</time></trkpt><trkpt lat="45.04066677308974" lon="9.552877561998455"><ele>69.0</ele><time>2026-04-07T12:49:11Z</time></trkpt><trkpt lat="45.04064446431725" lon="9.552767468313686"><ele>69.0</ele><time>2026-04-07T12:49:13Z</time></trkpt><trkpt lat="45.04062911064866" lon="9.552647173259977"><ele>69.0</ele><time>2026-04-07T12:49:15Z</time></trkpt><trkpt lat="45.04060742437554" lon="9.55253283615369"><ele>69.0</ele><time>2026-04-07T12:49:17Z</time></trkpt><trkpt lat="45.04058581748218" lon="9.552413172619936"><ele>69.0</ele><time>2026-04-07T12:49:19Z</time></trkpt><trkpt lat="45.040562413297046" lon="9.552308985647771"><ele>69.0</ele><time>2026-04-07T12:49:20.999Z</time></trkpt><trkpt lat="45.04054478678617" lon="9.552208716555953"><ele>69.0</ele><time>2026-04-07T12:49:22.999Z</time></trkpt><trkpt lat="45.040532853283935" lon="9.552112435443675"><ele>69.0</ele><time>2026-04-07T12:49:24.999Z</time></trkpt><trkpt lat="45.040529229487916" lon="9.552003335859988"><ele>69.0</ele><time>2026-04-07T12:49:27.999Z</time></trkpt><trkpt lat="45.04051126803135" lon="9.55187068463384"><ele>69.0</ele><time>2026-04-07T12:49:31.999Z</time></trkpt><trkpt lat="45.040488131577824" lon="9.551775871012712"><ele>69.0</ele><time>2026-04-07T12:49:33.999Z</time></trkpt><trkpt lat="45.04047935433162" lon="9.551676029951153"><ele>69.0</ele><time>2026-04-07T12:49:35.999Z</time></trkpt><trkpt lat="45.040469198966115" lon="9.55157307193063"><ele>69.0</ele><time>2026-04-07T12:49:37.999Z</time></trkpt><trkpt lat="45.04045378596751" lon="9.551469049859435"><ele>69.0</ele><time>2026-04-07T12:49:39.999Z</time></trkpt><trkpt lat="45.04042279550699" lon="9.551362188780246"><ele>69.0</ele><time>2026-04-07T12:49:41.999Z</time></trkpt><trkpt lat="45.04040458926299" lon="9.551262652785972"><ele>69.0</ele><time>2026-04-07T12:49:43.999Z</time></trkpt><trkpt lat="45.04039281452925" lon="9.551138701556381"><ele>69.0</ele><time>2026-04-07T12:49:45.999Z</time></trkpt><trkpt lat="45.04037771429067" lon="9.551026458595713"><ele>69.16666666666667</ele><time>2026-04-07T12:49:47.999Z</time></trkpt><trkpt lat="45.040359888737775" lon="9.550907012763325"><ele>69.33333333333333</ele><time>2026-04-07T12:49:49.999Z</time></trkpt><trkpt lat="45.04034568588492" lon="9.550784608915734"><ele>69.5</ele><time>2026-04-07T12:49:51.999Z</time></trkpt><trkpt lat="45.040325985129655" lon="9.550659159217634"><ele>69.66666666666666</ele><time>2026-04-07T12:49:53.999Z</time></trkpt><trkpt lat="45.04030632471277" lon="9.55055801702955"><ele>69.83333333333333</ele><time>2026-04-07T12:49:55.999Z</time></trkpt><trkpt lat="45.04029049597676" lon="9.550446726467005"><ele>70.0</ele><time>2026-04-07T12:49:57.999Z</time></trkpt><trkpt lat="45.04025904329933" lon="9.550329189118006"><ele>70.16666666666666</ele><time>2026-04-07T12:49:59.999Z</time></trkpt><trkpt lat="45.04023231733696" lon="9.550215481654432"><ele>70.33333333333333</ele><time>2026-04-07T12:50:01.999Z</time></trkpt><trkpt lat="45.04021069879155" lon="9.550101750331635"><ele>70.5</ele><time>2026-04-07T12:50:03.999Z</time></trkpt><trkpt lat="45.040190098337014" lon="9.549994382456298"><ele>70.66666666666667</ele><time>2026-04-07T12:50:05.999Z</time></trkpt><trkpt lat="45.040168479382345" lon="9.549869840915806"><ele>70.83333333333334</ele><time>2026-04-07T12:50:07.999Z</time></trkpt><trkpt lat="45.040151501202246" lon="9.549750253093796"><ele>71.0</ele><time>2026-04-07T12:50:09.999Z</time></trkpt><trkpt lat="45.04012792768878" lon="9.549638987688976"><ele>70.83333333333334</ele><time>2026-04-07T12:50:11.999Z</time></trkpt><trkpt lat="45.04010240317267" lon="9.549523050405895"><ele>70.66666666666667</ele><time>2026-04-07T12:50:13.999Z</time></trkpt><trkpt lat="45.04006937438396" lon="9.549417880748045"><ele>70.5</ele><time>2026-04-07T12:50:15.999Z</time></trkpt><trkpt lat="45.040036495795405" lon="9.549316254777974"><ele>70.33333333333333</ele><time>2026-04-07T12:50:17.999Z</time></trkpt><trkpt lat="45.039989911473114" lon="9.549204435367596"><ele>70.16666666666666</ele><time>2026-04-07T12:50:19.999Z</time></trkpt><trkpt lat="45.039943903410354" lon="9.549099944424386"><ele>70.0</ele><time>2026-04-07T12:50:21.999Z</time></trkpt><trkpt lat="45.039894242514784" lon="9.549004071810982"><ele>70.0</ele><time>2026-04-07T12:50:23.999Z</time></trkpt><trkpt lat="45.039837499476256" lon="9.548903199580732"><ele>70.0</ele><time>2026-04-07T12:50:25.999Z</time></trkpt><trkpt lat="45.03978270758795" lon="9.548796039574151"><ele>70.0</ele><time>2026-04-07T12:50:27.999Z</time></trkpt><trkpt lat="45.039730284848254" lon="9.54869511055896"><ele>70.0</ele><time>2026-04-07T12:50:29.999Z</time></trkpt><trkpt lat="45.03967928302447" lon="9.548599289623033"><ele>70.0</ele><time>2026-04-07T12:50:31.999Z</time></trkpt><trkpt lat="45.03962435246476" lon="9.54850479832625"><ele>70.0</ele><time>2026-04-07T12:50:33.999Z</time></trkpt><trkpt lat="45.03956939991712" lon="9.548408274861913"><ele>69.83333333333333</ele><time>2026-04-07T12:50:35.999Z</time></trkpt><trkpt lat="45.0395079276561" lon="9.548330333096219"><ele>69.66666666666666</ele><time>2026-04-07T12:50:37.999Z</time></trkpt><trkpt lat="45.03944809136109" lon="9.548281102406586"><ele>69.5</ele><time>2026-04-07T12:50:39.999Z</time></trkpt><trkpt lat="45.03937205251424" lon="9.548253288157621"><ele>69.33333333333333</ele><time>2026-04-07T12:50:41.999Z</time></trkpt><trkpt lat="45.03928663615716" lon="9.548232229692955"><ele>69.16666666666667</ele><time>2026-04-07T12:50:43.999Z</time></trkpt><trkpt lat="45.03919940413902" lon="9.548223929695125"><ele>69.0</ele><time>2026-04-07T12:50:45.999Z</time></trkpt><trkpt lat="45.039113309061825" lon="9.5482216409185"><ele>69.0</ele><time>2026-04-07T12:50:47.999Z</time></trkpt><trkpt lat="45.03902553831929" lon="9.548219780466185"><ele>69.0</ele><time>2026-04-07T12:50:49.999Z</time></trkpt><trkpt lat="45.038940602027694" lon="9.548221813728874"><ele>69.0</ele><time>2026-04-07T12:50:51.999Z</time></trkpt><trkpt lat="45.038855647143144" lon="9.548222962618828"><ele>69.0</ele><time>2026-04-07T12:50:53.999Z</time></trkpt><trkpt lat="45.038768270525026" lon="9.548228654918665"><ele>69.0</ele><time>2026-04-07T12:50:56Z</time></trkpt><trkpt lat="45.03868746084757" lon="9.548226699144465"><ele>69.0</ele><time>2026-04-07T12:50:58Z</time></trkpt><trkpt lat="45.03860346518967" lon="9.548219880339188"><ele>69.0</ele><time>2026-04-07T12:51:00Z</time></trkpt><trkpt lat="45.03851902917517" lon="9.548208480727787"><ele>69.0</ele><time>2026-04-07T12:51:02Z</time></trkpt><trkpt lat="45.03843177221475" lon="9.548219956066443"><ele>69.0</ele><time>2026-04-07T12:51:04Z</time></trkpt><trkpt lat="45.03834619636301" lon="9.548218220468527"><ele>69.0</ele><time>2026-04-07T12:51:06Z</time></trkpt><trkpt lat="45.03826138772374" lon="9.548217120088928"><ele>69.0</ele><time>2026-04-07T12:51:08Z</time></trkpt><trkpt lat="45.03817203925107" lon="9.54822030795378"><ele>69.0</ele><time>2026-04-07T12:51:10Z</time></trkpt><trkpt lat="45.038081408408566" lon="9.548221915552093"><ele>69.33333333333333</ele><time>2026-04-07T12:51:12Z</time></trkpt><trkpt lat="45.0379937535269" lon="9.54821732341992"><ele>69.66666666666667</ele><time>2026-04-07T12:51:14Z</time></trkpt><trkpt lat="45.037908299181375" lon="9.54822090654186"><ele>70.0</ele><time>2026-04-07T12:51:16Z</time></trkpt><trkpt lat="45.03781840334276" lon="9.54821770244218"><ele>70.33333333333334</ele><time>2026-04-07T12:51:18Z</time></trkpt><trkpt lat="45.037732325180734" lon="9.548218340848805"><ele>70.66666666666667</ele><time>2026-04-07T12:51:20Z</time></trkpt><trkpt lat="45.03764365180834" lon="9.548217858913514"><ele>71.0</ele><time>2026-04-07T12:51:22Z</time></trkpt><trkpt lat="45.03755791728398" lon="9.548217532258347"><ele>71.0</ele><time>2026-04-07T12:51:24Z</time></trkpt><trkpt lat="45.037471793245054" lon="9.548211258983503"><ele>71.0</ele><time>2026-04-07T12:51:26Z</time></trkpt><trkpt lat="45.03737978309435" lon="9.548209605921178"><ele>71.0</ele><time>2026-04-07T12:51:27.998Z</time></trkpt><trkpt lat="45.03728818314907" lon="9.54821472538243"><ele>71.0</ele><time>2026-04-07T12:51:29.999Z</time></trkpt><trkpt lat="45.03720035341596" lon="9.548207570118993"><ele>71.0</ele><time>2026-04-07T12:51:31.999Z</time></trkpt><trkpt lat="45.03710881457633" lon="9.548212417486102"><ele>71.0</ele><time>2026-04-07T12:51:33.999Z</time></trkpt><trkpt lat="45.037013308953334" lon="9.548218956599666"><ele>70.8</ele><time>2026-04-07T12:51:35.999Z</time></trkpt><trkpt lat="45.036915978220094" lon="9.548225203949793"><ele>70.6</ele><time>2026-04-07T12:51:37.999Z</time></trkpt><trkpt lat="45.036826969002945" lon="9.548221168669988"><ele>70.4</ele><time>2026-04-07T12:51:39.999Z</time></trkpt><trkpt lat="45.03673774855712" lon="9.548217365319806"><ele>70.2</ele><time>2026-04-07T12:51:41.999Z</time></trkpt><trkpt lat="45.03664352703209" lon="9.548213695787382"><ele>70.0</ele><time>2026-04-07T12:51:43.999Z</time></trkpt><trkpt lat="45.036554307002895" lon="9.548207856137566"><ele>70.0</ele><time>2026-04-07T12:51:45.999Z</time></trkpt><trkpt lat="45.036461427781155" lon="9.548218720637447"><ele>70.0</ele><time>2026-04-07T12:51:47.999Z</time></trkpt><trkpt lat="45.0363697629128" lon="9.548220685597098"><ele>70.0</ele><time>2026-04-07T12:51:49.999Z</time></trkpt><trkpt lat="45.03627879388222" lon="9.548212891646953"><ele>70.0</ele><time>2026-04-07T12:51:51.999Z</time></trkpt><trkpt lat="45.036188755479294" lon="9.548211038467283"><ele>70.0</ele><time>2026-04-07T12:51:53.999Z</time></trkpt><trkpt lat="45.03610119490202" lon="9.548209747227029"><ele>70.0</ele><time>2026-04-07T12:51:55.999Z</time></trkpt><trkpt lat="45.03601286312483" lon="9.548204962467764"><ele>70.0</ele><time>2026-04-07T12:51:57.999Z</time></trkpt><trkpt lat="45.035924754975035" lon="9.54819830801115"><ele>70.0</ele><time>2026-04-07T12:51:59.999Z</time></trkpt><trkpt lat="45.035832471662175" lon="9.5481970743793"><ele>70.0</ele><time>2026-04-07T12:52:01.999Z</time></trkpt><trkpt lat="45.0357372331388" lon="9.548193948826016"><ele>70.0</ele><time>2026-04-07T12:52:03.999Z</time></trkpt><trkpt lat="45.035641486598855" lon="9.548193930890692"><ele>70.2</ele><time>2026-04-07T12:52:05.999Z</time></trkpt><trkpt lat="45.035541278545885" lon="9.548192630598207"><ele>70.4</ele><time>2026-04-07T12:52:07.999Z</time></trkpt><trkpt lat="45.03543727244748" lon="9.548190598087597"><ele>70.6</ele><time>2026-04-07T12:52:09.999Z</time></trkpt><trkpt lat="45.0353371134234" lon="9.548192839027742"><ele>70.8</ele><time>2026-04-07T12:52:11.999Z</time></trkpt><trkpt lat="45.03523959400581" lon="9.548190846720154"><ele>71.0</ele><time>2026-04-07T12:52:13.999Z</time></trkpt><trkpt lat="45.03514271331345" lon="9.548192677293914"><ele>71.0</ele><time>2026-04-07T12:52:15.999Z</time></trkpt><trkpt lat="45.03505354291788" lon="9.548185830846338"><ele>71.0</ele><time>2026-04-07T12:52:17.999Z</time></trkpt><trkpt lat="45.03496736755605" lon="9.548194495419144"><ele>71.0</ele><time>2026-04-07T12:52:19.999Z</time></trkpt><trkpt lat="45.03488129608714" lon="9.548189896735472"><ele>71.0</ele><time>2026-04-07T12:52:21.999Z</time></trkpt><trkpt lat="45.03479371551257" lon="9.54818728748726"><ele>71.0</ele><time>2026-04-07T12:52:23.999Z</time></trkpt><trkpt lat="45.03470123485468" lon="9.54819081242255"><ele>71.0</ele><time>2026-04-07T12:52:25.999Z</time></trkpt><trkpt lat="45.034609300627494" lon="9.548189601847845"><ele>70.83333333333334</ele><time>2026-04-07T12:52:27.999Z</time></trkpt><trkpt lat="45.034521762018215" lon="9.548180361633928"><ele>70.66666666666667</ele><time>2026-04-07T12:52:29.999Z</time></trkpt><trkpt lat="45.03443279115345" lon="9.54818327887164"><ele>70.5</ele><time>2026-04-07T12:52:31.999Z</time></trkpt><trkpt lat="45.034346411901026" lon="9.54818712750702"><ele>70.33333333333333</ele><time>2026-04-07T12:52:33.999Z</time></trkpt><trkpt lat="45.03426188061534" lon="9.54817856772432"><ele>70.16666666666666</ele><time>2026-04-07T12:52:35.999Z</time></trkpt><trkpt lat="45.03417073901824" lon="9.548183420397013"><ele>70.0</ele><time>2026-04-07T12:52:37.999Z</time></trkpt><trkpt lat="45.034085151006636" lon="9.548188545573064"><ele>70.0</ele><time>2026-04-07T12:52:39.999Z</time></trkpt><trkpt lat="45.03399383847484" lon="9.5481941951921"><ele>70.0</ele><time>2026-04-07T12:52:41.999Z</time></trkpt><trkpt lat="45.03390234356939" lon="9.548210042065568"><ele>70.0</ele><time>2026-04-07T12:52:43.999Z</time></trkpt><trkpt lat="45.033806282279166" lon="9.54821481730214"><ele>70.0</ele><time>2026-04-07T12:52:45.999Z</time></trkpt><trkpt lat="45.03371614485226" lon="9.548228004377531"><ele>70.0</ele><time>2026-04-07T12:52:47.999Z</time></trkpt><trkpt lat="45.03362650861012" lon="9.548256235498052"><ele>70.0</ele><time>2026-04-07T12:52:49.999Z</time></trkpt><trkpt lat="45.033536169749716" lon="9.548277609078664"><ele>70.0</ele><time>2026-04-07T12:52:51.999Z</time></trkpt><trkpt lat="45.033442294607795" lon="9.54830029860467"><ele>70.0</ele><time>2026-04-07T12:52:53.999Z</time></trkpt><trkpt lat="45.033345777781406" lon="9.548319874350538"><ele>70.0</ele><time>2026-04-07T12:52:55.999Z</time></trkpt><trkpt lat="45.03325319123461" lon="9.548346134769297"><ele>70.0</ele><time>2026-04-07T12:52:57.999Z</time></trkpt><trkpt lat="45.033155587011365" lon="9.548364114151964"><ele>70.0</ele><time>2026-04-07T12:52:59.999Z</time></trkpt><trkpt lat="45.03305322831688" lon="9.548388493380513"><ele>70.0</ele><time>2026-04-07T12:53:01.999Z</time></trkpt><trkpt lat="45.03295481313053" lon="9.548409506444008"><ele>70.0</ele><time>2026-04-07T12:53:03.999Z</time></trkpt><trkpt lat="45.03285925735638" lon="9.548436103369841"><ele>70.0</ele><time>2026-04-07T12:53:05.999Z</time></trkpt><trkpt lat="45.03276757256391" lon="9.548458724425718"><ele>70.0</ele><time>2026-04-07T12:53:07.999Z</time></trkpt><trkpt lat="45.03268340015778" lon="9.548472556353904"><ele>70.0</ele><time>2026-04-07T12:53:09.999Z</time></trkpt><trkpt lat="45.032594366248496" lon="9.54849485608988"><ele>70.0</ele><time>2026-04-07T12:53:12Z</time></trkpt><trkpt lat="45.03250574032102" lon="9.548520085815797"><ele>70.0</ele><time>2026-04-07T12:53:14Z</time></trkpt><trkpt lat="45.03241574444595" lon="9.54854486429458"><ele>70.0</ele><time>2026-04-07T12:53:16Z</time></trkpt><trkpt lat="45.03233054300204" lon="9.548560217312946"><ele>70.0</ele><time>2026-04-07T12:53:18Z</time></trkpt><trkpt lat="45.032247232610366" lon="9.548584002002043"><ele>70.0</ele><time>2026-04-07T12:53:20Z</time></trkpt><trkpt lat="45.032164903452944" lon="9.548598064177162"><ele>70.16666666666666</ele><time>2026-04-07T12:53:22Z</time></trkpt><trkpt lat="45.0320754137084" lon="9.548620782580919"><ele>70.33333333333333</ele><time>2026-04-07T12:53:24Z</time></trkpt><trkpt lat="45.03199234557921" lon="9.548637841871127"><ele>70.5</ele><time>2026-04-07T12:53:26Z</time></trkpt><trkpt lat="45.031907831824135" lon="9.548662655811064"><ele>70.66666666666667</ele><time>2026-04-07T12:53:28Z</time></trkpt><trkpt lat="45.03182171491447" lon="9.548686178791845"><ele>70.83333333333334</ele><time>2026-04-07T12:53:30Z</time></trkpt><trkpt lat="45.03173495910399" lon="9.548706642227714"><ele>71.0</ele><time>2026-04-07T12:53:32Z</time></trkpt><trkpt lat="45.031653119799955" lon="9.548728463295127"><ele>71.0</ele><time>2026-04-07T12:53:33.999Z</time></trkpt><trkpt lat="45.03157009337283" lon="9.548750352514976"><ele>71.0</ele><time>2026-04-07T12:53:35.999Z</time></trkpt><trkpt lat="45.031485746528574" lon="9.548771298734607"><ele>71.0</ele><time>2026-04-07T12:53:37.998Z</time></trkpt><trkpt lat="45.031397785743515" lon="9.548791020848215"><ele>71.0</ele><time>2026-04-07T12:53:39.998Z</time></trkpt><trkpt lat="45.03131094624103" lon="9.548813024635098"><ele>71.0</ele><time>2026-04-07T12:53:41.999Z</time></trkpt><trkpt lat="45.03122136940365" lon="9.54883368283899"><ele>71.0</ele><time>2026-04-07T12:53:43.999Z</time></trkpt><trkpt lat="45.031140247059845" lon="9.54885482109901"><ele>71.0</ele><time>2026-04-07T12:53:45.999Z</time></trkpt><trkpt lat="45.03105752879536" lon="9.548869438602981"><ele>71.0</ele><time>2026-04-07T12:53:47.999Z</time></trkpt><trkpt lat="45.03097216840635" lon="9.548892969320413"><ele>71.0</ele><time>2026-04-07T12:53:49.999Z</time></trkpt><trkpt lat="45.03088817018364" lon="9.548910628045178"><ele>71.0</ele><time>2026-04-07T12:53:51.999Z</time></trkpt><trkpt lat="45.030804704801064" lon="9.548931119338713"><ele>71.0</ele><time>2026-04-07T12:53:53.999Z</time></trkpt><trkpt lat="45.03072271914403" lon="9.548955793698322"><ele>71.0</ele><time>2026-04-07T12:53:55.999Z</time></trkpt><trkpt lat="45.03064133412589" lon="9.548976529579278"><ele>71.0</ele><time>2026-04-07T12:53:57.999Z</time></trkpt><trkpt lat="45.03055788274294" lon="9.548999035514221"><ele>71.0</ele><time>2026-04-07T12:53:59.999Z</time></trkpt><trkpt lat="45.030472302108045" lon="9.549011539281977"><ele>71.0</ele><time>2026-04-07T12:54:01.999Z</time></trkpt><trkpt lat="45.030384286999514" lon="9.54903377072651"><ele>71.0</ele><time>2026-04-07T12:54:03.999Z</time></trkpt><trkpt lat="45.03030055460489" lon="9.549051240873698"><ele>71.0</ele><time>2026-04-07T12:54:05.999Z</time></trkpt><trkpt lat="45.03021594438054" lon="9.549072857730307"><ele>71.0</ele><time>2026-04-07T12:54:07.999Z</time></trkpt><trkpt lat="45.03013204055307" lon="9.549105405795322"><ele>71.0</ele><time>2026-04-07T12:54:09.999Z</time></trkpt><trkpt lat="45.030049380664316" lon="9.549124286947764"><ele>71.0</ele><time>2026-04-07T12:54:11.999Z</time></trkpt><trkpt lat="45.029967905915015" lon="9.549141200918855"><ele>71.0</ele><time>2026-04-07T12:54:13.999Z</time></trkpt><trkpt lat="45.02988006547179" lon="9.549165623607047"><ele>71.0</ele><time>2026-04-07T12:54:15.999Z</time></trkpt><trkpt lat="45.02979079071976" lon="9.549182032626765"><ele>71.0</ele><time>2026-04-07T12:54:17.999Z</time></trkpt><trkpt lat="45.02970177440909" lon="9.54920381911943"><ele>71.0</ele><time>2026-04-07T12:54:19.999Z</time></trkpt><trkpt lat="45.029613191868805" lon="9.54922968694948"><ele>71.2</ele><time>2026-04-07T12:54:21.999Z</time></trkpt><trkpt lat="45.02952178383521" lon="9.549250838868831"><ele>71.39999999999999</ele><time>2026-04-07T12:54:23.999Z</time></trkpt><trkpt lat="45.02943077353237" lon="9.549277909925397"><ele>71.6</ele><time>2026-04-07T12:54:25.999Z</time></trkpt><trkpt lat="45.029340818005856" lon="9.549295253168014"><ele>71.8</ele><time>2026-04-07T12:54:27.999Z</time></trkpt><trkpt lat="45.029248420353646" lon="9.549319853630738"><ele>72.0</ele><time>2026-04-07T12:54:29.999Z</time></trkpt><trkpt lat="45.029156468031324" lon="9.549339146924783"><ele>71.8</ele><time>2026-04-07T12:54:31.999Z</time></trkpt><trkpt lat="45.02906617492765" lon="9.549362140537264"><ele>71.6</ele><time>2026-04-07T12:54:33.999Z</time></trkpt><trkpt lat="45.028975736004874" lon="9.549385580933773"><ele>71.39999999999999</ele><time>2026-04-07T12:54:35.999Z</time></trkpt><trkpt lat="45.028883923627916" lon="9.549404896493844"><ele>71.2</ele><time>2026-04-07T12:54:37.999Z</time></trkpt><trkpt lat="45.02879508269446" lon="9.549426081251374"><ele>71.0</ele><time>2026-04-07T12:54:39.999Z</time></trkpt><trkpt lat="45.02870607715185" lon="9.549449118468393"><ele>71.0</ele><time>2026-04-07T12:54:41.999Z</time></trkpt><trkpt lat="45.02861609428222" lon="9.549468434657955"><ele>71.0</ele><time>2026-04-07T12:54:44Z</time></trkpt><trkpt lat="45.0285191937743" lon="9.549495274618861"><ele>71.0</ele><time>2026-04-07T12:54:46Z</time></trkpt><trkpt lat="45.02843018618707" lon="9.549518523209821"><ele>71.0</ele><time>2026-04-07T12:54:48Z</time></trkpt><trkpt lat="45.02834380476132" lon="9.549546355218048"><ele>71.0</ele><time>2026-04-07T12:54:50Z</time></trkpt><trkpt lat="45.028257124157975" lon="9.549555342754987"><ele>71.2</ele><time>2026-04-07T12:54:52Z</time></trkpt><trkpt lat="45.02816705103934" lon="9.549580309264206"><ele>71.39999999999999</ele><time>2026-04-07T12:54:54Z</time></trkpt><trkpt lat="45.028075134537566" lon="9.549604135066561"><ele>71.6</ele><time>2026-04-07T12:54:56Z</time></trkpt><trkpt lat="45.02798556982261" lon="9.549624140914174"><ele>71.8</ele><time>2026-04-07T12:54:58Z</time></trkpt><trkpt lat="45.027900399700464" lon="9.549640963700298"><ele>72.0</ele><time>2026-04-07T12:55:00Z</time></trkpt><trkpt lat="45.0278124901497" lon="9.549665286827278"><ele>72.0</ele><time>2026-04-07T12:55:02Z</time></trkpt><trkpt lat="45.02772299321133" lon="9.549688790722021"><ele>72.0</ele><time>2026-04-07T12:55:04Z</time></trkpt><trkpt lat="45.027631677448056" lon="9.54971274581192"><ele>72.0</ele><time>2026-04-07T12:55:06Z</time></trkpt><trkpt lat="45.027540818311884" lon="9.549729692366654"><ele>72.0</ele><time>2026-04-07T12:55:08Z</time></trkpt><trkpt lat="45.02745762724328" lon="9.549751377574271"><ele>72.0</ele><time>2026-04-07T12:55:10Z</time></trkpt><trkpt lat="45.02737337589596" lon="9.549772506707697"><ele>72.0</ele><time>2026-04-07T12:55:12Z</time></trkpt><trkpt lat="45.027287798074646" lon="9.549789323946463"><ele>72.66666666666667</ele><time>2026-04-07T12:55:14Z</time></trkpt><trkpt lat="45.027202475973624" lon="9.549813085943434"><ele>73.33333333333333</ele><time>2026-04-07T12:55:16Z</time></trkpt><trkpt lat="45.02711473571372" lon="9.54982986705643"><ele>74.0</ele><time>2026-04-07T12:55:18Z</time></trkpt><trkpt lat="45.02703076025847" lon="9.549854791607002"><ele>74.66666666666666</ele><time>2026-04-07T12:55:20Z</time></trkpt><trkpt lat="45.02694976505433" lon="9.549878193640199"><ele>75.33333333333333</ele><time>2026-04-07T12:55:22Z</time></trkpt><trkpt lat="45.026872297148735" lon="9.549898240726657"><ele>76.0</ele><time>2026-04-07T12:55:24Z</time></trkpt><trkpt lat="45.02680100046381" lon="9.549909222444038"><ele>76.0</ele><time>2026-04-07T12:55:26Z</time></trkpt><trkpt lat="45.02672516051527" lon="9.549923988072967"><ele>76.0</ele><time>2026-04-07T12:55:28Z</time></trkpt><trkpt lat="45.02664846738762" lon="9.549942157142302"><ele>76.0</ele><time>2026-04-07T12:55:30Z</time></trkpt><trkpt lat="45.02657791809451" lon="9.549971748151153"><ele>76.0</ele><time>2026-04-07T12:55:32Z</time></trkpt><trkpt lat="45.02651366145214" lon="9.5499923229627"><ele>76.0</ele><time>2026-04-07T12:55:34Z</time></trkpt><trkpt lat="45.026440275704985" lon="9.550015148593197"><ele>76.0</ele><time>2026-04-07T12:55:36Z</time></trkpt><trkpt lat="45.02638091512036" lon="9.550048398685021"><ele>76.0</ele><time>2026-04-07T12:55:38Z</time></trkpt><trkpt lat="45.02631429828135" lon="9.550074161466915"><ele>75.85714285714285</ele><time>2026-04-07T12:55:39.998Z</time></trkpt><trkpt lat="45.02624310055359" lon="9.55010058363066"><ele>75.71428571428572</ele><time>2026-04-07T12:55:41.999Z</time></trkpt><trkpt lat="45.02617163824926" lon="9.550127543694193"><ele>75.57142857142857</ele><time>2026-04-07T12:55:43.999Z</time></trkpt><trkpt lat="45.02610614483848" lon="9.550146163871629"><ele>75.42857142857142</ele><time>2026-04-07T12:55:45.999Z</time></trkpt><trkpt lat="45.02603956847778" lon="9.550171696689262"><ele>75.28571428571428</ele><time>2026-04-07T12:55:47.999Z</time></trkpt><trkpt lat="45.02597489872138" lon="9.550195077691184"><ele>75.14285714285714</ele><time>2026-04-07T12:55:49.999Z</time></trkpt><trkpt lat="45.025911473291075" lon="9.550176234684642"><ele>75.0</ele><time>2026-04-07T12:55:51.999Z</time></trkpt><trkpt lat="45.02585546596242" lon="9.550124332286472"><ele>74.99999999999999</ele><time>2026-04-07T12:55:53.999Z</time></trkpt><trkpt lat="45.025809159546846" lon="9.550061725984898"><ele>75.0</ele><time>2026-04-07T12:55:55.999Z</time></trkpt><trkpt lat="45.02575460444091" lon="9.549964376750934"><ele>75.0</ele><time>2026-04-07T12:55:58.999Z</time></trkpt><trkpt lat="45.02572288301559" lon="9.549885617435082"><ele>75.0</ele><time>2026-04-07T12:56:00.999Z</time></trkpt><trkpt lat="45.025699746418724" lon="9.54980252252183"><ele>75.0</ele><time>2026-04-07T12:56:02.999Z</time></trkpt><trkpt lat="45.025653440816264" lon="9.549681336729824"><ele>74.99999999999999</ele><time>2026-04-07T12:56:05.999Z</time></trkpt><trkpt lat="45.02564243764476" lon="9.549592383647585"><ele>75.0</ele><time>2026-04-07T12:56:07.999Z</time></trkpt><trkpt lat="45.02560587479026" lon="9.549466654430221"><ele>75.0</ele><time>2026-04-07T12:56:10.999Z</time></trkpt><trkpt lat="45.02557959811762" lon="9.549375850251664"><ele>75.0</ele><time>2026-04-07T12:56:12.999Z</time></trkpt><trkpt lat="45.02555720023" lon="9.549245998854252"><ele>75.0</ele><time>2026-04-07T12:56:15.999Z</time></trkpt><trkpt lat="45.02552180883262" lon="9.54912931351172"><ele>75.0</ele><time>2026-04-07T12:56:18.999Z</time></trkpt><trkpt lat="45.02550943319059" lon="9.549031301162263"><ele>75.0</ele><time>2026-04-07T12:56:20.999Z</time></trkpt><trkpt lat="45.025488637083775" lon="9.54891974889257"><ele>75.0</ele><time>2026-04-07T12:56:22.999Z</time></trkpt><trkpt lat="45.025461264571895" lon="9.54881768092696"><ele>75.0</ele><time>2026-04-07T12:56:24.999Z</time></trkpt><trkpt lat="45.02544223643345" lon="9.548719122578756"><ele>75.0</ele><time>2026-04-07T12:56:26.999Z</time></trkpt><trkpt lat="45.025417505412854" lon="9.548623780116563"><ele>75.0</ele><time>2026-04-07T12:56:28.999Z</time></trkpt><trkpt lat="45.02539606187882" lon="9.548524342621407"><ele>75.0</ele><time>2026-04-07T12:56:30.999Z</time></trkpt><trkpt lat="45.02537111180113" lon="9.548411314931496"><ele>75.0</ele><time>2026-04-07T12:56:33Z</time></trkpt><trkpt lat="45.02534232308671" lon="9.548312300280472"><ele>75.0</ele><time>2026-04-07T12:56:35Z</time></trkpt><trkpt lat="45.025312744569774" lon="9.548212456371127"><ele>75.0</ele><time>2026-04-07T12:56:37Z</time></trkpt><trkpt lat="45.02527536467442" lon="9.548115969519907"><ele>75.0</ele><time>2026-04-07T12:56:39Z</time></trkpt><trkpt lat="45.02523246251284" lon="9.548015053959938"><ele>75.0</ele><time>2026-04-07T12:56:41Z</time></trkpt><trkpt lat="45.02519989407567" lon="9.547935205627866"><ele>75.0</ele><time>2026-04-07T12:56:43Z</time></trkpt><trkpt lat="45.02515565790473" lon="9.54782649202069"><ele>75.0</ele><time>2026-04-07T12:56:45Z</time></trkpt><trkpt lat="45.02511853836564" lon="9.547731707556206"><ele>75.0</ele><time>2026-04-07T12:56:47Z</time></trkpt><trkpt lat="45.02507276252132" lon="9.547632750114584"><ele>75.16666666666667</ele><time>2026-04-07T12:56:49Z</time></trkpt><trkpt lat="45.025019574752235" lon="9.547533063867306"><ele>75.33333333333333</ele><time>2026-04-07T12:56:51Z</time></trkpt><trkpt lat="45.024963511515125" lon="9.547432375011583"><ele>75.5</ele><time>2026-04-07T12:56:53Z</time></trkpt><trkpt lat="45.024911937786186" lon="9.547342749771914"><ele>75.66666666666666</ele><time>2026-04-07T12:56:55Z</time></trkpt><trkpt lat="45.02485873823043" lon="9.547242607264014"><ele>75.83333333333333</ele><time>2026-04-07T12:56:57Z</time></trkpt><trkpt lat="45.024807739408466" lon="9.54714065324623"><ele>76.0</ele><time>2026-04-07T12:56:59Z</time></trkpt><trkpt lat="45.02475106078597" lon="9.547035059870245"><ele>76.33333333333333</ele><time>2026-04-07T12:57:01Z</time></trkpt><trkpt lat="45.02469478636871" lon="9.546932477794048"><ele>76.66666666666666</ele><time>2026-04-07T12:57:03Z</time></trkpt><trkpt lat="45.02464182958845" lon="9.5468260963857"><ele>77.0</ele><time>2026-04-07T12:57:05Z</time></trkpt><trkpt lat="45.02458746159307" lon="9.54672611459273"><ele>77.33333333333333</ele><time>2026-04-07T12:57:07Z</time></trkpt><trkpt lat="45.02453325062088" lon="9.546628749241968"><ele>77.66666666666667</ele><time>2026-04-07T12:57:09Z</time></trkpt><trkpt lat="45.024483772970264" lon="9.546533306090788"><ele>78.0</ele><time>2026-04-07T12:57:11Z</time></trkpt><trkpt lat="45.024431324701574" lon="9.546432496415957"><ele>78.0</ele><time>2026-04-07T12:57:13Z</time></trkpt><trkpt lat="45.024377651619524" lon="9.546336634709926"><ele>78.0</ele><time>2026-04-07T12:57:15Z</time></trkpt><trkpt lat="45.024321170727404" lon="9.546242859290802"><ele>78.0</ele><time>2026-04-07T12:57:17Z</time></trkpt><trkpt lat="45.02425893927086" lon="9.54614733909551"><ele>78.0</ele><time>2026-04-07T12:57:19Z</time></trkpt><trkpt lat="45.02419569585865" lon="9.54605696673136"><ele>78.0</ele><time>2026-04-07T12:57:21Z</time></trkpt><trkpt lat="45.024139202901296" lon="9.545983005951742"><ele>78.0</ele><time>2026-04-07T12:57:23Z</time></trkpt><trkpt lat="45.024083799564806" lon="9.545907972640748"><ele>77.66666666666667</ele><time>2026-04-07T12:57:25Z</time></trkpt><trkpt lat="45.024029125842276" lon="9.545828999389915"><ele>77.33333333333333</ele><time>2026-04-07T12:57:27Z</time></trkpt><trkpt lat="45.02397116688863" lon="9.545719714391678"><ele>77.0</ele><time>2026-04-07T12:57:30Z</time></trkpt><trkpt lat="45.02391830679077" lon="9.545638569659479"><ele>76.66666666666666</ele><time>2026-04-07T12:57:32Z</time></trkpt><trkpt lat="45.023855748103124" lon="9.545549711758728"><ele>76.33333333333333</ele><time>2026-04-07T12:57:34Z</time></trkpt><trkpt lat="45.02379269899966" lon="9.545465912645376"><ele>76.0</ele><time>2026-04-07T12:57:36Z</time></trkpt><trkpt lat="45.023733213214065" lon="9.545377740883092"><ele>76.0</ele><time>2026-04-07T12:57:38Z</time></trkpt><trkpt lat="45.023671392966634" lon="9.545292871581925"><ele>76.0</ele><time>2026-04-07T12:57:40Z</time></trkpt><trkpt lat="45.02360755438624" lon="9.545202743636477"><ele>76.0</ele><time>2026-04-07T12:57:42Z</time></trkpt><trkpt lat="45.02355499507039" lon="9.545109377976763"><ele>76.0</ele><time>2026-04-07T12:57:44Z</time></trkpt><trkpt lat="45.02350768090433" lon="9.545036866257856"><ele>76.0</ele><time>2026-04-07T12:57:45.998Z</time></trkpt><trkpt lat="45.023459619626564" lon="9.544956760392344"><ele>76.0</ele><time>2026-04-07T12:57:47.998Z</time></trkpt><trkpt lat="45.02339949267623" lon="9.544874732902306"><ele>76.0</ele><time>2026-04-07T12:57:49.998Z</time></trkpt><trkpt lat="45.02333995921491" lon="9.54478935809153"><ele>76.0</ele><time>2026-04-07T12:57:51.999Z</time></trkpt><trkpt lat="45.02328227301116" lon="9.544715851471773"><ele>76.0</ele><time>2026-04-07T12:57:53.999Z</time></trkpt><trkpt lat="45.0232337522898" lon="9.544640406699006"><ele>76.0</ele><time>2026-04-07T12:57:55.999Z</time></trkpt><trkpt lat="45.02318905008815" lon="9.544563088292863"><ele>76.0</ele><time>2026-04-07T12:57:57.999Z</time></trkpt><trkpt lat="45.023138685396155" lon="9.544502428815138"><ele>76.0</ele><time>2026-04-07T12:57:59.999Z</time></trkpt><trkpt lat="45.023091441117984" lon="9.544436323179687"><ele>76.0</ele><time>2026-04-07T12:58:01.999Z</time></trkpt><trkpt lat="45.02304379324151" lon="9.54436529200222"><ele>76.0</ele><time>2026-04-07T12:58:03.999Z</time></trkpt><trkpt lat="45.02299330522675" lon="9.54428976940405"><ele>76.0</ele><time>2026-04-07T12:58:05.999Z</time></trkpt><trkpt lat="45.02294455622793" lon="9.544215226179467"><ele>76.0</ele><time>2026-04-07T12:58:07.999Z</time></trkpt><trkpt lat="45.02289310270059" lon="9.544155979371299"><ele>76.0</ele><time>2026-04-07T12:58:09.999Z</time></trkpt><trkpt lat="45.0228024654089" lon="9.544127201998535"><ele>76.0</ele><time>2026-04-07T12:58:12.999Z</time></trkpt><trkpt lat="45.0227255735756" lon="9.544150205446345"><ele>76.0</ele><time>2026-04-07T12:58:14.999Z</time></trkpt><trkpt lat="45.02265317805987" lon="9.544186236107368"><ele>76.0</ele><time>2026-04-07T12:58:16.999Z</time></trkpt><trkpt lat="45.02257893840033" lon="9.544229714348042"><ele>76.0</ele><time>2026-04-07T12:58:18.999Z</time></trkpt><trkpt lat="45.02250278817607" lon="9.54426742215511"><ele>76.0</ele><time>2026-04-07T12:58:20.999Z</time></trkpt><trkpt lat="45.02243606277243" lon="9.544321660833324"><ele>76.0</ele><time>2026-04-07T12:58:22.999Z</time></trkpt><trkpt lat="45.02237212478938" lon="9.544365275192352"><ele>76.0</ele><time>2026-04-07T12:58:24.999Z</time></trkpt><trkpt lat="45.02229553558488" lon="9.544396307966784"><ele>76.0</ele><time>2026-04-07T12:58:26.999Z</time></trkpt><trkpt lat="45.022212248851545" lon="9.544437770932914"><ele>76.0</ele><time>2026-04-07T12:58:28.999Z</time></trkpt><trkpt lat="45.02213752556693" lon="9.544479059665736"><ele>76.0</ele><time>2026-04-07T12:58:30.999Z</time></trkpt><trkpt lat="45.02206047300592" lon="9.544515481198756"><ele>76.0</ele><time>2026-04-07T12:58:32.999Z</time></trkpt><trkpt lat="45.021977085877324" lon="9.544552586165937"><ele>76.0</ele><time>2026-04-07T12:58:34.999Z</time></trkpt><trkpt lat="45.021893547961824" lon="9.54459885912717"><ele>76.0</ele><time>2026-04-07T12:58:36.999Z</time></trkpt><trkpt lat="45.02181307850994" lon="9.544642459288955"><ele>76.0</ele><time>2026-04-07T12:58:38.999Z</time></trkpt><trkpt lat="45.02173529347475" lon="9.544686493140915"><ele>76.0</ele><time>2026-04-07T12:58:40.999Z</time></trkpt><trkpt lat="45.02165655563543" lon="9.544722650597482"><ele>76.0</ele><time>2026-04-07T12:58:42.999Z</time></trkpt><trkpt lat="45.021576236273525" lon="9.544764604971704"><ele>76.0</ele><time>2026-04-07T12:58:44.999Z</time></trkpt><trkpt lat="45.02149735735561" lon="9.544804564011589"><ele>76.0</ele><time>2026-04-07T12:58:46.999Z</time></trkpt><trkpt lat="45.021419578123194" lon="9.544847472066511"><ele>76.0</ele><time>2026-04-07T12:58:48.999Z</time></trkpt><trkpt lat="45.021343034326385" lon="9.544886846173926"><ele>76.0</ele><time>2026-04-07T12:58:50.999Z</time></trkpt><trkpt lat="45.021262842237014" lon="9.544929523498372"><ele>75.83333333333333</ele><time>2026-04-07T12:58:52.999Z</time></trkpt><trkpt lat="45.02118544559181" lon="9.544973909208016"><ele>75.66666666666666</ele><time>2026-04-07T12:58:54.999Z</time></trkpt><trkpt lat="45.02111018012803" lon="9.545014599606663"><ele>75.5</ele><time>2026-04-07T12:58:56.999Z</time></trkpt><trkpt lat="45.02102744395301" lon="9.545056636028697"><ele>75.33333333333333</ele><time>2026-04-07T12:58:58.999Z</time></trkpt><trkpt lat="45.02094897361605" lon="9.545091543277398"><ele>75.16666666666667</ele><time>2026-04-07T12:59:00.999Z</time></trkpt><trkpt lat="45.02087290447077" lon="9.545133427656783"><ele>75.0</ele><time>2026-04-07T12:59:02.999Z</time></trkpt><trkpt lat="45.02080047172776" lon="9.54517307117497"><ele>74.83333333333333</ele><time>2026-04-07T12:59:04.999Z</time></trkpt><trkpt lat="45.02072711038896" lon="9.545211594532319"><ele>74.66666666666667</ele><time>2026-04-07T12:59:07Z</time></trkpt><trkpt lat="45.0206496027776" lon="9.545250470655787"><ele>74.5</ele><time>2026-04-07T12:59:09Z</time></trkpt><trkpt lat="45.020572295429474" lon="9.545287224786968"><ele>74.33333333333334</ele><time>2026-04-07T12:59:11Z</time></trkpt><trkpt lat="45.02049219631373" lon="9.54532463162372"><ele>74.16666666666667</ele><time>2026-04-07T12:59:13Z</time></trkpt><trkpt lat="45.02041157211134" lon="9.545369758670201"><ele>74.0</ele><time>2026-04-07T12:59:15Z</time></trkpt><trkpt lat="45.02033502354904" lon="9.54541209469636"><ele>74.0</ele><time>2026-04-07T12:59:17Z</time></trkpt><trkpt lat="45.02025904765379" lon="9.545458613283179"><ele>74.0</ele><time>2026-04-07T12:59:19Z</time></trkpt><trkpt lat="45.02017703178405" lon="9.545503736082733"><ele>74.0</ele><time>2026-04-07T12:59:21Z</time></trkpt><trkpt lat="45.020094121846284" lon="9.545545171397022"><ele>74.0</ele><time>2026-04-07T12:59:23Z</time></trkpt><trkpt lat="45.02001339605047" lon="9.545592240254068"><ele>74.0</ele><time>2026-04-07T12:59:25Z</time></trkpt><trkpt lat="45.019927358445265" lon="9.545631834396888"><ele>74.0</ele><time>2026-04-07T12:59:27Z</time></trkpt><trkpt lat="45.01986893258727" lon="9.54569091153518"><ele>74.16666666666667</ele><time>2026-04-07T12:59:28Z</time></trkpt><trkpt lat="45.019805005408095" lon="9.54569893506264"><ele>74.33333333333334</ele><time>2026-04-07T12:59:30Z</time></trkpt><trkpt lat="45.01972649253747" lon="9.545736670034106"><ele>74.5</ele><time>2026-04-07T12:59:32Z</time></trkpt><trkpt lat="45.01964955035115" lon="9.545776773643453"><ele>74.66666666666667</ele><time>2026-04-07T12:59:34Z</time></trkpt><trkpt lat="45.019570845194956" lon="9.545821198026903"><ele>74.83333333333333</ele><time>2026-04-07T12:59:36Z</time></trkpt><trkpt lat="45.0194937995409" lon="9.545862317827563"><ele>75.0</ele><time>2026-04-07T12:59:38Z</time></trkpt><trkpt lat="45.01941429746451" lon="9.545908441328475"><ele>75.0</ele><time>2026-04-07T12:59:40Z</time></trkpt><trkpt lat="45.01933934811743" lon="9.54594182186275"><ele>75.0</ele><time>2026-04-07T12:59:42Z</time></trkpt><trkpt lat="45.019264624838954" lon="9.545983842409575"><ele>75.0</ele><time>2026-04-07T12:59:44Z</time></trkpt><trkpt lat="45.0191915874165" lon="9.546020122642318"><ele>75.0</ele><time>2026-04-07T12:59:46Z</time></trkpt><trkpt lat="45.019117983636264" lon="9.546058822475025"><ele>75.0</ele><time>2026-04-07T12:59:48Z</time></trkpt><trkpt lat="45.01904138271735" lon="9.546105330415484"><ele>75.0</ele><time>2026-04-07T12:59:50Z</time></trkpt><trkpt lat="45.018961579191966" lon="9.546137269682951"><ele>74.8</ele><time>2026-04-07T12:59:51.998Z</time></trkpt><trkpt lat="45.0188805188467" lon="9.546169464051038"><ele>74.6</ele><time>2026-04-07T12:59:53.999Z</time></trkpt><trkpt lat="45.01879314564732" lon="9.546184458728808"><ele>74.4</ele><time>2026-04-07T12:59:55.998Z</time></trkpt><trkpt lat="45.01869697093096" lon="9.546183113440142"><ele>74.2</ele><time>2026-04-07T12:59:57.998Z</time></trkpt><trkpt lat="45.01860632699489" lon="9.546152278280262"><ele>74.0</ele><time>2026-04-07T12:59:59.998Z</time></trkpt><trkpt lat="45.01852091339975" lon="9.546105978019758"><ele>74.0</ele><time>2026-04-07T13:00:01.998Z</time></trkpt><trkpt lat="45.01843799272453" lon="9.546065987099519"><ele>74.0</ele><time>2026-04-07T13:00:03.999Z</time></trkpt><trkpt lat="45.01835172233796" lon="9.546024982700121"><ele>74.0</ele><time>2026-04-07T13:00:05.999Z</time></trkpt><trkpt lat="45.018262414816384" lon="9.546021130326743"><ele>74.0</ele><time>2026-04-07T13:00:07.999Z</time></trkpt><trkpt lat="45.018170630957655" lon="9.546010905807783"><ele>74.0</ele><time>2026-04-07T13:00:09.999Z</time></trkpt><trkpt lat="45.018067503177654" lon="9.546027216355004"><ele>74.4</ele><time>2026-04-07T13:00:11.999Z</time></trkpt><trkpt lat="45.017970482056064" lon="9.546006687913216"><ele>74.80000000000001</ele><time>2026-04-07T13:00:13.999Z</time></trkpt><trkpt lat="45.017876416206434" lon="9.545952620933134"><ele>75.19999999999999</ele><time>2026-04-07T13:00:15.999Z</time></trkpt><trkpt lat="45.017786014666946" lon="9.545879584333903"><ele>75.6</ele><time>2026-04-07T13:00:17.999Z</time></trkpt><trkpt lat="45.017682276813844" lon="9.545856276288564"><ele>76.0</ele><time>2026-04-07T13:00:19.999Z</time></trkpt><trkpt lat="45.01762202040629" lon="9.545912153263485"><ele>76.0</ele><time>2026-04-07T13:00:20.999Z</time></trkpt><trkpt lat="45.0175815227934" lon="9.545980866100534"><ele>76.0</ele><time>2026-04-07T13:00:21.999Z</time></trkpt><trkpt lat="45.0175096949331" lon="9.54609245431161"><ele>76.0</ele><time>2026-04-07T13:00:23.999Z</time></trkpt><trkpt lat="45.01747382557182" lon="9.546211961565243"><ele>76.0</ele><time>2026-04-07T13:00:25.999Z</time></trkpt><trkpt lat="45.017387367108554" lon="9.546223016946822"><ele>76.0</ele><time>2026-04-07T13:00:26.999Z</time></trkpt><trkpt lat="45.01728439255915" lon="9.546263836214834"><ele>76.2</ele><time>2026-04-07T13:00:28.999Z</time></trkpt><trkpt lat="45.017182014489535" lon="9.54627540641016"><ele>76.39999999999999</ele><time>2026-04-07T13:00:30.999Z</time></trkpt><trkpt lat="45.01707626547656" lon="9.546283894882917"><ele>76.6</ele><time>2026-04-07T13:00:32.999Z</time></trkpt><trkpt lat="45.0169727511252" lon="9.546274678289693"><ele>76.8</ele><time>2026-04-07T13:00:34.999Z</time></trkpt><trkpt lat="45.016869212742606" lon="9.546271883136184"><ele>77.0</ele><time>2026-04-07T13:00:36.999Z</time></trkpt><trkpt lat="45.01676135725172" lon="9.546269004035683"><ele>77.0</ele><time>2026-04-07T13:00:38.999Z</time></trkpt><trkpt lat="45.016657442109654" lon="9.546269365492309"><ele>77.0</ele><time>2026-04-07T13:00:40.999Z</time></trkpt><trkpt lat="45.01655491364359" lon="9.546272050430346"><ele>77.0</ele><time>2026-04-07T13:00:42.999Z</time></trkpt><trkpt lat="45.01645418887055" lon="9.54627093410437"><ele>77.0</ele><time>2026-04-07T13:00:44.999Z</time></trkpt><trkpt lat="45.01635505970889" lon="9.546271619816425"><ele>77.0</ele><time>2026-04-07T13:00:46.999Z</time></trkpt><trkpt lat="45.01626760318896" lon="9.546277902044539"><ele>77.0</ele><time>2026-04-07T13:00:48.999Z</time></trkpt><trkpt lat="45.016181244655414" lon="9.5462817226373"><ele>77.0</ele><time>2026-04-07T13:00:50.999Z</time></trkpt><trkpt lat="45.01611051651609" lon="9.546292480593857"><ele>77.0</ele><time>2026-04-07T13:00:52.999Z</time></trkpt><trkpt lat="45.01603890079773" lon="9.546314363166033"><ele>77.0</ele><time>2026-04-07T13:00:54.999Z</time></trkpt><trkpt lat="45.015959292130354" lon="9.546305589687789"><ele>77.0</ele><time>2026-04-07T13:00:56.999Z</time></trkpt><trkpt lat="45.01587895482613" lon="9.546301107381408"><ele>77.0</ele><time>2026-04-07T13:00:58.999Z</time></trkpt><trkpt lat="45.015791373532764" lon="9.546303666909001"><ele>76.8</ele><time>2026-04-07T13:01:00.999Z</time></trkpt><trkpt lat="45.01570456737602" lon="9.546308969818233"><ele>76.6</ele><time>2026-04-07T13:01:02.999Z</time></trkpt><trkpt lat="45.015617341083086" lon="9.546312934800799"><ele>76.39999999999999</ele><time>2026-04-07T13:01:04.999Z</time></trkpt><trkpt lat="45.01552426386085" lon="9.546313897120235"><ele>76.2</ele><time>2026-04-07T13:01:06.999Z</time></trkpt><trkpt lat="45.01543133704292" lon="9.546310923435652"><ele>76.0</ele><time>2026-04-07T13:01:08.999Z</time></trkpt><trkpt lat="45.015336899883856" lon="9.546315122758356"><ele>76.0</ele><time>2026-04-07T13:01:10.999Z</time></trkpt><trkpt lat="45.01524091159859" lon="9.546317956847297"><ele>76.0</ele><time>2026-04-07T13:01:12.999Z</time></trkpt><trkpt lat="45.01514627155184" lon="9.546320447724163"><ele>76.0</ele><time>2026-04-07T13:01:14.999Z</time></trkpt><trkpt lat="45.01504945974116" lon="9.54632974621485"><ele>76.0</ele><time>2026-04-07T13:01:16.999Z</time></trkpt><trkpt lat="45.01494843588129" lon="9.546332361760458"><ele>76.0</ele><time>2026-04-07T13:01:18.999Z</time></trkpt><trkpt lat="45.01485188376179" lon="9.54633426551593"><ele>76.2</ele><time>2026-04-07T13:01:20.999Z</time></trkpt><trkpt lat="45.01475140313301" lon="9.546336230313225"><ele>76.39999999999999</ele><time>2026-04-07T13:01:22.999Z</time></trkpt><trkpt lat="45.01465202387712" lon="9.546335862816974"><ele>76.6</ele><time>2026-04-07T13:01:24.999Z</time></trkpt><trkpt lat="45.014561165584524" lon="9.54633876426649"><ele>76.8</ele><time>2026-04-07T13:01:26.999Z</time></trkpt><trkpt lat="45.0144611841941" lon="9.546346624064634"><ele>77.0</ele><time>2026-04-07T13:01:28.999Z</time></trkpt><trkpt lat="45.0143648246178" lon="9.546359517497175"><ele>77.0</ele><time>2026-04-07T13:01:30.999Z</time></trkpt><trkpt lat="45.01426793613874" lon="9.546361774075901"><ele>77.0</ele><time>2026-04-07T13:01:32.999Z</time></trkpt><trkpt lat="45.0141712518772" lon="9.546359175830457"><ele>77.0</ele><time>2026-04-07T13:01:34.999Z</time></trkpt><trkpt lat="45.01407129880005" lon="9.546359975329464"><ele>77.0</ele><time>2026-04-07T13:01:36.999Z</time></trkpt><trkpt lat="45.0139651133337" lon="9.546366396536325"><ele>77.0</ele><time>2026-04-07T13:01:38.999Z</time></trkpt><trkpt lat="45.013860076013906" lon="9.54636667190646"><ele>77.4</ele><time>2026-04-07T13:01:40.999Z</time></trkpt><trkpt lat="45.01375327585053" lon="9.54636889925424"><ele>77.80000000000001</ele><time>2026-04-07T13:01:42.999Z</time></trkpt><trkpt lat="45.01364707722869" lon="9.546370253372894"><ele>78.2</ele><time>2026-04-07T13:01:44.999Z</time></trkpt><trkpt lat="45.013541036184726" lon="9.546374750246716"><ele>78.60000000000001</ele><time>2026-04-07T13:01:46.999Z</time></trkpt><trkpt lat="45.01343503684933" lon="9.546374939129977"><ele>79.0</ele><time>2026-04-07T13:01:48.999Z</time></trkpt><trkpt lat="45.0133288139323" lon="9.54638097689507"><ele>78.8</ele><time>2026-04-07T13:01:50.999Z</time></trkpt><trkpt lat="45.013221688995834" lon="9.546387863711074"><ele>78.60000000000001</ele><time>2026-04-07T13:01:52.999Z</time></trkpt><trkpt lat="45.01311638208626" lon="9.546387123513943"><ele>78.4</ele><time>2026-04-07T13:01:54.999Z</time></trkpt><trkpt lat="45.01301422787247" lon="9.546388275426006"><ele>78.2</ele><time>2026-04-07T13:01:56.998Z</time></trkpt><trkpt lat="45.01291169268742" lon="9.546395656649423"><ele>78.0</ele><time>2026-04-07T13:01:58.998Z</time></trkpt><trkpt lat="45.01281233220666" lon="9.546395115602191"><ele>78.0</ele><time>2026-04-07T13:02:00.998Z</time></trkpt><trkpt lat="45.01271248644678" lon="9.546399965403864"><ele>78.0</ele><time>2026-04-07T13:02:02.999Z</time></trkpt><trkpt lat="45.01261034902929" lon="9.546403257732957"><ele>78.0</ele><time>2026-04-07T13:02:04.999Z</time></trkpt><trkpt lat="45.0125119640216" lon="9.546412164436253"><ele>78.0</ele><time>2026-04-07T13:02:06.998Z</time></trkpt><trkpt lat="45.0124167881536" lon="9.546402585199441"><ele>78.0</ele><time>2026-04-07T13:02:08.998Z</time></trkpt><trkpt lat="45.012317615795446" lon="9.546398533859014"><ele>77.8</ele><time>2026-04-07T13:02:10.998Z</time></trkpt><trkpt lat="45.012215393504064" lon="9.546389603599755"><ele>77.6</ele><time>2026-04-07T13:02:12.998Z</time></trkpt><trkpt lat="45.012109965261075" lon="9.546382229704212"><ele>77.4</ele><time>2026-04-07T13:02:14.998Z</time></trkpt><trkpt lat="45.01200452688315" lon="9.546374722565284"><ele>77.2</ele><time>2026-04-07T13:02:16.998Z</time></trkpt><trkpt lat="45.01189473553232" lon="9.546366847753161"><ele>77.0</ele><time>2026-04-07T13:02:18.998Z</time></trkpt><trkpt lat="45.011787304988005" lon="9.546358014959276"><ele>77.0</ele><time>2026-04-07T13:02:20.998Z</time></trkpt><trkpt lat="45.01168199083386" lon="9.546353600816499"><ele>77.0</ele><time>2026-04-07T13:02:22.999Z</time></trkpt><trkpt lat="45.01157521606155" lon="9.54634789718139"><ele>77.0</ele><time>2026-04-07T13:02:24.999Z</time></trkpt><trkpt lat="45.011466493953975" lon="9.546345623969524"><ele>77.0</ele><time>2026-04-07T13:02:26.999Z</time></trkpt><trkpt lat="45.01135681518068" lon="9.546334961287027"><ele>77.0</ele><time>2026-04-07T13:02:28.999Z</time></trkpt><trkpt lat="45.01125600481008" lon="9.54632713494875"><ele>77.2</ele><time>2026-04-07T13:02:30.999Z</time></trkpt><trkpt lat="45.011159294075625" lon="9.546321697419213"><ele>77.4</ele><time>2026-04-07T13:02:32.999Z</time></trkpt><trkpt lat="45.01105551627577" lon="9.54631409838163"><ele>77.6</ele><time>2026-04-07T13:02:34.999Z</time></trkpt><trkpt lat="45.01095199331896" lon="9.54630577822635"><ele>77.8</ele><time>2026-04-07T13:02:36.999Z</time></trkpt><trkpt lat="45.01084900132576" lon="9.546298104465688"><ele>78.0</ele><time>2026-04-07T13:02:38.999Z</time></trkpt><trkpt lat="45.010746559115034" lon="9.54629312897492"><ele>78.0</ele><time>2026-04-07T13:02:40.999Z</time></trkpt><trkpt lat="45.0106400656099" lon="9.546289691176916"><ele>78.0</ele><time>2026-04-07T13:02:42.999Z</time></trkpt><trkpt lat="45.01053357402932" lon="9.546282134401153"><ele>78.0</ele><time>2026-04-07T13:02:44.999Z</time></trkpt><trkpt lat="45.010429210574685" lon="9.546273722575643"><ele>78.0</ele><time>2026-04-07T13:02:46.999Z</time></trkpt><trkpt lat="45.01032047760749" lon="9.546266879254999"><ele>78.0</ele><time>2026-04-07T13:02:48.999Z</time></trkpt><trkpt lat="45.01021550733114" lon="9.54626191908599"><ele>78.0</ele><time>2026-04-07T13:02:50.999Z</time></trkpt><trkpt lat="45.01011438357168" lon="9.546257933338644"><ele>78.0</ele><time>2026-04-07T13:02:52.999Z</time></trkpt><trkpt lat="45.01001245056361" lon="9.5462495411895"><ele>78.0</ele><time>2026-04-07T13:02:54.999Z</time></trkpt><trkpt lat="45.009907198970296" lon="9.546242041116988"><ele>78.0</ele><time>2026-04-07T13:02:56.999Z</time></trkpt><trkpt lat="45.009805590405776" lon="9.546235688855282"><ele>78.0</ele><time>2026-04-07T13:02:58.999Z</time></trkpt><trkpt lat="45.00970343386607" lon="9.546227051527435"><ele>78.4</ele><time>2026-04-07T13:03:00.999Z</time></trkpt><trkpt lat="45.009600449942646" lon="9.546222665477684"><ele>78.8</ele><time>2026-04-07T13:03:02.999Z</time></trkpt><trkpt lat="45.0094997757435" lon="9.54621774568002"><ele>79.2</ele><time>2026-04-07T13:03:04.999Z</time></trkpt><trkpt lat="45.009399730747994" lon="9.546213486984584"><ele>79.6</ele><time>2026-04-07T13:03:06.999Z</time></trkpt><trkpt lat="45.009295104649716" lon="9.546206301324172"><ele>80.0</ele><time>2026-04-07T13:03:08.999Z</time></trkpt><trkpt lat="45.00917972600827" lon="9.546198154503754"><ele>80.25</ele><time>2026-04-07T13:03:10.999Z</time></trkpt><trkpt lat="45.009062405775865" lon="9.546188841374308"><ele>80.5</ele><time>2026-04-07T13:03:12.999Z</time></trkpt><trkpt lat="45.0089493603408" lon="9.546186270063943"><ele>80.75</ele><time>2026-04-07T13:03:14.999Z</time></trkpt><trkpt lat="45.008834494370724" lon="9.546178286129958"><ele>81.0</ele><time>2026-04-07T13:03:16.999Z</time></trkpt><trkpt lat="45.00872193509713" lon="9.546170542980349"><ele>81.0</ele><time>2026-04-07T13:03:18.999Z</time></trkpt><trkpt lat="45.008609817650516" lon="9.546163644169074"><ele>81.0</ele><time>2026-04-07T13:03:20.999Z</time></trkpt><trkpt lat="45.008497912614125" lon="9.5461528942379"><ele>81.0</ele><time>2026-04-07T13:03:22.999Z</time></trkpt><trkpt lat="45.008389042824206" lon="9.546147605517481"><ele>81.0</ele><time>2026-04-07T13:03:24.999Z</time></trkpt><trkpt lat="45.00828237085185" lon="9.546139925860851"><ele>81.0</ele><time>2026-04-07T13:03:26.999Z</time></trkpt><trkpt lat="45.00818280345636" lon="9.546133573459047"><ele>81.0</ele><time>2026-04-07T13:03:28.999Z</time></trkpt><trkpt lat="45.008077468398824" lon="9.54613248582411"><ele>81.0</ele><time>2026-04-07T13:03:30.999Z</time></trkpt><trkpt lat="45.007976706477116" lon="9.546129167972156"><ele>81.0</ele><time>2026-04-07T13:03:32.999Z</time></trkpt><trkpt lat="45.007879729539454" lon="9.546118632431016"><ele>81.0</ele><time>2026-04-07T13:03:34.999Z</time></trkpt><trkpt lat="45.00778015928862" lon="9.546110768982494"><ele>81.0</ele><time>2026-04-07T13:03:36.999Z</time></trkpt><trkpt lat="45.00768335178199" lon="9.546103967076972"><ele>81.0</ele><time>2026-04-07T13:03:38.999Z</time></trkpt><trkpt lat="45.007580775717386" lon="9.546102216879744"><ele>81.0</ele><time>2026-04-07T13:03:40.999Z</time></trkpt><trkpt lat="45.00747659665395" lon="9.546100038161"><ele>81.0</ele><time>2026-04-07T13:03:42.999Z</time></trkpt><trkpt lat="45.00737247398896" lon="9.546099067290452"><ele>81.0</ele><time>2026-04-07T13:03:44.999Z</time></trkpt><trkpt lat="45.00726794290181" lon="9.546099301406873"><ele>81.0</ele><time>2026-04-07T13:03:46.999Z</time></trkpt><trkpt lat="45.007165932062115" lon="9.546097257042371"><ele>81.0</ele><time>2026-04-07T13:03:48.999Z</time></trkpt><trkpt lat="45.007063435168305" lon="9.546099677108321"><ele>81.0</ele><time>2026-04-07T13:03:50.999Z</time></trkpt><trkpt lat="45.006964603429" lon="9.546099723622937"><ele>81.0</ele><time>2026-04-07T13:03:52.999Z</time></trkpt><trkpt lat="45.00686108117586" lon="9.546101128123219"><ele>81.0</ele><time>2026-04-07T13:03:54.999Z</time></trkpt><trkpt lat="45.00675518331293" lon="9.546103391202541"><ele>81.0</ele><time>2026-04-07T13:03:56.999Z</time></trkpt><trkpt lat="45.006648852249256" lon="9.546092050017176"><ele>81.6</ele><time>2026-04-07T13:03:58.999Z</time></trkpt><trkpt lat="45.00654239817212" lon="9.54609443206262"><ele>82.19999999999999</ele><time>2026-04-07T13:04:00.999Z</time></trkpt><trkpt lat="45.00643494401348" lon="9.546097600189249"><ele>82.80000000000001</ele><time>2026-04-07T13:04:02.998Z</time></trkpt><trkpt lat="45.00633290402024" lon="9.546101720193201"><ele>83.4</ele><time>2026-04-07T13:04:04.998Z</time></trkpt><trkpt lat="45.00622569725141" lon="9.54610608038718"><ele>84.0</ele><time>2026-04-07T13:04:06.998Z</time></trkpt><trkpt lat="45.006120152731306" lon="9.546111190442764"><ele>84.0</ele><time>2026-04-07T13:04:08.998Z</time></trkpt><trkpt lat="45.00601643956109" lon="9.5461088611386"><ele>84.0</ele><time>2026-04-07T13:04:10.998Z</time></trkpt><trkpt lat="45.00591221374703" lon="9.546102873278265"><ele>84.0</ele><time>2026-04-07T13:04:12.998Z</time></trkpt><trkpt lat="45.00581154667473" lon="9.546109424520486"><ele>84.0</ele><time>2026-04-07T13:04:14.998Z</time></trkpt><trkpt lat="45.005710165193975" lon="9.54611139526565"><ele>84.0</ele><time>2026-04-07T13:04:16.998Z</time></trkpt><trkpt lat="45.00560806170207" lon="9.546109137898664"><ele>83.6</ele><time>2026-04-07T13:04:18.998Z</time></trkpt><trkpt lat="45.00550176368685" lon="9.546106977500555"><ele>83.2</ele><time>2026-04-07T13:04:20.998Z</time></trkpt><trkpt lat="45.00539248879691" lon="9.546103367076102"><ele>82.8</ele><time>2026-04-07T13:04:22.998Z</time></trkpt><trkpt lat="45.005281512200106" lon="9.546105602651513"><ele>82.39999999999999</ele><time>2026-04-07T13:04:24.998Z</time></trkpt><trkpt lat="45.00517213495569" lon="9.546107369197644"><ele>82.0</ele><time>2026-04-07T13:04:26.998Z</time></trkpt><trkpt lat="45.00506325702558" lon="9.546107766849666"><ele>82.19999999999999</ele><time>2026-04-07T13:04:28.998Z</time></trkpt><trkpt lat="45.004955467956485" lon="9.546114072602155"><ele>82.4</ele><time>2026-04-07T13:04:30.998Z</time></trkpt><trkpt lat="45.00484104821467" lon="9.546109448264017"><ele>82.6</ele><time>2026-04-07T13:04:32.998Z</time></trkpt><trkpt lat="45.004730574236945" lon="9.546111356395897"><ele>82.80000000000001</ele><time>2026-04-07T13:04:34.998Z</time></trkpt><trkpt lat="45.00461587106039" lon="9.546112373236328"><ele>83.0</ele><time>2026-04-07T13:04:36.998Z</time></trkpt><trkpt lat="45.00450706646744" lon="9.546114317353327"><ele>83.0</ele><time>2026-04-07T13:04:38.998Z</time></trkpt><trkpt lat="45.004401067401204" lon="9.546117002235022"><ele>83.0</ele><time>2026-04-07T13:04:40.998Z</time></trkpt><trkpt lat="45.00429559514467" lon="9.546116556103511"><ele>83.0</ele><time>2026-04-07T13:04:42.998Z</time></trkpt><trkpt lat="45.004192112585585" lon="9.546117412678981"><ele>83.0</ele><time>2026-04-07T13:04:44.998Z</time></trkpt><trkpt lat="45.004092544816764" lon="9.546121495122472"><ele>83.0</ele><time>2026-04-07T13:04:46.998Z</time></trkpt><trkpt lat="45.00399059171927" lon="9.546126825711132"><ele>83.33333333333334</ele><time>2026-04-07T13:04:48.998Z</time></trkpt><trkpt lat="45.003891523373994" lon="9.546124722043283"><ele>83.66666666666667</ele><time>2026-04-07T13:04:50.998Z</time></trkpt><trkpt lat="45.003802220436796" lon="9.546124345252045"><ele>84.0</ele><time>2026-04-07T13:04:52.998Z</time></trkpt><trkpt lat="45.0037189629789" lon="9.546123253416045"><ele>84.33333333333333</ele><time>2026-04-07T13:04:54.998Z</time></trkpt><trkpt lat="45.00364245984713" lon="9.546115506450786"><ele>84.66666666666666</ele><time>2026-04-07T13:04:56.998Z</time></trkpt><trkpt lat="45.003563357209046" lon="9.546119331148734"><ele>85.0</ele><time>2026-04-07T13:04:58.998Z</time></trkpt><trkpt lat="45.003482910148264" lon="9.546123832786925"><ele>85.0</ele><time>2026-04-07T13:05:00.998Z</time></trkpt><trkpt lat="45.00340264274318" lon="9.546131408910622"><ele>85.0</ele><time>2026-04-07T13:05:02.998Z</time></trkpt><trkpt lat="45.00332904040139" lon="9.546124839748108"><ele>85.0</ele><time>2026-04-07T13:05:04.998Z</time></trkpt><trkpt lat="45.003258215581354" lon="9.54612430098798"><ele>85.0</ele><time>2026-04-07T13:05:06.998Z</time></trkpt><trkpt lat="45.00319467179542" lon="9.546139958640252"><ele>85.0</ele><time>2026-04-07T13:05:08.998Z</time></trkpt><trkpt lat="45.00311316483341" lon="9.546156716370582"><ele>85.0</ele><time>2026-04-07T13:05:11.998Z</time></trkpt><trkpt lat="45.003033797314444" lon="9.546162685230142"><ele>85.0</ele><time>2026-04-07T13:05:15.998Z</time></trkpt><trkpt lat="45.00294329502484" lon="9.546177725769706"><ele>85.0</ele><time>2026-04-07T13:05:18.998Z</time></trkpt><trkpt lat="45.0028505067535" lon="9.546193501502675"><ele>85.0</ele><time>2026-04-07T13:05:21.998Z</time></trkpt><trkpt lat="45.002779827690674" lon="9.546205494067364"><ele>85.0</ele><time>2026-04-07T13:05:23.998Z</time></trkpt><trkpt lat="45.00270522923425" lon="9.546218919382182"><ele>85.0</ele><time>2026-04-07T13:05:25.998Z</time></trkpt><trkpt lat="45.00263045495064" lon="9.546230279905334"><ele>85.0</ele><time>2026-04-07T13:05:27.998Z</time></trkpt><trkpt lat="45.002552678774464" lon="9.546241453030579"><ele>85.66666666666666</ele><time>2026-04-07T13:05:29.998Z</time></trkpt><trkpt lat="45.00247748697372" lon="9.546251350834803"><ele>86.33333333333333</ele><time>2026-04-07T13:05:31.998Z</time></trkpt><trkpt lat="45.00240277747197" lon="9.546265868441894"><ele>87.0</ele><time>2026-04-07T13:05:33.998Z</time></trkpt><trkpt lat="45.00232480839986" lon="9.546278602752283"><ele>87.66666666666667</ele><time>2026-04-07T13:05:35.999Z</time></trkpt><trkpt lat="45.002239122651204" lon="9.546291965080659"><ele>88.33333333333334</ele><time>2026-04-07T13:05:37.999Z</time></trkpt><trkpt lat="45.0021576765122" lon="9.546315015616344"><ele>89.0</ele><time>2026-04-07T13:05:39.999Z</time></trkpt><trkpt lat="45.002078067833814" lon="9.546317446780149"><ele>89.0</ele><time>2026-04-07T13:05:41.999Z</time></trkpt><trkpt lat="45.00199989529116" lon="9.546345709683552"><ele>89.0</ele><time>2026-04-07T13:05:43.999Z</time></trkpt><trkpt lat="45.001919522136276" lon="9.546354756330931"><ele>89.0</ele><time>2026-04-07T13:05:45.999Z</time></trkpt><trkpt lat="45.001843153625046" lon="9.54637307619776"><ele>89.0</ele><time>2026-04-07T13:05:47.999Z</time></trkpt><trkpt lat="45.001765209030346" lon="9.546383767895238"><ele>89.0</ele><time>2026-04-07T13:05:49.999Z</time></trkpt><trkpt lat="45.00168767095867" lon="9.546416176255935"><ele>89.0</ele><time>2026-04-07T13:05:51.999Z</time></trkpt><trkpt lat="45.00160141194433" lon="9.546425268427102"><ele>89.0</ele><time>2026-04-07T13:05:53.999Z</time></trkpt><trkpt lat="45.00152081390557" lon="9.546446175304752"><ele>89.0</ele><time>2026-04-07T13:05:55.999Z</time></trkpt><trkpt lat="45.0014439086689" lon="9.546470446479338"><ele>89.0</ele><time>2026-04-07T13:05:57.999Z</time></trkpt><trkpt lat="45.00136469007184" lon="9.546494415582995"><ele>89.0</ele><time>2026-04-07T13:05:59.999Z</time></trkpt><trkpt lat="45.00128520042304" lon="9.546516018606862"><ele>89.0</ele><time>2026-04-07T13:06:01.999Z</time></trkpt><trkpt lat="45.00120253013526" lon="9.54652802846112"><ele>89.0</ele><time>2026-04-07T13:06:03.999Z</time></trkpt><trkpt lat="45.00112137047791" lon="9.54653093391389"><ele>89.0</ele><time>2026-04-07T13:06:05.999Z</time></trkpt><trkpt lat="45.001040816109835" lon="9.546536274453338"><ele>89.0</ele><time>2026-04-07T13:06:07.999Z</time></trkpt><trkpt lat="45.00096844530993" lon="9.546540599124874"><ele>89.0</ele><time>2026-04-07T13:06:09.998Z</time></trkpt><trkpt lat="45.000885658389066" lon="9.546552320864967"><ele>89.0</ele><time>2026-04-07T13:06:11.998Z</time></trkpt><trkpt lat="45.000802342448665" lon="9.546560781123706"><ele>89.0</ele><time>2026-04-07T13:06:13.998Z</time></trkpt><trkpt lat="45.000722427405094" lon="9.54657940138573"><ele>89.0</ele><time>2026-04-07T13:06:15.998Z</time></trkpt><trkpt lat="45.00064408627425" lon="9.546579379260288"><ele>89.16666666666667</ele><time>2026-04-07T13:06:17.999Z</time></trkpt><trkpt lat="45.00056151641875" lon="9.546591046845165"><ele>89.33333333333334</ele><time>2026-04-07T13:06:19.998Z</time></trkpt><trkpt lat="45.000481742887516" lon="9.546606556272147"><ele>89.5</ele><time>2026-04-07T13:06:21.998Z</time></trkpt><trkpt lat="45.000405032712386" lon="9.546630027331606"><ele>89.66666666666667</ele><time>2026-04-07T13:06:23.998Z</time></trkpt><trkpt lat="45.00032649592948" lon="9.546640667896886"><ele>89.83333333333333</ele><time>2026-04-07T13:06:25.998Z</time></trkpt><trkpt lat="45.00024546889606" lon="9.546661280334657"><ele>90.0</ele><time>2026-04-07T13:06:27.998Z</time></trkpt><trkpt lat="45.000164064685144" lon="9.546672548824278"><ele>90.0</ele><time>2026-04-07T13:06:29.998Z</time></trkpt><trkpt lat="45.00008634216298" lon="9.5466828562265"><ele>90.0</ele><time>2026-04-07T13:06:31.998Z</time></trkpt><trkpt lat="45.00000591374682" lon="9.546685507107865"><ele>90.0</ele><time>2026-04-07T13:06:33.998Z</time></trkpt><trkpt lat="44.9999256117254" lon="9.546698539757015"><ele>90.0</ele><time>2026-04-07T13:06:35.998Z</time></trkpt><trkpt lat="44.99984125394" lon="9.54671903197859"><ele>90.0</ele><time>2026-04-07T13:06:37.997Z</time></trkpt><trkpt lat="44.999756593480356" lon="9.546732778374947"><ele>90.0</ele><time>2026-04-07T13:06:39.997Z</time></trkpt><trkpt lat="44.99967673644759" lon="9.546748176635273"><ele>90.0</ele><time>2026-04-07T13:06:41.997Z</time></trkpt><trkpt lat="44.99959211218871" lon="9.54676460642629"><ele>90.0</ele><time>2026-04-07T13:06:43.996Z</time></trkpt><trkpt lat="44.99950783556161" lon="9.54677638358218"><ele>90.0</ele><time>2026-04-07T13:06:45.996Z</time></trkpt><trkpt lat="44.9994360821928" lon="9.546789768721021"><ele>90.0</ele><time>2026-04-07T13:06:47.996Z</time></trkpt><trkpt lat="44.99936930949409" lon="9.546806685868157"><ele>90.0</ele><time>2026-04-07T13:06:49.996Z</time></trkpt><trkpt lat="44.99930366915869" lon="9.546815005209414"><ele>90.0</ele><time>2026-04-07T13:06:51.996Z</time></trkpt><trkpt lat="44.99923456857791" lon="9.546833167444166"><ele>90.0</ele><time>2026-04-07T13:06:53.996Z</time></trkpt><trkpt lat="44.99917053972606" lon="9.546844676957491"><ele>90.0</ele><time>2026-04-07T13:06:55.995Z</time></trkpt><trkpt lat="44.99910197474854" lon="9.546859822845613"><ele>90.0</ele><time>2026-04-07T13:06:57.995Z</time></trkpt><trkpt lat="44.99903144132221" lon="9.54687379076053"><ele>90.0</ele><time>2026-04-07T13:06:59.995Z</time></trkpt><trkpt lat="44.99895668535486" lon="9.546884524327488"><ele>90.0</ele><time>2026-04-07T13:07:01.995Z</time></trkpt><trkpt lat="44.998880476164295" lon="9.546906805312942"><ele>90.0</ele><time>2026-04-07T13:07:03.995Z</time></trkpt><trkpt lat="44.998802305151145" lon="9.546928008205445"><ele>90.0</ele><time>2026-04-07T13:07:05.995Z</time></trkpt><trkpt lat="44.99872599254186" lon="9.546947658007763"><ele>90.0</ele><time>2026-04-07T13:07:07.995Z</time></trkpt><trkpt lat="44.99863897339066" lon="9.546962140713559"><ele>90.0</ele><time>2026-04-07T13:07:09.995Z</time></trkpt><trkpt lat="44.99854974382696" lon="9.546976892724214"><ele>90.0</ele><time>2026-04-07T13:07:11.995Z</time></trkpt><trkpt lat="44.99846885623839" lon="9.546999687380849"><ele>90.0</ele><time>2026-04-07T13:07:13.995Z</time></trkpt><trkpt lat="44.998391028536545" lon="9.54701450662597"><ele>90.0</ele><time>2026-04-07T13:07:15.995Z</time></trkpt><trkpt lat="44.998318490244934" lon="9.54704123908249"><ele>90.0</ele><time>2026-04-07T13:07:17.995Z</time></trkpt><trkpt lat="44.99823648580509" lon="9.547053067548829"><ele>90.0</ele><time>2026-04-07T13:07:20.995Z</time></trkpt><trkpt lat="44.99817060712115" lon="9.547075200897815"><ele>90.0</ele><time>2026-04-07T13:07:23.995Z</time></trkpt><trkpt lat="44.99810068221271" lon="9.547093353281692"><ele>90.0</ele><time>2026-04-07T13:07:26.995Z</time></trkpt><trkpt lat="44.99803084239988" lon="9.547097916300919"><ele>90.0</ele><time>2026-04-07T13:07:28.995Z</time></trkpt><trkpt lat="44.99795304254785" lon="9.547101733459886"><ele>90.0</ele><time>2026-04-07T13:07:30.995Z</time></trkpt><trkpt lat="44.9978669789451" lon="9.547126074172175"><ele>90.0</ele><time>2026-04-07T13:07:32.995Z</time></trkpt><trkpt lat="44.99778990155157" lon="9.547137466969572"><ele>90.0</ele><time>2026-04-07T13:07:34.995Z</time></trkpt><trkpt lat="44.99771745408947" lon="9.547134765276319"><ele>90.0</ele><time>2026-04-07T13:07:36.995Z</time></trkpt><trkpt lat="44.99764372434299" lon="9.547130031362151"><ele>90.0</ele><time>2026-04-07T13:07:38.995Z</time></trkpt><trkpt lat="44.99757536284974" lon="9.547110066835922"><ele>90.0</ele><time>2026-04-07T13:07:40.995Z</time></trkpt><trkpt lat="44.997509879203704" lon="9.547107730450069"><ele>90.0</ele><time>2026-04-07T13:07:42.995Z</time></trkpt><trkpt lat="44.99743063754982" lon="9.547074692794883"><ele>90.0</ele><time>2026-04-07T13:07:45.995Z</time></trkpt><trkpt lat="44.997370204675356" lon="9.547048172601443"><ele>90.0</ele><time>2026-04-07T13:07:47.995Z</time></trkpt><trkpt lat="44.99730746603901" lon="9.547020841192749"><ele>90.71428571428571</ele><time>2026-04-07T13:07:49.995Z</time></trkpt><trkpt lat="44.99723996166445" lon="9.546986982929727"><ele>91.42857142857143</ele><time>2026-04-07T13:07:51.995Z</time></trkpt><trkpt lat="44.99717675450601" lon="9.546963345098442"><ele>92.14285714285714</ele><time>2026-04-07T13:07:53.995Z</time></trkpt><trkpt lat="44.99710575234146" lon="9.546951955153267"><ele>92.85714285714286</ele><time>2026-04-07T13:07:55.995Z</time></trkpt><trkpt lat="44.997036012642184" lon="9.546944222923319"><ele>93.57142857142858</ele><time>2026-04-07T13:07:57.995Z</time></trkpt><trkpt lat="44.996972191436804" lon="9.546924455661957"><ele>94.28571428571429</ele><time>2026-04-07T13:07:59.995Z</time></trkpt><trkpt lat="44.996905642204275" lon="9.546906748360819"><ele>95.0</ele><time>2026-04-07T13:08:01.995Z</time></trkpt><trkpt lat="44.996844197518385" lon="9.54687645636966"><ele>95.0</ele><time>2026-04-07T13:08:03.995Z</time></trkpt><trkpt lat="44.99675485082635" lon="9.546842604997316"><ele>95.0</ele><time>2026-04-07T13:08:06.995Z</time></trkpt><trkpt lat="44.99666930032141" lon="9.546815554021965"><ele>95.0</ele><time>2026-04-07T13:08:09.995Z</time></trkpt><trkpt lat="44.99658256201362" lon="9.546790099588648"><ele>95.0</ele><time>2026-04-07T13:08:12.995Z</time></trkpt><trkpt lat="44.996513881333776" lon="9.546738851297793"><ele>95.0</ele><time>2026-04-07T13:08:16.995Z</time></trkpt><trkpt lat="44.99658074922693" lon="9.546760515590607"><ele>95.0</ele><time>2026-04-07T13:08:25.994Z</time></trkpt><trkpt lat="44.99666097800863" lon="9.546800444942635"><ele>95.0</ele><time>2026-04-07T13:08:28.995Z</time></trkpt><trkpt lat="44.99672386543603" lon="9.546822184770093"><ele>95.0</ele><time>2026-04-07T13:08:30.995Z</time></trkpt><trkpt lat="44.996788760582966" lon="9.546849257921691"><ele>95.0</ele><time>2026-04-07T13:08:32.995Z</time></trkpt><trkpt lat="44.99686254229082" lon="9.546861501874384"><ele>95.0</ele><time>2026-04-07T13:08:34.995Z</time></trkpt><trkpt lat="44.99693929831156" lon="9.54687732675195"><ele>95.0</ele><time>2026-04-07T13:08:36.995Z</time></trkpt><trkpt lat="44.997012832260296" lon="9.546905278308905"><ele>95.0</ele><time>2026-04-07T13:08:38.995Z</time></trkpt><trkpt lat="44.997090445210524" lon="9.54693003087113"><ele>95.0</ele><time>2026-04-07T13:08:40.995Z</time></trkpt><trkpt lat="44.997168429527974" lon="9.546951444249393"><ele>95.0</ele><time>2026-04-07T13:08:42.995Z</time></trkpt><trkpt lat="44.99724039584788" lon="9.546966420018078"><ele>95.0</ele><time>2026-04-07T13:08:44.995Z</time></trkpt><trkpt lat="44.99731685228285" lon="9.546981178161243"><ele>95.0</ele><time>2026-04-07T13:08:46.995Z</time></trkpt><trkpt lat="44.997381563857736" lon="9.547023652634232"><ele>95.0</ele><time>2026-04-07T13:08:48.995Z</time></trkpt><trkpt lat="44.99744511373171" lon="9.547055106170934"><ele>95.0</ele><time>2026-04-07T13:08:50.995Z</time></trkpt><trkpt lat="44.99750780376338" lon="9.547078574743916"><ele>95.0</ele><time>2026-04-07T13:08:52.995Z</time></trkpt><trkpt lat="44.99759470119743" lon="9.547105047495789"><ele>95.0</ele><time>2026-04-07T13:08:55.995Z</time></trkpt><trkpt lat="44.997668256271886" lon="9.547129305282203"><ele>94.16666666666667</ele><time>2026-04-07T13:08:58.995Z</time></trkpt><trkpt lat="44.997760399921994" lon="9.547124954292585"><ele>93.33333333333334</ele><time>2026-04-07T13:09:01.995Z</time></trkpt><trkpt lat="44.99782840446503" lon="9.547129995379237"><ele>92.5</ele><time>2026-04-07T13:09:03.995Z</time></trkpt><trkpt lat="44.99789927540986" lon="9.547126816833362"><ele>91.66666666666667</ele><time>2026-04-07T13:09:05.995Z</time></trkpt><trkpt lat="44.99797777032923" lon="9.547114134615219"><ele>90.83333333333333</ele><time>2026-04-07T13:09:07.995Z</time></trkpt><trkpt lat="44.99806113724581" lon="9.547081766652706"><ele>90.0</ele><time>2026-04-07T13:09:09.995Z</time></trkpt><trkpt lat="44.99813787271524" lon="9.54705195642637"><ele>90.0</ele><time>2026-04-07T13:09:11.995Z</time></trkpt><trkpt lat="44.99820009817987" lon="9.547034118185616"><ele>90.0</ele><time>2026-04-07T13:09:13.995Z</time></trkpt><trkpt lat="44.99826370581922" lon="9.54702926184846"><ele>90.0</ele><time>2026-04-07T13:09:15.995Z</time></trkpt><trkpt lat="44.998335866033194" lon="9.547003497790634"><ele>90.0</ele><time>2026-04-07T13:09:17.995Z</time></trkpt><trkpt lat="44.998419382373015" lon="9.54697609012581"><ele>90.0</ele><time>2026-04-07T13:09:19.995Z</time></trkpt><trkpt lat="44.998501260852414" lon="9.546960515933202"><ele>90.0</ele><time>2026-04-07T13:09:21.995Z</time></trkpt><trkpt lat="44.9985864702558" lon="9.54697757413139"><ele>90.0</ele><time>2026-04-07T13:09:23.995Z</time></trkpt><trkpt lat="44.99866338100529" lon="9.546966898626488"><ele>90.0</ele><time>2026-04-07T13:09:25.995Z</time></trkpt><trkpt lat="44.99873614884389" lon="9.546958769436124"><ele>90.0</ele><time>2026-04-07T13:09:27.995Z</time></trkpt><trkpt lat="44.998829605980504" lon="9.546939104050928"><ele>90.0</ele><time>2026-04-07T13:09:30.995Z</time></trkpt><trkpt lat="44.998896441843" lon="9.546924105670671"><ele>90.0</ele><time>2026-04-07T13:09:32.995Z</time></trkpt><trkpt lat="44.99897647266546" lon="9.546904150159902"><ele>90.0</ele><time>2026-04-07T13:09:34.995Z</time></trkpt><trkpt lat="44.99905441724714" lon="9.54688127095317"><ele>90.0</ele><time>2026-04-07T13:09:36.996Z</time></trkpt><trkpt lat="44.999140489587084" lon="9.546859162737102"><ele>90.0</ele><time>2026-04-07T13:09:38.996Z</time></trkpt><trkpt lat="44.999221377653775" lon="9.546831422634783"><ele>90.0</ele><time>2026-04-07T13:09:40.996Z</time></trkpt><trkpt lat="44.99930143935925" lon="9.546815591752775"><ele>90.0</ele><time>2026-04-07T13:09:42.996Z</time></trkpt><trkpt lat="44.99938867219341" lon="9.546803452936832"><ele>90.0</ele><time>2026-04-07T13:09:44.996Z</time></trkpt><trkpt lat="44.99947716074403" lon="9.546787985723094"><ele>90.0</ele><time>2026-04-07T13:09:46.996Z</time></trkpt><trkpt lat="44.99956345191994" lon="9.546771593915972"><ele>90.0</ele><time>2026-04-07T13:09:48.996Z</time></trkpt><trkpt lat="44.99965139925014" lon="9.546747408927347"><ele>90.0</ele><time>2026-04-07T13:09:50.996Z</time></trkpt><trkpt lat="44.99973830443311" lon="9.546733758598885"><ele>90.0</ele><time>2026-04-07T13:09:52.996Z</time></trkpt><trkpt lat="44.99981612421473" lon="9.546710554989204"><ele>90.0</ele><time>2026-04-07T13:09:54.996Z</time></trkpt><trkpt lat="44.99989840502358" lon="9.546704574912365"><ele>90.0</ele><time>2026-04-07T13:09:56.996Z</time></trkpt><trkpt lat="44.9999816728142" lon="9.546680415631872"><ele>90.0</ele><time>2026-04-07T13:09:58.996Z</time></trkpt><trkpt lat="45.00006172923534" lon="9.546662631534955"><ele>90.0</ele><time>2026-04-07T13:10:00.996Z</time></trkpt><trkpt lat="45.00014815756162" lon="9.54665189177488"><ele>90.0</ele><time>2026-04-07T13:10:02.996Z</time></trkpt><trkpt lat="45.00022849379746" lon="9.546633036948661"><ele>90.0</ele><time>2026-04-07T13:10:04.996Z</time></trkpt><trkpt lat="45.00030999731941" lon="9.54662132696955"><ele>90.0</ele><time>2026-04-07T13:10:06.996Z</time></trkpt><trkpt lat="45.00038812496561" lon="9.54660752390716"><ele>90.0</ele><time>2026-04-07T13:10:08.996Z</time></trkpt><trkpt lat="45.000465152359254" lon="9.546598745969616"><ele>90.0</ele><time>2026-04-07T13:10:10.996Z</time></trkpt><trkpt lat="45.000546931132526" lon="9.546579843991706"><ele>90.0</ele><time>2026-04-07T13:10:12.996Z</time></trkpt><trkpt lat="45.00063669566091" lon="9.546574502282057"><ele>90.0</ele><time>2026-04-07T13:10:14.996Z</time></trkpt><trkpt lat="45.000729184483205" lon="9.546559793425436"><ele>90.0</ele><time>2026-04-07T13:10:16.996Z</time></trkpt><trkpt lat="45.00082464690336" lon="9.546545763399495"><ele>90.0</ele><time>2026-04-07T13:10:18.996Z</time></trkpt><trkpt lat="45.00091921984232" lon="9.546538623665292"><ele>90.0</ele><time>2026-04-07T13:10:20.995Z</time></trkpt><trkpt lat="45.00101618522991" lon="9.546529129655262"><ele>89.8</ele><time>2026-04-07T13:10:22.994Z</time></trkpt><trkpt lat="45.00111319213391" lon="9.54651455978821"><ele>89.6</ele><time>2026-04-07T13:10:24.995Z</time></trkpt><trkpt lat="45.00121099998493" lon="9.546507659071953"><ele>89.4</ele><time>2026-04-07T13:10:26.994Z</time></trkpt><trkpt lat="45.00130440151273" lon="9.54649899696307"><ele>89.2</ele><time>2026-04-07T13:10:28.995Z</time></trkpt><trkpt lat="45.00140896353786" lon="9.546488486450997"><ele>89.0</ele><time>2026-04-07T13:10:30.995Z</time></trkpt><trkpt lat="45.001510245987475" lon="9.54645708053145"><ele>89.0</ele><time>2026-04-07T13:10:32.994Z</time></trkpt><trkpt lat="45.00161105264394" lon="9.546441984515775"><ele>89.0</ele><time>2026-04-07T13:10:34.995Z</time></trkpt><trkpt lat="45.00170644274477" lon="9.546419821682676"><ele>89.0</ele><time>2026-04-07T13:10:36.995Z</time></trkpt><trkpt lat="45.00180450511803" lon="9.546392481684418"><ele>89.0</ele><time>2026-04-07T13:10:38.995Z</time></trkpt><trkpt lat="45.00189713438939" lon="9.546373207602848"><ele>89.0</ele><time>2026-04-07T13:10:40.995Z</time></trkpt><trkpt lat="45.00197870975829" lon="9.546352350908242"><ele>89.0</ele><time>2026-04-07T13:10:42.995Z</time></trkpt><trkpt lat="45.00206483735198" lon="9.546341317330999"><ele>89.0</ele><time>2026-04-07T13:10:44.995Z</time></trkpt><trkpt lat="45.002148684198886" lon="9.54633210922568"><ele>89.0</ele><time>2026-04-07T13:10:46.995Z</time></trkpt><trkpt lat="45.00223223484728" lon="9.546316605847142"><ele>89.0</ele><time>2026-04-07T13:10:48.995Z</time></trkpt><trkpt lat="45.002308757835635" lon="9.546292168059978"><ele>89.0</ele><time>2026-04-07T13:10:50.995Z</time></trkpt><trkpt lat="45.002386702901504" lon="9.546273859193061"><ele>89.0</ele><time>2026-04-07T13:10:52.995Z</time></trkpt><trkpt lat="45.00247172703548" lon="9.546269568013694"><ele>88.5</ele><time>2026-04-07T13:10:54.995Z</time></trkpt><trkpt lat="45.00255922498561" lon="9.546247712183423"><ele>88.0</ele><time>2026-04-07T13:10:56.995Z</time></trkpt><trkpt lat="45.00264488965977" lon="9.546226124736842"><ele>87.5</ele><time>2026-04-07T13:10:58.995Z</time></trkpt><trkpt lat="45.00273064878332" lon="9.546223999651357"><ele>87.0</ele><time>2026-04-07T13:11:00.995Z</time></trkpt><trkpt lat="45.00280616610367" lon="9.546207390656702"><ele>86.5</ele><time>2026-04-07T13:11:02.995Z</time></trkpt><trkpt lat="45.00287953255877" lon="9.546191114564799"><ele>86.0</ele><time>2026-04-07T13:11:04.995Z</time></trkpt><trkpt lat="45.002948217220684" lon="9.546167023338262"><ele>86.0</ele><time>2026-04-07T13:11:06.995Z</time></trkpt><trkpt lat="45.00301948371203" lon="9.546159973669242"><ele>86.0</ele><time>2026-04-07T13:11:08.995Z</time></trkpt><trkpt lat="45.00308621512933" lon="9.546194823918274"><ele>86.0</ele><time>2026-04-07T13:11:10.995Z</time></trkpt><trkpt lat="45.00312875853139" lon="9.546286525231858"><ele>86.0</ele><time>2026-04-07T13:11:12.995Z</time></trkpt><trkpt lat="45.00315579196576" lon="9.546393876223734"><ele>86.0</ele><time>2026-04-07T13:11:14.995Z</time></trkpt><trkpt lat="45.00319412577098" lon="9.54649840620983"><ele>86.0</ele><time>2026-04-07T13:11:16.995Z</time></trkpt><trkpt lat="45.00323403835522" lon="9.546606735689325"><ele>86.0</ele><time>2026-04-07T13:11:18.995Z</time></trkpt><trkpt lat="45.003266935436606" lon="9.546722824245421"><ele>86.0</ele><time>2026-04-07T13:11:20.995Z</time></trkpt><trkpt lat="45.00330917453944" lon="9.546828406085918"><ele>86.0</ele><time>2026-04-07T13:11:22.995Z</time></trkpt><trkpt lat="45.003343671365386" lon="9.546923092394652"><ele>86.0</ele><time>2026-04-07T13:11:24.995Z</time></trkpt><trkpt lat="45.00339080094921" lon="9.547037214815276"><ele>86.0</ele><time>2026-04-07T13:11:26.995Z</time></trkpt><trkpt lat="45.00342658053677" lon="9.547139580244238"><ele>86.0</ele><time>2026-04-07T13:11:28.995Z</time></trkpt><trkpt lat="45.003467451478514" lon="9.54724886391296"><ele>86.0</ele><time>2026-04-07T13:11:30.995Z</time></trkpt><trkpt lat="45.00350319301323" lon="9.5473616673238"><ele>86.0</ele><time>2026-04-07T13:11:32.995Z</time></trkpt><trkpt lat="45.00353859578643" lon="9.547476334929694"><ele>86.0</ele><time>2026-04-07T13:11:34.995Z</time></trkpt><trkpt lat="45.003583797764264" lon="9.547591134867519"><ele>86.0</ele><time>2026-04-07T13:11:36.995Z</time></trkpt><trkpt lat="45.00361621258287" lon="9.547704549184182"><ele>86.0</ele><time>2026-04-07T13:11:38.995Z</time></trkpt><trkpt lat="45.00365996367871" lon="9.547819764373168"><ele>86.0</ele><time>2026-04-07T13:11:40.995Z</time></trkpt><trkpt lat="45.00370311939955" lon="9.547949319116674"><ele>86.0</ele><time>2026-04-07T13:11:42.995Z</time></trkpt><trkpt lat="45.00374336890563" lon="9.548062021481849"><ele>86.0</ele><time>2026-04-07T13:11:44.995Z</time></trkpt><trkpt lat="45.00378793747996" lon="9.548178871845733"><ele>86.0</ele><time>2026-04-07T13:11:46.995Z</time></trkpt><trkpt lat="45.00382830568469" lon="9.548296963316737"><ele>86.0</ele><time>2026-04-07T13:11:48.995Z</time></trkpt><trkpt lat="45.00386873017952" lon="9.548417750084885"><ele>86.0</ele><time>2026-04-07T13:11:50.995Z</time></trkpt><trkpt lat="45.00391411221965" lon="9.548542814025064"><ele>86.0</ele><time>2026-04-07T13:11:52.995Z</time></trkpt><trkpt lat="45.00395673990301" lon="9.548662836498913"><ele>86.0</ele><time>2026-04-07T13:11:54.995Z</time></trkpt><trkpt lat="45.00400133680776" lon="9.54879496966494"><ele>86.0</ele><time>2026-04-07T13:11:56.995Z</time></trkpt><trkpt lat="45.00404329981024" lon="9.548904111496478"><ele>86.0</ele><time>2026-04-07T13:11:58.995Z</time></trkpt><trkpt lat="45.004084861314475" lon="9.549027882524946"><ele>86.0</ele><time>2026-04-07T13:12:00.995Z</time></trkpt><trkpt lat="45.004132081440666" lon="9.54914909199504"><ele>85.6</ele><time>2026-04-07T13:12:02.995Z</time></trkpt><trkpt lat="45.004176991370954" lon="9.549273239715257"><ele>85.19999999999999</ele><time>2026-04-07T13:12:04.995Z</time></trkpt><trkpt lat="45.00422101591601" lon="9.549406829588774"><ele>84.80000000000001</ele><time>2026-04-07T13:12:06.995Z</time></trkpt><trkpt lat="45.004267141797875" lon="9.549531142346092"><ele>84.4</ele><time>2026-04-07T13:12:08.995Z</time></trkpt><trkpt lat="45.00431240246297" lon="9.549651566349667"><ele>84.0</ele><time>2026-04-07T13:12:10.995Z</time></trkpt><trkpt lat="45.004359270689456" lon="9.549768578985296"><ele>84.0</ele><time>2026-04-07T13:12:12.995Z</time></trkpt><trkpt lat="45.004405791094015" lon="9.549905731526927"><ele>84.0</ele><time>2026-04-07T13:12:14.995Z</time></trkpt><trkpt lat="45.00445275593519" lon="9.550020331714178"><ele>84.0</ele><time>2026-04-07T13:12:16.995Z</time></trkpt><trkpt lat="45.004498708138016" lon="9.550152527331004"><ele>84.0</ele><time>2026-04-07T13:12:18.995Z</time></trkpt><trkpt lat="45.004548281546874" lon="9.550280016469358"><ele>84.0</ele><time>2026-04-07T13:12:20.995Z</time></trkpt><trkpt lat="45.00459229348921" lon="9.550401962956903"><ele>84.0</ele><time>2026-04-07T13:12:22.995Z</time></trkpt><trkpt lat="45.00463649302535" lon="9.550530755812682"><ele>84.0</ele><time>2026-04-07T13:12:24.995Z</time></trkpt><trkpt lat="45.00468202421349" lon="9.5506632180975"><ele>84.0</ele><time>2026-04-07T13:12:26.994Z</time></trkpt><trkpt lat="45.004730802977285" lon="9.550789588528707"><ele>84.0</ele><time>2026-04-07T13:12:28.994Z</time></trkpt><trkpt lat="45.00477627099766" lon="9.550916966447282"><ele>84.0</ele><time>2026-04-07T13:12:30.994Z</time></trkpt><trkpt lat="45.004822244018996" lon="9.551040187208732"><ele>84.0</ele><time>2026-04-07T13:12:32.994Z</time></trkpt><trkpt lat="45.004866392187836" lon="9.551170344333544"><ele>84.0</ele><time>2026-04-07T13:12:34.995Z</time></trkpt><trkpt lat="45.00491539895438" lon="9.551290886897418"><ele>84.0</ele><time>2026-04-07T13:12:36.994Z</time></trkpt><trkpt lat="45.00496094942693" lon="9.551413238724574"><ele>84.0</ele><time>2026-04-07T13:12:38.995Z</time></trkpt><trkpt lat="45.00500387468359" lon="9.551536275679169"><ele>84.0</ele><time>2026-04-07T13:12:40.994Z</time></trkpt><trkpt lat="45.005050307204144" lon="9.551662046740072"><ele>84.0</ele><time>2026-04-07T13:12:42.994Z</time></trkpt><trkpt lat="45.005095191781024" lon="9.551787318370256"><ele>84.0</ele><time>2026-04-07T13:12:44.994Z</time></trkpt><trkpt lat="45.00514209780559" lon="9.551920296925383"><ele>84.0</ele><time>2026-04-07T13:12:46.994Z</time></trkpt><trkpt lat="45.005188194109735" lon="9.55205696197807"><ele>84.0</ele><time>2026-04-07T13:12:48.994Z</time></trkpt><trkpt lat="45.00523537630641" lon="9.552183318051782"><ele>84.0</ele><time>2026-04-07T13:12:50.994Z</time></trkpt><trkpt lat="45.005283279176886" lon="9.552311542343778"><ele>84.0</ele><time>2026-04-07T13:12:52.994Z</time></trkpt><trkpt lat="45.005328574709274" lon="9.552441569273917"><ele>84.0</ele><time>2026-04-07T13:12:54.994Z</time></trkpt><trkpt lat="45.005375657200275" lon="9.55257458388215"><ele>84.0</ele><time>2026-04-07T13:12:56.994Z</time></trkpt><trkpt lat="45.00542496870137" lon="9.55270502011188"><ele>84.0</ele><time>2026-04-07T13:12:58.994Z</time></trkpt><trkpt lat="45.005472578905604" lon="9.552833356641296"><ele>84.0</ele><time>2026-04-07T13:13:00.994Z</time></trkpt><trkpt lat="45.005520446915604" lon="9.552963409668523"><ele>83.6</ele><time>2026-04-07T13:13:02.994Z</time></trkpt><trkpt lat="45.00556415729277" lon="9.5530983121651"><ele>83.2</ele><time>2026-04-07T13:13:04.994Z</time></trkpt><trkpt lat="45.00561361579571" lon="9.553235543810024"><ele>82.8</ele><time>2026-04-07T13:13:06.994Z</time></trkpt><trkpt lat="45.005664451851224" lon="9.553373854283347"><ele>82.39999999999999</ele><time>2026-04-07T13:13:08.994Z</time></trkpt><trkpt lat="45.0057114108107" lon="9.553510871515167"><ele>82.0</ele><time>2026-04-07T13:13:10.994Z</time></trkpt><trkpt lat="45.005758627774185" lon="9.553643373726358"><ele>82.0</ele><time>2026-04-07T13:13:12.994Z</time></trkpt><trkpt lat="45.005803383490516" lon="9.55377417282754"><ele>82.0</ele><time>2026-04-07T13:13:14.994Z</time></trkpt><trkpt lat="45.00584892191952" lon="9.553904257441724"><ele>82.0</ele><time>2026-04-07T13:13:16.994Z</time></trkpt><trkpt lat="45.00589653936881" lon="9.554030608550969"><ele>82.0</ele><time>2026-04-07T13:13:18.994Z</time></trkpt><trkpt lat="45.00594026886085" lon="9.554164928663806"><ele>82.0</ele><time>2026-04-07T13:13:20.994Z</time></trkpt><trkpt lat="45.005986507750585" lon="9.554294199102198"><ele>82.0</ele><time>2026-04-07T13:13:22.994Z</time></trkpt><trkpt lat="45.00602888175099" lon="9.554413292396967"><ele>82.0</ele><time>2026-04-07T13:13:24.994Z</time></trkpt><trkpt lat="45.006074271611546" lon="9.554520421672882"><ele>82.0</ele><time>2026-04-07T13:13:26.994Z</time></trkpt><trkpt lat="45.00611360991453" lon="9.554632616584488"><ele>82.0</ele><time>2026-04-07T13:13:28.994Z</time></trkpt><trkpt lat="45.00615828491227" lon="9.55475391715406"><ele>82.0</ele><time>2026-04-07T13:13:30.994Z</time></trkpt><trkpt lat="45.00619674188617" lon="9.554876800410593"><ele>82.0</ele><time>2026-04-07T13:13:32.994Z</time></trkpt><trkpt lat="45.006236978473694" lon="9.554997364199838"><ele>82.0</ele><time>2026-04-07T13:13:34.994Z</time></trkpt><trkpt lat="45.006278410209305" lon="9.555115920454172"><ele>82.0</ele><time>2026-04-07T13:13:36.994Z</time></trkpt><trkpt lat="45.0063223913002" lon="9.555249120701797"><ele>82.0</ele><time>2026-04-07T13:13:38.994Z</time></trkpt><trkpt lat="45.00636720737019" lon="9.55538458624888"><ele>82.0</ele><time>2026-04-07T13:13:40.994Z</time></trkpt><trkpt lat="45.00641473980344" lon="9.555509825781364"><ele>81.6</ele><time>2026-04-07T13:13:42.994Z</time></trkpt><trkpt lat="45.00646160516013" lon="9.555632123896991"><ele>81.19999999999999</ele><time>2026-04-07T13:13:44.994Z</time></trkpt><trkpt lat="45.00650160280834" lon="9.555755168855379"><ele>80.8</ele><time>2026-04-07T13:13:46.994Z</time></trkpt><trkpt lat="45.0065416814723" lon="9.555873316439733"><ele>80.4</ele><time>2026-04-07T13:13:48.994Z</time></trkpt><trkpt lat="45.00657636259536" lon="9.555998311320344"><ele>80.0</ele><time>2026-04-07T13:13:50.994Z</time></trkpt><trkpt lat="45.006620148434244" lon="9.556120855183453"><ele>80.6</ele><time>2026-04-07T13:13:52.994Z</time></trkpt><trkpt lat="45.00666454058735" lon="9.556240742264402"><ele>81.2</ele><time>2026-04-07T13:13:54.994Z</time></trkpt><trkpt lat="45.00670999065091" lon="9.556360347979316"><ele>81.80000000000001</ele><time>2026-04-07T13:13:56.994Z</time></trkpt><trkpt lat="45.00675070233421" lon="9.556483016272546"><ele>82.4</ele><time>2026-04-07T13:13:58.995Z</time></trkpt><trkpt lat="45.00679210673086" lon="9.556604754811618"><ele>83.0</ele><time>2026-04-07T13:14:00.995Z</time></trkpt><trkpt lat="45.00683786748139" lon="9.556725448658408"><ele>83.0</ele><time>2026-04-07T13:14:02.995Z</time></trkpt><trkpt lat="45.00688182601198" lon="9.55684320110587"><ele>83.0</ele><time>2026-04-07T13:14:04.995Z</time></trkpt><trkpt lat="45.00692130861341" lon="9.556962184228684"><ele>83.0</ele><time>2026-04-07T13:14:06.995Z</time></trkpt><trkpt lat="45.00696152744987" lon="9.557085857177949"><ele>83.0</ele><time>2026-04-07T13:14:08.995Z</time></trkpt><trkpt lat="45.0070046070743" lon="9.557205811065405"><ele>83.0</ele><time>2026-04-07T13:14:10.995Z</time></trkpt><trkpt lat="45.007049407905946" lon="9.55732581008878"><ele>82.80000000000001</ele><time>2026-04-07T13:14:12.995Z</time></trkpt><trkpt lat="45.007093170679795" lon="9.557451453301798"><ele>82.6</ele><time>2026-04-07T13:14:14.995Z</time></trkpt><trkpt lat="45.00713869261437" lon="9.557574713790356"><ele>82.4</ele><time>2026-04-07T13:14:16.995Z</time></trkpt><trkpt lat="45.007181890168155" lon="9.557701527625685"><ele>82.19999999999999</ele><time>2026-04-07T13:14:18.995Z</time></trkpt><trkpt lat="45.007222266109416" lon="9.557831217261791"><ele>82.0</ele><time>2026-04-07T13:14:20.995Z</time></trkpt><trkpt lat="45.00726168103068" lon="9.557949776639733"><ele>82.0</ele><time>2026-04-07T13:14:22.995Z</time></trkpt><trkpt lat="45.007303490146185" lon="9.558062566175712"><ele>82.0</ele><time>2026-04-07T13:14:24.995Z</time></trkpt><trkpt lat="45.00734592434696" lon="9.558181367259873"><ele>82.0</ele><time>2026-04-07T13:14:26.995Z</time></trkpt><trkpt lat="45.007386981581384" lon="9.558303222231643"><ele>82.0</ele><time>2026-04-07T13:14:28.995Z</time></trkpt><trkpt lat="45.00743338683934" lon="9.558428232883827"><ele>82.0</ele><time>2026-04-07T13:14:30.995Z</time></trkpt><trkpt lat="45.007472883888155" lon="9.55854023209686"><ele>82.0</ele><time>2026-04-07T13:14:32.994Z</time></trkpt><trkpt lat="45.00751554875653" lon="9.55866009295642"><ele>82.0</ele><time>2026-04-07T13:14:34.994Z</time></trkpt><trkpt lat="45.00755942645679" lon="9.558772189017363"><ele>82.0</ele><time>2026-04-07T13:14:36.994Z</time></trkpt><trkpt lat="45.00760223301796" lon="9.558887449211413"><ele>82.0</ele><time>2026-04-07T13:14:38.995Z</time></trkpt><trkpt lat="45.00764306048484" lon="9.559000931020991"><ele>82.0</ele><time>2026-04-07T13:14:40.995Z</time></trkpt><trkpt lat="45.00768301791551" lon="9.559109529875828"><ele>82.0</ele><time>2026-04-07T13:14:42.994Z</time></trkpt><trkpt lat="45.00772231322013" lon="9.559212030350452"><ele>82.0</ele><time>2026-04-07T13:14:44.995Z</time></trkpt><trkpt lat="45.007762528019754" lon="9.559312381768683"><ele>82.0</ele><time>2026-04-07T13:14:46.994Z</time></trkpt><trkpt lat="45.00780750449032" lon="9.559417457017847"><ele>82.0</ele><time>2026-04-07T13:14:48.994Z</time></trkpt><trkpt lat="45.00785986882742" lon="9.559524721092451"><ele>82.0</ele><time>2026-04-07T13:14:50.994Z</time></trkpt><trkpt lat="45.007908877757934" lon="9.559642838245388"><ele>82.0</ele><time>2026-04-07T13:14:52.994Z</time></trkpt><trkpt lat="45.00796262366321" lon="9.559757823368335"><ele>81.6</ele><time>2026-04-07T13:14:54.994Z</time></trkpt><trkpt lat="45.00801116323297" lon="9.559871070371297"><ele>81.19999999999999</ele><time>2026-04-07T13:14:56.994Z</time></trkpt><trkpt lat="45.00806083600802" lon="9.559984822563285"><ele>80.8</ele><time>2026-04-07T13:14:58.994Z</time></trkpt><trkpt lat="45.00811317630712" lon="9.560103334361807"><ele>80.4</ele><time>2026-04-07T13:15:00.994Z</time></trkpt><trkpt lat="45.00816886283743" lon="9.56022543379308"><ele>80.0</ele><time>2026-04-07T13:15:02.994Z</time></trkpt><trkpt lat="45.008227649019744" lon="9.560353220080394"><ele>80.0</ele><time>2026-04-07T13:15:04.994Z</time></trkpt><trkpt lat="45.008282008620824" lon="9.560488572103386"><ele>80.0</ele><time>2026-04-07T13:15:06.994Z</time></trkpt><trkpt lat="45.00834191503838" lon="9.5606252141487"><ele>80.0</ele><time>2026-04-07T13:15:08.994Z</time></trkpt><trkpt lat="45.008401260286796" lon="9.560759631063462"><ele>80.0</ele><time>2026-04-07T13:15:10.994Z</time></trkpt><trkpt lat="45.00846351266182" lon="9.56089865561454"><ele>80.0</ele><time>2026-04-07T13:15:12.994Z</time></trkpt><trkpt lat="45.0085267858646" lon="9.561044018314956"><ele>80.0</ele><time>2026-04-07T13:15:14.994Z</time></trkpt><trkpt lat="45.00859311656622" lon="9.561187089880107"><ele>80.0</ele><time>2026-04-07T13:15:16.994Z</time></trkpt><trkpt lat="45.00865503288647" lon="9.56133426991561"><ele>80.0</ele><time>2026-04-07T13:15:18.994Z</time></trkpt><trkpt lat="45.00868844240756" lon="9.56140982730884"><ele>80.0</ele><time>2026-04-07T13:15:19.994Z</time></trkpt><trkpt lat="45.00875569358233" lon="9.561562161676386"><ele>80.2</ele><time>2026-04-07T13:15:21.994Z</time></trkpt><trkpt lat="45.008792075127445" lon="9.561639247725992"><ele>80.4</ele><time>2026-04-07T13:15:22.994Z</time></trkpt><trkpt lat="45.00882612069041" lon="9.561715437840556"><ele>80.6</ele><time>2026-04-07T13:15:23.994Z</time></trkpt><trkpt lat="45.00888829730453" lon="9.561860666189048"><ele>80.8</ele><time>2026-04-07T13:15:25.994Z</time></trkpt><trkpt lat="45.008956389817115" lon="9.562002192196017"><ele>81.0</ele><time>2026-04-07T13:15:27.994Z</time></trkpt><trkpt lat="45.00902031376317" lon="9.562144923685391"><ele>81.0</ele><time>2026-04-07T13:15:29.994Z</time></trkpt><trkpt lat="45.00908191803315" lon="9.562286640337401"><ele>81.0</ele><time>2026-04-07T13:15:31.994Z</time></trkpt><trkpt lat="45.00913633032125" lon="9.562427126476049"><ele>81.0</ele><time>2026-04-07T13:15:33.994Z</time></trkpt><trkpt lat="45.009188181468204" lon="9.56256063887309"><ele>81.0</ele><time>2026-04-07T13:15:35.994Z</time></trkpt><trkpt lat="45.00923208460996" lon="9.562701816004422"><ele>81.0</ele><time>2026-04-07T13:15:37.994Z</time></trkpt><trkpt lat="45.009268212625926" lon="9.562844438876535"><ele>80.6</ele><time>2026-04-07T13:15:39.994Z</time></trkpt><trkpt lat="45.00930334783084" lon="9.562980245144871"><ele>80.19999999999999</ele><time>2026-04-07T13:15:41.994Z</time></trkpt><trkpt lat="45.00933410140035" lon="9.563113246473918"><ele>79.80000000000001</ele><time>2026-04-07T13:15:43.994Z</time></trkpt><trkpt lat="45.00936300218654" lon="9.563239581028704"><ele>79.4</ele><time>2026-04-07T13:15:45.994Z</time></trkpt><trkpt lat="45.009389848575665" lon="9.563374018957518"><ele>79.0</ele><time>2026-04-07T13:15:47.994Z</time></trkpt><trkpt lat="45.009415704091964" lon="9.563513555635842"><ele>79.0</ele><time>2026-04-07T13:15:49.994Z</time></trkpt><trkpt lat="45.00944103338541" lon="9.563651252958133"><ele>79.0</ele><time>2026-04-07T13:15:51.994Z</time></trkpt><trkpt lat="45.009470638498044" lon="9.563796349010726"><ele>79.0</ele><time>2026-04-07T13:15:53.994Z</time></trkpt><trkpt lat="45.00949235592849" lon="9.563947660070324"><ele>79.0</ele><time>2026-04-07T13:15:55.994Z</time></trkpt><trkpt lat="45.00951709388995" lon="9.564108083896965"><ele>79.0</ele><time>2026-04-07T13:15:57.994Z</time></trkpt><trkpt lat="45.009548058956824" lon="9.564267687705957"><ele>78.8</ele><time>2026-04-07T13:15:59.994Z</time></trkpt><trkpt lat="45.009580838313795" lon="9.564429232892582"><ele>78.60000000000001</ele><time>2026-04-07T13:16:01.994Z</time></trkpt><trkpt lat="45.00961011313007" lon="9.564573783184933"><ele>78.4</ele><time>2026-04-07T13:16:03.994Z</time></trkpt><trkpt lat="45.00963388938866" lon="9.564738143100744"><ele>78.2</ele><time>2026-04-07T13:16:05.995Z</time></trkpt><trkpt lat="45.00966003095046" lon="9.564868733023014"><ele>78.0</ele><time>2026-04-07T13:16:07.995Z</time></trkpt><trkpt lat="45.00969001653427" lon="9.56502479226672"><ele>77.8</ele><time>2026-04-07T13:16:09.995Z</time></trkpt><trkpt lat="45.00971638311363" lon="9.565168844307218"><ele>77.6</ele><time>2026-04-07T13:16:11.995Z</time></trkpt><trkpt lat="45.0097451545965" lon="9.565311713966592"><ele>77.4</ele><time>2026-04-07T13:16:13.995Z</time></trkpt><trkpt lat="45.00977615063729" lon="9.565462622394323"><ele>77.2</ele><time>2026-04-07T13:16:15.995Z</time></trkpt><trkpt lat="45.00980215153925" lon="9.565597766985361"><ele>77.0</ele><time>2026-04-07T13:16:17.995Z</time></trkpt><trkpt lat="45.00981957020961" lon="9.565726826994059"><ele>77.0</ele><time>2026-04-07T13:16:19.995Z</time></trkpt><trkpt lat="45.00984131936351" lon="9.565863156824182"><ele>77.0</ele><time>2026-04-07T13:16:21.995Z</time></trkpt><trkpt lat="45.009862021151335" lon="9.565983592199688"><ele>77.0</ele><time>2026-04-07T13:16:23.995Z</time></trkpt><trkpt lat="45.00988805148001" lon="9.566113109376436"><ele>77.0</ele><time>2026-04-07T13:16:25.995Z</time></trkpt><trkpt lat="45.00991747459022" lon="9.56624554023424"><ele>77.0</ele><time>2026-04-07T13:16:27.995Z</time></trkpt><trkpt lat="45.00994448013649" lon="9.566378763162017"><ele>77.0</ele><time>2026-04-07T13:16:29.995Z</time></trkpt><trkpt lat="45.00997370693911" lon="9.566497085682789"><ele>77.0</ele><time>2026-04-07T13:16:31.995Z</time></trkpt><trkpt lat="45.010000100501856" lon="9.566617706677048"><ele>77.0</ele><time>2026-04-07T13:16:33.995Z</time></trkpt><trkpt lat="45.01002308356437" lon="9.566738474767504"><ele>77.0</ele><time>2026-04-07T13:16:35.995Z</time></trkpt><trkpt lat="45.010054231381055" lon="9.566861629909587"><ele>77.0</ele><time>2026-04-07T13:16:37.995Z</time></trkpt><trkpt lat="45.01008371175664" lon="9.566957486666784"><ele>77.0</ele><time>2026-04-07T13:16:39.995Z</time></trkpt><trkpt lat="45.01009022666362" lon="9.56706810968676"><ele>77.0</ele><time>2026-04-07T13:16:41.995Z</time></trkpt><trkpt lat="45.01011216003586" lon="9.567185606964086"><ele>77.0</ele><time>2026-04-07T13:16:43.995Z</time></trkpt><trkpt lat="45.0101358776271" lon="9.567314904016413"><ele>77.0</ele><time>2026-04-07T13:16:45.994Z</time></trkpt><trkpt lat="45.010160627388714" lon="9.567432437904879"><ele>77.0</ele><time>2026-04-07T13:16:47.995Z</time></trkpt><trkpt lat="45.010189925311664" lon="9.567557493839812"><ele>77.0</ele><time>2026-04-07T13:16:49.994Z</time></trkpt><trkpt lat="45.010211272592706" lon="9.567675648176916"><ele>77.0</ele><time>2026-04-07T13:16:51.995Z</time></trkpt><trkpt lat="45.01024326846821" lon="9.567792378358693"><ele>77.0</ele><time>2026-04-07T13:16:53.995Z</time></trkpt><trkpt lat="45.01026130659482" lon="9.567906126976451"><ele>77.0</ele><time>2026-04-07T13:16:55.995Z</time></trkpt><trkpt lat="45.010271807412245" lon="9.568001872388466"><ele>77.0</ele><time>2026-04-07T13:16:57.995Z</time></trkpt><trkpt lat="45.010268729444256" lon="9.568095288171259"><ele>77.0</ele><time>2026-04-07T13:17:01.995Z</time></trkpt><trkpt lat="45.010311359522845" lon="9.568026031848408"><ele>77.0</ele><time>2026-04-07T13:17:04.995Z</time></trkpt><trkpt lat="45.01028762931452" lon="9.567914383483245"><ele>77.0</ele><time>2026-04-07T13:17:07.995Z</time></trkpt><trkpt lat="45.010267523695774" lon="9.567829623403446"><ele>77.0</ele><time>2026-04-07T13:17:09.995Z</time></trkpt><trkpt lat="45.01024894056317" lon="9.567743966899323"><ele>77.0</ele><time>2026-04-07T13:17:11.995Z</time></trkpt><trkpt lat="45.01023362977183" lon="9.567649709400605"><ele>77.0</ele><time>2026-04-07T13:17:13.995Z</time></trkpt><trkpt lat="45.01020715733467" lon="9.567554021411047"><ele>77.0</ele><time>2026-04-07T13:17:15.995Z</time></trkpt><trkpt lat="45.010184841660305" lon="9.567456004049484"><ele>77.0</ele><time>2026-04-07T13:17:17.995Z</time></trkpt><trkpt lat="45.010167954450736" lon="9.567347824808621"><ele>77.0</ele><time>2026-04-07T13:17:19.995Z</time></trkpt><trkpt lat="45.010149115397375" lon="9.567245198320293"><ele>77.0</ele><time>2026-04-07T13:17:21.995Z</time></trkpt><trkpt lat="45.010121268099184" lon="9.567140719753871"><ele>77.0</ele><time>2026-04-07T13:17:23.995Z</time></trkpt><trkpt lat="45.01010735010985" lon="9.567025239338447"><ele>77.0</ele><time>2026-04-07T13:17:25.995Z</time></trkpt><trkpt lat="45.01008455849114" lon="9.566915281945711"><ele>77.0</ele><time>2026-04-07T13:17:27.995Z</time></trkpt><trkpt lat="45.01006407856392" lon="9.566807535970193"><ele>77.0</ele><time>2026-04-07T13:17:29.995Z</time></trkpt><trkpt lat="45.01004037571514" lon="9.566698759423902"><ele>77.0</ele><time>2026-04-07T13:17:31.995Z</time></trkpt><trkpt lat="45.01002095401664" lon="9.566591311390551"><ele>77.0</ele><time>2026-04-07T13:17:33.995Z</time></trkpt><trkpt lat="45.00999489858078" lon="9.566481079655826"><ele>77.0</ele><time>2026-04-07T13:17:35.995Z</time></trkpt><trkpt lat="45.009969967636614" lon="9.566370772529847"><ele>77.0</ele><time>2026-04-07T13:17:37.995Z</time></trkpt><trkpt lat="45.0099467815326" lon="9.566257401222828"><ele>77.0</ele><time>2026-04-07T13:17:39.995Z</time></trkpt><trkpt lat="45.00992461602712" lon="9.56614398829175"><ele>77.0</ele><time>2026-04-07T13:17:41.995Z</time></trkpt><trkpt lat="45.009905228850734" lon="9.566035173649324"><ele>77.0</ele><time>2026-04-07T13:17:43.995Z</time></trkpt><trkpt lat="45.009884467608146" lon="9.56592333338239"><ele>77.0</ele><time>2026-04-07T13:17:45.995Z</time></trkpt><trkpt lat="45.009863673841146" lon="9.565805389002099"><ele>77.0</ele><time>2026-04-07T13:17:47.995Z</time></trkpt><trkpt lat="45.009843360977094" lon="9.565688502668378"><ele>77.0</ele><time>2026-04-07T13:17:49.995Z</time></trkpt><trkpt lat="45.00981777030991" lon="9.565574882562334"><ele>77.0</ele><time>2026-04-07T13:17:51.995Z</time></trkpt><trkpt lat="45.00979743523771" lon="9.565457525247622"><ele>77.0</ele><time>2026-04-07T13:17:53.995Z</time></trkpt><trkpt lat="45.00977534753434" lon="9.565331330314518"><ele>77.0</ele><time>2026-04-07T13:17:55.995Z</time></trkpt><trkpt lat="45.00975324319618" lon="9.56520715652157"><ele>77.0</ele><time>2026-04-07T13:17:57.995Z</time></trkpt><trkpt lat="45.00972693817236" lon="9.565086410261657"><ele>77.0</ele><time>2026-04-07T13:17:59.995Z</time></trkpt><trkpt lat="45.009702589046675" lon="9.564965260778159"><ele>77.0</ele><time>2026-04-07T13:18:01.995Z</time></trkpt><trkpt lat="45.009687587870864" lon="9.564846220345196"><ele>77.0</ele><time>2026-04-07T13:18:03.995Z</time></trkpt><trkpt lat="45.00966326343282" lon="9.564731081875374"><ele>77.0</ele><time>2026-04-07T13:18:05.995Z</time></trkpt><trkpt lat="45.00964410819505" lon="9.564609927188569"><ele>77.0</ele><time>2026-04-07T13:18:07.995Z</time></trkpt><trkpt lat="45.0096207954543" lon="9.564486125802441"><ele>77.0</ele><time>2026-04-07T13:18:09.995Z</time></trkpt><trkpt lat="45.00960002145345" lon="9.564359906315742"><ele>77.0</ele><time>2026-04-07T13:18:11.995Z</time></trkpt><trkpt lat="45.00957647715647" lon="9.564236498429558"><ele>77.16666666666667</ele><time>2026-04-07T13:18:13.995Z</time></trkpt><trkpt lat="45.00955390339381" lon="9.564111895211232"><ele>77.33333333333334</ele><time>2026-04-07T13:18:15.995Z</time></trkpt><trkpt lat="45.00953146922611" lon="9.563989947684291"><ele>77.5</ele><time>2026-04-07T13:18:17.995Z</time></trkpt><trkpt lat="45.009512321208206" lon="9.563869831982029"><ele>77.66666666666667</ele><time>2026-04-07T13:18:19.995Z</time></trkpt><trkpt lat="45.00949238131229" lon="9.563745988578365"><ele>77.83333333333333</ele><time>2026-04-07T13:18:21.995Z</time></trkpt><trkpt lat="45.00946708673402" lon="9.563626204340126"><ele>78.0</ele><time>2026-04-07T13:18:23.995Z</time></trkpt><trkpt lat="45.00944772767437" lon="9.56350765492083"><ele>78.16666666666667</ele><time>2026-04-07T13:18:25.995Z</time></trkpt><trkpt lat="45.00942760185621" lon="9.563394484449413"><ele>78.33333333333333</ele><time>2026-04-07T13:18:27.995Z</time></trkpt><trkpt lat="45.00940488842716" lon="9.56328276754877"><ele>78.5</ele><time>2026-04-07T13:18:29.995Z</time></trkpt><trkpt lat="45.00938088275617" lon="9.563165102895258"><ele>78.66666666666666</ele><time>2026-04-07T13:18:31.995Z</time></trkpt><trkpt lat="45.00935631667977" lon="9.563046753879847"><ele>78.83333333333333</ele><time>2026-04-07T13:18:33.995Z</time></trkpt><trkpt lat="45.009328854657035" lon="9.562930021229478"><ele>79.0</ele><time>2026-04-07T13:18:35.995Z</time></trkpt><trkpt lat="45.00929849948686" lon="9.562808744336463"><ele>79.16666666666666</ele><time>2026-04-07T13:18:37.995Z</time></trkpt><trkpt lat="45.009265625285586" lon="9.562690980319665"><ele>79.33333333333333</ele><time>2026-04-07T13:18:39.995Z</time></trkpt><trkpt lat="45.00923080334015" lon="9.562573234798494"><ele>79.5</ele><time>2026-04-07T13:18:41.995Z</time></trkpt><trkpt lat="45.00919071108789" lon="9.5624720964178"><ele>79.66666666666667</ele><time>2026-04-07T13:18:43.995Z</time></trkpt><trkpt lat="45.00915734015818" lon="9.56236661196789"><ele>79.83333333333334</ele><time>2026-04-07T13:18:45.994Z</time></trkpt><trkpt lat="45.009116365957446" lon="9.562272107093287"><ele>80.0</ele><time>2026-04-07T13:18:47.995Z</time></trkpt><trkpt lat="45.0090742211347" lon="9.562174949214368"><ele>80.16666666666667</ele><time>2026-04-07T13:18:49.995Z</time></trkpt><trkpt lat="45.009026672581825" lon="9.56207681739697"><ele>80.33333333333334</ele><time>2026-04-07T13:18:51.994Z</time></trkpt><trkpt lat="45.00898481364722" lon="9.56197774258324"><ele>80.5</ele><time>2026-04-07T13:18:53.994Z</time></trkpt><trkpt lat="45.00894269515496" lon="9.561886093683436"><ele>80.66666666666667</ele><time>2026-04-07T13:18:55.994Z</time></trkpt><trkpt lat="45.008896322920805" lon="9.5617964716935"><ele>80.83333333333333</ele><time>2026-04-07T13:18:57.995Z</time></trkpt><trkpt lat="45.00885396632896" lon="9.561702629274352"><ele>81.0</ele><time>2026-04-07T13:18:59.995Z</time></trkpt><trkpt lat="45.008810488304725" lon="9.561602842312269"><ele>81.16666666666667</ele><time>2026-04-07T13:19:01.995Z</time></trkpt><trkpt lat="45.00877062085525" lon="9.561505111280017"><ele>81.33333333333333</ele><time>2026-04-07T13:19:03.995Z</time></trkpt><trkpt lat="45.008728262636076" lon="9.561400270687415"><ele>81.5</ele><time>2026-04-07T13:19:05.995Z</time></trkpt><trkpt lat="45.00868447466918" lon="9.56130003429511"><ele>81.66666666666666</ele><time>2026-04-07T13:19:07.995Z</time></trkpt><trkpt lat="45.008643841257175" lon="9.5612033727155"><ele>81.83333333333333</ele><time>2026-04-07T13:19:09.995Z</time></trkpt><trkpt lat="45.00860146037236" lon="9.561113305141674"><ele>82.0</ele><time>2026-04-07T13:19:11.995Z</time></trkpt><trkpt lat="45.00856149541493" lon="9.561017471042588"><ele>81.83333333333333</ele><time>2026-04-07T13:19:13.995Z</time></trkpt><trkpt lat="45.00852270283896" lon="9.560923655873902"><ele>81.66666666666666</ele><time>2026-04-07T13:19:15.995Z</time></trkpt><trkpt lat="45.00848040152729" lon="9.560837117138044"><ele>81.5</ele><time>2026-04-07T13:19:17.995Z</time></trkpt><trkpt lat="45.008437347384394" lon="9.56074278876695"><ele>81.33333333333333</ele><time>2026-04-07T13:19:19.995Z</time></trkpt><trkpt lat="45.00839335866743" lon="9.56064850022309"><ele>81.16666666666667</ele><time>2026-04-07T13:19:21.995Z</time></trkpt><trkpt lat="45.00835135044819" lon="9.560548887388217"><ele>81.0</ele><time>2026-04-07T13:19:23.995Z</time></trkpt><trkpt lat="45.008308188516416" lon="9.560451112815349"><ele>80.83333333333333</ele><time>2026-04-07T13:19:25.995Z</time></trkpt><trkpt lat="45.00826489616942" lon="9.560357324498934"><ele>80.66666666666667</ele><time>2026-04-07T13:19:27.995Z</time></trkpt><trkpt lat="45.00822333169668" lon="9.560257097036509"><ele>80.5</ele><time>2026-04-07T13:19:29.995Z</time></trkpt><trkpt lat="45.00818046656247" lon="9.560156050033497"><ele>80.33333333333334</ele><time>2026-04-07T13:19:31.995Z</time></trkpt><trkpt lat="45.00813888719891" lon="9.56005983850932"><ele>80.16666666666667</ele><time>2026-04-07T13:19:33.995Z</time></trkpt><trkpt lat="45.00809782108077" lon="9.559968832213947"><ele>80.0</ele><time>2026-04-07T13:19:35.995Z</time></trkpt><trkpt lat="45.00804960641705" lon="9.559873766732164"><ele>80.0</ele><time>2026-04-07T13:19:37.995Z</time></trkpt><trkpt lat="45.008005948919845" lon="9.559766569016618"><ele>80.0</ele><time>2026-04-07T13:19:39.995Z</time></trkpt><trkpt lat="45.00795780520717" lon="9.559661864499946"><ele>80.0</ele><time>2026-04-07T13:19:41.995Z</time></trkpt><trkpt lat="45.007914805553874" lon="9.559562314397551"><ele>80.0</ele><time>2026-04-07T13:19:43.995Z</time></trkpt><trkpt lat="45.007872939428864" lon="9.55946397442578"><ele>80.0</ele><time>2026-04-07T13:19:45.995Z</time></trkpt><trkpt lat="45.00783400492693" lon="9.559373089391284"><ele>80.0</ele><time>2026-04-07T13:19:47.995Z</time></trkpt><trkpt lat="45.00779388914955" lon="9.559285309811909"><ele>80.14285714285714</ele><time>2026-04-07T13:19:49.995Z</time></trkpt><trkpt lat="45.00776062755742" lon="9.559202584206066"><ele>80.28571428571429</ele><time>2026-04-07T13:19:51.995Z</time></trkpt><trkpt lat="45.00772621028803" lon="9.559122739840435"><ele>80.42857142857143</ele><time>2026-04-07T13:19:53.995Z</time></trkpt><trkpt lat="45.00769736331572" lon="9.559040789609755"><ele>80.57142857142857</ele><time>2026-04-07T13:19:55.995Z</time></trkpt><trkpt lat="45.0076648551086" lon="9.558958870694587"><ele>80.71428571428571</ele><time>2026-04-07T13:19:57.995Z</time></trkpt><trkpt lat="45.00764112947353" lon="9.558866582499633"><ele>80.85714285714286</ele><time>2026-04-07T13:19:59.995Z</time></trkpt><trkpt lat="45.007610351972005" lon="9.558774748421612"><ele>81.0</ele><time>2026-04-07T13:20:01.995Z</time></trkpt><trkpt lat="45.00758229169467" lon="9.558686521372211"><ele>81.0</ele><time>2026-04-07T13:20:03.995Z</time></trkpt><trkpt lat="45.00754669106515" lon="9.558597276437245"><ele>81.0</ele><time>2026-04-07T13:20:05.995Z</time></trkpt><trkpt lat="45.00751547386637" lon="9.558504429973574"><ele>81.0</ele><time>2026-04-07T13:20:07.995Z</time></trkpt><trkpt lat="45.007478522994234" lon="9.558405411225893"><ele>81.0</ele><time>2026-04-07T13:20:09.995Z</time></trkpt><trkpt lat="45.00743945531946" lon="9.55830323127817"><ele>81.0</ele><time>2026-04-07T13:20:11.995Z</time></trkpt><trkpt lat="45.00740010548065" lon="9.558199195990836"><ele>81.0</ele><time>2026-04-07T13:20:13.995Z</time></trkpt><trkpt lat="45.007359744945674" lon="9.558084858674743"><ele>81.16666666666667</ele><time>2026-04-07T13:20:15.995Z</time></trkpt><trkpt lat="45.00732190332748" lon="9.557979722584108"><ele>81.33333333333333</ele><time>2026-04-07T13:20:17.995Z</time></trkpt><trkpt lat="45.0072856481398" lon="9.5578704613982"><ele>81.5</ele><time>2026-04-07T13:20:19.995Z</time></trkpt><trkpt lat="45.00724907805151" lon="9.557763624435495"><ele>81.66666666666666</ele><time>2026-04-07T13:20:21.995Z</time></trkpt><trkpt lat="45.007213202779894" lon="9.557646110128672"><ele>81.83333333333333</ele><time>2026-04-07T13:20:23.995Z</time></trkpt><trkpt lat="45.00717030392311" lon="9.557531059223098"><ele>82.0</ele><time>2026-04-07T13:20:25.995Z</time></trkpt><trkpt lat="45.00713539147934" lon="9.557421457140913"><ele>82.0</ele><time>2026-04-07T13:20:27.995Z</time></trkpt><trkpt lat="45.007092436947374" lon="9.557311449448939"><ele>82.0</ele><time>2026-04-07T13:20:29.995Z</time></trkpt><trkpt lat="45.00704762291983" lon="9.557200641550114"><ele>82.0</ele><time>2026-04-07T13:20:31.995Z</time></trkpt><trkpt lat="45.00700965404066" lon="9.55708986652963"><ele>82.0</ele><time>2026-04-07T13:20:33.995Z</time></trkpt><trkpt lat="45.006968092917454" lon="9.556981020047589"><ele>82.0</ele><time>2026-04-07T13:20:35.995Z</time></trkpt><trkpt lat="45.0069272594747" lon="9.556870776216158"><ele>82.0</ele><time>2026-04-07T13:20:37.996Z</time></trkpt><trkpt lat="45.00689098522009" lon="9.556754488696873"><ele>82.16666666666666</ele><time>2026-04-07T13:20:39.996Z</time></trkpt><trkpt lat="45.00685006006216" lon="9.556643573779201"><ele>82.33333333333333</ele><time>2026-04-07T13:20:41.996Z</time></trkpt><trkpt lat="45.00681008576672" lon="9.556532438696042"><ele>82.5</ele><time>2026-04-07T13:20:43.996Z</time></trkpt><trkpt lat="45.006771079635776" lon="9.556421649348774"><ele>82.66666666666667</ele><time>2026-04-07T13:20:45.996Z</time></trkpt><trkpt lat="45.006733997658856" lon="9.556316569947997"><ele>82.83333333333334</ele><time>2026-04-07T13:20:47.996Z</time></trkpt><trkpt lat="45.00670363206123" lon="9.556218102282566"><ele>83.0</ele><time>2026-04-07T13:20:49.996Z</time></trkpt><trkpt lat="45.00666458176882" lon="9.556127911465806"><ele>82.5</ele><time>2026-04-07T13:20:51.994Z</time></trkpt><trkpt lat="45.006631074411686" lon="9.556026803675664"><ele>82.0</ele><time>2026-04-07T13:20:53.994Z</time></trkpt><trkpt lat="45.006594575990974" lon="9.555927191769495"><ele>81.5</ele><time>2026-04-07T13:20:55.995Z</time></trkpt><trkpt lat="45.006562911782" lon="9.555820468248575"><ele>81.0</ele><time>2026-04-07T13:20:57.995Z</time></trkpt><trkpt lat="45.006526306152516" lon="9.555714886595558"><ele>80.5</ele><time>2026-04-07T13:20:59.994Z</time></trkpt><trkpt lat="45.00648879920619" lon="9.555614033388816"><ele>80.0</ele><time>2026-04-07T13:21:01.994Z</time></trkpt><trkpt lat="45.00645237446292" lon="9.5555051722592"><ele>80.0</ele><time>2026-04-07T13:21:03.994Z</time></trkpt><trkpt lat="45.006419842843854" lon="9.55539911799458"><ele>80.0</ele><time>2026-04-07T13:21:05.995Z</time></trkpt><trkpt lat="45.00638428244886" lon="9.555293718285336"><ele>80.0</ele><time>2026-04-07T13:21:07.995Z</time></trkpt><trkpt lat="45.00634524404551" lon="9.555185205823443"><ele>80.0</ele><time>2026-04-07T13:21:09.995Z</time></trkpt><trkpt lat="45.00630380700021" lon="9.5550834822254"><ele>80.0</ele><time>2026-04-07T13:21:11.995Z</time></trkpt><trkpt lat="45.0062655455162" lon="9.554982492379363"><ele>80.0</ele><time>2026-04-07T13:21:13.995Z</time></trkpt><trkpt lat="45.006233651629756" lon="9.554870762605969"><ele>80.33333333333334</ele><time>2026-04-07T13:21:15.995Z</time></trkpt><trkpt lat="45.0061975601182" lon="9.554757787217033"><ele>80.66666666666667</ele><time>2026-04-07T13:21:17.995Z</time></trkpt><trkpt lat="45.006162152319654" lon="9.55464838927775"><ele>81.0</ele><time>2026-04-07T13:21:19.995Z</time></trkpt><trkpt lat="45.006126397620044" lon="9.554549826234334"><ele>81.33333333333333</ele><time>2026-04-07T13:21:21.995Z</time></trkpt><trkpt lat="45.006091783095556" lon="9.554434977542593"><ele>81.66666666666666</ele><time>2026-04-07T13:21:23.995Z</time></trkpt><trkpt lat="45.00605306684586" lon="9.5543259701639"><ele>82.0</ele><time>2026-04-07T13:21:25.995Z</time></trkpt><trkpt lat="45.00601838403057" lon="9.5542088685788"><ele>82.0</ele><time>2026-04-07T13:21:27.995Z</time></trkpt><trkpt lat="45.00598068219136" lon="9.554098063793056"><ele>82.0</ele><time>2026-04-07T13:21:29.995Z</time></trkpt><trkpt lat="45.005934937677246" lon="9.553993561334485"><ele>82.0</ele><time>2026-04-07T13:21:31.995Z</time></trkpt><trkpt lat="45.00589753113551" lon="9.553889656480665"><ele>82.0</ele><time>2026-04-07T13:21:33.995Z</time></trkpt><trkpt lat="45.00585777569991" lon="9.553793440951349"><ele>82.0</ele><time>2026-04-07T13:21:35.995Z</time></trkpt><trkpt lat="45.00581835547071" lon="9.553691156694995"><ele>82.0</ele><time>2026-04-07T13:21:37.995Z</time></trkpt><trkpt lat="45.00578202015251" lon="9.55358900161449"><ele>82.0</ele><time>2026-04-07T13:21:39.995Z</time></trkpt><trkpt lat="45.005747460035906" lon="9.55347922218854"><ele>82.0</ele><time>2026-04-07T13:21:41.995Z</time></trkpt><trkpt lat="45.00571017583193" lon="9.553375074016026"><ele>82.0</ele><time>2026-04-07T13:21:43.995Z</time></trkpt><trkpt lat="45.00566838726717" lon="9.553274167691018"><ele>82.0</ele><time>2026-04-07T13:21:45.995Z</time></trkpt><trkpt lat="45.005630964712324" lon="9.553163557735745"><ele>82.0</ele><time>2026-04-07T13:21:47.995Z</time></trkpt><trkpt lat="45.00559269152574" lon="9.553057832449712"><ele>82.0</ele><time>2026-04-07T13:21:49.995Z</time></trkpt><trkpt lat="45.005552778230886" lon="9.552954278729953"><ele>82.33333333333333</ele><time>2026-04-07T13:21:51.995Z</time></trkpt><trkpt lat="45.00551765807781" lon="9.552847653024337"><ele>82.66666666666666</ele><time>2026-04-07T13:21:53.995Z</time></trkpt><trkpt lat="45.0054824438744" lon="9.552738822281915"><ele>83.0</ele><time>2026-04-07T13:21:55.995Z</time></trkpt><trkpt lat="45.005443921380675" lon="9.552627050714884"><ele>83.33333333333333</ele><time>2026-04-07T13:21:57.995Z</time></trkpt><trkpt lat="45.00540739738038" lon="9.55252328680107"><ele>83.66666666666667</ele><time>2026-04-07T13:21:59.995Z</time></trkpt><trkpt lat="45.005364422065135" lon="9.552414361722384"><ele>84.0</ele><time>2026-04-07T13:22:01.995Z</time></trkpt><trkpt lat="45.005324562259645" lon="9.55229958082939"><ele>84.0</ele><time>2026-04-07T13:22:03.995Z</time></trkpt><trkpt lat="45.00528204718764" lon="9.552194422304783"><ele>84.0</ele><time>2026-04-07T13:22:05.995Z</time></trkpt><trkpt lat="45.00524701495847" lon="9.552104265131858"><ele>84.0</ele><time>2026-04-07T13:22:07.995Z</time></trkpt><trkpt lat="45.00521387017961" lon="9.55200236741794"><ele>84.0</ele><time>2026-04-07T13:22:09.995Z</time></trkpt><trkpt lat="45.005176654980524" lon="9.551908104483449"><ele>84.0</ele><time>2026-04-07T13:22:11.995Z</time></trkpt><trkpt lat="45.00514233544592" lon="9.551818248035099"><ele>84.0</ele><time>2026-04-07T13:22:13.995Z</time></trkpt><trkpt lat="45.00511337292184" lon="9.551707549302426"><ele>84.0</ele><time>2026-04-07T13:22:15.995Z</time></trkpt><trkpt lat="45.00507188764248" lon="9.55160969702266"><ele>84.0</ele><time>2026-04-07T13:22:17.995Z</time></trkpt><trkpt lat="45.00503949067226" lon="9.551511181605674"><ele>84.0</ele><time>2026-04-07T13:22:19.995Z</time></trkpt><trkpt lat="45.00499596106563" lon="9.551416055584891"><ele>84.0</ele><time>2026-04-07T13:22:21.995Z</time></trkpt><trkpt lat="45.004958992242365" lon="9.551323449112928"><ele>84.0</ele><time>2026-04-07T13:22:23.995Z</time></trkpt><trkpt lat="45.004925719955104" lon="9.551226390899556"><ele>84.0</ele><time>2026-04-07T13:22:25.995Z</time></trkpt><trkpt lat="45.00489754958447" lon="9.55112748531949"><ele>84.0</ele><time>2026-04-07T13:22:27.995Z</time></trkpt><trkpt lat="45.00486253113196" lon="9.551028765028521"><ele>84.0</ele><time>2026-04-07T13:22:29.995Z</time></trkpt><trkpt lat="45.00482547735725" lon="9.550938212200908"><ele>84.0</ele><time>2026-04-07T13:22:31.995Z</time></trkpt><trkpt lat="45.00479477792827" lon="9.550835912074733"><ele>84.0</ele><time>2026-04-07T13:22:33.995Z</time></trkpt><trkpt lat="45.00475531908686" lon="9.550735878428549"><ele>84.0</ele><time>2026-04-07T13:22:35.995Z</time></trkpt><trkpt lat="45.00471467168424" lon="9.550637798917265"><ele>84.0</ele><time>2026-04-07T13:22:37.994Z</time></trkpt><trkpt lat="45.00468148767898" lon="9.550532741716971"><ele>84.0</ele><time>2026-04-07T13:22:39.994Z</time></trkpt><trkpt lat="45.00464357523921" lon="9.55042870571726"><ele>84.0</ele><time>2026-04-07T13:22:41.993Z</time></trkpt><trkpt lat="45.00460165354262" lon="9.550323737041962"><ele>84.0</ele><time>2026-04-07T13:22:43.992Z</time></trkpt><trkpt lat="45.0045683048832" lon="9.550228305875082"><ele>84.0</ele><time>2026-04-07T13:22:45.992Z</time></trkpt><trkpt lat="45.004537840791116" lon="9.55012984012316"><ele>84.0</ele><time>2026-04-07T13:22:47.992Z</time></trkpt><trkpt lat="45.00449922349077" lon="9.550027409670767"><ele>84.0</ele><time>2026-04-07T13:22:49.991Z</time></trkpt><trkpt lat="45.00446280438609" lon="9.549926840457541"><ele>84.0</ele><time>2026-04-07T13:22:51.991Z</time></trkpt><trkpt lat="45.00442302188468" lon="9.549828389887079"><ele>84.0</ele><time>2026-04-07T13:22:53.991Z</time></trkpt><trkpt lat="45.00438447897969" lon="9.5497203021994"><ele>84.0</ele><time>2026-04-07T13:22:55.991Z</time></trkpt><trkpt lat="45.00434821712323" lon="9.54962104051612"><ele>84.0</ele><time>2026-04-07T13:22:57.99Z</time></trkpt><trkpt lat="45.00431066084422" lon="9.549525867220142"><ele>84.0</ele><time>2026-04-07T13:22:59.99Z</time></trkpt><trkpt lat="45.0042737738852" lon="9.549425714923643"><ele>84.0</ele><time>2026-04-07T13:23:01.989Z</time></trkpt><trkpt lat="45.004233066834374" lon="9.54932753215469"><ele>84.0</ele><time>2026-04-07T13:23:03.989Z</time></trkpt><trkpt lat="45.00418879733282" lon="9.54921786853457"><ele>84.0</ele><time>2026-04-07T13:23:05.989Z</time></trkpt><trkpt lat="45.00415157966573" lon="9.549111378216699"><ele>84.0</ele><time>2026-04-07T13:23:07.988Z</time></trkpt><trkpt lat="45.0041087512177" lon="9.549005657066713"><ele>84.0</ele><time>2026-04-07T13:23:09.988Z</time></trkpt><trkpt lat="45.00407367632506" lon="9.548885775329211"><ele>84.0</ele><time>2026-04-07T13:23:11.988Z</time></trkpt><trkpt lat="45.00403057729373" lon="9.548773973598639"><ele>84.0</ele><time>2026-04-07T13:23:13.988Z</time></trkpt><trkpt lat="45.00398526648008" lon="9.548673759112624"><ele>84.33333333333333</ele><time>2026-04-07T13:23:15.988Z</time></trkpt><trkpt lat="45.00395087091926" lon="9.548565576945585"><ele>84.66666666666667</ele><time>2026-04-07T13:23:17.988Z</time></trkpt><trkpt lat="45.00391139424104" lon="9.54844852999803"><ele>85.0</ele><time>2026-04-07T13:23:19.988Z</time></trkpt><trkpt lat="45.003873857663585" lon="9.548338611365006"><ele>85.33333333333334</ele><time>2026-04-07T13:23:21.988Z</time></trkpt><trkpt lat="45.00383690776676" lon="9.548234034153417"><ele>85.66666666666667</ele><time>2026-04-07T13:23:23.988Z</time></trkpt><trkpt lat="45.00379757945426" lon="9.54812978085507"><ele>86.0</ele><time>2026-04-07T13:23:25.988Z</time></trkpt><trkpt lat="45.00376212386759" lon="9.54803104782085"><ele>86.0</ele><time>2026-04-07T13:23:27.988Z</time></trkpt><trkpt lat="45.00372944493423" lon="9.547939007468424"><ele>86.0</ele><time>2026-04-07T13:23:29.988Z</time></trkpt><trkpt lat="45.0036910499922" lon="9.547835432443817"><ele>86.0</ele><time>2026-04-07T13:23:31.988Z</time></trkpt><trkpt lat="45.00365526094702" lon="9.547727292391405"><ele>86.0</ele><time>2026-04-07T13:23:33.988Z</time></trkpt><trkpt lat="45.00361490932915" lon="9.547628900033652"><ele>86.0</ele><time>2026-04-07T13:23:35.988Z</time></trkpt><trkpt lat="45.0035824727337" lon="9.547537419341603"><ele>86.0</ele><time>2026-04-07T13:23:37.988Z</time></trkpt><trkpt lat="45.00355333058567" lon="9.547442926884855"><ele>86.00000000000001</ele><time>2026-04-07T13:23:39.988Z</time></trkpt><trkpt lat="45.00351992406873" lon="9.547351337989479"><ele>86.0</ele><time>2026-04-07T13:23:41.988Z</time></trkpt><trkpt lat="45.003489831531745" lon="9.547259241514695"><ele>86.0</ele><time>2026-04-07T13:23:43.988Z</time></trkpt><trkpt lat="45.00345875302326" lon="9.547170003196834"><ele>86.0</ele><time>2026-04-07T13:23:45.988Z</time></trkpt><trkpt lat="45.003429739997365" lon="9.547077397073043"><ele>86.0</ele><time>2026-04-07T13:23:47.988Z</time></trkpt><trkpt lat="45.00338405610735" lon="9.546990416957708"><ele>86.00000000000001</ele><time>2026-04-07T13:23:49.988Z</time></trkpt><trkpt lat="45.00335021313543" lon="9.546899312692764"><ele>86.0</ele><time>2026-04-07T13:23:51.988Z</time></trkpt><trkpt lat="45.003318009418926" lon="9.546799324650745"><ele>86.00000000000001</ele><time>2026-04-07T13:23:53.988Z</time></trkpt><trkpt lat="45.00328992849817" lon="9.546711268509906"><ele>86.0</ele><time>2026-04-07T13:23:55.988Z</time></trkpt><trkpt lat="45.003245671199245" lon="9.546618414540378"><ele>86.0</ele><time>2026-04-07T13:23:57.988Z</time></trkpt><trkpt lat="45.00320250277802" lon="9.546519555149434"><ele>86.0</ele><time>2026-04-07T13:23:59.988Z</time></trkpt><trkpt lat="45.00316543415498" lon="9.546421635975218"><ele>86.0</ele><time>2026-04-07T13:24:01.988Z</time></trkpt><trkpt lat="45.00312833922502" lon="9.546335553439095"><ele>86.00000000000001</ele><time>2026-04-07T13:24:03.988Z</time></trkpt><trkpt lat="45.003115842627395" lon="9.546239206987696"><ele>86.0</ele><time>2026-04-07T13:24:05.988Z</time></trkpt><trkpt lat="45.00317921134842" lon="9.546152575509433"><ele>86.0</ele><time>2026-04-07T13:24:07.988Z</time></trkpt><trkpt lat="45.00327250162302" lon="9.54613179727198"><ele>86.0</ele><time>2026-04-07T13:24:09.988Z</time></trkpt><trkpt lat="45.00335941123648" lon="9.54615505753806"><ele>86.0</ele><time>2026-04-07T13:24:11.988Z</time></trkpt><trkpt lat="45.00345128949906" lon="9.546160430310389"><ele>86.0</ele><time>2026-04-07T13:24:13.988Z</time></trkpt><trkpt lat="45.003547863416664" lon="9.546155708976801"><ele>86.0</ele><time>2026-04-07T13:24:15.988Z</time></trkpt><trkpt lat="45.0036491898209" lon="9.546151188670805"><ele>85.8</ele><time>2026-04-07T13:24:17.988Z</time></trkpt><trkpt lat="45.003747262592306" lon="9.546151166299687"><ele>85.6</ele><time>2026-04-07T13:24:19.988Z</time></trkpt><trkpt lat="45.00384551056685" lon="9.546153059307533"><ele>85.4</ele><time>2026-04-07T13:24:21.988Z</time></trkpt><trkpt lat="45.00394087003307" lon="9.546153306490707"><ele>85.2</ele><time>2026-04-07T13:24:23.988Z</time></trkpt><trkpt lat="45.004035905848156" lon="9.54616289826236"><ele>85.0</ele><time>2026-04-07T13:24:25.988Z</time></trkpt><trkpt lat="45.0041288178308" lon="9.546159318572997"><ele>84.6</ele><time>2026-04-07T13:24:27.988Z</time></trkpt><trkpt lat="45.00422675326696" lon="9.546152793149362"><ele>84.2</ele><time>2026-04-07T13:24:29.988Z</time></trkpt><trkpt lat="45.004321649058014" lon="9.546158748848894"><ele>83.80000000000001</ele><time>2026-04-07T13:24:31.988Z</time></trkpt><trkpt lat="45.00441680004961" lon="9.546154652335266"><ele>83.4</ele><time>2026-04-07T13:24:33.988Z</time></trkpt><trkpt lat="45.004513898123534" lon="9.546156446072152"><ele>83.0</ele><time>2026-04-07T13:24:35.988Z</time></trkpt><trkpt lat="45.004609570819525" lon="9.546158692258814"><ele>83.0</ele><time>2026-04-07T13:24:37.988Z</time></trkpt><trkpt lat="45.00470728606537" lon="9.546152997406585"><ele>83.0</ele><time>2026-04-07T13:24:39.988Z</time></trkpt><trkpt lat="45.004805126674064" lon="9.54614708150215"><ele>83.0</ele><time>2026-04-07T13:24:41.988Z</time></trkpt><trkpt lat="45.00490751598115" lon="9.546144869560532"><ele>83.0</ele><time>2026-04-07T13:24:43.988Z</time></trkpt><trkpt lat="45.00500500600011" lon="9.54614758904814"><ele>83.0</ele><time>2026-04-07T13:24:45.988Z</time></trkpt><trkpt lat="45.0051011901408" lon="9.546145396805358"><ele>82.80000000000001</ele><time>2026-04-07T13:24:47.988Z</time></trkpt><trkpt lat="45.0052033547473" lon="9.546144263989511"><ele>82.6</ele><time>2026-04-07T13:24:49.988Z</time></trkpt><trkpt lat="45.00530590939084" lon="9.546151304884745"><ele>82.4</ele><time>2026-04-07T13:24:51.988Z</time></trkpt><trkpt lat="45.00540585233385" lon="9.546144993935963"><ele>82.19999999999999</ele><time>2026-04-07T13:24:53.988Z</time></trkpt><trkpt lat="45.00551012831951" lon="9.546144879780051"><ele>82.0</ele><time>2026-04-07T13:24:55.988Z</time></trkpt><trkpt lat="45.00561286624863" lon="9.546142409028597"><ele>82.0</ele><time>2026-04-07T13:24:57.988Z</time></trkpt><trkpt lat="45.005712708743395" lon="9.546151951043418"><ele>82.0</ele><time>2026-04-07T13:24:59.988Z</time></trkpt><trkpt lat="45.00581754757249" lon="9.546147985323827"><ele>82.0</ele><time>2026-04-07T13:25:01.988Z</time></trkpt><trkpt lat="45.005919730489374" lon="9.54613886227467"><ele>82.0</ele><time>2026-04-07T13:25:03.988Z</time></trkpt><trkpt lat="45.006019347026715" lon="9.546135419617844"><ele>82.0</ele><time>2026-04-07T13:25:05.987Z</time></trkpt><trkpt lat="45.006119004658544" lon="9.546130865533778"><ele>82.39999999999999</ele><time>2026-04-07T13:25:07.987Z</time></trkpt><trkpt lat="45.006218508901405" lon="9.546137298758826"><ele>82.8</ele><time>2026-04-07T13:25:09.988Z</time></trkpt><trkpt lat="45.006327728325495" lon="9.54613598166671"><ele>83.2</ele><time>2026-04-07T13:25:11.988Z</time></trkpt><trkpt lat="45.006428582589194" lon="9.54612945783155"><ele>83.6</ele><time>2026-04-07T13:25:13.987Z</time></trkpt><trkpt lat="45.00652416740663" lon="9.546129902473565"><ele>84.0</ele><time>2026-04-07T13:25:15.988Z</time></trkpt><trkpt lat="45.006615922359" lon="9.546130296510885"><ele>83.4</ele><time>2026-04-07T13:25:17.988Z</time></trkpt><trkpt lat="45.00671143894202" lon="9.54613945980428"><ele>82.80000000000001</ele><time>2026-04-07T13:25:19.988Z</time></trkpt><trkpt lat="45.00681046642196" lon="9.5461426247458"><ele>82.19999999999999</ele><time>2026-04-07T13:25:21.988Z</time></trkpt><trkpt lat="45.00690385339101" lon="9.546142172694879"><ele>81.6</ele><time>2026-04-07T13:25:23.988Z</time></trkpt><trkpt lat="45.00700049614469" lon="9.546146445151239"><ele>81.0</ele><time>2026-04-07T13:25:25.988Z</time></trkpt><trkpt lat="45.007089914649434" lon="9.546142857159813"><ele>81.0</ele><time>2026-04-07T13:25:27.988Z</time></trkpt><trkpt lat="45.00718131967247" lon="9.546143141055728"><ele>81.0</ele><time>2026-04-07T13:25:29.988Z</time></trkpt><trkpt lat="45.007278472809595" lon="9.546145633036788"><ele>81.0</ele><time>2026-04-07T13:25:31.988Z</time></trkpt><trkpt lat="45.00737657566019" lon="9.54614587875035"><ele>81.0</ele><time>2026-04-07T13:25:33.988Z</time></trkpt><trkpt lat="45.007466895646935" lon="9.546147222045807"><ele>81.0</ele><time>2026-04-07T13:25:35.988Z</time></trkpt><trkpt lat="45.00756213808382" lon="9.546148581617624"><ele>81.0</ele><time>2026-04-07T13:25:37.988Z</time></trkpt><trkpt lat="45.007664476933805" lon="9.546153051704604"><ele>81.0</ele><time>2026-04-07T13:25:39.988Z</time></trkpt><trkpt lat="45.007768838159954" lon="9.546156002399089"><ele>81.0</ele><time>2026-04-07T13:25:41.988Z</time></trkpt><trkpt lat="45.00787583583102" lon="9.546165675849426"><ele>81.0</ele><time>2026-04-07T13:25:43.988Z</time></trkpt><trkpt lat="45.00798227000817" lon="9.546164573890088"><ele>81.0</ele><time>2026-04-07T13:25:45.988Z</time></trkpt><trkpt lat="45.00809862536873" lon="9.546174880772"><ele>81.0</ele><time>2026-04-07T13:25:47.988Z</time></trkpt><trkpt lat="45.00820569115501" lon="9.54618271669649"><ele>81.0</ele><time>2026-04-07T13:25:49.988Z</time></trkpt><trkpt lat="45.008314607687545" lon="9.546188740322314"><ele>81.0</ele><time>2026-04-07T13:25:51.988Z</time></trkpt><trkpt lat="45.008427451368455" lon="9.54620040533968"><ele>81.0</ele><time>2026-04-07T13:25:53.988Z</time></trkpt><trkpt lat="45.00854429554215" lon="9.546202045613796"><ele>81.0</ele><time>2026-04-07T13:25:55.988Z</time></trkpt><trkpt lat="45.00865866976629" lon="9.546210487582087"><ele>80.75</ele><time>2026-04-07T13:25:57.988Z</time></trkpt><trkpt lat="45.008773950374206" lon="9.54622210294043"><ele>80.5</ele><time>2026-04-07T13:25:59.988Z</time></trkpt><trkpt lat="45.008883586818676" lon="9.546227290756317"><ele>80.25</ele><time>2026-04-07T13:26:01.988Z</time></trkpt><trkpt lat="45.00899684268062" lon="9.54623700480216"><ele>80.0</ele><time>2026-04-07T13:26:03.988Z</time></trkpt><trkpt lat="45.00911043701657" lon="9.546241927642354"><ele>80.0</ele><time>2026-04-07T13:26:05.988Z</time></trkpt><trkpt lat="45.00922261293081" lon="9.546247833013057"><ele>80.0</ele><time>2026-04-07T13:26:07.988Z</time></trkpt><trkpt lat="45.00933732128359" lon="9.546258093563138"><ele>80.0</ele><time>2026-04-07T13:26:09.988Z</time></trkpt><trkpt lat="45.00945041816805" lon="9.546265611860884"><ele>80.0</ele><time>2026-04-07T13:26:11.988Z</time></trkpt><trkpt lat="45.009561932486854" lon="9.546273414661819"><ele>80.0</ele><time>2026-04-07T13:26:13.988Z</time></trkpt><trkpt lat="45.00966180940983" lon="9.546265784838361"><ele>80.0</ele><time>2026-04-07T13:26:15.988Z</time></trkpt><trkpt lat="45.00976885638675" lon="9.54627040451483"><ele>80.0</ele><time>2026-04-07T13:26:17.988Z</time></trkpt><trkpt lat="45.00987597228937" lon="9.54628111619478"><ele>80.0</ele><time>2026-04-07T13:26:19.988Z</time></trkpt><trkpt lat="45.00997878631372" lon="9.546299710834015"><ele>80.0</ele><time>2026-04-07T13:26:21.988Z</time></trkpt><trkpt lat="45.010085417050064" lon="9.546308515506984"><ele>79.6</ele><time>2026-04-07T13:26:23.988Z</time></trkpt><trkpt lat="45.01018669032351" lon="9.546312222749775"><ele>79.2</ele><time>2026-04-07T13:26:25.988Z</time></trkpt><trkpt lat="45.01029133853367" lon="9.546313967901652"><ele>78.8</ele><time>2026-04-07T13:26:27.988Z</time></trkpt><trkpt lat="45.01040049936926" lon="9.546323593655687"><ele>78.4</ele><time>2026-04-07T13:26:29.988Z</time></trkpt><trkpt lat="45.01051103658917" lon="9.546329530025353"><ele>78.0</ele><time>2026-04-07T13:26:31.988Z</time></trkpt><trkpt lat="45.010618468716885" lon="9.546340886545071"><ele>78.0</ele><time>2026-04-07T13:26:33.988Z</time></trkpt><trkpt lat="45.01072364464088" lon="9.546347216812645"><ele>78.0</ele><time>2026-04-07T13:26:35.988Z</time></trkpt><trkpt lat="45.010828392050826" lon="9.546356983964962"><ele>78.0</ele><time>2026-04-07T13:26:37.988Z</time></trkpt><trkpt lat="45.010931498363206" lon="9.546366501792413"><ele>78.0</ele><time>2026-04-07T13:26:39.988Z</time></trkpt><trkpt lat="45.01103520847385" lon="9.546369476751478"><ele>78.0</ele><time>2026-04-07T13:26:41.988Z</time></trkpt><trkpt lat="45.011139432476575" lon="9.546373051322318"><ele>78.2</ele><time>2026-04-07T13:26:43.988Z</time></trkpt><trkpt lat="45.01124066947667" lon="9.546376360752914"><ele>78.4</ele><time>2026-04-07T13:26:45.988Z</time></trkpt><trkpt lat="45.01134328159858" lon="9.54638374876748"><ele>78.60000000000001</ele><time>2026-04-07T13:26:47.988Z</time></trkpt><trkpt lat="45.01144298313344" lon="9.546388015430349"><ele>78.8</ele><time>2026-04-07T13:26:49.988Z</time></trkpt><trkpt lat="45.01154619887939" lon="9.546392510982493"><ele>79.0</ele><time>2026-04-07T13:26:51.988Z</time></trkpt><trkpt lat="45.01164547676278" lon="9.546398474656444"><ele>78.60000000000001</ele><time>2026-04-07T13:26:53.988Z</time></trkpt><trkpt lat="45.01175039338268" lon="9.546410526482143"><ele>78.2</ele><time>2026-04-07T13:26:55.988Z</time></trkpt><trkpt lat="45.01185920790163" lon="9.546415500071275"><ele>77.80000000000001</ele><time>2026-04-07T13:26:57.988Z</time></trkpt><trkpt lat="45.01196654372327" lon="9.546413688136937"><ele>77.4</ele><time>2026-04-07T13:26:59.988Z</time></trkpt><trkpt lat="45.01207805519363" lon="9.546425359985625"><ele>77.0</ele><time>2026-04-07T13:27:01.988Z</time></trkpt><trkpt lat="45.01218906217804" lon="9.546431879680231"><ele>77.0</ele><time>2026-04-07T13:27:03.989Z</time></trkpt><trkpt lat="45.012299573253244" lon="9.546434621020776"><ele>77.0</ele><time>2026-04-07T13:27:05.989Z</time></trkpt><trkpt lat="45.01240469388598" lon="9.546441701265138"><ele>77.0</ele><time>2026-04-07T13:27:07.989Z</time></trkpt><trkpt lat="45.01250932114803" lon="9.546449735051844"><ele>77.0</ele><time>2026-04-07T13:27:09.988Z</time></trkpt><trkpt lat="45.01261594153482" lon="9.546444411021843"><ele>77.0</ele><time>2026-04-07T13:27:11.987Z</time></trkpt><trkpt lat="45.01272554695235" lon="9.546442314202464"><ele>77.2</ele><time>2026-04-07T13:27:13.987Z</time></trkpt><trkpt lat="45.012835356071015" lon="9.546438446669232"><ele>77.4</ele><time>2026-04-07T13:27:15.987Z</time></trkpt><trkpt lat="45.01293835468998" lon="9.546430513956278"><ele>77.6</ele><time>2026-04-07T13:27:17.987Z</time></trkpt><trkpt lat="45.01303853419421" lon="9.546433812265608"><ele>77.8</ele><time>2026-04-07T13:27:19.987Z</time></trkpt><trkpt lat="45.01313394562993" lon="9.546431570416983"><ele>78.0</ele><time>2026-04-07T13:27:21.987Z</time></trkpt><trkpt lat="45.01322472530229" lon="9.546424951822463"><ele>78.0</ele><time>2026-04-07T13:27:23.987Z</time></trkpt><trkpt lat="45.0133176455649" lon="9.546422445765968"><ele>78.0</ele><time>2026-04-07T13:27:25.987Z</time></trkpt><trkpt lat="45.01341215788289" lon="9.54641625243697"><ele>78.0</ele><time>2026-04-07T13:27:27.987Z</time></trkpt><trkpt lat="45.013505774982434" lon="9.546405674327689"><ele>78.0</ele><time>2026-04-07T13:27:29.987Z</time></trkpt><trkpt lat="45.01360298295941" lon="9.54640343684374"><ele>78.0</ele><time>2026-04-07T13:27:31.987Z</time></trkpt><trkpt lat="45.013700613340404" lon="9.546403616251196"><ele>78.16666666666667</ele><time>2026-04-07T13:27:33.987Z</time></trkpt><trkpt lat="45.01379473781266" lon="9.546400808010649"><ele>78.33333333333333</ele><time>2026-04-07T13:27:35.987Z</time></trkpt><trkpt lat="45.01388078819211" lon="9.546394029545272"><ele>78.5</ele><time>2026-04-07T13:27:37.987Z</time></trkpt><trkpt lat="45.013970759286714" lon="9.546399721252124"><ele>78.66666666666666</ele><time>2026-04-07T13:27:39.987Z</time></trkpt><trkpt lat="45.01405479240357" lon="9.54639100890477"><ele>78.83333333333333</ele><time>2026-04-07T13:27:41.987Z</time></trkpt><trkpt lat="45.01414053446422" lon="9.546394158656646"><ele>79.0</ele><time>2026-04-07T13:27:43.987Z</time></trkpt><trkpt lat="45.014229303629904" lon="9.546393908177636"><ele>78.60000000000001</ele><time>2026-04-07T13:27:45.987Z</time></trkpt><trkpt lat="45.014321328087696" lon="9.54639568914457"><ele>78.2</ele><time>2026-04-07T13:27:47.987Z</time></trkpt><trkpt lat="45.014411218692" lon="9.546391720489902"><ele>77.80000000000001</ele><time>2026-04-07T13:27:49.987Z</time></trkpt><trkpt lat="45.01450761733195" lon="9.54639018463882"><ele>77.4</ele><time>2026-04-07T13:27:51.987Z</time></trkpt><trkpt lat="45.01460329750534" lon="9.546376346003662"><ele>77.0</ele><time>2026-04-07T13:27:53.987Z</time></trkpt><trkpt lat="45.01469624228185" lon="9.546376089969034"><ele>77.0</ele><time>2026-04-07T13:27:55.987Z</time></trkpt><trkpt lat="45.01478949146778" lon="9.546373697123675"><ele>77.0</ele><time>2026-04-07T13:27:57.987Z</time></trkpt><trkpt lat="45.01488101230918" lon="9.54637132290286"><ele>77.0</ele><time>2026-04-07T13:27:59.987Z</time></trkpt><trkpt lat="45.01497281221794" lon="9.546368321843305"><ele>77.0</ele><time>2026-04-07T13:28:01.987Z</time></trkpt><trkpt lat="45.01506865248727" lon="9.546367290782914"><ele>77.0</ele><time>2026-04-07T13:28:03.987Z</time></trkpt><trkpt lat="45.015168243182984" lon="9.546367237564333"><ele>76.8</ele><time>2026-04-07T13:28:05.987Z</time></trkpt><trkpt lat="45.01526916311729" lon="9.54636355061023"><ele>76.6</ele><time>2026-04-07T13:28:07.987Z</time></trkpt><trkpt lat="45.01536788946394" lon="9.54635411721148"><ele>76.39999999999999</ele><time>2026-04-07T13:28:09.987Z</time></trkpt><trkpt lat="45.015469852352375" lon="9.54635084739777"><ele>76.2</ele><time>2026-04-07T13:28:11.987Z</time></trkpt><trkpt lat="45.01556751448521" lon="9.546343624929904"><ele>76.0</ele><time>2026-04-07T13:28:13.987Z</time></trkpt><trkpt lat="45.015666433520494" lon="9.546338229182421"><ele>76.0</ele><time>2026-04-07T13:28:15.987Z</time></trkpt><trkpt lat="45.015758613454864" lon="9.546336041387491"><ele>76.0</ele><time>2026-04-07T13:28:17.987Z</time></trkpt><trkpt lat="45.01584549984535" lon="9.546333421172266"><ele>76.0</ele><time>2026-04-07T13:28:19.987Z</time></trkpt><trkpt lat="45.01592641897583" lon="9.546332548064864"><ele>76.0</ele><time>2026-04-07T13:28:21.987Z</time></trkpt><trkpt lat="45.01599797699072" lon="9.546334191133584"><ele>76.0</ele><time>2026-04-07T13:28:23.987Z</time></trkpt><trkpt lat="45.01606820194779" lon="9.54633458509821"><ele>76.0</ele><time>2026-04-07T13:28:25.987Z</time></trkpt><trkpt lat="45.01613125218066" lon="9.546337659922626"><ele>76.16666666666666</ele><time>2026-04-07T13:28:27.987Z</time></trkpt><trkpt lat="45.016197527613215" lon="9.546329997356793"><ele>76.33333333333333</ele><time>2026-04-07T13:28:29.987Z</time></trkpt><trkpt lat="45.016274167953185" lon="9.54632603950895"><ele>76.5</ele><time>2026-04-07T13:28:31.987Z</time></trkpt><trkpt lat="45.016360231248186" lon="9.546328279007776"><ele>76.66666666666667</ele><time>2026-04-07T13:28:33.987Z</time></trkpt><trkpt lat="45.01645111544016" lon="9.546329207576234"><ele>76.83333333333334</ele><time>2026-04-07T13:28:35.987Z</time></trkpt><trkpt lat="45.01654296642458" lon="9.546327390614785"><ele>77.0</ele><time>2026-04-07T13:28:37.988Z</time></trkpt><trkpt lat="45.01663583838512" lon="9.546323172535374"><ele>77.0</ele><time>2026-04-07T13:28:39.988Z</time></trkpt><trkpt lat="45.01673067948729" lon="9.546322646486948"><ele>77.0</ele><time>2026-04-07T13:28:41.988Z</time></trkpt><trkpt lat="45.01681995274914" lon="9.546326278651009"><ele>77.0</ele><time>2026-04-07T13:28:43.988Z</time></trkpt><trkpt lat="45.016914776234174" lon="9.546324172930575"><ele>77.0</ele><time>2026-04-07T13:28:45.988Z</time></trkpt><trkpt lat="45.017007016069435" lon="9.54632064470906"><ele>77.0</ele><time>2026-04-07T13:28:47.988Z</time></trkpt><trkpt lat="45.017102607380146" lon="9.546322019266182"><ele>77.0</ele><time>2026-04-07T13:28:49.988Z</time></trkpt><trkpt lat="45.01719469592048" lon="9.546323713932756"><ele>77.0</ele><time>2026-04-07T13:28:51.988Z</time></trkpt><trkpt lat="45.01729241265247" lon="9.546306380968302"><ele>77.0</ele><time>2026-04-07T13:28:53.988Z</time></trkpt><trkpt lat="45.017385612093655" lon="9.546313714373975"><ele>77.0</ele><time>2026-04-07T13:28:55.988Z</time></trkpt><trkpt lat="45.01748257771215" lon="9.546321203102805"><ele>77.0</ele><time>2026-04-07T13:28:57.988Z</time></trkpt><trkpt lat="45.017570238650485" lon="9.546367495064114"><ele>77.0</ele><time>2026-04-07T13:28:59.988Z</time></trkpt><trkpt lat="45.01765255687378" lon="9.546426745503148"><ele>77.0</ele><time>2026-04-07T13:29:01.988Z</time></trkpt><trkpt lat="45.01773700372719" lon="9.546477721722376"><ele>77.0</ele><time>2026-04-07T13:29:03.988Z</time></trkpt><trkpt lat="45.01782470338268" lon="9.546472066138147"><ele>77.0</ele><time>2026-04-07T13:29:05.988Z</time></trkpt><trkpt lat="45.01790721205987" lon="9.54641026170582"><ele>77.0</ele><time>2026-04-07T13:29:07.988Z</time></trkpt><trkpt lat="45.01797844212623" lon="9.546305820222198"><ele>76.8</ele><time>2026-04-07T13:29:09.988Z</time></trkpt><trkpt lat="45.018042961999214" lon="9.546200006055567"><ele>76.6</ele><time>2026-04-07T13:29:11.988Z</time></trkpt><trkpt lat="45.0181284264438" lon="9.54612164482022"><ele>76.39999999999999</ele><time>2026-04-07T13:29:13.988Z</time></trkpt><trkpt lat="45.018226907474414" lon="9.546076100870861"><ele>76.2</ele><time>2026-04-07T13:29:15.987Z</time></trkpt><trkpt lat="45.01832919546135" lon="9.546068849570661"><ele>76.0</ele><time>2026-04-07T13:29:17.987Z</time></trkpt><trkpt lat="45.01843479313424" lon="9.546095491347197"><ele>76.0</ele><time>2026-04-07T13:29:19.987Z</time></trkpt><trkpt lat="45.01853598411675" lon="9.546157285820712"><ele>76.0</ele><time>2026-04-07T13:29:21.987Z</time></trkpt><trkpt lat="45.01864046690663" lon="9.546205434948758"><ele>76.0</ele><time>2026-04-07T13:29:23.987Z</time></trkpt><trkpt lat="45.01874187409959" lon="9.546244498800366"><ele>76.0</ele><time>2026-04-07T13:29:25.987Z</time></trkpt><trkpt lat="45.01884195974464" lon="9.546236374297543"><ele>76.0</ele><time>2026-04-07T13:29:27.987Z</time></trkpt><trkpt lat="45.01893759531544" lon="9.546196092007253"><ele>75.8</ele><time>2026-04-07T13:29:29.987Z</time></trkpt><trkpt lat="45.01903014297231" lon="9.546147689336667"><ele>75.6</ele><time>2026-04-07T13:29:31.987Z</time></trkpt><trkpt lat="45.01912204118585" lon="9.54609208152644"><ele>75.4</ele><time>2026-04-07T13:29:33.987Z</time></trkpt><trkpt lat="45.01921914459965" lon="9.546043489958855"><ele>75.2</ele><time>2026-04-07T13:29:35.987Z</time></trkpt><trkpt lat="45.01930178332154" lon="9.545996287225993"><ele>75.0</ele><time>2026-04-07T13:29:37.987Z</time></trkpt><trkpt lat="45.01939906623282" lon="9.545953723405395"><ele>75.0</ele><time>2026-04-07T13:29:39.987Z</time></trkpt><trkpt lat="45.01949736145283" lon="9.545904249808473"><ele>75.0</ele><time>2026-04-07T13:29:41.987Z</time></trkpt><trkpt lat="45.01959061263515" lon="9.545849933589217"><ele>75.0</ele><time>2026-04-07T13:29:43.987Z</time></trkpt><trkpt lat="45.01968372528254" lon="9.54580406823722"><ele>75.0</ele><time>2026-04-07T13:29:45.987Z</time></trkpt><trkpt lat="45.01977299734414" lon="9.545747984599632"><ele>75.0</ele><time>2026-04-07T13:29:47.987Z</time></trkpt><trkpt lat="45.01986338416523" lon="9.545694672414033"><ele>75.0</ele><time>2026-04-07T13:29:49.987Z</time></trkpt><trkpt lat="45.01995749636087" lon="9.545647720651399"><ele>75.0</ele><time>2026-04-07T13:29:51.987Z</time></trkpt><trkpt lat="45.02005118305738" lon="9.545593673681456"><ele>75.0</ele><time>2026-04-07T13:29:53.987Z</time></trkpt><trkpt lat="45.020143609708946" lon="9.545548208268436"><ele>75.0</ele><time>2026-04-07T13:29:55.987Z</time></trkpt><trkpt lat="45.02023693780627" lon="9.545503293605657"><ele>75.0</ele><time>2026-04-07T13:29:57.987Z</time></trkpt><trkpt lat="45.02033045063972" lon="9.545454535936516"><ele>74.8</ele><time>2026-04-07T13:29:59.987Z</time></trkpt><trkpt lat="45.020415185693125" lon="9.545397051585724"><ele>74.6</ele><time>2026-04-07T13:30:01.987Z</time></trkpt><trkpt lat="45.020510334553244" lon="9.545344485423247"><ele>74.4</ele><time>2026-04-07T13:30:03.987Z</time></trkpt><trkpt lat="45.0206014866317" lon="9.545300902299704"><ele>74.2</ele><time>2026-04-07T13:30:05.987Z</time></trkpt><trkpt lat="45.02069034397604" lon="9.545249756067735"><ele>74.0</ele><time>2026-04-07T13:30:07.987Z</time></trkpt><trkpt lat="45.02078102487591" lon="9.545206183924652"><ele>74.2</ele><time>2026-04-07T13:30:09.987Z</time></trkpt><trkpt lat="45.02087198222885" lon="9.545156632667362"><ele>74.4</ele><time>2026-04-07T13:30:11.987Z</time></trkpt><trkpt lat="45.020963492508194" lon="9.545109315444153"><ele>74.6</ele><time>2026-04-07T13:30:13.987Z</time></trkpt><trkpt lat="45.021055997917045" lon="9.545066170198043"><ele>74.8</ele><time>2026-04-07T13:30:15.987Z</time></trkpt><trkpt lat="45.02114815265467" lon="9.545012354689726"><ele>75.0</ele><time>2026-04-07T13:30:17.987Z</time></trkpt><trkpt lat="45.0212425121053" lon="9.544965771331709"><ele>75.0</ele><time>2026-04-07T13:30:19.987Z</time></trkpt><trkpt lat="45.021335180699296" lon="9.544915804562812"><ele>75.0</ele><time>2026-04-07T13:30:21.987Z</time></trkpt><trkpt lat="45.021425042995524" lon="9.544870711336966"><ele>75.0</ele><time>2026-04-07T13:30:23.987Z</time></trkpt><trkpt lat="45.02151196368382" lon="9.544823056228969"><ele>75.0</ele><time>2026-04-07T13:30:25.988Z</time></trkpt><trkpt lat="45.02159948010884" lon="9.544774009976717"><ele>75.0</ele><time>2026-04-07T13:30:27.988Z</time></trkpt><trkpt lat="45.021687190886695" lon="9.544733029441955"><ele>75.0</ele><time>2026-04-07T13:30:29.988Z</time></trkpt><trkpt lat="45.02177899239123" lon="9.54468341514609"><ele>75.0</ele><time>2026-04-07T13:30:31.988Z</time></trkpt><trkpt lat="45.021869939617154" lon="9.54463444864256"><ele>75.0</ele><time>2026-04-07T13:30:33.988Z</time></trkpt><trkpt lat="45.02195636561073" lon="9.544588193501609"><ele>75.0</ele><time>2026-04-07T13:30:35.988Z</time></trkpt><trkpt lat="45.02204156088056" lon="9.544543121118753"><ele>75.0</ele><time>2026-04-07T13:30:37.988Z</time></trkpt><trkpt lat="45.0221295074401" lon="9.544496950407604"><ele>75.0</ele><time>2026-04-07T13:30:39.988Z</time></trkpt><trkpt lat="45.02221800437211" lon="9.544448441122492"><ele>75.0</ele><time>2026-04-07T13:30:41.988Z</time></trkpt><trkpt lat="45.02230884533894" lon="9.544403705649044"><ele>75.0</ele><time>2026-04-07T13:30:43.988Z</time></trkpt><trkpt lat="45.022401799823825" lon="9.544355227997709"><ele>75.0</ele><time>2026-04-07T13:30:45.988Z</time></trkpt><trkpt lat="45.02249079225659" lon="9.544307868903898"><ele>75.0</ele><time>2026-04-07T13:30:47.988Z</time></trkpt><trkpt lat="45.02257518939399" lon="9.544263446179608"><ele>75.16666666666667</ele><time>2026-04-07T13:30:49.988Z</time></trkpt><trkpt lat="45.022657080944334" lon="9.544218209237574"><ele>75.33333333333333</ele><time>2026-04-07T13:30:51.988Z</time></trkpt><trkpt lat="45.022723370355656" lon="9.544188116769584"><ele>75.5</ele><time>2026-04-07T13:30:53.988Z</time></trkpt><trkpt lat="45.02279161392773" lon="9.544166309852688"><ele>75.66666666666666</ele><time>2026-04-07T13:30:55.988Z</time></trkpt><trkpt lat="45.022870159210484" lon="9.544152616341457"><ele>75.83333333333333</ele><time>2026-04-07T13:30:57.988Z</time></trkpt><trkpt lat="45.022948489090844" lon="9.544212478043171"><ele>76.0</ele><time>2026-04-07T13:30:59.988Z</time></trkpt><trkpt lat="45.023007515086654" lon="9.54431125767976"><ele>76.0</ele><time>2026-04-07T13:31:01.988Z</time></trkpt><trkpt lat="45.02306535898842" lon="9.544412228687744"><ele>76.0</ele><time>2026-04-07T13:31:03.988Z</time></trkpt><trkpt lat="45.02312770947128" lon="9.544507175900458"><ele>76.0</ele><time>2026-04-07T13:31:05.988Z</time></trkpt><trkpt lat="45.02318798321725" lon="9.54460439205581"><ele>76.0</ele><time>2026-04-07T13:31:07.988Z</time></trkpt><trkpt lat="45.02324890495181" lon="9.544704647660323"><ele>76.0</ele><time>2026-04-07T13:31:09.988Z</time></trkpt><trkpt lat="45.02331377987994" lon="9.544808312463626"><ele>76.0</ele><time>2026-04-07T13:31:11.988Z</time></trkpt><trkpt lat="45.02338522468721" lon="9.544913290308576"><ele>76.0</ele><time>2026-04-07T13:31:13.988Z</time></trkpt><trkpt lat="45.02345351702596" lon="9.545017683228266"><ele>76.0</ele><time>2026-04-07T13:31:15.988Z</time></trkpt><trkpt lat="45.023521298487296" lon="9.545119712102348"><ele>76.0</ele><time>2026-04-07T13:31:17.988Z</time></trkpt><trkpt lat="45.023595049250474" lon="9.54522791298256"><ele>76.0</ele><time>2026-04-07T13:31:19.988Z</time></trkpt><trkpt lat="45.023660036600695" lon="9.545330117648277"><ele>75.39999999999999</ele><time>2026-04-07T13:31:21.986Z</time></trkpt><trkpt lat="45.0237282111382" lon="9.545421455242874"><ele>74.8</ele><time>2026-04-07T13:31:23.986Z</time></trkpt><trkpt lat="45.02379255573696" lon="9.545513956037848"><ele>74.19999999999999</ele><time>2026-04-07T13:31:25.986Z</time></trkpt><trkpt lat="45.023858388118335" lon="9.545612216410191"><ele>73.6</ele><time>2026-04-07T13:31:27.986Z</time></trkpt><trkpt lat="45.02392735422913" lon="9.545714306240576"><ele>73.0</ele><time>2026-04-07T13:31:29.987Z</time></trkpt><trkpt lat="45.02399558443867" lon="9.545798142161914"><ele>73.0</ele><time>2026-04-07T13:31:31.986Z</time></trkpt><trkpt lat="45.02405808952215" lon="9.54588756547916"><ele>73.0</ele><time>2026-04-07T13:31:33.986Z</time></trkpt><trkpt lat="45.02412168913157" lon="9.545984148471689"><ele>73.0</ele><time>2026-04-07T13:31:35.986Z</time></trkpt><trkpt lat="45.0241871062515" lon="9.54608397505624"><ele>73.0</ele><time>2026-04-07T13:31:37.986Z</time></trkpt><trkpt lat="45.024260229417024" lon="9.54619686501035"><ele>73.0</ele><time>2026-04-07T13:31:39.986Z</time></trkpt><trkpt lat="45.024339706058484" lon="9.546314509816918"><ele>74.0</ele><time>2026-04-07T13:31:41.986Z</time></trkpt><trkpt lat="45.02440941173445" lon="9.546420576321275"><ele>75.0</ele><time>2026-04-07T13:31:43.986Z</time></trkpt><trkpt lat="45.02447267714863" lon="9.546535435752652"><ele>76.0</ele><time>2026-04-07T13:31:45.986Z</time></trkpt><trkpt lat="45.024529972588546" lon="9.546649996860548"><ele>77.0</ele><time>2026-04-07T13:31:47.986Z</time></trkpt><trkpt lat="45.02458325536307" lon="9.546767243795543"><ele>78.0</ele><time>2026-04-07T13:31:49.986Z</time></trkpt><trkpt lat="45.024636646588824" lon="9.546877451017856"><ele>78.0</ele><time>2026-04-07T13:31:51.986Z</time></trkpt><trkpt lat="45.024696637869425" lon="9.546988517099308"><ele>78.0</ele><time>2026-04-07T13:31:53.986Z</time></trkpt><trkpt lat="45.0247495225588" lon="9.547102050697044"><ele>78.0</ele><time>2026-04-07T13:31:55.986Z</time></trkpt><trkpt lat="45.024804579356534" lon="9.547209610105474"><ele>78.0</ele><time>2026-04-07T13:31:57.986Z</time></trkpt><trkpt lat="45.02485500694532" lon="9.54731079647374"><ele>78.0</ele><time>2026-04-07T13:31:59.987Z</time></trkpt><trkpt lat="45.024910707688946" lon="9.547416133234927"><ele>77.66666666666667</ele><time>2026-04-07T13:32:01.987Z</time></trkpt><trkpt lat="45.024964631818364" lon="9.547523640891816"><ele>77.33333333333333</ele><time>2026-04-07T13:32:03.987Z</time></trkpt><trkpt lat="45.025014759093224" lon="9.547625305921798"><ele>77.0</ele><time>2026-04-07T13:32:05.987Z</time></trkpt><trkpt lat="45.025063159526276" lon="9.547724585485302"><ele>76.66666666666666</ele><time>2026-04-07T13:32:07.987Z</time></trkpt><trkpt lat="45.02511277386793" lon="9.54781687859292"><ele>76.33333333333333</ele><time>2026-04-07T13:32:09.987Z</time></trkpt><trkpt lat="45.02515898712875" lon="9.547922172530594"><ele>76.0</ele><time>2026-04-07T13:32:11.987Z</time></trkpt><trkpt lat="45.025203252559116" lon="9.548048207892576"><ele>75.8</ele><time>2026-04-07T13:32:13.987Z</time></trkpt><trkpt lat="45.02525603701428" lon="9.54817987577394"><ele>75.6</ele><time>2026-04-07T13:32:15.987Z</time></trkpt><trkpt lat="45.02530801747444" lon="9.548313006815716"><ele>75.4</ele><time>2026-04-07T13:32:17.987Z</time></trkpt><trkpt lat="45.02535356912141" lon="9.548452955785086"><ele>75.2</ele><time>2026-04-07T13:32:19.987Z</time></trkpt><trkpt lat="45.025386428186685" lon="9.548597196029666"><ele>75.0</ele><time>2026-04-07T13:32:21.987Z</time></trkpt><trkpt lat="45.025418426904245" lon="9.548743488749839"><ele>75.0</ele><time>2026-04-07T13:32:23.987Z</time></trkpt><trkpt lat="45.02545264554713" lon="9.548884903321957"><ele>75.0</ele><time>2026-04-07T13:32:25.987Z</time></trkpt><trkpt lat="45.02548811797361" lon="9.549032239673958"><ele>75.0</ele><time>2026-04-07T13:32:27.987Z</time></trkpt><trkpt lat="45.02552393709554" lon="9.549207689845588"><ele>75.0</ele><time>2026-04-07T13:32:29.987Z</time></trkpt><trkpt lat="45.025554726300314" lon="9.549338926672371"><ele>75.0</ele><time>2026-04-07T13:32:31.987Z</time></trkpt><trkpt lat="45.02559046075408" lon="9.54949412185106"><ele>75.0</ele><time>2026-04-07T13:32:33.987Z</time></trkpt><trkpt lat="45.02562985921314" lon="9.549653679629925"><ele>75.0</ele><time>2026-04-07T13:32:35.987Z</time></trkpt><trkpt lat="45.025673079275165" lon="9.54979314141937"><ele>75.0</ele><time>2026-04-07T13:32:37.987Z</time></trkpt><trkpt lat="45.02572963169924" lon="9.5499280665083"><ele>75.0</ele><time>2026-04-07T13:32:39.987Z</time></trkpt><trkpt lat="45.02579777607052" lon="9.550054553868536"><ele>75.0</ele><time>2026-04-07T13:32:41.987Z</time></trkpt><trkpt lat="45.02587661931497" lon="9.55015472188261"><ele>75.0</ele><time>2026-04-07T13:32:43.987Z</time></trkpt><trkpt lat="45.025962511582776" lon="9.550218903090883"><ele>75.0</ele><time>2026-04-07T13:32:45.987Z</time></trkpt><trkpt lat="45.02605093293572" lon="9.550218532078594"><ele>75.0</ele><time>2026-04-07T13:32:47.987Z</time></trkpt><trkpt lat="45.02615302078411" lon="9.550165174011832"><ele>75.0</ele><time>2026-04-07T13:32:49.987Z</time></trkpt><trkpt lat="45.02625378131243" lon="9.550114023451167"><ele>75.0</ele><time>2026-04-07T13:32:51.987Z</time></trkpt><trkpt lat="45.02634227534539" lon="9.550062784151391"><ele>75.0</ele><time>2026-04-07T13:32:53.987Z</time></trkpt><trkpt lat="45.0264233039859" lon="9.550050973400028"><ele>75.0</ele><time>2026-04-07T13:32:55.987Z</time></trkpt><trkpt lat="45.02650699254035" lon="9.550025101305497"><ele>75.0</ele><time>2026-04-07T13:32:57.987Z</time></trkpt><trkpt lat="45.02657786332758" lon="9.550005604032556"><ele>75.0</ele><time>2026-04-07T13:32:59.987Z</time></trkpt><trkpt lat="45.02667218103998" lon="9.549978262210193"><ele>75.0</ele><time>2026-04-07T13:33:01.987Z</time></trkpt><trkpt lat="45.0267683090299" lon="9.549951804492007"><ele>75.2</ele><time>2026-04-07T13:33:03.987Z</time></trkpt><trkpt lat="45.026866049122404" lon="9.549927561693858"><ele>75.4</ele><time>2026-04-07T13:33:05.987Z</time></trkpt><trkpt lat="45.026966039316456" lon="9.549881215242708"><ele>75.6</ele><time>2026-04-07T13:33:07.987Z</time></trkpt><trkpt lat="45.02706393243539" lon="9.549857294190943"><ele>75.8</ele><time>2026-04-07T13:33:09.987Z</time></trkpt><trkpt lat="45.02716412469056" lon="9.54985447156955"><ele>76.0</ele><time>2026-04-07T13:33:11.987Z</time></trkpt><trkpt lat="45.02725942963842" lon="9.549831476297594"><ele>76.0</ele><time>2026-04-07T13:33:13.987Z</time></trkpt><trkpt lat="45.027350651929005" lon="9.549792266206934"><ele>76.0</ele><time>2026-04-07T13:33:15.987Z</time></trkpt><trkpt lat="45.027452167069015" lon="9.549779144234218"><ele>76.0</ele><time>2026-04-07T13:33:17.987Z</time></trkpt><trkpt lat="45.02754838325141" lon="9.54975032450039"><ele>76.0</ele><time>2026-04-07T13:33:19.987Z</time></trkpt><trkpt lat="45.027644793269076" lon="9.549740658777715"><ele>76.0</ele><time>2026-04-07T13:33:21.987Z</time></trkpt><trkpt lat="45.02772650137493" lon="9.549710933067983"><ele>75.2</ele><time>2026-04-07T13:33:23.987Z</time></trkpt><trkpt lat="45.0278031812088" lon="9.549700668034465"><ele>74.39999999999999</ele><time>2026-04-07T13:33:25.987Z</time></trkpt><trkpt lat="45.027895943392" lon="9.54968027981375"><ele>73.6</ele><time>2026-04-07T13:33:27.986Z</time></trkpt><trkpt lat="45.027988675727165" lon="9.549656355403195"><ele>72.8</ele><time>2026-04-07T13:33:29.986Z</time></trkpt><trkpt lat="45.02809118326103" lon="9.549634913395796"><ele>72.0</ele><time>2026-04-07T13:33:31.986Z</time></trkpt><trkpt lat="45.02819291483655" lon="9.549613261872176"><ele>72.0</ele><time>2026-04-07T13:33:33.986Z</time></trkpt><trkpt lat="45.028296705984275" lon="9.549589221368358"><ele>72.0</ele><time>2026-04-07T13:33:35.986Z</time></trkpt><trkpt lat="45.02840489994916" lon="9.549563966947943"><ele>72.0</ele><time>2026-04-07T13:33:37.986Z</time></trkpt><trkpt lat="45.028512382700896" lon="9.549535331407707"><ele>72.0</ele><time>2026-04-07T13:33:39.986Z</time></trkpt><trkpt lat="45.028620226585296" lon="9.549507786467517"><ele>72.0</ele><time>2026-04-07T13:33:41.986Z</time></trkpt><trkpt lat="45.0287258050972" lon="9.549480370325167"><ele>72.0</ele><time>2026-04-07T13:33:43.986Z</time></trkpt><trkpt lat="45.02883104926243" lon="9.549456980591938"><ele>72.0</ele><time>2026-04-07T13:33:45.986Z</time></trkpt><trkpt lat="45.02893661601775" lon="9.549425230115334"><ele>72.0</ele><time>2026-04-07T13:33:47.986Z</time></trkpt><trkpt lat="45.02904363850601" lon="9.549397281920715"><ele>72.0</ele><time>2026-04-07T13:33:49.986Z</time></trkpt><trkpt lat="45.02914961714258" lon="9.549372530906318"><ele>72.0</ele><time>2026-04-07T13:33:51.986Z</time></trkpt><trkpt lat="45.02925791531707" lon="9.549353488421238"><ele>72.0</ele><time>2026-04-07T13:33:53.986Z</time></trkpt><trkpt lat="45.02935862744921" lon="9.54932863680556"><ele>72.0</ele><time>2026-04-07T13:33:55.986Z</time></trkpt><trkpt lat="45.029457837834336" lon="9.549307913874566"><ele>72.0</ele><time>2026-04-07T13:33:57.986Z</time></trkpt><trkpt lat="45.02955854866976" lon="9.54928036715057"><ele>72.0</ele><time>2026-04-07T13:33:59.986Z</time></trkpt><trkpt lat="45.029658287922615" lon="9.54925460248465"><ele>72.0</ele><time>2026-04-07T13:34:01.986Z</time></trkpt><trkpt lat="45.029759059934676" lon="9.549226261761374"><ele>72.0</ele><time>2026-04-07T13:34:03.986Z</time></trkpt><trkpt lat="45.02985562042651" lon="9.549202322586908"><ele>72.0</ele><time>2026-04-07T13:34:05.986Z</time></trkpt><trkpt lat="45.02995942685095" lon="9.549179088830302"><ele>72.0</ele><time>2026-04-07T13:34:07.986Z</time></trkpt><trkpt lat="45.030066026051585" lon="9.549160271438035"><ele>72.0</ele><time>2026-04-07T13:34:09.986Z</time></trkpt><trkpt lat="45.030171104821875" lon="9.549130630287443"><ele>72.0</ele><time>2026-04-07T13:34:11.986Z</time></trkpt><trkpt lat="45.030275222859956" lon="9.549104715717942"><ele>71.8</ele><time>2026-04-07T13:34:13.986Z</time></trkpt><trkpt lat="45.0303758759255" lon="9.549078746353702"><ele>71.6</ele><time>2026-04-07T13:34:15.986Z</time></trkpt><trkpt lat="45.03047221223673" lon="9.549059327391785"><ele>71.39999999999999</ele><time>2026-04-07T13:34:17.986Z</time></trkpt><trkpt lat="45.030567539426464" lon="9.549028176551055"><ele>71.2</ele><time>2026-04-07T13:34:19.986Z</time></trkpt><trkpt lat="45.03066809131003" lon="9.549002101469682"><ele>71.0</ele><time>2026-04-07T13:34:21.986Z</time></trkpt><trkpt lat="45.030768342668864" lon="9.548973699234924"><ele>71.0</ele><time>2026-04-07T13:34:23.986Z</time></trkpt><trkpt lat="45.030864941617" lon="9.548953007117284"><ele>71.0</ele><time>2026-04-07T13:34:25.986Z</time></trkpt><trkpt lat="45.030957889829146" lon="9.548933721645543"><ele>71.0</ele><time>2026-04-07T13:34:27.986Z</time></trkpt><trkpt lat="45.03105533577795" lon="9.54890983865253"><ele>71.0</ele><time>2026-04-07T13:34:29.986Z</time></trkpt><trkpt lat="45.03114905882911" lon="9.548892633615292"><ele>71.0</ele><time>2026-04-07T13:34:31.986Z</time></trkpt><trkpt lat="45.03124515043085" lon="9.54887142819855"><ele>71.0</ele><time>2026-04-07T13:34:33.986Z</time></trkpt><trkpt lat="45.03134611097425" lon="9.548845945367608"><ele>71.0</ele><time>2026-04-07T13:34:35.986Z</time></trkpt><trkpt lat="45.03144309833683" lon="9.548828321900753"><ele>71.0</ele><time>2026-04-07T13:34:37.986Z</time></trkpt><trkpt lat="45.03153944052595" lon="9.548798632590913"><ele>71.0</ele><time>2026-04-07T13:34:39.986Z</time></trkpt><trkpt lat="45.03164031652657" lon="9.548769769167128"><ele>71.0</ele><time>2026-04-07T13:34:41.986Z</time></trkpt><trkpt lat="45.031742419273634" lon="9.548746339156757"><ele>71.0</ele><time>2026-04-07T13:34:43.986Z</time></trkpt><trkpt lat="45.0318450218711" lon="9.54872720075437"><ele>71.0</ele><time>2026-04-07T13:34:45.986Z</time></trkpt><trkpt lat="45.03194363125553" lon="9.54869839971719"><ele>71.0</ele><time>2026-04-07T13:34:47.986Z</time></trkpt><trkpt lat="45.032042786986196" lon="9.548675852664783"><ele>71.0</ele><time>2026-04-07T13:34:49.986Z</time></trkpt><trkpt lat="45.032145563286065" lon="9.548647264539683"><ele>71.0</ele><time>2026-04-07T13:34:51.986Z</time></trkpt><trkpt lat="45.0322462463996" lon="9.548627499091083"><ele>71.0</ele><time>2026-04-07T13:34:53.986Z</time></trkpt><trkpt lat="45.03234999936883" lon="9.548604726825637"><ele>71.0</ele><time>2026-04-07T13:34:55.986Z</time></trkpt><trkpt lat="45.032450795359075" lon="9.548575453664233"><ele>71.0</ele><time>2026-04-07T13:34:57.986Z</time></trkpt><trkpt lat="45.032549994950855" lon="9.54855236004898"><ele>71.0</ele><time>2026-04-07T13:34:59.986Z</time></trkpt><trkpt lat="45.03264847161601" lon="9.548528549145582"><ele>71.0</ele><time>2026-04-07T13:35:01.986Z</time></trkpt><trkpt lat="45.03274590913985" lon="9.5485075408944"><ele>70.8</ele><time>2026-04-07T13:35:03.986Z</time></trkpt><trkpt lat="45.032845432904466" lon="9.548480581686468"><ele>70.6</ele><time>2026-04-07T13:35:05.986Z</time></trkpt><trkpt lat="45.03294663480942" lon="9.548454959895196"><ele>70.4</ele><time>2026-04-07T13:35:07.986Z</time></trkpt><trkpt lat="45.033049780834055" lon="9.548431048977788"><ele>70.2</ele><time>2026-04-07T13:35:09.986Z</time></trkpt><trkpt lat="45.03315312972611" lon="9.548408979971414"><ele>70.0</ele><time>2026-04-07T13:35:11.986Z</time></trkpt><trkpt lat="45.033259844216566" lon="9.548381886270004"><ele>70.0</ele><time>2026-04-07T13:35:13.986Z</time></trkpt><trkpt lat="45.03336734705202" lon="9.548356141714246"><ele>70.0</ele><time>2026-04-07T13:35:15.986Z</time></trkpt><trkpt lat="45.03347341769237" lon="9.54832586126141"><ele>70.0</ele><time>2026-04-07T13:35:17.986Z</time></trkpt><trkpt lat="45.033581956196706" lon="9.548303037430987"><ele>70.0</ele><time>2026-04-07T13:35:19.986Z</time></trkpt><trkpt lat="45.033691852638015" lon="9.548280579224103"><ele>70.0</ele><time>2026-04-07T13:35:21.986Z</time></trkpt><trkpt lat="45.033802941843454" lon="9.548257074966289"><ele>70.0</ele><time>2026-04-07T13:35:23.986Z</time></trkpt><trkpt lat="45.03391250588333" lon="9.548241349386437"><ele>70.0</ele><time>2026-04-07T13:35:25.986Z</time></trkpt><trkpt lat="45.03402339916014" lon="9.54823066999586"><ele>70.0</ele><time>2026-04-07T13:35:27.986Z</time></trkpt><trkpt lat="45.03413523402682" lon="9.54822850804584"><ele>70.0</ele><time>2026-04-07T13:35:29.986Z</time></trkpt><trkpt lat="45.03424912642268" lon="9.54823174161537"><ele>70.0</ele><time>2026-04-07T13:35:31.986Z</time></trkpt><trkpt lat="45.03436606637408" lon="9.548233970172685"><ele>70.0</ele><time>2026-04-07T13:35:33.986Z</time></trkpt><trkpt lat="45.034486779711" lon="9.548234365437137"><ele>70.0</ele><time>2026-04-07T13:35:35.986Z</time></trkpt><trkpt lat="45.03461133965117" lon="9.548231677089149"><ele>70.0</ele><time>2026-04-07T13:35:37.986Z</time></trkpt><trkpt lat="45.03467513556198" lon="9.548230125912541"><ele>70.0</ele><time>2026-04-07T13:35:38.986Z</time></trkpt><trkpt lat="45.03479508837011" lon="9.548228910345907"><ele>70.0</ele><time>2026-04-07T13:35:40.986Z</time></trkpt><trkpt lat="45.03491682006174" lon="9.54822917727521"><ele>70.25</ele><time>2026-04-07T13:35:42.987Z</time></trkpt><trkpt lat="45.03503885397174" lon="9.548233840372058"><ele>70.5</ele><time>2026-04-07T13:35:44.986Z</time></trkpt><trkpt lat="45.03515876600961" lon="9.54823238319692"><ele>70.75</ele><time>2026-04-07T13:35:46.986Z</time></trkpt><trkpt lat="45.03527604552967" lon="9.548234601659779"><ele>71.0</ele><time>2026-04-07T13:35:48.986Z</time></trkpt><trkpt lat="45.0353909447775" lon="9.548233995124898"><ele>71.0</ele><time>2026-04-07T13:35:50.986Z</time></trkpt><trkpt lat="45.03550545213068" lon="9.548235436031847"><ele>71.0</ele><time>2026-04-07T13:35:52.986Z</time></trkpt><trkpt lat="45.03561541085964" lon="9.548238374302931"><ele>71.0</ele><time>2026-04-07T13:35:54.986Z</time></trkpt><trkpt lat="45.03572127143577" lon="9.548240437713643"><ele>71.0</ele><time>2026-04-07T13:35:56.986Z</time></trkpt><trkpt lat="45.03583095254158" lon="9.548237738870359"><ele>71.0</ele><time>2026-04-07T13:35:58.986Z</time></trkpt><trkpt lat="45.03594373393556" lon="9.54824563849333"><ele>70.8</ele><time>2026-04-07T13:36:00.986Z</time></trkpt><trkpt lat="45.03605183498216" lon="9.548243486244072"><ele>70.6</ele><time>2026-04-07T13:36:02.986Z</time></trkpt><trkpt lat="45.03615621288958" lon="9.54824485589819"><ele>70.4</ele><time>2026-04-07T13:36:04.986Z</time></trkpt><trkpt lat="45.03626181252602" lon="9.548244843272505"><ele>70.2</ele><time>2026-04-07T13:36:06.986Z</time></trkpt><trkpt lat="45.03636241552751" lon="9.548241964988279"><ele>70.0</ele><time>2026-04-07T13:36:08.986Z</time></trkpt><trkpt lat="45.0364676615455" lon="9.548243712167963"><ele>70.0</ele><time>2026-04-07T13:36:10.986Z</time></trkpt><trkpt lat="45.03657236261991" lon="9.548247007300183"><ele>70.0</ele><time>2026-04-07T13:36:12.986Z</time></trkpt><trkpt lat="45.03667665881515" lon="9.548245208719917"><ele>70.0</ele><time>2026-04-07T13:36:14.986Z</time></trkpt><trkpt lat="45.03678171713514" lon="9.548248973358477"><ele>70.0</ele><time>2026-04-07T13:36:16.986Z</time></trkpt><trkpt lat="45.03688595659633" lon="9.548249974036295"><ele>70.0</ele><time>2026-04-07T13:36:18.986Z</time></trkpt><trkpt lat="45.03698689184688" lon="9.548250094708875"><ele>70.0</ele><time>2026-04-07T13:36:20.986Z</time></trkpt><trkpt lat="45.03709002488353" lon="9.548250501232257"><ele>70.0</ele><time>2026-04-07T13:36:22.986Z</time></trkpt><trkpt lat="45.037197080232964" lon="9.548250426344133"><ele>70.0</ele><time>2026-04-07T13:36:24.986Z</time></trkpt><trkpt lat="45.03730372459144" lon="9.548253113017125"><ele>70.0</ele><time>2026-04-07T13:36:26.986Z</time></trkpt><trkpt lat="45.03741132071364" lon="9.548255174255505"><ele>70.0</ele><time>2026-04-07T13:36:28.986Z</time></trkpt><trkpt lat="45.03752326741908" lon="9.548250632376812"><ele>70.25</ele><time>2026-04-07T13:36:30.986Z</time></trkpt><trkpt lat="45.03763255309138" lon="9.548247564652135"><ele>70.5</ele><time>2026-04-07T13:36:32.986Z</time></trkpt><trkpt lat="45.03774439260468" lon="9.548246834384422"><ele>70.75</ele><time>2026-04-07T13:36:34.986Z</time></trkpt><trkpt lat="45.03786045551213" lon="9.54824823174584"><ele>71.0</ele><time>2026-04-07T13:36:36.986Z</time></trkpt><trkpt lat="45.037981792036604" lon="9.548243922606913"><ele>71.0</ele><time>2026-04-07T13:36:38.986Z</time></trkpt><trkpt lat="45.03809897806261" lon="9.548245146277354"><ele>71.0</ele><time>2026-04-07T13:36:40.986Z</time></trkpt><trkpt lat="45.038212845697906" lon="9.548254023257421"><ele>71.0</ele><time>2026-04-07T13:36:42.986Z</time></trkpt><trkpt lat="45.038329902726005" lon="9.548258351030988"><ele>71.0</ele><time>2026-04-07T13:36:44.986Z</time></trkpt><trkpt lat="45.03844572939592" lon="9.548258738958038"><ele>70.5</ele><time>2026-04-07T13:36:46.986Z</time></trkpt><trkpt lat="45.0385590540727" lon="9.54825955966782"><ele>70.0</ele><time>2026-04-07T13:36:48.986Z</time></trkpt><trkpt lat="45.03867409325007" lon="9.548261078583884"><ele>69.5</ele><time>2026-04-07T13:36:50.986Z</time></trkpt><trkpt lat="45.03878925347264" lon="9.548262079135789"><ele>69.0</ele><time>2026-04-07T13:36:52.986Z</time></trkpt><trkpt lat="45.03890854049728" lon="9.548254629047937"><ele>69.0</ele><time>2026-04-07T13:36:54.986Z</time></trkpt><trkpt lat="45.039030112772544" lon="9.548258774490108"><ele>69.0</ele><time>2026-04-07T13:36:56.986Z</time></trkpt><trkpt lat="45.03915084645267" lon="9.548258396027139"><ele>69.0</ele><time>2026-04-07T13:36:58.986Z</time></trkpt><trkpt lat="45.039266857851196" lon="9.548251307075114"><ele>69.0</ele><time>2026-04-07T13:37:00.986Z</time></trkpt><trkpt lat="45.039383364773954" lon="9.548251630914923"><ele>69.2</ele><time>2026-04-07T13:37:02.986Z</time></trkpt><trkpt lat="45.0394854812568" lon="9.548316208753844"><ele>69.4</ele><time>2026-04-07T13:37:04.986Z</time></trkpt><trkpt lat="45.03957074729839" lon="9.548417048442396"><ele>69.6</ele><time>2026-04-07T13:37:06.986Z</time></trkpt><trkpt lat="45.03962986173687" lon="9.5485400667506"><ele>69.8</ele><time>2026-04-07T13:37:08.986Z</time></trkpt><trkpt lat="45.0396922358683" lon="9.548661264540888"><ele>70.0</ele><time>2026-04-07T13:37:10.986Z</time></trkpt><trkpt lat="45.03975313926179" lon="9.548772973485057"><ele>70.0</ele><time>2026-04-07T13:37:12.986Z</time></trkpt><trkpt lat="45.039811512132374" lon="9.54888195795053"><ele>70.0</ele><time>2026-04-07T13:37:14.986Z</time></trkpt><trkpt lat="45.039867808729575" lon="9.548987024702795"><ele>70.0</ele><time>2026-04-07T13:37:16.986Z</time></trkpt><trkpt lat="45.0399222196533" lon="9.549091445904544"><ele>70.0</ele><time>2026-04-07T13:37:18.986Z</time></trkpt><trkpt lat="45.03996914917168" lon="9.549186196262808"><ele>70.0</ele><time>2026-04-07T13:37:20.986Z</time></trkpt><trkpt lat="45.04001632428239" lon="9.549286662764535"><ele>70.0</ele><time>2026-04-07T13:37:22.986Z</time></trkpt><trkpt lat="45.04006018246902" lon="9.549379638116267"><ele>70.0</ele><time>2026-04-07T13:37:24.986Z</time></trkpt><trkpt lat="45.040096918337696" lon="9.549491213971013"><ele>70.0</ele><time>2026-04-07T13:37:26.986Z</time></trkpt><trkpt lat="45.04012240764676" lon="9.549605699054425"><ele>70.0</ele><time>2026-04-07T13:37:28.986Z</time></trkpt><trkpt lat="45.04014003089183" lon="9.549730931021632"><ele>70.0</ele><time>2026-04-07T13:37:30.986Z</time></trkpt><trkpt lat="45.04015574412763" lon="9.549838152409457"><ele>70.0</ele><time>2026-04-07T13:37:32.986Z</time></trkpt><trkpt lat="45.04017698348535" lon="9.54995403602812"><ele>70.0</ele><time>2026-04-07T13:37:34.986Z</time></trkpt><trkpt lat="45.04019523462154" lon="9.550051848738233"><ele>70.0</ele><time>2026-04-07T13:37:36.986Z</time></trkpt><trkpt lat="45.040212645129074" lon="9.550166502033072"><ele>70.0</ele><time>2026-04-07T13:37:38.986Z</time></trkpt><trkpt lat="45.04023271900979" lon="9.550263065963541"><ele>70.0</ele><time>2026-04-07T13:37:40.986Z</time></trkpt><trkpt lat="45.04024546124328" lon="9.550365799977765"><ele>70.0</ele><time>2026-04-07T13:37:42.986Z</time></trkpt><trkpt lat="45.040254679129745" lon="9.550470808526647"><ele>70.0</ele><time>2026-04-07T13:37:44.986Z</time></trkpt><trkpt lat="45.040260910161265" lon="9.550577407671021"><ele>70.0</ele><time>2026-04-07T13:37:46.985Z</time></trkpt><trkpt lat="45.04027565507672" lon="9.550693289348484"><ele>70.0</ele><time>2026-04-07T13:37:48.985Z</time></trkpt><trkpt lat="45.040302132607536" lon="9.55079643123493"><ele>70.0</ele><time>2026-04-07T13:37:50.986Z</time></trkpt><trkpt lat="45.04033062310568" lon="9.550913600207565"><ele>70.0</ele><time>2026-04-07T13:37:52.985Z</time></trkpt><trkpt lat="45.04035142489795" lon="9.551014273618586"><ele>70.0</ele><time>2026-04-07T13:37:54.985Z</time></trkpt><trkpt lat="45.04036710759739" lon="9.55112214193397"><ele>70.0</ele><time>2026-04-07T13:37:56.985Z</time></trkpt><trkpt lat="45.0403896962925" lon="9.551248399433309"><ele>70.0</ele><time>2026-04-07T13:37:58.986Z</time></trkpt><trkpt lat="45.040412392707324" lon="9.551370812925418"><ele>70.0</ele><time>2026-04-07T13:38:00.986Z</time></trkpt><trkpt lat="45.040443811756646" lon="9.551483707145607"><ele>70.0</ele><time>2026-04-07T13:38:02.986Z</time></trkpt><trkpt lat="45.040464936867046" lon="9.551601245268786"><ele>70.0</ele><time>2026-04-07T13:38:04.986Z</time></trkpt><trkpt lat="45.04048638944115" lon="9.551720801401022"><ele>70.0</ele><time>2026-04-07T13:38:06.986Z</time></trkpt><trkpt lat="45.04050902917655" lon="9.55183340775168"><ele>70.0</ele><time>2026-04-07T13:38:08.986Z</time></trkpt><trkpt lat="45.04052688171088" lon="9.551974177790912"><ele>70.0</ele><time>2026-04-07T13:38:10.986Z</time></trkpt><trkpt lat="45.040529618480484" lon="9.552121978467259"><ele>70.0</ele><time>2026-04-07T13:38:12.986Z</time></trkpt><trkpt lat="45.04054934282278" lon="9.55224579038798"><ele>70.0</ele><time>2026-04-07T13:38:14.986Z</time></trkpt><trkpt lat="45.04058341617949" lon="9.552354165753007"><ele>70.0</ele><time>2026-04-07T13:38:16.986Z</time></trkpt><trkpt lat="45.04060604139687" lon="9.552468221890702"><ele>70.0</ele><time>2026-04-07T13:38:18.986Z</time></trkpt><trkpt lat="45.040617351655094" lon="9.552594182887322"><ele>70.0</ele><time>2026-04-07T13:38:20.986Z</time></trkpt><trkpt lat="45.04062795727028" lon="9.552712214834663"><ele>70.0</ele><time>2026-04-07T13:38:22.986Z</time></trkpt><trkpt lat="45.04065504535032" lon="9.5528257856505"><ele>69.83333333333333</ele><time>2026-04-07T13:38:24.986Z</time></trkpt><trkpt lat="45.040671581450525" lon="9.552935131736268"><ele>69.66666666666666</ele><time>2026-04-07T13:38:26.986Z</time></trkpt><trkpt lat="45.0406937620401" lon="9.553030832172924"><ele>69.5</ele><time>2026-04-07T13:38:28.986Z</time></trkpt><trkpt lat="45.04072370628351" lon="9.553131948699448"><ele>69.33333333333333</ele><time>2026-04-07T13:38:30.986Z</time></trkpt><trkpt lat="45.04075376502818" lon="9.55323177460334"><ele>69.16666666666667</ele><time>2026-04-07T13:38:32.986Z</time></trkpt><trkpt lat="45.0407775636636" lon="9.553364956542657"><ele>69.0</ele><time>2026-04-07T13:38:34.986Z</time></trkpt><trkpt lat="45.04082024487245" lon="9.55351050281066"><ele>69.0</ele><time>2026-04-07T13:38:36.984Z</time></trkpt><trkpt lat="45.04085678048352" lon="9.553657825571621"><ele>69.0</ele><time>2026-04-07T13:38:38.981Z</time></trkpt><trkpt lat="45.040835409700726" lon="9.55374419387467"><ele>69.0</ele><time>2026-04-07T13:38:39.98Z</time></trkpt><trkpt lat="45.04086659895355" lon="9.553889838217541"><ele>69.0</ele><time>2026-04-07T13:38:41.978Z</time></trkpt><trkpt lat="45.04089486568273" lon="9.554037865688663"><ele>69.0</ele><time>2026-04-07T13:38:43.976Z</time></trkpt><trkpt lat="45.04091861623339" lon="9.554177357115677"><ele>69.0</ele><time>2026-04-07T13:38:45.975Z</time></trkpt><trkpt lat="45.04094045907712" lon="9.554310417818035"><ele>69.0</ele><time>2026-04-07T13:38:47.973Z</time></trkpt><trkpt lat="45.040957281324005" lon="9.554438155784705"><ele>69.0</ele><time>2026-04-07T13:38:49.972Z</time></trkpt><trkpt lat="45.04098729957117" lon="9.554566190547657"><ele>69.0</ele><time>2026-04-07T13:38:51.971Z</time></trkpt><trkpt lat="45.04097855878516" lon="9.554708732137552"><ele>69.0</ele><time>2026-04-07T13:38:53.97Z</time></trkpt><trkpt lat="45.04097856387963" lon="9.55484554831668"><ele>69.0</ele><time>2026-04-07T13:38:55.969Z</time></trkpt><trkpt lat="45.040983302446335" lon="9.554983411997657"><ele>69.0</ele><time>2026-04-07T13:38:57.968Z</time></trkpt><trkpt lat="45.04097763681918" lon="9.5551360989742"><ele>69.0</ele><time>2026-04-07T13:38:59.968Z</time></trkpt><trkpt lat="45.04096994931437" lon="9.555272881911327"><ele>69.0</ele><time>2026-04-07T13:39:01.967Z</time></trkpt><trkpt lat="45.04095936859615" lon="9.555404750204078"><ele>69.0</ele><time>2026-04-07T13:39:03.967Z</time></trkpt><trkpt lat="45.040950686695744" lon="9.555527536101188"><ele>68.83333333333333</ele><time>2026-04-07T13:39:05.966Z</time></trkpt><trkpt lat="45.04094223329596" lon="9.555650931049563"><ele>68.66666666666667</ele><time>2026-04-07T13:39:07.966Z</time></trkpt><trkpt lat="45.040930607751335" lon="9.555780870003755"><ele>68.5</ele><time>2026-04-07T13:39:09.965Z</time></trkpt><trkpt lat="45.04091668967586" lon="9.555906682377477"><ele>68.33333333333334</ele><time>2026-04-07T13:39:11.965Z</time></trkpt><trkpt lat="45.0409060508038" lon="9.5560290891372"><ele>68.16666666666667</ele><time>2026-04-07T13:39:13.965Z</time></trkpt><trkpt lat="45.04089953298984" lon="9.55615122649615"><ele>68.0</ele><time>2026-04-07T13:39:15.965Z</time></trkpt><trkpt lat="45.04089057154417" lon="9.556276907127026"><ele>67.5</ele><time>2026-04-07T13:39:17.964Z</time></trkpt><trkpt lat="45.040877495456456" lon="9.556396945634736"><ele>67.0</ele><time>2026-04-07T13:39:19.964Z</time></trkpt><trkpt lat="45.040865713965516" lon="9.556524407352073"><ele>66.5</ele><time>2026-04-07T13:39:21.964Z</time></trkpt><trkpt lat="45.040849496782656" lon="9.556650336633506"><ele>66.0</ele><time>2026-04-07T13:39:23.964Z</time></trkpt><trkpt lat="45.040835879323545" lon="9.556775055642929"><ele>65.5</ele><time>2026-04-07T13:39:25.964Z</time></trkpt><trkpt lat="45.040823535049014" lon="9.556898495388875"><ele>65.0</ele><time>2026-04-07T13:39:27.964Z</time></trkpt><trkpt lat="45.040807796226915" lon="9.55702641333034"><ele>65.2</ele><time>2026-04-07T13:39:29.964Z</time></trkpt><trkpt lat="45.04079017182607" lon="9.557151271491756"><ele>65.4</ele><time>2026-04-07T13:39:31.963Z</time></trkpt><trkpt lat="45.04077577471197" lon="9.55728360153775"><ele>65.6</ele><time>2026-04-07T13:39:33.963Z</time></trkpt><trkpt lat="45.04075576997296" lon="9.557409096576333"><ele>65.8</ele><time>2026-04-07T13:39:35.963Z</time></trkpt><trkpt lat="45.04073995447588" lon="9.557535092394414"><ele>66.0</ele><time>2026-04-07T13:39:37.963Z</time></trkpt><trkpt lat="45.04072297652089" lon="9.557656307088035"><ele>66.0</ele><time>2026-04-07T13:39:39.963Z</time></trkpt><trkpt lat="45.04070944444619" lon="9.557777903836731"><ele>66.0</ele><time>2026-04-07T13:39:41.963Z</time></trkpt><trkpt lat="45.0406947878271" lon="9.557888064793367"><ele>66.0</ele><time>2026-04-07T13:39:43.963Z</time></trkpt><trkpt lat="45.040682065392026" lon="9.558005549687214"><ele>66.0</ele><time>2026-04-07T13:39:45.962Z</time></trkpt><trkpt lat="45.04066564455277" lon="9.558124368175777"><ele>66.0</ele><time>2026-04-07T13:39:47.963Z</time></trkpt><trkpt lat="45.040647091940585" lon="9.55824607396569"><ele>66.0</ele><time>2026-04-07T13:39:49.962Z</time></trkpt><trkpt lat="45.04063025821014" lon="9.558362921661166"><ele>65.83333333333333</ele><time>2026-04-07T13:39:51.962Z</time></trkpt><trkpt lat="45.04062033783794" lon="9.558479487272058"><ele>65.66666666666667</ele><time>2026-04-07T13:39:53.962Z</time></trkpt><trkpt lat="45.040602998208314" lon="9.55858106537819"><ele>65.5</ele><time>2026-04-07T13:39:55.962Z</time></trkpt><trkpt lat="45.04059014403429" lon="9.558678811438037"><ele>65.33333333333334</ele><time>2026-04-07T13:39:57.962Z</time></trkpt><trkpt lat="45.040568428905495" lon="9.558796595212977"><ele>65.16666666666667</ele><time>2026-04-07T13:39:59.962Z</time></trkpt><trkpt lat="45.04055070263007" lon="9.558927645663543"><ele>65.0</ele><time>2026-04-07T13:40:01.962Z</time></trkpt><trkpt lat="45.04053809804343" lon="9.559068932147945"><ele>65.33333333333334</ele><time>2026-04-07T13:40:03.962Z</time></trkpt><trkpt lat="45.040528971709755" lon="9.559194632724362"><ele>65.66666666666667</ele><time>2026-04-07T13:40:05.962Z</time></trkpt><trkpt lat="45.04052259892121" lon="9.55931790867152"><ele>66.0</ele><time>2026-04-07T13:40:07.962Z</time></trkpt><trkpt lat="45.04053326308109" lon="9.559434122081383"><ele>66.33333333333333</ele><time>2026-04-07T13:40:09.962Z</time></trkpt><trkpt lat="45.040563083287616" lon="9.559550713168873"><ele>66.66666666666666</ele><time>2026-04-07T13:40:11.962Z</time></trkpt><trkpt lat="45.04059686994598" lon="9.55967206157948"><ele>67.0</ele><time>2026-04-07T13:40:13.962Z</time></trkpt><trkpt lat="45.04063336314556" lon="9.559794736362988"><ele>67.0</ele><time>2026-04-07T13:40:15.962Z</time></trkpt><trkpt lat="45.04066737596493" lon="9.55991938662912"><ele>67.0</ele><time>2026-04-07T13:40:17.962Z</time></trkpt><trkpt lat="45.04070030733739" lon="9.56003882955415"><ele>67.0</ele><time>2026-04-07T13:40:19.962Z</time></trkpt><trkpt lat="45.04073223628587" lon="9.560157493220798"><ele>67.0</ele><time>2026-04-07T13:40:21.962Z</time></trkpt><trkpt lat="45.040766985818166" lon="9.56028026445269"><ele>67.0</ele><time>2026-04-07T13:40:23.962Z</time></trkpt><trkpt lat="45.04080205351936" lon="9.56040335644055"><ele>66.66666666666666</ele><time>2026-04-07T13:40:25.962Z</time></trkpt><trkpt lat="45.04083426731485" lon="9.56051645582857"><ele>66.33333333333333</ele><time>2026-04-07T13:40:27.962Z</time></trkpt><trkpt lat="45.04086427562244" lon="9.560625210360937"><ele>66.0</ele><time>2026-04-07T13:40:29.962Z</time></trkpt><trkpt lat="45.04089465895949" lon="9.560731868979648"><ele>65.66666666666667</ele><time>2026-04-07T13:40:31.962Z</time></trkpt><trkpt lat="45.04092044685393" lon="9.56084636698334"><ele>65.33333333333334</ele><time>2026-04-07T13:40:33.962Z</time></trkpt><trkpt lat="45.04094548967753" lon="9.560963865698984"><ele>65.0</ele><time>2026-04-07T13:40:35.962Z</time></trkpt><trkpt lat="45.04097718207269" lon="9.561089226255627"><ele>65.0</ele><time>2026-04-07T13:40:37.962Z</time></trkpt><trkpt lat="45.04101191961223" lon="9.561225103182654"><ele>65.0</ele><time>2026-04-07T13:40:39.962Z</time></trkpt><trkpt lat="45.041051610745214" lon="9.56136263820508"><ele>65.0</ele><time>2026-04-07T13:40:41.962Z</time></trkpt><trkpt lat="45.04108073356925" lon="9.561503008436928"><ele>65.0</ele><time>2026-04-07T13:40:43.962Z</time></trkpt><trkpt lat="45.04110921377237" lon="9.56161777915847"><ele>65.0</ele><time>2026-04-07T13:40:45.962Z</time></trkpt><trkpt lat="45.04113592882957" lon="9.56173288630999"><ele>65.0</ele><time>2026-04-07T13:40:47.962Z</time></trkpt><trkpt lat="45.04115620787174" lon="9.561856202526194"><ele>65.0</ele><time>2026-04-07T13:40:49.962Z</time></trkpt><trkpt lat="45.0411881469663" lon="9.56198571597488"><ele>65.0</ele><time>2026-04-07T13:40:51.962Z</time></trkpt><trkpt lat="45.0412164223609" lon="9.562116203448088"><ele>65.0</ele><time>2026-04-07T13:40:53.962Z</time></trkpt><trkpt lat="45.04124805461825" lon="9.562253057588734"><ele>65.0</ele><time>2026-04-07T13:40:55.962Z</time></trkpt><trkpt lat="45.041276312839464" lon="9.56239110155432"><ele>64.8</ele><time>2026-04-07T13:40:57.962Z</time></trkpt><trkpt lat="45.04130566280955" lon="9.562531382464819"><ele>64.6</ele><time>2026-04-07T13:40:59.962Z</time></trkpt><trkpt lat="45.04133758475159" lon="9.562672750425744"><ele>64.4</ele><time>2026-04-07T13:41:01.962Z</time></trkpt><trkpt lat="45.041365838034" lon="9.562811863713408"><ele>64.2</ele><time>2026-04-07T13:41:03.962Z</time></trkpt><trkpt lat="45.04139862842499" lon="9.562952211967794"><ele>64.0</ele><time>2026-04-07T13:41:05.962Z</time></trkpt><trkpt lat="45.04143233866034" lon="9.563090139749653"><ele>64.0</ele><time>2026-04-07T13:41:07.962Z</time></trkpt><trkpt lat="45.04146258955718" lon="9.563233117699536"><ele>64.0</ele><time>2026-04-07T13:41:09.962Z</time></trkpt><trkpt lat="45.04149209501168" lon="9.563375206298835"><ele>64.0</ele><time>2026-04-07T13:41:11.962Z</time></trkpt><trkpt lat="45.04152601117258" lon="9.563518920786569"><ele>64.0</ele><time>2026-04-07T13:41:13.962Z</time></trkpt><trkpt lat="45.041558080906064" lon="9.563658673069813"><ele>64.0</ele><time>2026-04-07T13:41:15.962Z</time></trkpt><trkpt lat="45.04158892913534" lon="9.563805273117268"><ele>64.2</ele><time>2026-04-07T13:41:17.962Z</time></trkpt><trkpt lat="45.04161979002833" lon="9.563949918345742"><ele>64.4</ele><time>2026-04-07T13:41:19.962Z</time></trkpt><trkpt lat="45.041648122437415" lon="9.564087752345687"><ele>64.6</ele><time>2026-04-07T13:41:21.962Z</time></trkpt><trkpt lat="45.041676820151466" lon="9.564203552082429"><ele>64.8</ele><time>2026-04-07T13:41:23.962Z</time></trkpt><trkpt lat="45.04170091185271" lon="9.564313695437292"><ele>65.0</ele><time>2026-04-07T13:41:25.962Z</time></trkpt><trkpt lat="45.04172772545623" lon="9.564423952800373"><ele>65.33333333333334</ele><time>2026-04-07T13:41:27.962Z</time></trkpt><trkpt lat="45.04174901628205" lon="9.564541536171753"><ele>65.66666666666667</ele><time>2026-04-07T13:41:29.962Z</time></trkpt><trkpt lat="45.04177578016827" lon="9.56465426462191"><ele>66.0</ele><time>2026-04-07T13:41:31.962Z</time></trkpt><trkpt lat="45.041802276998915" lon="9.564771662626873"><ele>66.33333333333333</ele><time>2026-04-07T13:41:33.962Z</time></trkpt><trkpt lat="45.04183029189971" lon="9.564884577282218"><ele>66.66666666666666</ele><time>2026-04-07T13:41:35.962Z</time></trkpt><trkpt lat="45.04186519294059" lon="9.564997143858578"><ele>67.0</ele><time>2026-04-07T13:41:37.962Z</time></trkpt><trkpt lat="45.04190390722908" lon="9.565105176557896"><ele>67.0</ele><time>2026-04-07T13:41:39.962Z</time></trkpt><trkpt lat="45.041941973164526" lon="9.565197608839645"><ele>67.0</ele><time>2026-04-07T13:41:41.962Z</time></trkpt><trkpt lat="45.04198534336304" lon="9.56529345120107"><ele>67.0</ele><time>2026-04-07T13:41:43.962Z</time></trkpt><trkpt lat="45.04202640634464" lon="9.565404586751173"><ele>67.0</ele><time>2026-04-07T13:41:45.962Z</time></trkpt><trkpt lat="45.04207103033341" lon="9.565517430650253"><ele>67.0</ele><time>2026-04-07T13:41:47.962Z</time></trkpt><trkpt lat="45.04211365606535" lon="9.565629949121577"><ele>67.0</ele><time>2026-04-07T13:41:49.962Z</time></trkpt><trkpt lat="45.042157507429344" lon="9.56574185610147"><ele>66.83333333333333</ele><time>2026-04-07T13:41:51.961Z</time></trkpt><trkpt lat="45.04219878764756" lon="9.565847852026339"><ele>66.66666666666666</ele><time>2026-04-07T13:41:53.962Z</time></trkpt><trkpt lat="45.04224131021381" lon="9.565944386569234"><ele>66.5</ele><time>2026-04-07T13:41:55.961Z</time></trkpt><trkpt lat="45.04228218186256" lon="9.566038024544065"><ele>66.33333333333333</ele><time>2026-04-07T13:41:57.961Z</time></trkpt><trkpt lat="45.042316087744645" lon="9.566143325636489"><ele>66.16666666666667</ele><time>2026-04-07T13:41:59.962Z</time></trkpt><trkpt lat="45.04236104903817" lon="9.56625240246516"><ele>66.0</ele><time>2026-04-07T13:42:01.962Z</time></trkpt><trkpt lat="45.042408671208115" lon="9.56636561040793"><ele>65.6</ele><time>2026-04-07T13:42:03.961Z</time></trkpt><trkpt lat="45.04245883384896" lon="9.566495261809218"><ele>65.19999999999999</ele><time>2026-04-07T13:42:05.961Z</time></trkpt><trkpt lat="45.042509509262125" lon="9.566623353387904"><ele>64.80000000000001</ele><time>2026-04-07T13:42:07.961Z</time></trkpt><trkpt lat="45.04256134513292" lon="9.566745344860774"><ele>64.4</ele><time>2026-04-07T13:42:09.961Z</time></trkpt><trkpt lat="45.042614328165044" lon="9.566870159820109"><ele>64.0</ele><time>2026-04-07T13:42:11.961Z</time></trkpt><trkpt lat="45.04266659215575" lon="9.566990991031778"><ele>64.0</ele><time>2026-04-07T13:42:13.961Z</time></trkpt><trkpt lat="45.04272307979282" lon="9.567114196648202"><ele>64.0</ele><time>2026-04-07T13:42:15.961Z</time></trkpt><trkpt lat="45.04277904109807" lon="9.567231124425552"><ele>64.0</ele><time>2026-04-07T13:42:17.961Z</time></trkpt><trkpt lat="45.04283784171628" lon="9.567353017630838"><ele>64.0</ele><time>2026-04-07T13:42:19.961Z</time></trkpt><trkpt lat="45.04289693855482" lon="9.567470853545684"><ele>64.0</ele><time>2026-04-07T13:42:21.961Z</time></trkpt><trkpt lat="45.04295661203701" lon="9.567589877575372"><ele>64.0</ele><time>2026-04-07T13:42:23.961Z</time></trkpt><trkpt lat="45.04301743564066" lon="9.567705158473148"><ele>64.0</ele><time>2026-04-07T13:42:25.961Z</time></trkpt><trkpt lat="45.043075949016966" lon="9.567820420319002"><ele>64.0</ele><time>2026-04-07T13:42:27.961Z</time></trkpt><trkpt lat="45.04314011947616" lon="9.567946299917242"><ele>64.0</ele><time>2026-04-07T13:42:29.961Z</time></trkpt><trkpt lat="45.04320005579794" lon="9.568042490647029"><ele>64.0</ele><time>2026-04-07T13:42:31.961Z</time></trkpt><trkpt lat="45.04325594907473" lon="9.568155044290974"><ele>64.2</ele><time>2026-04-07T13:42:33.961Z</time></trkpt><trkpt lat="45.04331465313946" lon="9.568262930384353"><ele>64.4</ele><time>2026-04-07T13:42:35.961Z</time></trkpt><trkpt lat="45.04336885819823" lon="9.56837592287786"><ele>64.6</ele><time>2026-04-07T13:42:37.961Z</time></trkpt><trkpt lat="45.043415542655445" lon="9.568483825338499"><ele>64.8</ele><time>2026-04-07T13:42:39.961Z</time></trkpt><trkpt lat="45.04347445692818" lon="9.56859220284519"><ele>65.0</ele><time>2026-04-07T13:42:41.961Z</time></trkpt><trkpt lat="45.04352823481172" lon="9.568714316023991"><ele>64.6</ele><time>2026-04-07T13:42:43.961Z</time></trkpt><trkpt lat="45.043569948257634" lon="9.568844643272774"><ele>64.2</ele><time>2026-04-07T13:42:45.961Z</time></trkpt><trkpt lat="45.04362449899164" lon="9.568958734816482"><ele>63.8</ele><time>2026-04-07T13:42:47.961Z</time></trkpt><trkpt lat="45.04368872472795" lon="9.56907306177413"><ele>63.4</ele><time>2026-04-07T13:42:49.961Z</time></trkpt><trkpt lat="45.04374556287867" lon="9.56919284486038"><ele>63.0</ele><time>2026-04-07T13:42:51.961Z</time></trkpt><trkpt lat="45.0438029136675" lon="9.569318124006632"><ele>63.0</ele><time>2026-04-07T13:42:53.961Z</time></trkpt><trkpt lat="45.04386065111505" lon="9.569442624019727"><ele>63.0</ele><time>2026-04-07T13:42:55.961Z</time></trkpt><trkpt lat="45.04391947052338" lon="9.56956595171614"><ele>63.0</ele><time>2026-04-07T13:42:57.961Z</time></trkpt><trkpt lat="45.043978608528406" lon="9.569691923313634"><ele>63.0</ele><time>2026-04-07T13:42:59.961Z</time></trkpt><trkpt lat="45.04404049778359" lon="9.569807919763978"><ele>63.0</ele><time>2026-04-07T13:43:01.961Z</time></trkpt><trkpt lat="45.04409784107741" lon="9.569926002309423"><ele>63.2</ele><time>2026-04-07T13:43:03.961Z</time></trkpt><trkpt lat="45.04415768100808" lon="9.570040400482583"><ele>63.4</ele><time>2026-04-07T13:43:05.961Z</time></trkpt><trkpt lat="45.044216669115805" lon="9.570149382726017"><ele>63.60000000000001</ele><time>2026-04-07T13:43:07.961Z</time></trkpt><trkpt lat="45.04427772576668" lon="9.570262781990133"><ele>63.800000000000004</ele><time>2026-04-07T13:43:09.961Z</time></trkpt><trkpt lat="45.04433278488364" lon="9.57036593602841"><ele>64.0</ele><time>2026-04-07T13:43:11.961Z</time></trkpt><trkpt lat="45.04438713740294" lon="9.570474772667529"><ele>64.0</ele><time>2026-04-07T13:43:13.961Z</time></trkpt><trkpt lat="45.044443785058114" lon="9.570584132292002"><ele>64.0</ele><time>2026-04-07T13:43:15.961Z</time></trkpt><trkpt lat="45.04450612266013" lon="9.570701755510632"><ele>64.0</ele><time>2026-04-07T13:43:17.961Z</time></trkpt><trkpt lat="45.04456803097341" lon="9.570806308507048"><ele>64.0</ele><time>2026-04-07T13:43:19.961Z</time></trkpt><trkpt lat="45.04462485904843" lon="9.570921242550552"><ele>64.0</ele><time>2026-04-07T13:43:21.961Z</time></trkpt><trkpt lat="45.044682876370004" lon="9.571038648552161"><ele>64.0</ele><time>2026-04-07T13:43:23.961Z</time></trkpt><trkpt lat="45.044732436456364" lon="9.57114960185851"><ele>64.0</ele><time>2026-04-07T13:43:25.961Z</time></trkpt><trkpt lat="45.04477850364786" lon="9.571267019892659"><ele>64.0</ele><time>2026-04-07T13:43:27.961Z</time></trkpt><trkpt lat="45.04479922683417" lon="9.571403344849166"><ele>64.0</ele><time>2026-04-07T13:43:29.961Z</time></trkpt><trkpt lat="45.04478254588682" lon="9.571549746130458"><ele>64.0</ele><time>2026-04-07T13:43:31.961Z</time></trkpt><trkpt lat="45.0447727997153" lon="9.571696993360376"><ele>63.800000000000004</ele><time>2026-04-07T13:43:33.961Z</time></trkpt><trkpt lat="45.04477324404977" lon="9.5718371740438"><ele>63.60000000000001</ele><time>2026-04-07T13:43:35.961Z</time></trkpt><trkpt lat="45.044752116843526" lon="9.571972109019915"><ele>63.4</ele><time>2026-04-07T13:43:37.961Z</time></trkpt><trkpt lat="45.0447413149302" lon="9.572122833730257"><ele>63.2</ele><time>2026-04-07T13:43:39.961Z</time></trkpt><trkpt lat="45.044722550495024" lon="9.572269933654947"><ele>63.0</ele><time>2026-04-07T13:43:41.961Z</time></trkpt><trkpt lat="45.04470441738318" lon="9.572411234132247"><ele>63.0</ele><time>2026-04-07T13:43:43.961Z</time></trkpt><trkpt lat="45.04468731876047" lon="9.57255606334612"><ele>63.0</ele><time>2026-04-07T13:43:45.961Z</time></trkpt><trkpt lat="45.044682699979006" lon="9.572702885357806"><ele>63.0</ele><time>2026-04-07T13:43:47.961Z</time></trkpt><trkpt lat="45.044703045431746" lon="9.572853732011176"><ele>63.0</ele><time>2026-04-07T13:43:49.961Z</time></trkpt><trkpt lat="45.04474440448184" lon="9.573004965628233"><ele>63.0</ele><time>2026-04-07T13:43:51.961Z</time></trkpt><trkpt lat="45.04479102702885" lon="9.573146216730315"><ele>63.0</ele><time>2026-04-07T13:43:53.961Z</time></trkpt><trkpt lat="45.04482840653497" lon="9.573284678774007"><ele>63.0</ele><time>2026-04-07T13:43:55.961Z</time></trkpt><trkpt lat="45.04487563915507" lon="9.573422371768736"><ele>63.0</ele><time>2026-04-07T13:43:57.961Z</time></trkpt><trkpt lat="45.04492121929119" lon="9.573560092407444"><ele>63.0</ele><time>2026-04-07T13:43:59.961Z</time></trkpt><trkpt lat="45.04496705637197" lon="9.57369852572369"><ele>63.0</ele><time>2026-04-07T13:44:01.96Z</time></trkpt><trkpt lat="45.04501622541794" lon="9.57383376033423"><ele>63.599999999999994</ele><time>2026-04-07T13:44:03.96Z</time></trkpt><trkpt lat="45.04506369046239" lon="9.573972526154101"><ele>64.19999999999999</ele><time>2026-04-07T13:44:05.96Z</time></trkpt><trkpt lat="45.04510918249733" lon="9.574110295657785"><ele>64.8</ele><time>2026-04-07T13:44:07.961Z</time></trkpt><trkpt lat="45.04514580478375" lon="9.574236181831644"><ele>65.39999999999999</ele><time>2026-04-07T13:44:09.96Z</time></trkpt><trkpt lat="45.045187484449585" lon="9.574373746015128"><ele>66.0</ele><time>2026-04-07T13:44:11.96Z</time></trkpt><trkpt lat="45.04522817494091" lon="9.574513190073123"><ele>65.6</ele><time>2026-04-07T13:44:13.96Z</time></trkpt><trkpt lat="45.04527295444816" lon="9.574653862370447"><ele>65.19999999999999</ele><time>2026-04-07T13:44:15.96Z</time></trkpt><trkpt lat="45.045317362349394" lon="9.574786387652972"><ele>64.80000000000001</ele><time>2026-04-07T13:44:17.96Z</time></trkpt><trkpt lat="45.04535941458712" lon="9.574937480522847"><ele>64.4</ele><time>2026-04-07T13:44:19.96Z</time></trkpt><trkpt lat="45.045410775263136" lon="9.575084059490672"><ele>64.0</ele><time>2026-04-07T13:44:21.96Z</time></trkpt><trkpt lat="45.04545774851701" lon="9.575239135255167"><ele>63.800000000000004</ele><time>2026-04-07T13:44:23.96Z</time></trkpt><trkpt lat="45.0455114629316" lon="9.575380573956926"><ele>63.60000000000001</ele><time>2026-04-07T13:44:25.96Z</time></trkpt><trkpt lat="45.04555648724249" lon="9.57551902701628"><ele>63.4</ele><time>2026-04-07T13:44:27.96Z</time></trkpt><trkpt lat="45.04560192514307" lon="9.575654830783492"><ele>63.2</ele><time>2026-04-07T13:44:29.96Z</time></trkpt><trkpt lat="45.045650400444075" lon="9.57579261831454"><ele>63.0</ele><time>2026-04-07T13:44:31.96Z</time></trkpt><trkpt lat="45.04569536169406" lon="9.575928045941254"><ele>63.0</ele><time>2026-04-07T13:44:33.96Z</time></trkpt><trkpt lat="45.045739032088555" lon="9.57605817805305"><ele>63.0</ele><time>2026-04-07T13:44:35.96Z</time></trkpt><trkpt lat="45.04578203656414" lon="9.576194795685854"><ele>63.0</ele><time>2026-04-07T13:44:37.96Z</time></trkpt><trkpt lat="45.045819319807364" lon="9.57633634802841"><ele>63.0</ele><time>2026-04-07T13:44:39.96Z</time></trkpt><trkpt lat="45.04586584137068" lon="9.576476022182629"><ele>63.0</ele><time>2026-04-07T13:44:41.96Z</time></trkpt><trkpt lat="45.04591155776419" lon="9.576616541497476"><ele>62.8</ele><time>2026-04-07T13:44:43.96Z</time></trkpt><trkpt lat="45.04596069706303" lon="9.576747889334374"><ele>62.599999999999994</ele><time>2026-04-07T13:44:45.96Z</time></trkpt><trkpt lat="45.04600745273075" lon="9.576885144578242"><ele>62.400000000000006</ele><time>2026-04-07T13:44:47.96Z</time></trkpt><trkpt lat="45.04604038408921" lon="9.57700998137419"><ele>62.2</ele><time>2026-04-07T13:44:49.96Z</time></trkpt><trkpt lat="45.04608167542673" lon="9.57712769002752"><ele>62.0</ele><time>2026-04-07T13:44:51.96Z</time></trkpt><trkpt lat="45.04611889245193" lon="9.577246435171816"><ele>62.0</ele><time>2026-04-07T13:44:53.96Z</time></trkpt><trkpt lat="45.04616112822867" lon="9.577372891465682"><ele>62.0</ele><time>2026-04-07T13:44:55.96Z</time></trkpt><trkpt lat="45.04621037386932" lon="9.577505296653166"><ele>62.0</ele><time>2026-04-07T13:44:57.96Z</time></trkpt><trkpt lat="45.04625711855678" lon="9.577634497183219"><ele>62.0</ele><time>2026-04-07T13:44:59.96Z</time></trkpt><trkpt lat="45.04629952604529" lon="9.577763950805082"><ele>62.0</ele><time>2026-04-07T13:45:01.96Z</time></trkpt><trkpt lat="45.04632979771987" lon="9.577906528012269"><ele>62.0</ele><time>2026-04-07T13:45:03.96Z</time></trkpt><trkpt lat="45.046372333858024" lon="9.578039059860075"><ele>62.0</ele><time>2026-04-07T13:45:05.96Z</time></trkpt><trkpt lat="45.04641449325767" lon="9.578170417857939"><ele>62.0</ele><time>2026-04-07T13:45:07.96Z</time></trkpt><trkpt lat="45.04645924039638" lon="9.578309838533334"><ele>62.0</ele><time>2026-04-07T13:45:09.96Z</time></trkpt><trkpt lat="45.04650995316257" lon="9.5784372293103"><ele>62.0</ele><time>2026-04-07T13:45:11.96Z</time></trkpt><trkpt lat="45.04655549045726" lon="9.578575338436199"><ele>62.0</ele><time>2026-04-07T13:45:13.96Z</time></trkpt><trkpt lat="45.04659779500637" lon="9.578718177523593"><ele>62.0</ele><time>2026-04-07T13:45:15.96Z</time></trkpt><trkpt lat="45.04664583982919" lon="9.578855919829426"><ele>62.0</ele><time>2026-04-07T13:45:17.96Z</time></trkpt><trkpt lat="45.04668760396921" lon="9.578971955471502"><ele>62.0</ele><time>2026-04-07T13:45:19.96Z</time></trkpt><trkpt lat="45.04673331645209" lon="9.57909139268034"><ele>62.0</ele><time>2026-04-07T13:45:21.96Z</time></trkpt><trkpt lat="45.04677694414007" lon="9.579213900011494"><ele>62.0</ele><time>2026-04-07T13:45:23.96Z</time></trkpt><trkpt lat="45.04683244952075" lon="9.579336454746704"><ele>62.0</ele><time>2026-04-07T13:45:25.96Z</time></trkpt><trkpt lat="45.04687546142007" lon="9.579440753415643"><ele>62.0</ele><time>2026-04-07T13:45:27.96Z</time></trkpt><trkpt lat="45.04692387244761" lon="9.579555744894249"><ele>62.0</ele><time>2026-04-07T13:45:29.96Z</time></trkpt><trkpt lat="45.04696687855179" lon="9.579671972236943"><ele>62.0</ele><time>2026-04-07T13:45:31.96Z</time></trkpt><trkpt lat="45.047018542602416" lon="9.579788665679876"><ele>62.0</ele><time>2026-04-07T13:45:33.96Z</time></trkpt><trkpt lat="45.04706886022618" lon="9.57991111381694"><ele>62.0</ele><time>2026-04-07T13:45:35.96Z</time></trkpt><trkpt lat="45.04711215457838" lon="9.58002405602749"><ele>62.0</ele><time>2026-04-07T13:45:37.96Z</time></trkpt><trkpt lat="45.04716215943946" lon="9.580135146644755"><ele>62.0</ele><time>2026-04-07T13:45:39.96Z</time></trkpt><trkpt lat="45.04721017635384" lon="9.580245962727345"><ele>62.0</ele><time>2026-04-07T13:45:41.96Z</time></trkpt><trkpt lat="45.047258745731085" lon="9.580361263662851"><ele>62.0</ele><time>2026-04-07T13:45:43.96Z</time></trkpt><trkpt lat="45.04731056010044" lon="9.580469043094459"><ele>62.0</ele><time>2026-04-07T13:45:45.96Z</time></trkpt><trkpt lat="45.047358707277866" lon="9.580589517796177"><ele>62.0</ele><time>2026-04-07T13:45:47.96Z</time></trkpt><trkpt lat="45.04740269202436" lon="9.580716475596368"><ele>62.0</ele><time>2026-04-07T13:45:49.96Z</time></trkpt><trkpt lat="45.04744816684412" lon="9.580835253840252"><ele>62.0</ele><time>2026-04-07T13:45:51.96Z</time></trkpt><trkpt lat="45.047498795628385" lon="9.58095190051548"><ele>62.0</ele><time>2026-04-07T13:45:53.96Z</time></trkpt><trkpt lat="45.04753533627751" lon="9.58106870942218"><ele>62.0</ele><time>2026-04-07T13:45:55.96Z</time></trkpt><trkpt lat="45.047587838326194" lon="9.581186902414919"><ele>62.0</ele><time>2026-04-07T13:45:57.96Z</time></trkpt><trkpt lat="45.04764537514576" lon="9.581313594288238"><ele>62.0</ele><time>2026-04-07T13:45:59.96Z</time></trkpt><trkpt lat="45.04769147169956" lon="9.58143888339612"><ele>62.0</ele><time>2026-04-07T13:46:01.96Z</time></trkpt><trkpt lat="45.047731835117254" lon="9.581545713715961"><ele>62.2</ele><time>2026-04-07T13:46:03.959Z</time></trkpt><trkpt lat="45.04777883211849" lon="9.58165508198093"><ele>62.400000000000006</ele><time>2026-04-07T13:46:05.96Z</time></trkpt><trkpt lat="45.04782480101829" lon="9.581762798595754"><ele>62.599999999999994</ele><time>2026-04-07T13:46:07.96Z</time></trkpt><trkpt lat="45.047870897951356" lon="9.581882429986699"><ele>62.8</ele><time>2026-04-07T13:46:09.96Z</time></trkpt><trkpt lat="45.04792225269682" lon="9.581997791684714"><ele>63.0</ele><time>2026-04-07T13:46:11.96Z</time></trkpt><trkpt lat="45.047977369703595" lon="9.582107923336338"><ele>63.0</ele><time>2026-04-07T13:46:13.96Z</time></trkpt><trkpt lat="45.04801663997348" lon="9.582224295956411"><ele>63.0</ele><time>2026-04-07T13:46:15.959Z</time></trkpt><trkpt lat="45.04806209473302" lon="9.582336506544653"><ele>63.0</ele><time>2026-04-07T13:46:17.959Z</time></trkpt><trkpt lat="45.04811479101255" lon="9.582450912260914"><ele>63.0</ele><time>2026-04-07T13:46:19.959Z</time></trkpt><trkpt lat="45.0481677971673" lon="9.582556055910457"><ele>63.0</ele><time>2026-04-07T13:46:21.959Z</time></trkpt><trkpt lat="45.04821731506766" lon="9.582673026102944"><ele>63.0</ele><time>2026-04-07T13:46:23.959Z</time></trkpt><trkpt lat="45.04825726897301" lon="9.58279265062568"><ele>63.0</ele><time>2026-04-07T13:46:25.959Z</time></trkpt><trkpt lat="45.04831008283344" lon="9.582910357322213"><ele>63.0</ele><time>2026-04-07T13:46:27.959Z</time></trkpt><trkpt lat="45.04835206238889" lon="9.583035012630296"><ele>63.0</ele><time>2026-04-07T13:46:29.959Z</time></trkpt><trkpt lat="45.04839936196952" lon="9.583152371340134"><ele>63.0</ele><time>2026-04-07T13:46:31.959Z</time></trkpt><trkpt lat="45.048449203730584" lon="9.583273455191637"><ele>62.8</ele><time>2026-04-07T13:46:33.959Z</time></trkpt><trkpt lat="45.04850276823623" lon="9.5833988886371"><ele>62.599999999999994</ele><time>2026-04-07T13:46:35.959Z</time></trkpt><trkpt lat="45.04855510881391" lon="9.583515907189952"><ele>62.400000000000006</ele><time>2026-04-07T13:46:37.959Z</time></trkpt><trkpt lat="45.048606225406374" lon="9.583631802470583"><ele>62.2</ele><time>2026-04-07T13:46:39.959Z</time></trkpt><trkpt lat="45.04865450134183" lon="9.58375826063615"><ele>62.0</ele><time>2026-04-07T13:46:41.959Z</time></trkpt><trkpt lat="45.048703604484885" lon="9.583881403709459"><ele>62.0</ele><time>2026-04-07T13:46:43.959Z</time></trkpt><trkpt lat="45.04875759438065" lon="9.58400185644152"><ele>62.0</ele><time>2026-04-07T13:46:45.959Z</time></trkpt><trkpt lat="45.048805822591" lon="9.5841112449245"><ele>62.0</ele><time>2026-04-07T13:46:47.959Z</time></trkpt><trkpt lat="45.04885172628046" lon="9.584215793560434"><ele>62.0</ele><time>2026-04-07T13:46:49.959Z</time></trkpt><trkpt lat="45.04889963756438" lon="9.58432761795596"><ele>62.0</ele><time>2026-04-07T13:46:51.959Z</time></trkpt><trkpt lat="45.04894929604804" lon="9.584445288361394"><ele>62.2</ele><time>2026-04-07T13:46:53.959Z</time></trkpt><trkpt lat="45.04899883342533" lon="9.584569630635324"><ele>62.400000000000006</ele><time>2026-04-07T13:46:55.959Z</time></trkpt><trkpt lat="45.04905245276251" lon="9.584687610652738"><ele>62.599999999999994</ele><time>2026-04-07T13:46:57.959Z</time></trkpt><trkpt lat="45.0490884041701" lon="9.584817728089472"><ele>62.8</ele><time>2026-04-07T13:46:59.959Z</time></trkpt><trkpt lat="45.04914983652108" lon="9.584917443152646"><ele>63.0</ele><time>2026-04-07T13:47:01.959Z</time></trkpt><trkpt lat="45.049198260911496" lon="9.585032512625462"><ele>62.8</ele><time>2026-04-07T13:47:03.959Z</time></trkpt><trkpt lat="45.049245938953135" lon="9.585156936062498"><ele>62.599999999999994</ele><time>2026-04-07T13:47:05.959Z</time></trkpt><trkpt lat="45.04930243321719" lon="9.58527135971674"><ele>62.400000000000006</ele><time>2026-04-07T13:47:07.959Z</time></trkpt><trkpt lat="45.049346104859886" lon="9.58538790120719"><ele>62.2</ele><time>2026-04-07T13:47:09.959Z</time></trkpt><trkpt lat="45.04939127922369" lon="9.585498509795666"><ele>62.0</ele><time>2026-04-07T13:47:11.959Z</time></trkpt><trkpt lat="45.04943633003212" lon="9.585603156496035"><ele>62.00000000000001</ele><time>2026-04-07T13:47:13.959Z</time></trkpt><trkpt lat="45.049485334189505" lon="9.585699951394016"><ele>62.0</ele><time>2026-04-07T13:47:15.959Z</time></trkpt><trkpt lat="45.04952845297393" lon="9.585812011417884"><ele>62.0</ele><time>2026-04-07T13:47:17.959Z</time></trkpt><trkpt lat="45.04957656545955" lon="9.585920704519612"><ele>62.0</ele><time>2026-04-07T13:47:19.959Z</time></trkpt><trkpt lat="45.0496316798817" lon="9.586010241901885"><ele>62.00000000000001</ele><time>2026-04-07T13:47:21.959Z</time></trkpt><trkpt lat="45.04969206019162" lon="9.586099955144006"><ele>62.0</ele><time>2026-04-07T13:47:23.959Z</time></trkpt><trkpt lat="45.04975562478132" lon="9.586195143620262"><ele>61.8</ele><time>2026-04-07T13:47:25.959Z</time></trkpt><trkpt lat="45.04982332715623" lon="9.586303353257176"><ele>61.6</ele><time>2026-04-07T13:47:27.959Z</time></trkpt><trkpt lat="45.0498913454659" lon="9.586383332987904"><ele>61.39999999999999</ele><time>2026-04-07T13:47:29.959Z</time></trkpt><trkpt lat="45.0499591685444" lon="9.586466306889527"><ele>61.199999999999996</ele><time>2026-04-07T13:47:31.959Z</time></trkpt><trkpt lat="45.050024381346816" lon="9.586553678059099"><ele>61.0</ele><time>2026-04-07T13:47:33.959Z</time></trkpt><trkpt lat="45.05009154469193" lon="9.586644861198717"><ele>60.83333333333333</ele><time>2026-04-07T13:47:35.959Z</time></trkpt><trkpt lat="45.05015848485072" lon="9.586723988456399"><ele>60.666666666666664</ele><time>2026-04-07T13:47:37.959Z</time></trkpt><trkpt lat="45.05022215767557" lon="9.586805211155554"><ele>60.5</ele><time>2026-04-07T13:47:39.959Z</time></trkpt><trkpt lat="45.050285742641734" lon="9.586899340892288"><ele>60.33333333333333</ele><time>2026-04-07T13:47:41.959Z</time></trkpt><trkpt lat="45.05034654446533" lon="9.586995418818118"><ele>60.166666666666664</ele><time>2026-04-07T13:47:43.959Z</time></trkpt><trkpt lat="45.05041437426312" lon="9.58708601305571"><ele>60.0</ele><time>2026-04-07T13:47:45.959Z</time></trkpt><trkpt lat="45.050479814948844" lon="9.587166918227252"><ele>60.166666666666664</ele><time>2026-04-07T13:47:47.959Z</time></trkpt><trkpt lat="45.05053964102419" lon="9.587247516540279"><ele>60.33333333333333</ele><time>2026-04-07T13:47:49.959Z</time></trkpt><trkpt lat="45.05059093281892" lon="9.587331755344264"><ele>60.5</ele><time>2026-04-07T13:47:51.959Z</time></trkpt><trkpt lat="45.05065565588648" lon="9.587409994547453"><ele>60.666666666666664</ele><time>2026-04-07T13:47:53.959Z</time></trkpt><trkpt lat="45.05072029393767" lon="9.587496453191603"><ele>60.83333333333333</ele><time>2026-04-07T13:47:55.959Z</time></trkpt><trkpt lat="45.050788229075074" lon="9.587589751028016"><ele>61.0</ele><time>2026-04-07T13:47:57.959Z</time></trkpt><trkpt lat="45.05085947644627" lon="9.587677169538457"><ele>61.0</ele><time>2026-04-07T13:47:59.959Z</time></trkpt><trkpt lat="45.050930419643365" lon="9.587770056409893"><ele>60.99999999999999</ele><time>2026-04-07T13:48:01.959Z</time></trkpt><trkpt lat="45.05099623394863" lon="9.587859139605593"><ele>60.99999999999999</ele><time>2026-04-07T13:48:03.959Z</time></trkpt><trkpt lat="45.05106767658616" lon="9.58794627839574"><ele>61.0</ele><time>2026-04-07T13:48:05.959Z</time></trkpt><trkpt lat="45.05113381752009" lon="9.588045199919316"><ele>61.0</ele><time>2026-04-07T13:48:07.959Z</time></trkpt><trkpt lat="45.051203832628936" lon="9.588139938603627"><ele>61.33333333333333</ele><time>2026-04-07T13:48:09.959Z</time></trkpt><trkpt lat="45.05127053911219" lon="9.58823230076705"><ele>61.666666666666664</ele><time>2026-04-07T13:48:11.96Z</time></trkpt><trkpt lat="45.05133861333312" lon="9.58831811515949"><ele>62.0</ele><time>2026-04-07T13:48:13.959Z</time></trkpt><trkpt lat="45.051404271659315" lon="9.588402902346823"><ele>62.33333333333333</ele><time>2026-04-07T13:48:15.959Z</time></trkpt><trkpt lat="45.0514664809339" lon="9.588479240380893"><ele>62.666666666666664</ele><time>2026-04-07T13:48:17.959Z</time></trkpt><trkpt lat="45.05152894678672" lon="9.58857066512872"><ele>63.0</ele><time>2026-04-07T13:48:19.959Z</time></trkpt><trkpt lat="45.05158607800721" lon="9.588665044770238"><ele>62.666666666666664</ele><time>2026-04-07T13:48:21.959Z</time></trkpt><trkpt lat="45.05163903914169" lon="9.588763370359834"><ele>62.33333333333333</ele><time>2026-04-07T13:48:23.959Z</time></trkpt><trkpt lat="45.051678160312456" lon="9.588862530483787"><ele>62.0</ele><time>2026-04-07T13:48:25.959Z</time></trkpt><trkpt lat="45.05170414901036" lon="9.588966387756173"><ele>61.666666666666664</ele><time>2026-04-07T13:48:27.959Z</time></trkpt><trkpt lat="45.051737635110406" lon="9.58906346101826"><ele>61.33333333333333</ele><time>2026-04-07T13:48:29.959Z</time></trkpt><trkpt lat="45.051775447920264" lon="9.589146202683793"><ele>61.0</ele><time>2026-04-07T13:48:31.959Z</time></trkpt><trkpt lat="45.05180566617297" lon="9.589229960169213"><ele>60.99999999999999</ele><time>2026-04-07T13:48:33.959Z</time></trkpt><trkpt lat="45.051829711773706" lon="9.589315337245086"><ele>61.0</ele><time>2026-04-07T13:48:35.959Z</time></trkpt><trkpt lat="45.0518412592681" lon="9.589415333201188"><ele>61.0</ele><time>2026-04-07T13:48:37.959Z</time></trkpt><trkpt lat="45.05185163049082" lon="9.58953095538578"><ele>61.0</ele><time>2026-04-07T13:48:39.959Z</time></trkpt><trkpt lat="45.051862634368355" lon="9.589646804829352"><ele>60.99999999999999</ele><time>2026-04-07T13:48:41.959Z</time></trkpt><trkpt lat="45.05187791434047" lon="9.58976737387934"><ele>61.0</ele><time>2026-04-07T13:48:43.959Z</time></trkpt><trkpt lat="45.0518858192381" lon="9.58988780995873"><ele>61.166666666666664</ele><time>2026-04-07T13:48:45.959Z</time></trkpt><trkpt lat="45.051900357817786" lon="9.590001052861647"><ele>61.33333333333333</ele><time>2026-04-07T13:48:47.959Z</time></trkpt><trkpt lat="45.05191963243915" lon="9.590125475703667"><ele>61.5</ele><time>2026-04-07T13:48:49.959Z</time></trkpt><trkpt lat="45.051925273083285" lon="9.590251268781481"><ele>61.66666666666667</ele><time>2026-04-07T13:48:51.959Z</time></trkpt><trkpt lat="45.05194334741401" lon="9.590382209052448"><ele>61.833333333333336</ele><time>2026-04-07T13:48:53.959Z</time></trkpt><trkpt lat="45.05195847636234" lon="9.590506642511706"><ele>62.0</ele><time>2026-04-07T13:48:55.959Z</time></trkpt><trkpt lat="45.05197937169489" lon="9.590626777509707"><ele>62.00000000000001</ele><time>2026-04-07T13:48:57.959Z</time></trkpt><trkpt lat="45.05198746259565" lon="9.5907446982029"><ele>62.0</ele><time>2026-04-07T13:48:59.959Z</time></trkpt><trkpt lat="45.05198981645896" lon="9.590856424762224"><ele>62.0</ele><time>2026-04-07T13:49:01.959Z</time></trkpt><trkpt lat="45.051996065498656" lon="9.5909671983398"><ele>62.0</ele><time>2026-04-07T13:49:03.959Z</time></trkpt><trkpt lat="45.052009234241886" lon="9.591076245792731"><ele>62.00000000000001</ele><time>2026-04-07T13:49:05.959Z</time></trkpt><trkpt lat="45.05201941004998" lon="9.59118827287422"><ele>62.0</ele><time>2026-04-07T13:49:07.959Z</time></trkpt><trkpt lat="45.05202657729493" lon="9.591296047667564"><ele>62.0</ele><time>2026-04-07T13:49:09.959Z</time></trkpt><trkpt lat="45.0520353526255" lon="9.591409638126326"><ele>62.00000000000001</ele><time>2026-04-07T13:49:11.959Z</time></trkpt><trkpt lat="45.05204193311302" lon="9.59151639545853"><ele>62.0</ele><time>2026-04-07T13:49:13.959Z</time></trkpt><trkpt lat="45.05204512854456" lon="9.591625120503666"><ele>62.0</ele><time>2026-04-07T13:49:15.959Z</time></trkpt><trkpt lat="45.052056517474384" lon="9.591722741875998"><ele>62.00000000000001</ele><time>2026-04-07T13:49:17.959Z</time></trkpt><trkpt lat="45.05206445761773" lon="9.59181489221981"><ele>62.0</ele><time>2026-04-07T13:49:19.959Z</time></trkpt><trkpt lat="45.05207596439484" lon="9.591907620845541"><ele>62.0</ele><time>2026-04-07T13:49:21.959Z</time></trkpt><trkpt lat="45.05208845124149" lon="9.592004146706763"><ele>61.66666666666667</ele><time>2026-04-07T13:49:23.959Z</time></trkpt><trkpt lat="45.05209974733951" lon="9.592104415086752"><ele>61.333333333333336</ele><time>2026-04-07T13:49:25.959Z</time></trkpt><trkpt lat="45.05211303001678" lon="9.592213792388154"><ele>61.0</ele><time>2026-04-07T13:49:27.959Z</time></trkpt><trkpt lat="45.05212607425137" lon="9.5923351800615"><ele>60.66666666666667</ele><time>2026-04-07T13:49:29.959Z</time></trkpt><trkpt lat="45.05213029790005" lon="9.592461287056452"><ele>60.333333333333336</ele><time>2026-04-07T13:49:31.959Z</time></trkpt><trkpt lat="45.052143378640515" lon="9.592587993290053"><ele>60.0</ele><time>2026-04-07T13:49:33.959Z</time></trkpt><trkpt lat="45.052148632302675" lon="9.592712008077722"><ele>60.0</ele><time>2026-04-07T13:49:35.959Z</time></trkpt><trkpt lat="45.05214006874629" lon="9.592831807646835"><ele>60.0</ele><time>2026-04-07T13:49:37.959Z</time></trkpt><trkpt lat="45.052146847930594" lon="9.592960291757143"><ele>60.0</ele><time>2026-04-07T13:49:39.959Z</time></trkpt><trkpt lat="45.052151976358" lon="9.59309294860051"><ele>60.0</ele><time>2026-04-07T13:49:41.959Z</time></trkpt><trkpt lat="45.05214523310218" lon="9.593238456901789"><ele>60.0</ele><time>2026-04-07T13:49:43.959Z</time></trkpt><trkpt lat="45.05215469988336" lon="9.593374979398833"><ele>59.8</ele><time>2026-04-07T13:49:45.959Z</time></trkpt><trkpt lat="45.052148773442696" lon="9.593504757395646"><ele>59.6</ele><time>2026-04-07T13:49:47.959Z</time></trkpt><trkpt lat="45.052144629988966" lon="9.593636270592546"><ele>59.400000000000006</ele><time>2026-04-07T13:49:49.959Z</time></trkpt><trkpt lat="45.05214811382989" lon="9.59376559619628"><ele>59.2</ele><time>2026-04-07T13:49:51.959Z</time></trkpt><trkpt lat="45.05214422392519" lon="9.59388658469532"><ele>59.0</ele><time>2026-04-07T13:49:53.959Z</time></trkpt><trkpt lat="45.05214450008888" lon="9.594010668970958"><ele>59.00000000000001</ele><time>2026-04-07T13:49:55.959Z</time></trkpt><trkpt lat="45.05214309251381" lon="9.59413217792387"><ele>59.0</ele><time>2026-04-07T13:49:57.959Z</time></trkpt><trkpt lat="45.05214674588908" lon="9.594253044039782"><ele>59.0</ele><time>2026-04-07T13:49:59.959Z</time></trkpt><trkpt lat="45.05213682210227" lon="9.594368730248604"><ele>59.0</ele><time>2026-04-07T13:50:01.959Z</time></trkpt><trkpt lat="45.05213866783105" lon="9.594482776726176"><ele>59.00000000000001</ele><time>2026-04-07T13:50:03.959Z</time></trkpt><trkpt lat="45.05213272742976" lon="9.59460170590494"><ele>59.0</ele><time>2026-04-07T13:50:05.959Z</time></trkpt><trkpt lat="45.05212168331895" lon="9.594742842076949"><ele>59.16666666666667</ele><time>2026-04-07T13:50:07.959Z</time></trkpt><trkpt lat="45.05211766186388" lon="9.594854182320939"><ele>59.333333333333336</ele><time>2026-04-07T13:50:09.959Z</time></trkpt><trkpt lat="45.05210824895429" lon="9.594947058599706"><ele>59.5</ele><time>2026-04-07T13:50:11.959Z</time></trkpt><trkpt lat="45.05210204070909" lon="9.59506870621968"><ele>59.66666666666667</ele><time>2026-04-07T13:50:14.959Z</time></trkpt><trkpt lat="45.05211163133704" lon="9.595169054827311"><ele>59.833333333333336</ele><time>2026-04-07T13:50:16.958Z</time></trkpt><trkpt lat="45.05210990413903" lon="9.595284522176653"><ele>60.0</ele><time>2026-04-07T13:50:18.958Z</time></trkpt><trkpt lat="45.052110465209836" lon="9.595412134722881"><ele>60.0</ele><time>2026-04-07T13:50:20.959Z</time></trkpt><trkpt lat="45.05211130448082" lon="9.595542589929554"><ele>60.0</ele><time>2026-04-07T13:50:22.959Z</time></trkpt><trkpt lat="45.05212155831358" lon="9.59567533772974"><ele>60.0</ele><time>2026-04-07T13:50:24.959Z</time></trkpt><trkpt lat="45.05213525500592" lon="9.595795908967805"><ele>60.0</ele><time>2026-04-07T13:50:26.959Z</time></trkpt><trkpt lat="45.05214500660642" lon="9.595913354851401"><ele>60.0</ele><time>2026-04-07T13:50:28.958Z</time></trkpt><trkpt lat="45.05214489852411" lon="9.596037965256825"><ele>60.0</ele><time>2026-04-07T13:50:30.958Z</time></trkpt><trkpt lat="45.05215475003674" lon="9.596144299479198"><ele>60.0</ele><time>2026-04-07T13:50:32.958Z</time></trkpt><trkpt lat="45.05217036551764" lon="9.596237104562165"><ele>60.0</ele><time>2026-04-07T13:50:34.958Z</time></trkpt><trkpt lat="45.05219063580274" lon="9.596326587942016"><ele>60.0</ele><time>2026-04-07T13:50:36.958Z</time></trkpt><trkpt lat="45.05221491460531" lon="9.596414618806419"><ele>60.0</ele><time>2026-04-07T13:50:38.958Z</time></trkpt><trkpt lat="45.05222910382613" lon="9.596504855219733"><ele>60.0</ele><time>2026-04-07T13:50:40.958Z</time></trkpt><trkpt lat="45.052251051326714" lon="9.596625421691488"><ele>60.0</ele><time>2026-04-07T13:50:43.958Z</time></trkpt><trkpt lat="45.05227454505995" lon="9.59673834828951"><ele>60.0</ele><time>2026-04-07T13:50:46.958Z</time></trkpt><trkpt lat="45.05229356521053" lon="9.59685659625454"><ele>60.0</ele><time>2026-04-07T13:50:49.958Z</time></trkpt><trkpt lat="45.052311041661184" lon="9.596967669486594"><ele>60.0</ele><time>2026-04-07T13:50:52.958Z</time></trkpt><trkpt lat="45.0522617067447" lon="9.597053364851295"><ele>60.0</ele><time>2026-04-07T13:50:56.958Z</time></trkpt><trkpt lat="45.052192382616894" lon="9.597065296647832"><ele>60.0</ele><time>2026-04-07T13:50:59.958Z</time></trkpt><trkpt lat="45.052105876492966" lon="9.597072957657234"><ele>60.0</ele><time>2026-04-07T13:51:02.958Z</time></trkpt><trkpt lat="45.05203073281979" lon="9.597089961235787"><ele>60.0</ele><time>2026-04-07T13:51:05.958Z</time></trkpt><trkpt lat="45.05198637870799" lon="9.597167428900443"><ele>59.833333333333336</ele><time>2026-04-07T13:51:08.958Z</time></trkpt><trkpt lat="45.05197809809345" lon="9.597290310626368"><ele>59.66666666666667</ele><time>2026-04-07T13:51:11.958Z</time></trkpt><trkpt lat="45.05198331515724" lon="9.597393079476372"><ele>59.5</ele><time>2026-04-07T13:51:13.958Z</time></trkpt><trkpt lat="45.051988005995504" lon="9.597493019793264"><ele>59.333333333333336</ele><time>2026-04-07T13:51:15.958Z</time></trkpt><trkpt lat="45.05198928064969" lon="9.597584718266322"><ele>59.16666666666667</ele><time>2026-04-07T13:51:17.958Z</time></trkpt><trkpt lat="45.0519968004027" lon="9.597722019383017"><ele>59.0</ele><time>2026-04-07T13:51:20.958Z</time></trkpt><trkpt lat="45.052001645680946" lon="9.597811166591363"><ele>59.0</ele><time>2026-04-07T13:51:22.958Z</time></trkpt><trkpt lat="45.05200833486664" lon="9.597940672837938"><ele>59.0</ele><time>2026-04-07T13:51:25.958Z</time></trkpt><trkpt lat="45.05200663188009" lon="9.598059022661383"><ele>59.0</ele><time>2026-04-07T13:51:28.958Z</time></trkpt><trkpt lat="45.05201349817355" lon="9.598152018938666"><ele>59.0</ele><time>2026-04-07T13:51:30.958Z</time></trkpt><trkpt lat="45.05202247441345" lon="9.598248444493722"><ele>59.0</ele><time>2026-04-07T13:51:32.958Z</time></trkpt><trkpt lat="45.05203497749884" lon="9.598349266830608"><ele>59.0</ele><time>2026-04-07T13:51:34.958Z</time></trkpt><trkpt lat="45.05203613209713" lon="9.598441275346133"><ele>59.0</ele><time>2026-04-07T13:51:36.958Z</time></trkpt><trkpt lat="45.05204056629459" lon="9.598530381969628"><ele>59.00000000000001</ele><time>2026-04-07T13:51:38.958Z</time></trkpt><trkpt lat="45.0520360404654" lon="9.598657179053378"><ele>59.0</ele><time>2026-04-07T13:51:41.958Z</time></trkpt><trkpt lat="45.05205696813633" lon="9.59876997216033"><ele>59.0</ele><time>2026-04-07T13:51:44.958Z</time></trkpt><trkpt lat="45.05209820340496" lon="9.59884042206902"><ele>59.0</ele><time>2026-04-07T13:51:48.958Z</time></trkpt><trkpt lat="45.05217022230501" lon="9.598832253440408"><ele>59.00000000000001</ele><time>2026-04-07T13:51:51.958Z</time></trkpt><trkpt lat="45.05224733490621" lon="9.598824197782918"><ele>59.0</ele><time>2026-04-07T13:51:54.958Z</time></trkpt><trkpt lat="45.05232788139491" lon="9.598807326965913"><ele>59.333333333333336</ele><time>2026-04-07T13:51:57.958Z</time></trkpt><trkpt lat="45.052419846582836" lon="9.59879166893498"><ele>59.66666666666667</ele><time>2026-04-07T13:52:00.958Z</time></trkpt><trkpt lat="45.052483566689446" lon="9.598776353172726"><ele>60.0</ele><time>2026-04-07T13:52:02.958Z</time></trkpt><trkpt lat="45.052569377499836" lon="9.598800541954773"><ele>60.33333333333333</ele><time>2026-04-07T13:52:05.958Z</time></trkpt><trkpt lat="45.05263535920966" lon="9.59888683037521"><ele>60.666666666666664</ele><time>2026-04-07T13:52:08.958Z</time></trkpt><trkpt lat="45.05265892313481" lon="9.598973044460624"><ele>61.0</ele><time>2026-04-07T13:52:10.958Z</time></trkpt><trkpt lat="45.05267322022078" lon="9.59906804359099"><ele>61.33333333333333</ele><time>2026-04-07T13:52:12.958Z</time></trkpt><trkpt lat="45.05269242198205" lon="9.599167576542904"><ele>61.666666666666664</ele><time>2026-04-07T13:52:14.958Z</time></trkpt><trkpt lat="45.052704007685854" lon="9.599299408845157"><ele>62.0</ele><time>2026-04-07T13:52:16.958Z</time></trkpt><trkpt lat="45.05271430399346" lon="9.599408247703892"><ele>62.33333333333333</ele><time>2026-04-07T13:52:18.958Z</time></trkpt><trkpt lat="45.05272331087153" lon="9.599511361701882"><ele>62.666666666666664</ele><time>2026-04-07T13:52:20.958Z</time></trkpt><trkpt lat="45.052726039959744" lon="9.59962474021949"><ele>63.0</ele><time>2026-04-07T13:52:22.958Z</time></trkpt><trkpt lat="45.05272764811473" lon="9.599735027934146"><ele>63.0</ele><time>2026-04-07T13:52:24.957Z</time></trkpt><trkpt lat="45.052725996563076" lon="9.599853651228273"><ele>63.0</ele><time>2026-04-07T13:52:26.958Z</time></trkpt><trkpt lat="45.05273257941657" lon="9.599979265952431"><ele>63.0</ele><time>2026-04-07T13:52:28.957Z</time></trkpt><trkpt lat="45.052728741974526" lon="9.6000904343573"><ele>63.0</ele><time>2026-04-07T13:52:30.958Z</time></trkpt><trkpt lat="45.05273319038154" lon="9.60022227351136"><ele>63.0</ele><time>2026-04-07T13:52:32.958Z</time></trkpt><trkpt lat="45.05273220608936" lon="9.600350918552792"><ele>63.0</ele><time>2026-04-07T13:52:34.958Z</time></trkpt><trkpt lat="45.052735422952075" lon="9.6004633408427"><ele>62.5</ele><time>2026-04-07T13:52:36.958Z</time></trkpt><trkpt lat="45.052731502845866" lon="9.600583260556654"><ele>62.0</ele><time>2026-04-07T13:52:38.958Z</time></trkpt><trkpt lat="45.052720945078626" lon="9.600709345983734"><ele>61.5</ele><time>2026-04-07T13:52:40.958Z</time></trkpt><trkpt lat="45.05271156159578" lon="9.600829432506558"><ele>61.0</ele><time>2026-04-07T13:52:42.958Z</time></trkpt><trkpt lat="45.05270605165144" lon="9.60095240898823"><ele>60.5</ele><time>2026-04-07T13:52:44.958Z</time></trkpt><trkpt lat="45.05270855328326" lon="9.601073942073443"><ele>60.0</ele><time>2026-04-07T13:52:46.958Z</time></trkpt><trkpt lat="45.052703792568934" lon="9.601187484040013"><ele>59.833333333333336</ele><time>2026-04-07T13:52:48.958Z</time></trkpt><trkpt lat="45.05269807748845" lon="9.60130249010429"><ele>59.66666666666667</ele><time>2026-04-07T13:52:50.958Z</time></trkpt><trkpt lat="45.05269565091236" lon="9.601408986897162"><ele>59.5</ele><time>2026-04-07T13:52:52.958Z</time></trkpt><trkpt lat="45.052688205588076" lon="9.601526472035161"><ele>59.333333333333336</ele><time>2026-04-07T13:52:54.958Z</time></trkpt><trkpt lat="45.05268170937789" lon="9.60163979865097"><ele>59.16666666666667</ele><time>2026-04-07T13:52:56.958Z</time></trkpt><trkpt lat="45.052671981906194" lon="9.601747617779214"><ele>59.0</ele><time>2026-04-07T13:52:58.958Z</time></trkpt><trkpt lat="45.05266238936342" lon="9.60185747256932"><ele>59.0</ele><time>2026-04-07T13:53:00.958Z</time></trkpt><trkpt lat="45.05266162239557" lon="9.601963531691416"><ele>59.0</ele><time>2026-04-07T13:53:02.958Z</time></trkpt><trkpt lat="45.052654370449496" lon="9.602055064148317"><ele>59.0</ele><time>2026-04-07T13:53:04.958Z</time></trkpt><trkpt lat="45.052648185871035" lon="9.602145350606309"><ele>59.0</ele><time>2026-04-07T13:53:06.958Z</time></trkpt><trkpt lat="45.052640912304646" lon="9.602245088768623"><ele>59.0</ele><time>2026-04-07T13:53:09.958Z</time></trkpt><trkpt lat="45.052674353148376" lon="9.602346142983833"><ele>59.0</ele><time>2026-04-07T13:53:13.958Z</time></trkpt><trkpt lat="45.0527536723294" lon="9.60238231233379"><ele>59.0</ele><time>2026-04-07T13:53:16.958Z</time></trkpt><trkpt lat="45.05283406119301" lon="9.602435932848149"><ele>59.00000000000001</ele><time>2026-04-07T13:53:19.958Z</time></trkpt><trkpt lat="45.0528970266712" lon="9.602486171710643"><ele>59.0</ele><time>2026-04-07T13:53:21.958Z</time></trkpt><trkpt lat="45.052959151591324" lon="9.602540753643572"><ele>59.0</ele><time>2026-04-07T13:53:23.958Z</time></trkpt><trkpt lat="45.053029584494496" lon="9.602590714063814"><ele>59.0</ele><time>2026-04-07T13:53:25.958Z</time></trkpt><trkpt lat="45.053095627796445" lon="9.602648679105673"><ele>59.00000000000001</ele><time>2026-04-07T13:53:27.958Z</time></trkpt><trkpt lat="45.053173258662206" lon="9.602723249155925"><ele>59.0</ele><time>2026-04-07T13:53:29.958Z</time></trkpt><trkpt lat="45.05322586335859" lon="9.602799454459616"><ele>59.00000000000001</ele><time>2026-04-07T13:53:31.958Z</time></trkpt><trkpt lat="45.05326290092776" lon="9.602893787813553"><ele>59.0</ele><time>2026-04-07T13:53:33.958Z</time></trkpt><trkpt lat="45.053268809919174" lon="9.603005817431006"><ele>59.0</ele><time>2026-04-07T13:53:35.958Z</time></trkpt><trkpt lat="45.05325776829659" lon="9.603120218672867"><ele>59.0</ele><time>2026-04-07T13:53:37.958Z</time></trkpt><trkpt lat="45.053241737018084" lon="9.603235024467972"><ele>59.00000000000001</ele><time>2026-04-07T13:53:39.958Z</time></trkpt><trkpt lat="45.05322360787371" lon="9.603346121589446"><ele>59.0</ele><time>2026-04-07T13:53:41.958Z</time></trkpt><trkpt lat="45.05318957319632" lon="9.603446184206371"><ele>59.00000000000001</ele><time>2026-04-07T13:53:43.958Z</time></trkpt><trkpt lat="45.053137349002924" lon="9.603536257025446"><ele>59.0</ele><time>2026-04-07T13:53:45.958Z</time></trkpt><trkpt lat="45.05307932071035" lon="9.603628059710502"><ele>59.0</ele><time>2026-04-07T13:53:47.958Z</time></trkpt><trkpt lat="45.05303926553754" lon="9.603723335709855"><ele>59.0</ele><time>2026-04-07T13:53:49.958Z</time></trkpt><trkpt lat="45.053012309048356" lon="9.603815356461984"><ele>59.00000000000001</ele><time>2026-04-07T13:53:51.958Z</time></trkpt><trkpt lat="45.0529830216849" lon="9.603920057312592"><ele>59.0</ele><time>2026-04-07T13:53:53.958Z</time></trkpt><trkpt lat="45.05295563129874" lon="9.604009647546649"><ele>59.16666666666667</ele><time>2026-04-07T13:53:55.958Z</time></trkpt><trkpt lat="45.05294097102364" lon="9.604105742791843"><ele>59.333333333333336</ele><time>2026-04-07T13:53:57.958Z</time></trkpt><trkpt lat="45.05292940355462" lon="9.604225421274595"><ele>59.5</ele><time>2026-04-07T13:53:59.958Z</time></trkpt><trkpt lat="45.052926609610395" lon="9.60433926378705"><ele>59.66666666666667</ele><time>2026-04-07T13:54:01.958Z</time></trkpt><trkpt lat="45.05291619296369" lon="9.604463053553076"><ele>59.833333333333336</ele><time>2026-04-07T13:54:03.958Z</time></trkpt><trkpt lat="45.05290982879134" lon="9.60458096571448"><ele>60.0</ele><time>2026-04-07T13:54:05.958Z</time></trkpt><trkpt lat="45.05291237105934" lon="9.604701875292331"><ele>60.166666666666664</ele><time>2026-04-07T13:54:07.958Z</time></trkpt><trkpt lat="45.052918305805065" lon="9.60480531039769"><ele>60.33333333333333</ele><time>2026-04-07T13:54:09.958Z</time></trkpt><trkpt lat="45.052923775139774" lon="9.604907929393997"><ele>60.5</ele><time>2026-04-07T13:54:11.958Z</time></trkpt><trkpt lat="45.05292006476915" lon="9.605010610767547"><ele>60.666666666666664</ele><time>2026-04-07T13:54:13.958Z</time></trkpt><trkpt lat="45.052912768559096" lon="9.60512104040245"><ele>60.83333333333333</ele><time>2026-04-07T13:54:15.958Z</time></trkpt><trkpt lat="45.05290728643032" lon="9.60523385844755"><ele>61.0</ele><time>2026-04-07T13:54:17.958Z</time></trkpt><trkpt lat="45.05290745173949" lon="9.605344909220833"><ele>61.166666666666664</ele><time>2026-04-07T13:54:19.958Z</time></trkpt><trkpt lat="45.05290377361418" lon="9.605451107321736"><ele>61.33333333333333</ele><time>2026-04-07T13:54:21.958Z</time></trkpt><trkpt lat="45.052905509140984" lon="9.60555565900672"><ele>61.5</ele><time>2026-04-07T13:54:23.958Z</time></trkpt><trkpt lat="45.0528967214645" lon="9.60567330244784"><ele>61.66666666666667</ele><time>2026-04-07T13:54:25.958Z</time></trkpt><trkpt lat="45.05289435751117" lon="9.605772584788673"><ele>61.833333333333336</ele><time>2026-04-07T13:54:27.957Z</time></trkpt><trkpt lat="45.05289943569064" lon="9.605881218260032"><ele>62.0</ele><time>2026-04-07T13:54:29.957Z</time></trkpt><trkpt lat="45.05291126030448" lon="9.605993270550194"><ele>62.00000000000001</ele><time>2026-04-07T13:54:31.957Z</time></trkpt><trkpt lat="45.052901528666524" lon="9.606097831860765"><ele>62.0</ele><time>2026-04-07T13:54:33.956Z</time></trkpt><trkpt lat="45.0529049352155" lon="9.606212240256651"><ele>62.0</ele><time>2026-04-07T13:54:35.957Z</time></trkpt><trkpt lat="45.05290346337244" lon="9.606321199505123"><ele>62.0</ele><time>2026-04-07T13:54:37.956Z</time></trkpt><trkpt lat="45.052902695730324" lon="9.606436654715504"><ele>62.00000000000001</ele><time>2026-04-07T13:54:39.957Z</time></trkpt><trkpt lat="45.05290025959867" lon="9.606546981463726"><ele>62.0</ele><time>2026-04-07T13:54:41.957Z</time></trkpt><trkpt lat="45.052893276755555" lon="9.60665949515124"><ele>61.833333333333336</ele><time>2026-04-07T13:54:43.957Z</time></trkpt><trkpt lat="45.05288795834591" lon="9.606771763002774"><ele>61.66666666666667</ele><time>2026-04-07T13:54:45.957Z</time></trkpt><trkpt lat="45.052882173648726" lon="9.606867832761624"><ele>61.5</ele><time>2026-04-07T13:54:47.957Z</time></trkpt><trkpt lat="45.05288810780118" lon="9.606977495522063"><ele>61.33333333333333</ele><time>2026-04-07T13:54:49.957Z</time></trkpt><trkpt lat="45.05288270313309" lon="9.607071051453238"><ele>61.166666666666664</ele><time>2026-04-07T13:54:50.957Z</time></trkpt><trkpt lat="45.052859078043966" lon="9.607194625138026"><ele>61.0</ele><time>2026-04-07T13:54:53.957Z</time></trkpt><trkpt lat="45.05284837028678" lon="9.607296798413348"><ele>60.83333333333333</ele><time>2026-04-07T13:54:57.957Z</time></trkpt><trkpt lat="45.05284671298989" lon="9.607410798048601"><ele>60.666666666666664</ele><time>2026-04-07T13:55:08.957Z</time></trkpt><trkpt lat="45.052851975943284" lon="9.607528843293093"><ele>60.5</ele><time>2026-04-07T13:55:11.957Z</time></trkpt><trkpt lat="45.05284101452924" lon="9.607630370150055"><ele>60.33333333333333</ele><time>2026-04-07T13:55:13.957Z</time></trkpt><trkpt lat="45.05284054535322" lon="9.607764349561098"><ele>60.166666666666664</ele><time>2026-04-07T13:55:15.957Z</time></trkpt><trkpt lat="45.05283546093162" lon="9.607884966253948"><ele>60.0</ele><time>2026-04-07T13:55:17.957Z</time></trkpt><trkpt lat="45.052856395144914" lon="9.608010328149787"><ele>60.0</ele><time>2026-04-07T13:55:19.957Z</time></trkpt><trkpt lat="45.05286241670535" lon="9.60810921491433"><ele>60.0</ele><time>2026-04-07T13:55:21.957Z</time></trkpt><trkpt lat="45.052860470348115" lon="9.60824431844564"><ele>60.0</ele><time>2026-04-07T13:55:23.957Z</time></trkpt><trkpt lat="45.052855483003825" lon="9.608382731060788"><ele>60.0</ele><time>2026-04-07T13:55:25.957Z</time></trkpt><trkpt lat="45.05284442686412" lon="9.608510921754775"><ele>60.0</ele><time>2026-04-07T13:55:27.957Z</time></trkpt><trkpt lat="45.052836119044095" lon="9.608639473448653"><ele>60.0</ele><time>2026-04-07T13:55:29.957Z</time></trkpt><trkpt lat="45.052835545036174" lon="9.608768456950306"><ele>60.0</ele><time>2026-04-07T13:55:31.957Z</time></trkpt><trkpt lat="45.05281826529932" lon="9.608907231447702"><ele>60.0</ele><time>2026-04-07T13:55:33.957Z</time></trkpt><trkpt lat="45.05281506824355" lon="9.609025145368042"><ele>60.0</ele><time>2026-04-07T13:55:35.957Z</time></trkpt><trkpt lat="45.052815001235494" lon="9.60914421562581"><ele>60.0</ele><time>2026-04-07T13:55:37.957Z</time></trkpt><trkpt lat="45.05280701640214" lon="9.60926863132614"><ele>60.0</ele><time>2026-04-07T13:55:39.957Z</time></trkpt><trkpt lat="45.052801080709706" lon="9.609379566800024"><ele>60.0</ele><time>2026-04-07T13:55:41.957Z</time></trkpt><trkpt lat="45.05278772596236" lon="9.609493601626884"><ele>60.0</ele><time>2026-04-07T13:55:43.957Z</time></trkpt><trkpt lat="45.05277970568394" lon="9.60964267532829"><ele>60.0</ele><time>2026-04-07T13:55:45.957Z</time></trkpt><trkpt lat="45.05277220092484" lon="9.609751317312156"><ele>60.0</ele><time>2026-04-07T13:55:47.957Z</time></trkpt><trkpt lat="45.05276580914631" lon="9.609845539225738"><ele>60.0</ele><time>2026-04-07T13:55:49.957Z</time></trkpt><trkpt lat="45.05276683891778" lon="9.609950158955208"><ele>60.0</ele><time>2026-04-07T13:55:51.957Z</time></trkpt><trkpt lat="45.05276262268863" lon="9.610054253336967"><ele>60.0</ele><time>2026-04-07T13:55:53.957Z</time></trkpt><trkpt lat="45.05275151415784" lon="9.610155673393708"><ele>60.0</ele><time>2026-04-07T13:55:55.957Z</time></trkpt><trkpt lat="45.05275290756777" lon="9.610292594755526"><ele>60.0</ele><time>2026-04-07T13:55:58.957Z</time></trkpt><trkpt lat="45.052758892284594" lon="9.610396731013417"><ele>60.0</ele><time>2026-04-07T13:56:00.957Z</time></trkpt><trkpt lat="45.05275747075809" lon="9.610510451815138"><ele>60.0</ele><time>2026-04-07T13:56:02.957Z</time></trkpt><trkpt lat="45.05275201821389" lon="9.610639092004028"><ele>60.0</ele><time>2026-04-07T13:56:04.957Z</time></trkpt><trkpt lat="45.052742874036085" lon="9.610751962305981"><ele>60.0</ele><time>2026-04-07T13:56:06.957Z</time></trkpt><trkpt lat="45.052741951036325" lon="9.610863903828344"><ele>60.0</ele><time>2026-04-07T13:56:08.957Z</time></trkpt><trkpt lat="45.052739582803476" lon="9.610969931989002"><ele>60.0</ele><time>2026-04-07T13:56:10.957Z</time></trkpt><trkpt lat="45.05273385262515" lon="9.611075168318077"><ele>60.0</ele><time>2026-04-07T13:56:12.957Z</time></trkpt><trkpt lat="45.05272863131181" lon="9.611182553849472"><ele>60.0</ele><time>2026-04-07T13:56:14.957Z</time></trkpt><trkpt lat="45.052729948656534" lon="9.611288866946667"><ele>60.0</ele><time>2026-04-07T13:56:16.957Z</time></trkpt><trkpt lat="45.052723615936294" lon="9.611407972532767"><ele>60.0</ele><time>2026-04-07T13:56:18.957Z</time></trkpt><trkpt lat="45.05271842214314" lon="9.611528341610196"><ele>60.0</ele><time>2026-04-07T13:56:20.957Z</time></trkpt><trkpt lat="45.052708488009905" lon="9.611637091718578"><ele>60.0</ele><time>2026-04-07T13:56:22.957Z</time></trkpt><trkpt lat="45.052703608530926" lon="9.611743109102788"><ele>60.0</ele><time>2026-04-07T13:56:24.957Z</time></trkpt><trkpt lat="45.05269449323171" lon="9.61184153594344"><ele>60.0</ele><time>2026-04-07T13:56:26.957Z</time></trkpt><trkpt lat="45.0526806564887" lon="9.611940558119448"><ele>60.0</ele><time>2026-04-07T13:56:28.957Z</time></trkpt><trkpt lat="45.052666022526395" lon="9.612042847702023"><ele>60.0</ele><time>2026-04-07T13:56:30.957Z</time></trkpt><trkpt lat="45.0526442388892" lon="9.612141465984411"><ele>60.0</ele><time>2026-04-07T13:56:32.956Z</time></trkpt><trkpt lat="45.052632241307066" lon="9.612270950445703"><ele>60.0</ele><time>2026-04-07T13:56:34.956Z</time></trkpt><trkpt lat="45.052614299468786" lon="9.612372336763444"><ele>60.0</ele><time>2026-04-07T13:56:36.955Z</time></trkpt><trkpt lat="45.052598423099234" lon="9.612489006113583"><ele>60.0</ele><time>2026-04-07T13:56:38.956Z</time></trkpt><trkpt lat="45.05257729264227" lon="9.612615089456398"><ele>60.0</ele><time>2026-04-07T13:56:40.956Z</time></trkpt><trkpt lat="45.05256826134917" lon="9.61275903542082"><ele>60.0</ele><time>2026-04-07T13:56:42.956Z</time></trkpt><trkpt lat="45.05254185739011" lon="9.612881237052905"><ele>60.0</ele><time>2026-04-07T13:56:44.956Z</time></trkpt><trkpt lat="45.05251804878316" lon="9.612997717855357"><ele>60.2</ele><time>2026-04-07T13:56:46.955Z</time></trkpt><trkpt lat="45.05250652166867" lon="9.613139498663696"><ele>60.4</ele><time>2026-04-07T13:56:48.955Z</time></trkpt><trkpt lat="45.05248682005352" lon="9.613272981356376"><ele>60.599999999999994</ele><time>2026-04-07T13:56:50.955Z</time></trkpt><trkpt lat="45.05246067638397" lon="9.613395634994747"><ele>60.8</ele><time>2026-04-07T13:56:52.955Z</time></trkpt><trkpt lat="45.052434902344636" lon="9.613508877560598"><ele>61.0</ele><time>2026-04-07T13:56:54.955Z</time></trkpt><trkpt lat="45.05242384772803" lon="9.61362389614008"><ele>60.83333333333333</ele><time>2026-04-07T13:56:56.955Z</time></trkpt><trkpt lat="45.052412149727544" lon="9.613748144196625"><ele>60.666666666666664</ele><time>2026-04-07T13:56:58.955Z</time></trkpt><trkpt lat="45.05238207597554" lon="9.613858490734676"><ele>60.5</ele><time>2026-04-07T13:57:00.955Z</time></trkpt><trkpt lat="45.05235791413054" lon="9.613982086022052"><ele>60.33333333333333</ele><time>2026-04-07T13:57:02.955Z</time></trkpt><trkpt lat="45.052333580087726" lon="9.614096230146416"><ele>60.166666666666664</ele><time>2026-04-07T13:57:04.955Z</time></trkpt><trkpt lat="45.05230188283736" lon="9.614212939170095"><ele>60.0</ele><time>2026-04-07T13:57:06.955Z</time></trkpt><trkpt lat="45.0522734989451" lon="9.614325485030262"><ele>60.0</ele><time>2026-04-07T13:57:08.955Z</time></trkpt><trkpt lat="45.05224805884966" lon="9.614432530108813"><ele>60.0</ele><time>2026-04-07T13:57:10.955Z</time></trkpt><trkpt lat="45.052225605961645" lon="9.61453178416727"><ele>60.0</ele><time>2026-04-07T13:57:12.955Z</time></trkpt><trkpt lat="45.052209792253116" lon="9.614648766370703"><ele>60.0</ele><time>2026-04-07T13:57:14.955Z</time></trkpt><trkpt lat="45.05219034755147" lon="9.61476042808252"><ele>60.0</ele><time>2026-04-07T13:57:16.955Z</time></trkpt><trkpt lat="45.05217100773906" lon="9.614871131941575"><ele>60.0</ele><time>2026-04-07T13:57:18.955Z</time></trkpt><trkpt lat="45.05215019993313" lon="9.614992072221344"><ele>60.0</ele><time>2026-04-07T13:57:20.955Z</time></trkpt><trkpt lat="45.05213097893166" lon="9.61512148942207"><ele>60.0</ele><time>2026-04-07T13:57:22.955Z</time></trkpt><trkpt lat="45.052117518584495" lon="9.615245402762438"><ele>60.0</ele><time>2026-04-07T13:57:24.955Z</time></trkpt><trkpt lat="45.052095864380554" lon="9.615362411505608"><ele>60.0</ele><time>2026-04-07T13:57:26.955Z</time></trkpt><trkpt lat="45.052078322065974" lon="9.615478017402264"><ele>60.0</ele><time>2026-04-07T13:57:28.955Z</time></trkpt><trkpt lat="45.05205596910035" lon="9.615596489631184"><ele>60.0</ele><time>2026-04-07T13:57:30.955Z</time></trkpt><trkpt lat="45.05204533756973" lon="9.615720578595857"><ele>60.0</ele><time>2026-04-07T13:57:32.955Z</time></trkpt><trkpt lat="45.05202018350011" lon="9.615828893961972"><ele>60.0</ele><time>2026-04-07T13:57:34.955Z</time></trkpt><trkpt lat="45.052006011419024" lon="9.615939936857727"><ele>60.0</ele><time>2026-04-07T13:57:36.955Z</time></trkpt><trkpt lat="45.05199200693947" lon="9.616050657996414"><ele>60.0</ele><time>2026-04-07T13:57:38.955Z</time></trkpt><trkpt lat="45.05197375047271" lon="9.616145629242949"><ele>60.0</ele><time>2026-04-07T13:57:40.955Z</time></trkpt><trkpt lat="45.05195761147903" lon="9.616239080728976"><ele>60.0</ele><time>2026-04-07T13:57:42.955Z</time></trkpt><trkpt lat="45.05194130984472" lon="9.616337991975877"><ele>60.0</ele><time>2026-04-07T13:57:44.955Z</time></trkpt><trkpt lat="45.051927483679144" lon="9.616428961516378"><ele>59.833333333333336</ele><time>2026-04-07T13:57:46.955Z</time></trkpt><trkpt lat="45.05190495510525" lon="9.61656321625296"><ele>59.66666666666667</ele><time>2026-04-07T13:57:49.955Z</time></trkpt><trkpt lat="45.05189446933566" lon="9.616669312385824"><ele>59.5</ele><time>2026-04-07T13:57:51.955Z</time></trkpt><trkpt lat="45.05188270167096" lon="9.616771474044294"><ele>59.333333333333336</ele><time>2026-04-07T13:57:53.955Z</time></trkpt><trkpt lat="45.0518600204799" lon="9.616867194053988"><ele>59.16666666666667</ele><time>2026-04-07T13:57:55.955Z</time></trkpt><trkpt lat="45.0518330568453" lon="9.61697091451189"><ele>59.0</ele><time>2026-04-07T13:57:57.955Z</time></trkpt><trkpt lat="45.05181795303371" lon="9.617086057662789"><ele>59.00000000000001</ele><time>2026-04-07T13:57:59.955Z</time></trkpt><trkpt lat="45.051795972351144" lon="9.617199508236974"><ele>59.0</ele><time>2026-04-07T13:58:01.955Z</time></trkpt><trkpt lat="45.051772672009" lon="9.617312011042424"><ele>59.0</ele><time>2026-04-07T13:58:03.955Z</time></trkpt><trkpt lat="45.051749878637565" lon="9.617428158456365"><ele>59.0</ele><time>2026-04-07T13:58:05.955Z</time></trkpt><trkpt lat="45.051740225235996" lon="9.617544217880518"><ele>59.00000000000001</ele><time>2026-04-07T13:58:07.955Z</time></trkpt><trkpt lat="45.05171364429437" lon="9.617629410222513"><ele>59.0</ele><time>2026-04-07T13:58:09.955Z</time></trkpt><trkpt lat="45.051696120990044" lon="9.61774476930844"><ele>59.00000000000001</ele><time>2026-04-07T13:58:11.955Z</time></trkpt><trkpt lat="45.05171642038191" lon="9.617859476283925"><ele>59.0</ele><time>2026-04-07T13:58:13.955Z</time></trkpt><trkpt lat="45.05176104698675" lon="9.617938500478564"><ele>59.0</ele><time>2026-04-07T13:58:15.955Z</time></trkpt><trkpt lat="45.05181921844843" lon="9.617983996050116"><ele>59.0</ele><time>2026-04-07T13:58:17.955Z</time></trkpt><trkpt lat="45.051891078638626" lon="9.618035051127189"><ele>59.00000000000001</ele><time>2026-04-07T13:58:19.955Z</time></trkpt><trkpt lat="45.05196283697742" lon="9.618090934291882"><ele>59.0</ele><time>2026-04-07T13:58:21.955Z</time></trkpt><trkpt lat="45.052037492634405" lon="9.618138416289696"><ele>59.00000000000001</ele><time>2026-04-07T13:58:23.955Z</time></trkpt><trkpt lat="45.05210433434434" lon="9.618181990937106"><ele>59.0</ele><time>2026-04-07T13:58:25.955Z</time></trkpt><trkpt lat="45.05216614010718" lon="9.618238211241662"><ele>59.0</ele><time>2026-04-07T13:58:27.955Z</time></trkpt><trkpt lat="45.05224499095491" lon="9.61831286979954"><ele>59.0</ele><time>2026-04-07T13:58:30.955Z</time></trkpt><trkpt lat="45.0523012083363" lon="9.618361141770643"><ele>59.00000000000001</ele><time>2026-04-07T13:58:32.955Z</time></trkpt><trkpt lat="45.05238134713667" lon="9.618429047584858"><ele>59.0</ele><time>2026-04-07T13:58:35.955Z</time></trkpt><trkpt lat="45.0524401268489" lon="9.618468305923098"><ele>59.00000000000001</ele><time>2026-04-07T13:58:37.955Z</time></trkpt><trkpt lat="45.05250482876114" lon="9.618512378580975"><ele>59.0</ele><time>2026-04-07T13:58:39.954Z</time></trkpt><trkpt lat="45.05256754752636" lon="9.61857386977726"><ele>59.0</ele><time>2026-04-07T13:58:41.955Z</time></trkpt><trkpt lat="45.052634360228375" lon="9.61862528456311"><ele>59.0</ele><time>2026-04-07T13:58:43.954Z</time></trkpt><trkpt lat="45.05270980494473" lon="9.618694884927184"><ele>59.00000000000001</ele><time>2026-04-07T13:58:46.954Z</time></trkpt><trkpt lat="45.05280388849739" lon="9.618765469366895"><ele>59.0</ele><time>2026-04-07T13:58:49.954Z</time></trkpt><trkpt lat="45.05286999540181" lon="9.61881569786531"><ele>59.00000000000001</ele><time>2026-04-07T13:58:51.954Z</time></trkpt><trkpt lat="45.05294419271055" lon="9.618876816812032"><ele>59.0</ele><time>2026-04-07T13:58:53.954Z</time></trkpt><trkpt lat="45.05302318397814" lon="9.618934318801921"><ele>59.0</ele><time>2026-04-07T13:58:55.954Z</time></trkpt><trkpt lat="45.05310512831753" lon="9.618976635913809"><ele>59.0</ele><time>2026-04-07T13:58:57.954Z</time></trkpt><trkpt lat="45.05319069390757" lon="9.61900853617624"><ele>59.00000000000001</ele><time>2026-04-07T13:58:59.954Z</time></trkpt><trkpt lat="45.053281659083254" lon="9.619035818405596"><ele>59.0</ele><time>2026-04-07T13:59:01.954Z</time></trkpt><trkpt lat="45.05336267487298" lon="9.619049302525418"><ele>58.66666666666667</ele><time>2026-04-07T13:59:03.954Z</time></trkpt><trkpt lat="45.05345074792071" lon="9.619056297599267"><ele>58.333333333333336</ele><time>2026-04-07T13:59:05.954Z</time></trkpt><trkpt lat="45.053539712950204" lon="9.61905738337066"><ele>58.0</ele><time>2026-04-07T13:59:07.954Z</time></trkpt><trkpt lat="45.05363089339005" lon="9.61905179706531"><ele>57.66666666666667</ele><time>2026-04-07T13:59:09.954Z</time></trkpt><trkpt lat="45.05371231285123" lon="9.619039804043702"><ele>57.333333333333336</ele><time>2026-04-07T13:59:11.954Z</time></trkpt><trkpt lat="45.05379272348044" lon="9.619033525083234"><ele>57.0</ele><time>2026-04-07T13:59:13.954Z</time></trkpt><trkpt lat="45.05387245634185" lon="9.619028269267355"><ele>57.0</ele><time>2026-04-07T13:59:15.954Z</time></trkpt><trkpt lat="45.053951452179554" lon="9.619021788026178"><ele>57.0</ele><time>2026-04-07T13:59:17.954Z</time></trkpt><trkpt lat="45.05403239528741" lon="9.619014353993775"><ele>57.0</ele><time>2026-04-07T13:59:19.954Z</time></trkpt><trkpt lat="45.05411426591984" lon="9.619006387450373"><ele>57.0</ele><time>2026-04-07T13:59:21.954Z</time></trkpt><trkpt lat="45.05419378363306" lon="9.618994433628798"><ele>57.0</ele><time>2026-04-07T13:59:23.954Z</time></trkpt><trkpt lat="45.05427682036185" lon="9.618990982371473"><ele>57.0</ele><time>2026-04-07T13:59:25.954Z</time></trkpt><trkpt lat="45.054351282712354" lon="9.618979189684547"><ele>57.166666666666664</ele><time>2026-04-07T13:59:27.954Z</time></trkpt><trkpt lat="45.05443082621651" lon="9.618975105063793"><ele>57.33333333333333</ele><time>2026-04-07T13:59:29.954Z</time></trkpt><trkpt lat="45.0545097933457" lon="9.61897578614187"><ele>57.5</ele><time>2026-04-07T13:59:31.954Z</time></trkpt><trkpt lat="45.054594046768706" lon="9.618965871404008"><ele>57.666666666666664</ele><time>2026-04-07T13:59:33.954Z</time></trkpt><trkpt lat="45.05467639541117" lon="9.618964547919216"><ele>57.83333333333333</ele><time>2026-04-07T13:59:35.954Z</time></trkpt><trkpt lat="45.05475654476453" lon="9.6189634790376"><ele>58.0</ele><time>2026-04-07T13:59:37.954Z</time></trkpt><trkpt lat="45.0548385052331" lon="9.618963557902601"><ele>57.99999999999999</ele><time>2026-04-07T13:59:39.954Z</time></trkpt><trkpt lat="45.054916999564725" lon="9.618952605525738"><ele>58.0</ele><time>2026-04-07T13:59:41.954Z</time></trkpt><trkpt lat="45.05500122831713" lon="9.618943473951191"><ele>58.0</ele><time>2026-04-07T13:59:43.954Z</time></trkpt><trkpt lat="45.0550768493844" lon="9.618941888686168"><ele>58.0</ele><time>2026-04-07T13:59:45.954Z</time></trkpt><trkpt lat="45.055155419894426" lon="9.618938441672814"><ele>57.99999999999999</ele><time>2026-04-07T13:59:47.954Z</time></trkpt><trkpt lat="45.055250517943364" lon="9.618935048263717"><ele>58.0</ele><time>2026-04-07T13:59:50.954Z</time></trkpt><trkpt lat="45.055320133281484" lon="9.61893634111871"><ele>58.00000000000001</ele><time>2026-04-07T13:59:52.954Z</time></trkpt><trkpt lat="45.055397288810845" lon="9.61892669564744"><ele>58.0</ele><time>2026-04-07T13:59:54.954Z</time></trkpt><trkpt lat="45.055461477702224" lon="9.618923221859502"><ele>58.00000000000001</ele><time>2026-04-07T13:59:56.954Z</time></trkpt><trkpt lat="45.055529345153914" lon="9.6189186794001"><ele>58.00000000000001</ele><time>2026-04-07T13:59:58.954Z</time></trkpt><trkpt lat="45.05559463694557" lon="9.618948815940545"><ele>58.0</ele><time>2026-04-07T14:00:00.954Z</time></trkpt><trkpt lat="45.0556619615371" lon="9.61898091191737"><ele>58.00000000000001</ele><time>2026-04-07T14:00:02.954Z</time></trkpt><trkpt lat="45.05571667372369" lon="9.61906623430637"><ele>58.00000000000001</ele><time>2026-04-07T14:00:04.954Z</time></trkpt><trkpt lat="45.0557281094582" lon="9.61918513407531"><ele>57.99999999999999</ele><time>2026-04-07T14:00:06.954Z</time></trkpt><trkpt lat="45.05572727259622" lon="9.619295574300237"><ele>58.0</ele><time>2026-04-07T14:00:08.954Z</time></trkpt><trkpt lat="45.05572543223555" lon="9.619409751785735"><ele>58.0</ele><time>2026-04-07T14:00:10.954Z</time></trkpt><trkpt lat="45.05572479091149" lon="9.619538894189613"><ele>58.0</ele><time>2026-04-07T14:00:12.954Z</time></trkpt><trkpt lat="45.055724953293" lon="9.619666593253493"><ele>57.99999999999999</ele><time>2026-04-07T14:00:14.954Z</time></trkpt><trkpt lat="45.05572273976846" lon="9.61979258860825"><ele>58.0</ele><time>2026-04-07T14:00:16.954Z</time></trkpt><trkpt lat="45.05571808110435" lon="9.619928113447813"><ele>58.0</ele><time>2026-04-07T14:00:18.954Z</time></trkpt><trkpt lat="45.055717098304385" lon="9.620059892957038"><ele>58.0</ele><time>2026-04-07T14:00:20.954Z</time></trkpt><trkpt lat="45.055711874710674" lon="9.62019050973737"><ele>58.0</ele><time>2026-04-07T14:00:22.954Z</time></trkpt><trkpt lat="45.05570755627014" lon="9.620317098019516"><ele>58.0</ele><time>2026-04-07T14:00:24.954Z</time></trkpt><trkpt lat="45.055706571248244" lon="9.620444308058016"><ele>58.0</ele><time>2026-04-07T14:00:26.954Z</time></trkpt><trkpt lat="45.055703805619366" lon="9.62057716998797"><ele>58.0</ele><time>2026-04-07T14:00:28.954Z</time></trkpt><trkpt lat="45.05570052261027" lon="9.620707577417429"><ele>58.0</ele><time>2026-04-07T14:00:30.954Z</time></trkpt><trkpt lat="45.055698233526456" lon="9.620845310203167"><ele>58.0</ele><time>2026-04-07T14:00:32.954Z</time></trkpt><trkpt lat="45.055692658721796" lon="9.620977440044749"><ele>58.0</ele><time>2026-04-07T14:00:34.954Z</time></trkpt><trkpt lat="45.05568927095962" lon="9.62111269695707"><ele>58.0</ele><time>2026-04-07T14:00:36.954Z</time></trkpt><trkpt lat="45.055685798374626" lon="9.621258784831271"><ele>58.0</ele><time>2026-04-07T14:00:38.954Z</time></trkpt><trkpt lat="45.05568598393371" lon="9.62138658996969"><ele>58.0</ele><time>2026-04-07T14:00:40.954Z</time></trkpt><trkpt lat="45.055685166127425" lon="9.621526772040427"><ele>58.0</ele><time>2026-04-07T14:00:42.954Z</time></trkpt><trkpt lat="45.05568519022045" lon="9.62166228187864"><ele>58.0</ele><time>2026-04-07T14:00:44.953Z</time></trkpt><trkpt lat="45.05567218675685" lon="9.621808146408926"><ele>58.0</ele><time>2026-04-07T14:00:46.953Z</time></trkpt><trkpt lat="45.055669721347094" lon="9.621954253971362"><ele>57.8</ele><time>2026-04-07T14:00:48.953Z</time></trkpt><trkpt lat="45.05566614954206" lon="9.622091265531273"><ele>57.599999999999994</ele><time>2026-04-07T14:00:50.953Z</time></trkpt><trkpt lat="45.05566336562457" lon="9.622226905394442"><ele>57.400000000000006</ele><time>2026-04-07T14:00:52.953Z</time></trkpt><trkpt lat="45.0556647033217" lon="9.622364402339223"><ele>57.2</ele><time>2026-04-07T14:00:54.953Z</time></trkpt><trkpt lat="45.055661889779486" lon="9.622498527987396"><ele>57.0</ele><time>2026-04-07T14:00:56.953Z</time></trkpt><trkpt lat="45.05566607604751" lon="9.622638960030335"><ele>57.0</ele><time>2026-04-07T14:00:58.953Z</time></trkpt><trkpt lat="45.055659780538036" lon="9.622780167649612"><ele>57.0</ele><time>2026-04-07T14:01:00.953Z</time></trkpt><trkpt lat="45.05565338786745" lon="9.62291323920866"><ele>57.0</ele><time>2026-04-07T14:01:02.953Z</time></trkpt><trkpt lat="45.055652226072795" lon="9.623053633182499"><ele>57.0</ele><time>2026-04-07T14:01:04.953Z</time></trkpt><trkpt lat="45.05564121777225" lon="9.623189335747833"><ele>57.0</ele><time>2026-04-07T14:01:06.953Z</time></trkpt><trkpt lat="45.055635534304656" lon="9.623330129908865"><ele>57.0</ele><time>2026-04-07T14:01:08.953Z</time></trkpt><trkpt lat="45.05563084479189" lon="9.623466579790682"><ele>57.0</ele><time>2026-04-07T14:01:10.953Z</time></trkpt><trkpt lat="45.05562690031913" lon="9.62359864492014"><ele>57.0</ele><time>2026-04-07T14:01:12.953Z</time></trkpt><trkpt lat="45.05561528930677" lon="9.623734716617086"><ele>57.0</ele><time>2026-04-07T14:01:14.953Z</time></trkpt><trkpt lat="45.05561078359616" lon="9.623878591651419"><ele>57.0</ele><time>2026-04-07T14:01:16.953Z</time></trkpt><trkpt lat="45.055606609175726" lon="9.624027487470045"><ele>57.0</ele><time>2026-04-07T14:01:18.953Z</time></trkpt><trkpt lat="45.05560391294041" lon="9.624182923625206"><ele>57.0</ele><time>2026-04-07T14:01:20.953Z</time></trkpt><trkpt lat="45.05559930717693" lon="9.624328619930887"><ele>57.0</ele><time>2026-04-07T14:01:22.953Z</time></trkpt><trkpt lat="45.05559677352203" lon="9.624476592053224"><ele>57.0</ele><time>2026-04-07T14:01:24.953Z</time></trkpt><trkpt lat="45.05559113296781" lon="9.624630538743325"><ele>57.0</ele><time>2026-04-07T14:01:26.953Z</time></trkpt><trkpt lat="45.05558922268069" lon="9.624790650380191"><ele>56.8</ele><time>2026-04-07T14:01:28.953Z</time></trkpt><trkpt lat="45.055579143761186" lon="9.624940283434293"><ele>56.6</ele><time>2026-04-07T14:01:30.953Z</time></trkpt><trkpt lat="45.05557305595756" lon="9.625086547561013"><ele>56.39999999999999</ele><time>2026-04-07T14:01:32.953Z</time></trkpt><trkpt lat="45.055576371601354" lon="9.625232899464121"><ele>56.199999999999996</ele><time>2026-04-07T14:01:34.953Z</time></trkpt><trkpt lat="45.055572753585835" lon="9.625381429365639"><ele>56.0</ele><time>2026-04-07T14:01:36.953Z</time></trkpt><trkpt lat="45.05556730650751" lon="9.625529465699694"><ele>56.199999999999996</ele><time>2026-04-07T14:01:38.953Z</time></trkpt><trkpt lat="45.05556646715545" lon="9.625682625231518"><ele>56.39999999999999</ele><time>2026-04-07T14:01:40.953Z</time></trkpt><trkpt lat="45.05556166206122" lon="9.62583025429924"><ele>56.6</ele><time>2026-04-07T14:01:42.953Z</time></trkpt><trkpt lat="45.055549910646" lon="9.625973059949294"><ele>56.8</ele><time>2026-04-07T14:01:44.953Z</time></trkpt><trkpt lat="45.05554897630401" lon="9.626119836878946"><ele>57.0</ele><time>2026-04-07T14:01:46.953Z</time></trkpt><trkpt lat="45.055549728345056" lon="9.626259301498004"><ele>57.0</ele><time>2026-04-07T14:01:48.953Z</time></trkpt><trkpt lat="45.05554432112436" lon="9.626400358057367"><ele>57.0</ele><time>2026-04-07T14:01:50.953Z</time></trkpt><trkpt lat="45.05553900606391" lon="9.626541925657763"><ele>57.0</ele><time>2026-04-07T14:01:52.953Z</time></trkpt><trkpt lat="45.05553617740844" lon="9.626689244652294"><ele>57.0</ele><time>2026-04-07T14:01:54.953Z</time></trkpt><trkpt lat="45.055532035048756" lon="9.626829844842081"><ele>57.0</ele><time>2026-04-07T14:01:56.953Z</time></trkpt><trkpt lat="45.05552366106522" lon="9.626963051714071"><ele>56.6</ele><time>2026-04-07T14:01:58.953Z</time></trkpt><trkpt lat="45.05551940260128" lon="9.627096019231674"><ele>56.2</ele><time>2026-04-07T14:02:00.953Z</time></trkpt><trkpt lat="45.05551664030258" lon="9.62722283213633"><ele>55.8</ele><time>2026-04-07T14:02:02.953Z</time></trkpt><trkpt lat="45.055509769734726" lon="9.627348488863118"><ele>55.4</ele><time>2026-04-07T14:02:04.953Z</time></trkpt><trkpt lat="45.05548443544199" lon="9.627470907373311"><ele>55.0</ele><time>2026-04-07T14:02:06.953Z</time></trkpt><trkpt lat="45.05545398236046" lon="9.627593064469822"><ele>54.99999999999999</ele><time>2026-04-07T14:02:08.953Z</time></trkpt><trkpt lat="45.05542190673865" lon="9.627714207031367"><ele>55.0</ele><time>2026-04-07T14:02:10.953Z</time></trkpt><trkpt lat="45.05540063265335" lon="9.627804847396634"><ele>55.0</ele><time>2026-04-07T14:02:12.953Z</time></trkpt><trkpt lat="45.05545758193518" lon="9.627896988011884"><ele>55.0</ele><time>2026-04-07T14:02:17.953Z</time></trkpt><trkpt lat="45.0554223485452" lon="9.628018498967453"><ele>54.99999999999999</ele><time>2026-04-07T14:02:20.953Z</time></trkpt><trkpt lat="45.055414603375596" lon="9.628129266864638"><ele>55.0</ele><time>2026-04-07T14:02:22.953Z</time></trkpt><trkpt lat="45.05541470383546" lon="9.628249401452976"><ele>55.166666666666664</ele><time>2026-04-07T14:02:24.953Z</time></trkpt><trkpt lat="45.05541262578935" lon="9.628371039540598"><ele>55.33333333333333</ele><time>2026-04-07T14:02:26.953Z</time></trkpt><trkpt lat="45.05541425587041" lon="9.62848756407944"><ele>55.5</ele><time>2026-04-07T14:02:28.953Z</time></trkpt><trkpt lat="45.05541368012543" lon="9.628604794984426"><ele>55.66666666666667</ele><time>2026-04-07T14:02:30.953Z</time></trkpt><trkpt lat="45.05541688845457" lon="9.628726294853852"><ele>55.833333333333336</ele><time>2026-04-07T14:02:32.953Z</time></trkpt><trkpt lat="45.05542494453278" lon="9.628840127284588"><ele>56.0</ele><time>2026-04-07T14:02:34.953Z</time></trkpt><trkpt lat="45.05543713036156" lon="9.628946601253391"><ele>56.0</ele><time>2026-04-07T14:02:36.953Z</time></trkpt><trkpt lat="45.055430762032714" lon="9.629045781019268"><ele>56.0</ele><time>2026-04-07T14:02:38.953Z</time></trkpt><trkpt lat="45.05540385167576" lon="9.62912827433805"><ele>56.0</ele><time>2026-04-07T14:02:40.953Z</time></trkpt><trkpt lat="45.05539146860026" lon="9.629217287529828"><ele>56.0</ele><time>2026-04-07T14:02:42.953Z</time></trkpt><trkpt lat="45.055421989571215" lon="9.629307831840151"><ele>56.0</ele><time>2026-04-07T14:02:44.953Z</time></trkpt><trkpt lat="45.05544142501767" lon="9.62942762922158"><ele>56.0</ele><time>2026-04-07T14:02:46.953Z</time></trkpt><trkpt lat="45.05545777091319" lon="9.629549891402318"><ele>56.0</ele><time>2026-04-07T14:02:48.953Z</time></trkpt><trkpt lat="45.05545000228545" lon="9.62967492961023"><ele>56.16666666666667</ele><time>2026-04-07T14:02:50.952Z</time></trkpt><trkpt lat="45.055447076350724" lon="9.6297931614373"><ele>56.333333333333336</ele><time>2026-04-07T14:02:52.952Z</time></trkpt><trkpt lat="45.05545106965013" lon="9.62990226419279"><ele>56.5</ele><time>2026-04-07T14:02:54.951Z</time></trkpt><trkpt lat="45.05545541278865" lon="9.630008443365941"><ele>56.66666666666667</ele><time>2026-04-07T14:02:56.952Z</time></trkpt><trkpt lat="45.05545168495658" lon="9.630114346633665"><ele>56.833333333333336</ele><time>2026-04-07T14:02:58.951Z</time></trkpt><trkpt lat="45.05545540721302" lon="9.630218983202946"><ele>57.0</ele><time>2026-04-07T14:03:00.952Z</time></trkpt><trkpt lat="45.05544349226168" lon="9.630329657202063"><ele>56.666666666666664</ele><time>2026-04-07T14:03:02.952Z</time></trkpt><trkpt lat="45.05544207630656" lon="9.630443474217335"><ele>56.33333333333333</ele><time>2026-04-07T14:03:04.952Z</time></trkpt><trkpt lat="45.05543820785396" lon="9.630557765368525"><ele>56.0</ele><time>2026-04-07T14:03:06.952Z</time></trkpt><trkpt lat="45.0554347783968" lon="9.630676578791336"><ele>55.666666666666664</ele><time>2026-04-07T14:03:08.952Z</time></trkpt><trkpt lat="45.05542882860621" lon="9.630803058136369"><ele>55.33333333333333</ele><time>2026-04-07T14:03:10.952Z</time></trkpt><trkpt lat="45.05542785757924" lon="9.630927083627057"><ele>55.0</ele><time>2026-04-07T14:03:12.952Z</time></trkpt><trkpt lat="45.055422815079325" lon="9.631047075305508"><ele>54.6</ele><time>2026-04-07T14:03:14.952Z</time></trkpt><trkpt lat="45.05541544531157" lon="9.631179419205239"><ele>54.2</ele><time>2026-04-07T14:03:16.952Z</time></trkpt><trkpt lat="45.05541387965149" lon="9.63131198301637"><ele>53.8</ele><time>2026-04-07T14:03:18.952Z</time></trkpt><trkpt lat="45.055414734922884" lon="9.631436017213101"><ele>53.4</ele><time>2026-04-07T14:03:20.952Z</time></trkpt><trkpt lat="45.055407616165475" lon="9.631562462799916"><ele>53.0</ele><time>2026-04-07T14:03:22.952Z</time></trkpt><trkpt lat="45.055403559331744" lon="9.631692412297925"><ele>53.00000000000001</ele><time>2026-04-07T14:03:24.952Z</time></trkpt><trkpt lat="45.05540021865781" lon="9.631804729776613"><ele>53.0</ele><time>2026-04-07T14:03:26.952Z</time></trkpt><trkpt lat="45.055398870687846" lon="9.63192251761692"><ele>53.0</ele><time>2026-04-07T14:03:28.952Z</time></trkpt><trkpt lat="45.055394840292315" lon="9.63204195519576"><ele>53.0</ele><time>2026-04-07T14:03:30.952Z</time></trkpt><trkpt lat="45.05539051517917" lon="9.632164991356271"><ele>53.00000000000001</ele><time>2026-04-07T14:03:32.952Z</time></trkpt><trkpt lat="45.05538819316239" lon="9.632298922397982"><ele>53.0</ele><time>2026-04-07T14:03:34.952Z</time></trkpt><trkpt lat="45.05538424188111" lon="9.632423839013036"><ele>53.00000000000001</ele><time>2026-04-07T14:03:36.952Z</time></trkpt><trkpt lat="45.055380820465714" lon="9.632545380974857"><ele>53.0</ele><time>2026-04-07T14:03:38.952Z</time></trkpt><trkpt lat="45.05537839327325" lon="9.632656728861177"><ele>53.0</ele><time>2026-04-07T14:03:40.952Z</time></trkpt><trkpt lat="45.055375582428375" lon="9.632767541311404"><ele>53.0</ele><time>2026-04-07T14:03:42.952Z</time></trkpt><trkpt lat="45.055376238619445" lon="9.632885599065848"><ele>53.00000000000001</ele><time>2026-04-07T14:03:44.952Z</time></trkpt><trkpt lat="45.0553753164821" lon="9.633009147972148"><ele>53.0</ele><time>2026-04-07T14:03:46.952Z</time></trkpt><trkpt lat="45.05536651211299" lon="9.633129744747368"><ele>53.00000000000001</ele><time>2026-04-07T14:03:48.952Z</time></trkpt><trkpt lat="45.05536553584787" lon="9.63324808703776"><ele>53.0</ele><time>2026-04-07T14:03:50.952Z</time></trkpt><trkpt lat="45.055364809528825" lon="9.633353816194136"><ele>53.0</ele><time>2026-04-07T14:03:52.952Z</time></trkpt><trkpt lat="45.05536482247014" lon="9.633468460766224"><ele>53.0</ele><time>2026-04-07T14:03:54.952Z</time></trkpt><trkpt lat="45.05535916769677" lon="9.633585127384425"><ele>53.00000000000001</ele><time>2026-04-07T14:03:56.952Z</time></trkpt><trkpt lat="45.05535221775975" lon="9.633703924195547"><ele>53.0</ele><time>2026-04-07T14:03:58.952Z</time></trkpt><trkpt lat="45.05534134291262" lon="9.633829937707587"><ele>53.00000000000001</ele><time>2026-04-07T14:04:00.952Z</time></trkpt><trkpt lat="45.0553402546133" lon="9.63395345147006"><ele>53.0</ele><time>2026-04-07T14:04:02.952Z</time></trkpt><trkpt lat="45.05533844505463" lon="9.634071925079216"><ele>53.0</ele><time>2026-04-07T14:04:04.952Z</time></trkpt><trkpt lat="45.05533476279072" lon="9.63420277526334"><ele>53.0</ele><time>2026-04-07T14:04:06.952Z</time></trkpt><trkpt lat="45.055335373987425" lon="9.634316112790767"><ele>53.00000000000001</ele><time>2026-04-07T14:04:08.952Z</time></trkpt><trkpt lat="45.055332177838245" lon="9.634435415054561"><ele>53.0</ele><time>2026-04-07T14:04:10.952Z</time></trkpt><trkpt lat="45.05533216060162" lon="9.634550302905534"><ele>53.333333333333336</ele><time>2026-04-07T14:04:12.952Z</time></trkpt><trkpt lat="45.05531722848253" lon="9.634670801388463"><ele>53.66666666666667</ele><time>2026-04-07T14:04:14.952Z</time></trkpt><trkpt lat="45.055313757872554" lon="9.634790649741204"><ele>54.0</ele><time>2026-04-07T14:04:16.952Z</time></trkpt><trkpt lat="45.05531361035614" lon="9.634903588618064"><ele>54.33333333333333</ele><time>2026-04-07T14:04:18.952Z</time></trkpt><trkpt lat="45.055305318279686" lon="9.635022703459946"><ele>54.666666666666664</ele><time>2026-04-07T14:04:20.952Z</time></trkpt><trkpt lat="45.05529794015127" lon="9.635148610971912"><ele>55.0</ele><time>2026-04-07T14:04:22.952Z</time></trkpt><trkpt lat="45.05529516148229" lon="9.635273450009555"><ele>55.166666666666664</ele><time>2026-04-07T14:04:24.952Z</time></trkpt><trkpt lat="45.05528607906168" lon="9.635391952298134"><ele>55.33333333333333</ele><time>2026-04-07T14:04:26.952Z</time></trkpt><trkpt lat="45.05528419451781" lon="9.635506283650694"><ele>55.5</ele><time>2026-04-07T14:04:28.952Z</time></trkpt><trkpt lat="45.0552832465076" lon="9.635618940530401"><ele>55.66666666666667</ele><time>2026-04-07T14:04:30.952Z</time></trkpt><trkpt lat="45.05528797445428" lon="9.635728765090972"><ele>55.833333333333336</ele><time>2026-04-07T14:04:32.952Z</time></trkpt><trkpt lat="45.05528477519186" lon="9.63584320816529"><ele>56.0</ele><time>2026-04-07T14:04:34.952Z</time></trkpt><trkpt lat="45.0552885738681" lon="9.635959162614306"><ele>56.00000000000001</ele><time>2026-04-07T14:04:36.952Z</time></trkpt><trkpt lat="45.05528538845561" lon="9.636068513881915"><ele>56.0</ele><time>2026-04-07T14:04:38.952Z</time></trkpt><trkpt lat="45.05528039840474" lon="9.636185733401529"><ele>56.0</ele><time>2026-04-07T14:04:40.952Z</time></trkpt><trkpt lat="45.05527443968931" lon="9.636301034126515"><ele>56.0</ele><time>2026-04-07T14:04:42.952Z</time></trkpt><trkpt lat="45.05527062296886" lon="9.636419593494148"><ele>56.00000000000001</ele><time>2026-04-07T14:04:44.952Z</time></trkpt><trkpt lat="45.05526670249945" lon="9.636533289390037"><ele>56.0</ele><time>2026-04-07T14:04:46.952Z</time></trkpt><trkpt lat="45.05526386148781" lon="9.636635319044403"><ele>56.14285714285714</ele><time>2026-04-07T14:04:48.952Z</time></trkpt><trkpt lat="45.055263837895474" lon="9.636725036266439"><ele>56.285714285714285</ele><time>2026-04-07T14:04:50.952Z</time></trkpt><trkpt lat="45.05526379771" lon="9.636814771243193"><ele>56.42857142857143</ele><time>2026-04-07T14:04:52.952Z</time></trkpt><trkpt lat="45.05526138096221" lon="9.636925701873494"><ele>56.57142857142857</ele><time>2026-04-07T14:04:54.952Z</time></trkpt><trkpt lat="45.05525333512098" lon="9.637032941958642"><ele>56.71428571428571</ele><time>2026-04-07T14:04:56.951Z</time></trkpt><trkpt lat="45.05524177774713" lon="9.63715338450531"><ele>56.857142857142854</ele><time>2026-04-07T14:04:58.95Z</time></trkpt><trkpt lat="45.055239281818906" lon="9.637266999257704"><ele>57.0</ele><time>2026-04-07T14:05:00.95Z</time></trkpt><trkpt lat="45.05523438027458" lon="9.63738484662507"><ele>57.333333333333336</ele><time>2026-04-07T14:05:02.951Z</time></trkpt><trkpt lat="45.05522447286225" lon="9.637499169590711"><ele>57.66666666666667</ele><time>2026-04-07T14:05:04.95Z</time></trkpt><trkpt lat="45.05521357628659" lon="9.637613764948261"><ele>58.0</ele><time>2026-04-07T14:05:06.95Z</time></trkpt><trkpt lat="45.05520079944807" lon="9.637732552975447"><ele>58.333333333333336</ele><time>2026-04-07T14:05:08.95Z</time></trkpt><trkpt lat="45.055199889597546" lon="9.637848405163618"><ele>58.66666666666667</ele><time>2026-04-07T14:05:10.95Z</time></trkpt><trkpt lat="45.05518767569403" lon="9.637961487631943"><ele>59.0</ele><time>2026-04-07T14:05:12.95Z</time></trkpt><trkpt lat="45.05515779008564" lon="9.63808044291112"><ele>58.833333333333336</ele><time>2026-04-07T14:05:14.95Z</time></trkpt><trkpt lat="45.055130758330506" lon="9.638188203422406"><ele>58.66666666666667</ele><time>2026-04-07T14:05:16.95Z</time></trkpt><trkpt lat="45.05509452997317" lon="9.638291322398683"><ele>58.5</ele><time>2026-04-07T14:05:18.95Z</time></trkpt><trkpt lat="45.05505346847535" lon="9.638389148871084"><ele>58.33333333333333</ele><time>2026-04-07T14:05:20.95Z</time></trkpt><trkpt lat="45.055006593175676" lon="9.638476692805925"><ele>58.166666666666664</ele><time>2026-04-07T14:05:22.95Z</time></trkpt><trkpt lat="45.054952192788775" lon="9.638548939463105"><ele>58.0</ele><time>2026-04-07T14:05:24.95Z</time></trkpt><trkpt lat="45.05489559794735" lon="9.638612083829019"><ele>58.00000000000001</ele><time>2026-04-07T14:05:26.95Z</time></trkpt><trkpt lat="45.054840221425636" lon="9.638658539832655"><ele>58.0</ele><time>2026-04-07T14:05:28.95Z</time></trkpt><trkpt lat="45.05483869686954" lon="9.638770882622168"><ele>58.00000000000001</ele><time>2026-04-07T14:05:33.95Z</time></trkpt><trkpt lat="45.05485767000729" lon="9.638887035538135"><ele>58.00000000000001</ele><time>2026-04-07T14:05:36.95Z</time></trkpt><trkpt lat="45.05488692386351" lon="9.638967490117258"><ele>58.0</ele><time>2026-04-07T14:05:38.95Z</time></trkpt><trkpt lat="45.054974398926426" lon="9.638976508638594"><ele>58.00000000000001</ele><time>2026-04-07T14:05:41.95Z</time></trkpt><trkpt lat="45.055029155499504" lon="9.639032464168617"><ele>58.00000000000001</ele><time>2026-04-07T14:05:43.95Z</time></trkpt><trkpt lat="45.05507055951996" lon="9.639104950928818"><ele>58.28571428571429</ele><time>2026-04-07T14:05:45.95Z</time></trkpt><trkpt lat="45.05510997328075" lon="9.63919707431372"><ele>58.57142857142857</ele><time>2026-04-07T14:05:48.95Z</time></trkpt><trkpt lat="45.05517137583527" lon="9.639245715749222"><ele>58.85714285714286</ele><time>2026-04-07T14:05:51.95Z</time></trkpt><trkpt lat="45.055182667004566" lon="9.63934341938857"><ele>59.142857142857146</ele><time>2026-04-07T14:05:53.95Z</time></trkpt><trkpt lat="45.055191877550314" lon="9.639444105897791"><ele>59.42857142857143</ele><time>2026-04-07T14:05:55.95Z</time></trkpt><trkpt lat="45.0551824984482" lon="9.639543533189102"><ele>59.714285714285715</ele><time>2026-04-07T14:05:57.95Z</time></trkpt><trkpt lat="45.0551847814221" lon="9.639651546168329"><ele>60.0</ele><time>2026-04-07T14:05:59.95Z</time></trkpt><trkpt lat="45.05518978582652" lon="9.639757018595963"><ele>60.0</ele><time>2026-04-07T14:06:01.95Z</time></trkpt><trkpt lat="45.05519211532395" lon="9.639876316776723"><ele>60.0</ele><time>2026-04-07T14:06:03.95Z</time></trkpt><trkpt lat="45.05519574027837" lon="9.639996708363396"><ele>60.0</ele><time>2026-04-07T14:06:05.95Z</time></trkpt><trkpt lat="45.05519851382081" lon="9.640111746478606"><ele>60.0</ele><time>2026-04-07T14:06:07.95Z</time></trkpt><trkpt lat="45.05520665567177" lon="9.640215778304393"><ele>60.0</ele><time>2026-04-07T14:06:09.95Z</time></trkpt><trkpt lat="45.05520944635408" lon="9.640326597391931"><ele>60.0</ele><time>2026-04-07T14:06:11.95Z</time></trkpt><trkpt lat="45.05520926346978" lon="9.640436100932956"><ele>59.833333333333336</ele><time>2026-04-07T14:06:13.95Z</time></trkpt><trkpt lat="45.05521074193704" lon="9.64054692949923"><ele>59.66666666666667</ele><time>2026-04-07T14:06:15.95Z</time></trkpt><trkpt lat="45.055206504656475" lon="9.640657811111215"><ele>59.5</ele><time>2026-04-07T14:06:17.95Z</time></trkpt><trkpt lat="45.05519817631767" lon="9.640780910918274"><ele>59.333333333333336</ele><time>2026-04-07T14:06:20.95Z</time></trkpt><trkpt lat="45.055194052024426" lon="9.640882533179761"><ele>59.16666666666667</ele><time>2026-04-07T14:06:22.95Z</time></trkpt><trkpt lat="45.05518604274865" lon="9.640992389114304"><ele>59.0</ele><time>2026-04-07T14:06:24.95Z</time></trkpt><trkpt lat="45.055182512573445" lon="9.641124059354432"><ele>58.800000000000004</ele><time>2026-04-07T14:06:26.95Z</time></trkpt><trkpt lat="45.05517788067164" lon="9.64125990392729"><ele>58.60000000000001</ele><time>2026-04-07T14:06:28.95Z</time></trkpt><trkpt lat="45.05517089415205" lon="9.641389719820674"><ele>58.4</ele><time>2026-04-07T14:06:30.95Z</time></trkpt><trkpt lat="45.05517184192328" lon="9.641522683226746"><ele>58.2</ele><time>2026-04-07T14:06:32.95Z</time></trkpt><trkpt lat="45.055163786160136" lon="9.641645280893835"><ele>58.0</ele><time>2026-04-07T14:06:34.95Z</time></trkpt><trkpt lat="45.05515066118904" lon="9.641778256299625"><ele>57.99999999999999</ele><time>2026-04-07T14:06:36.95Z</time></trkpt><trkpt lat="45.05516025673089" lon="9.641909069716247"><ele>58.0</ele><time>2026-04-07T14:06:38.95Z</time></trkpt><trkpt lat="45.05516292744446" lon="9.642041622374455"><ele>58.0</ele><time>2026-04-07T14:06:40.95Z</time></trkpt><trkpt lat="45.0551678512366" lon="9.642158510581435"><ele>58.0</ele><time>2026-04-07T14:06:42.95Z</time></trkpt><trkpt lat="45.05516497174073" lon="9.642284895213555"><ele>57.99999999999999</ele><time>2026-04-07T14:06:44.95Z</time></trkpt><trkpt lat="45.05517888848313" lon="9.64240476999874"><ele>58.0</ele><time>2026-04-07T14:06:46.95Z</time></trkpt><trkpt lat="45.05517472950034" lon="9.642522251855901"><ele>57.99999999999999</ele><time>2026-04-07T14:06:48.95Z</time></trkpt><trkpt lat="45.05516611080445" lon="9.642636548036354"><ele>58.0</ele><time>2026-04-07T14:06:50.95Z</time></trkpt><trkpt lat="45.055150281761556" lon="9.642763091250012"><ele>58.0</ele><time>2026-04-07T14:06:52.95Z</time></trkpt><trkpt lat="45.05513428297443" lon="9.642882915301362"><ele>58.0</ele><time>2026-04-07T14:06:54.95Z</time></trkpt><trkpt lat="45.05512070949622" lon="9.64300485202312"><ele>57.99999999999999</ele><time>2026-04-07T14:06:56.95Z</time></trkpt><trkpt lat="45.05511997497841" lon="9.643126904302287"><ele>58.0</ele><time>2026-04-07T14:06:58.95Z</time></trkpt><trkpt lat="45.05510730544316" lon="9.643247788271536"><ele>58.166666666666664</ele><time>2026-04-07T14:07:00.95Z</time></trkpt><trkpt lat="45.05509292197861" lon="9.643357615998742"><ele>58.33333333333333</ele><time>2026-04-07T14:07:02.949Z</time></trkpt><trkpt lat="45.05508883808319" lon="9.643471417699292"><ele>58.5</ele><time>2026-04-07T14:07:04.95Z</time></trkpt><trkpt lat="45.05508015139577" lon="9.643572888722797"><ele>58.66666666666667</ele><time>2026-04-07T14:07:06.949Z</time></trkpt><trkpt lat="45.05506921926594" lon="9.643682870052546"><ele>58.833333333333336</ele><time>2026-04-07T14:07:08.949Z</time></trkpt><trkpt lat="45.055068191116625" lon="9.643800778320875"><ele>59.0</ele><time>2026-04-07T14:07:10.949Z</time></trkpt><trkpt lat="45.05507041260607" lon="9.643910280759554"><ele>59.00000000000001</ele><time>2026-04-07T14:07:12.949Z</time></trkpt><trkpt lat="45.05506815636828" lon="9.644006950680325"><ele>59.0</ele><time>2026-04-07T14:07:14.949Z</time></trkpt><trkpt lat="45.055024532537644" lon="9.644103492168663"><ele>59.0</ele><time>2026-04-07T14:07:17.949Z</time></trkpt><trkpt lat="45.05494565740357" lon="9.64408703876266"><ele>59.0</ele><time>2026-04-07T14:07:20.949Z</time></trkpt><trkpt lat="45.0548664473532" lon="9.644068847593124"><ele>59.00000000000001</ele><time>2026-04-07T14:07:23.949Z</time></trkpt><trkpt lat="45.054767143075615" lon="9.64405187701628"><ele>59.0</ele><time>2026-04-07T14:07:26.949Z</time></trkpt><trkpt lat="45.05467262746937" lon="9.644034639533558"><ele>59.00000000000001</ele><time>2026-04-07T14:07:29.949Z</time></trkpt><trkpt lat="45.05460523674417" lon="9.64402162131085"><ele>59.0</ele><time>2026-04-07T14:07:31.949Z</time></trkpt><trkpt lat="45.05452870882729" lon="9.644011467998093"><ele>59.0</ele><time>2026-04-07T14:07:33.949Z</time></trkpt><trkpt lat="45.05444251558888" lon="9.644002699769525"><ele>59.0</ele><time>2026-04-07T14:07:36.949Z</time></trkpt><trkpt lat="45.05437681855849" lon="9.644065243430616"><ele>59.00000000000001</ele><time>2026-04-07T14:07:39.949Z</time></trkpt><trkpt lat="45.05436041532538" lon="9.644179587837492"><ele>59.0</ele><time>2026-04-07T14:07:42.949Z</time></trkpt><trkpt lat="45.05436789341593" lon="9.64430378759437"><ele>59.0</ele><time>2026-04-07T14:07:45.949Z</time></trkpt><trkpt lat="45.05436514212231" lon="9.644409144915684"><ele>59.0</ele><time>2026-04-07T14:07:47.949Z</time></trkpt><trkpt lat="45.054357100013576" lon="9.64451122083917"><ele>59.0</ele><time>2026-04-07T14:07:49.949Z</time></trkpt><trkpt lat="45.05435082271639" lon="9.644609291687557"><ele>59.0</ele><time>2026-04-07T14:07:51.949Z</time></trkpt><trkpt lat="45.0543526831677" lon="9.644710726797515"><ele>59.0</ele><time>2026-04-07T14:07:53.949Z</time></trkpt><trkpt lat="45.05435259554264" lon="9.644805413719057"><ele>59.0</ele><time>2026-04-07T14:07:55.949Z</time></trkpt><trkpt lat="45.054347255243925" lon="9.644894949842058"><ele>59.0</ele><time>2026-04-07T14:07:57.949Z</time></trkpt><trkpt lat="45.05434876295255" lon="9.64498913086929"><ele>59.0</ele><time>2026-04-07T14:07:59.949Z</time></trkpt><trkpt lat="45.05433659083108" lon="9.645084429635203"><ele>59.0</ele><time>2026-04-07T14:08:01.949Z</time></trkpt><trkpt lat="45.054319823284885" lon="9.64517836171914"><ele>59.0</ele><time>2026-04-07T14:08:03.949Z</time></trkpt><trkpt lat="45.05431075308111" lon="9.645279041469882"><ele>59.0</ele><time>2026-04-07T14:08:05.949Z</time></trkpt><trkpt lat="45.0543013568184" lon="9.645368199842515"><ele>59.0</ele><time>2026-04-07T14:08:07.949Z</time></trkpt><trkpt lat="45.05428794348287" lon="9.645461573847058"><ele>59.0</ele><time>2026-04-07T14:08:09.949Z</time></trkpt><trkpt lat="45.05427947737009" lon="9.645559456608401"><ele>59.0</ele><time>2026-04-07T14:08:11.949Z</time></trkpt><trkpt lat="45.05427007550773" lon="9.645658966807792"><ele>59.0</ele><time>2026-04-07T14:08:13.949Z</time></trkpt><trkpt lat="45.0542601938916" lon="9.645748812306428"><ele>59.0</ele><time>2026-04-07T14:08:15.949Z</time></trkpt><trkpt lat="45.0542442199827" lon="9.645844774805715"><ele>59.0</ele><time>2026-04-07T14:08:17.949Z</time></trkpt><trkpt lat="45.0542322653244" lon="9.645967537169293"><ele>59.0</ele><time>2026-04-07T14:08:20.949Z</time></trkpt><trkpt lat="45.05423751420201" lon="9.6460767287093"><ele>59.0</ele><time>2026-04-07T14:08:23.949Z</time></trkpt><trkpt lat="45.05422777527652" lon="9.646189458536327"><ele>59.0</ele><time>2026-04-07T14:08:26.949Z</time></trkpt><trkpt lat="45.0541695405279" lon="9.646224793940059"><ele>59.0</ele><time>2026-04-07T14:08:28.949Z</time></trkpt><trkpt lat="45.05409971195873" lon="9.646229783914327"><ele>59.16666666666667</ele><time>2026-04-07T14:08:30.949Z</time></trkpt><trkpt lat="45.05403622944622" lon="9.646207252008468"><ele>59.333333333333336</ele><time>2026-04-07T14:08:32.949Z</time></trkpt><trkpt lat="45.05393037646412" lon="9.64618949722973"><ele>59.5</ele><time>2026-04-07T14:08:35.949Z</time></trkpt><trkpt lat="45.05385520918642" lon="9.64618233938078"><ele>59.66666666666667</ele><time>2026-04-07T14:08:37.949Z</time></trkpt><trkpt lat="45.05378417021603" lon="9.64616626549965"><ele>59.833333333333336</ele><time>2026-04-07T14:08:39.949Z</time></trkpt><trkpt lat="45.0537223574032" lon="9.646145629439943"><ele>60.0</ele><time>2026-04-07T14:08:41.949Z</time></trkpt><trkpt lat="45.0536548997364" lon="9.646134563214924"><ele>59.833333333333336</ele><time>2026-04-07T14:08:43.949Z</time></trkpt><trkpt lat="45.05358300530512" lon="9.646121021561063"><ele>59.66666666666667</ele><time>2026-04-07T14:08:45.949Z</time></trkpt><trkpt lat="45.05351150181279" lon="9.646112592749514"><ele>59.5</ele><time>2026-04-07T14:08:47.949Z</time></trkpt><trkpt lat="45.053439738004194" lon="9.646100952399696"><ele>59.333333333333336</ele><time>2026-04-07T14:08:49.949Z</time></trkpt><trkpt lat="45.05336207866395" lon="9.646087818205553"><ele>59.16666666666667</ele><time>2026-04-07T14:08:51.949Z</time></trkpt><trkpt lat="45.05327327739629" lon="9.646095637535838"><ele>59.0</ele><time>2026-04-07T14:08:53.949Z</time></trkpt><trkpt lat="45.05318978085186" lon="9.646103050483182"><ele>59.333333333333336</ele><time>2026-04-07T14:08:56.949Z</time></trkpt><trkpt lat="45.05312115329565" lon="9.646168702198505"><ele>59.66666666666667</ele><time>2026-04-07T14:08:59.949Z</time></trkpt><trkpt lat="45.05311509755254" lon="9.646267905762942"><ele>60.0</ele><time>2026-04-07T14:09:01.949Z</time></trkpt><trkpt lat="45.05310594613559" lon="9.646398021436411"><ele>60.33333333333333</ele><time>2026-04-07T14:09:04.949Z</time></trkpt><trkpt lat="45.05309619685973" lon="9.64649468861563"><ele>60.666666666666664</ele><time>2026-04-07T14:09:06.949Z</time></trkpt><trkpt lat="45.05308130569524" lon="9.64662954993843"><ele>61.0</ele><time>2026-04-07T14:09:09.947Z</time></trkpt><trkpt lat="45.0530710556552" lon="9.646723685220781"><ele>60.99999999999999</ele><time>2026-04-07T14:09:11.948Z</time></trkpt><trkpt lat="45.05304718683326" lon="9.64681892918764"><ele>61.0</ele><time>2026-04-07T14:09:12.947Z</time></trkpt><trkpt lat="45.05304737477937" lon="9.646910741021179"><ele>61.0</ele><time>2026-04-07T14:09:15.947Z</time></trkpt><trkpt lat="45.0530416160186" lon="9.647046735801613"><ele>61.0</ele><time>2026-04-07T14:09:18.947Z</time></trkpt><trkpt lat="45.05304042948249" lon="9.647137109405163"><ele>60.99999999999999</ele><time>2026-04-07T14:09:20.948Z</time></trkpt><trkpt lat="45.05305136106409" lon="9.647256637168757"><ele>61.0</ele><time>2026-04-07T14:09:23.948Z</time></trkpt><trkpt lat="45.0530441904116" lon="9.647370500007058"><ele>60.85714285714285</ele><time>2026-04-07T14:09:26.948Z</time></trkpt><trkpt lat="45.05303967008549" lon="9.647462172098756"><ele>60.71428571428571</ele><time>2026-04-07T14:09:29.948Z</time></trkpt><trkpt lat="45.05304158133209" lon="9.647572302115039"><ele>60.57142857142857</ele><time>2026-04-07T14:09:33.948Z</time></trkpt><trkpt lat="45.0530376776783" lon="9.647684026584509"><ele>60.42857142857142</ele><time>2026-04-07T14:09:37.948Z</time></trkpt><trkpt lat="45.05300471402909" lon="9.647783624633142"><ele>60.28571428571428</ele><time>2026-04-07T14:09:41.948Z</time></trkpt><trkpt lat="45.05298191832924" lon="9.64787364692097"><ele>60.142857142857146</ele><time>2026-04-07T14:09:44.948Z</time></trkpt><trkpt lat="45.05293180835126" lon="9.647944583049153"><ele>60.0</ele><time>2026-04-07T14:09:48.948Z</time></trkpt><trkpt lat="45.05286234112625" lon="9.647941937392977"><ele>60.0</ele><time>2026-04-07T14:09:51.948Z</time></trkpt><trkpt lat="45.05279795754947" lon="9.647934769658388"><ele>60.0</ele><time>2026-04-07T14:09:54.948Z</time></trkpt><trkpt lat="45.052710312376966" lon="9.647925469296233"><ele>60.0</ele><time>2026-04-07T14:09:58.948Z</time></trkpt><trkpt lat="45.05263753763537" lon="9.647917349102276"><ele>60.0</ele><time>2026-04-07T14:10:01.948Z</time></trkpt></trkseg></trk></gpx>